<?xml version="1.0" encoding="UTF-8" standalone="no" ?>
<gpx xmlns="http://www.topografix.com/GPX/1/1" xmlns:xsi="http://www.w3.org/2001/XMLSchema-instance" xsi:schemaLocation="http://www.topografix.com/GPX/1/1 http://www.topografix.com/GPX/1/1/gpx.xsd" version="1.1" creator="VisuGPX - https://www.visugpx.com">
  <metadata>
    <name>St samson</name>
  </metadata>
  <trk>
    <name><![CDATA[St samson2]]></name>
    <trkseg>
      <trkpt lat="48.45742" lon="-2.0484">
        <ele>148.28851</ele>
        <time>2019-09-11T13:39:44Z</time>
      </trkpt>
      <trkpt lat="48.45743" lon="-2.04836">
        <ele>152.09993</ele>
        <time>2019-09-11T13:39:45Z</time>
      </trkpt>
      <trkpt lat="48.45742" lon="-2.04832">
        <ele>147.9215</ele>
        <time>2019-09-11T13:39:46Z</time>
      </trkpt>
      <trkpt lat="48.45742" lon="-2.04828">
        <ele>145.21638</ele>
        <time>2019-09-11T13:39:47Z</time>
      </trkpt>
      <trkpt lat="48.45743" lon="-2.04824">
        <ele>144.11298</ele>
        <time>2019-09-11T13:39:48Z</time>
      </trkpt>
      <trkpt lat="48.45743" lon="-2.04821">
        <ele>141.06099</ele>
        <time>2019-09-11T13:39:49Z</time>
      </trkpt>
      <trkpt lat="48.45742" lon="-2.04817">
        <ele>138.27419</ele>
        <time>2019-09-11T13:39:50Z</time>
      </trkpt>
      <trkpt lat="48.45742" lon="-2.04814">
        <ele>136.16571</ele>
        <time>2019-09-11T13:39:51Z</time>
      </trkpt>
      <trkpt lat="48.45742" lon="-2.0481">
        <ele>134.88332</ele>
        <time>2019-09-11T13:39:52Z</time>
      </trkpt>
      <trkpt lat="48.45742" lon="-2.04807">
        <ele>133.91092</ele>
        <time>2019-09-11T13:39:53Z</time>
      </trkpt>
      <trkpt lat="48.45741" lon="-2.04803">
        <ele>131.71873</ele>
        <time>2019-09-11T13:39:54Z</time>
      </trkpt>
      <trkpt lat="48.45741" lon="-2.04799">
        <ele>130.76675</ele>
        <time>2019-09-11T13:39:55Z</time>
      </trkpt>
      <trkpt lat="48.45742" lon="-2.04795">
        <ele>130.19867</ele>
        <time>2019-09-11T13:39:56Z</time>
      </trkpt>
      <trkpt lat="48.45742" lon="-2.0479">
        <ele>130.27376</ele>
        <time>2019-09-11T13:39:57Z</time>
      </trkpt>
      <trkpt lat="48.45743" lon="-2.04786">
        <ele>130.5167</ele>
        <time>2019-09-11T13:39:58Z</time>
      </trkpt>
      <trkpt lat="48.45745" lon="-2.04782">
        <ele>131.3715</ele>
        <time>2019-09-11T13:39:59Z</time>
      </trkpt>
      <trkpt lat="48.45747" lon="-2.04779">
        <ele>131.87459</ele>
        <time>2019-09-11T13:40:00Z</time>
      </trkpt>
      <trkpt lat="48.45751" lon="-2.04776">
        <ele>132.77966</ele>
        <time>2019-09-11T13:40:01Z</time>
      </trkpt>
      <trkpt lat="48.45756" lon="-2.04776">
        <ele>133.79951</ele>
        <time>2019-09-11T13:40:02Z</time>
      </trkpt>
      <trkpt lat="48.45762" lon="-2.04775">
        <ele>135.03682</ele>
        <time>2019-09-11T13:40:03Z</time>
      </trkpt>
      <trkpt lat="48.45768" lon="-2.04775">
        <ele>135.90285</ele>
        <time>2019-09-11T13:40:04Z</time>
      </trkpt>
      <trkpt lat="48.45774" lon="-2.04776">
        <ele>136.54144</ele>
        <time>2019-09-11T13:40:05Z</time>
      </trkpt>
      <trkpt lat="48.4578" lon="-2.04778">
        <ele>136.8446</ele>
        <time>2019-09-11T13:40:06Z</time>
      </trkpt>
      <trkpt lat="48.45787" lon="-2.0478">
        <ele>137.06487</ele>
        <time>2019-09-11T13:40:07Z</time>
      </trkpt>
      <trkpt lat="48.45793" lon="-2.04781">
        <ele>137.36266</ele>
        <time>2019-09-11T13:40:08Z</time>
      </trkpt>
      <trkpt lat="48.45799" lon="-2.04782">
        <ele>136.96199</ele>
        <time>2019-09-11T13:40:09Z</time>
      </trkpt>
      <trkpt lat="48.45804" lon="-2.04782">
        <ele>137.06651</ele>
        <time>2019-09-11T13:40:10Z</time>
      </trkpt>
      <trkpt lat="48.45809" lon="-2.04781">
        <ele>137.16615</ele>
        <time>2019-09-11T13:40:11Z</time>
      </trkpt>
      <trkpt lat="48.45813" lon="-2.04781">
        <ele>137.4464</ele>
        <time>2019-09-11T13:40:12Z</time>
      </trkpt>
      <trkpt lat="48.45816" lon="-2.04781">
        <ele>137.78656</ele>
        <time>2019-09-11T13:40:13Z</time>
      </trkpt>
      <trkpt lat="48.4582" lon="-2.04781">
        <ele>138.09883</ele>
        <time>2019-09-11T13:40:14Z</time>
      </trkpt>
      <trkpt lat="48.45822" lon="-2.0478">
        <ele>137.95877</ele>
        <time>2019-09-11T13:40:15Z</time>
      </trkpt>
      <trkpt lat="48.45824" lon="-2.04779">
        <ele>137.25058</ele>
        <time>2019-09-11T13:40:16Z</time>
      </trkpt>
      <trkpt lat="48.45826" lon="-2.04775">
        <ele>136.48637</ele>
        <time>2019-09-11T13:40:17Z</time>
      </trkpt>
      <trkpt lat="48.45827" lon="-2.0477">
        <ele>135.9593</ele>
        <time>2019-09-11T13:40:18Z</time>
      </trkpt>
      <trkpt lat="48.45828" lon="-2.04764">
        <ele>135.65651</ele>
        <time>2019-09-11T13:40:19Z</time>
      </trkpt>
      <trkpt lat="48.45828" lon="-2.04757">
        <ele>133.2969</ele>
        <time>2019-09-11T13:40:20Z</time>
      </trkpt>
      <trkpt lat="48.45827" lon="-2.0475">
        <ele>131.75641</ele>
        <time>2019-09-11T13:40:21Z</time>
      </trkpt>
      <trkpt lat="48.45827" lon="-2.04744">
        <ele>131.33614</ele>
        <time>2019-09-11T13:40:22Z</time>
      </trkpt>
      <trkpt lat="48.45827" lon="-2.04737">
        <ele>131.49232</ele>
        <time>2019-09-11T13:40:23Z</time>
      </trkpt>
      <trkpt lat="48.45826" lon="-2.04731">
        <ele>132.21611</ele>
        <time>2019-09-11T13:40:24Z</time>
      </trkpt>
      <trkpt lat="48.45827" lon="-2.04724">
        <ele>132.97574</ele>
        <time>2019-09-11T13:40:25Z</time>
      </trkpt>
      <trkpt lat="48.45827" lon="-2.04718">
        <ele>133.83615</ele>
        <time>2019-09-11T13:40:26Z</time>
      </trkpt>
      <trkpt lat="48.45827" lon="-2.04711">
        <ele>134.55542</ele>
        <time>2019-09-11T13:40:27Z</time>
      </trkpt>
      <trkpt lat="48.45827" lon="-2.04705">
        <ele>134.74097</ele>
        <time>2019-09-11T13:40:28Z</time>
      </trkpt>
      <trkpt lat="48.45827" lon="-2.04698">
        <ele>134.77844</ele>
        <time>2019-09-11T13:40:29Z</time>
      </trkpt>
      <trkpt lat="48.45826" lon="-2.04692">
        <ele>134.1635</ele>
        <time>2019-09-11T13:40:30Z</time>
      </trkpt>
      <trkpt lat="48.45826" lon="-2.04685">
        <ele>133.86623</ele>
        <time>2019-09-11T13:40:31Z</time>
      </trkpt>
      <trkpt lat="48.45825" lon="-2.04679">
        <ele>133.85176</ele>
        <time>2019-09-11T13:40:32Z</time>
      </trkpt>
      <trkpt lat="48.45825" lon="-2.04672">
        <ele>134.49272</ele>
        <time>2019-09-11T13:40:33Z</time>
      </trkpt>
      <trkpt lat="48.45826" lon="-2.04665">
        <ele>134.78046</ele>
        <time>2019-09-11T13:40:34Z</time>
      </trkpt>
      <trkpt lat="48.45826" lon="-2.04658">
        <ele>134.94165</ele>
        <time>2019-09-11T13:40:35Z</time>
      </trkpt>
      <trkpt lat="48.45825" lon="-2.0465">
        <ele>135.0881</ele>
        <time>2019-09-11T13:40:36Z</time>
      </trkpt>
      <trkpt lat="48.45824" lon="-2.04643">
        <ele>135.7699</ele>
        <time>2019-09-11T13:40:37Z</time>
      </trkpt>
      <trkpt lat="48.45823" lon="-2.04636">
        <ele>135.61801</ele>
        <time>2019-09-11T13:40:38Z</time>
      </trkpt>
      <trkpt lat="48.45823" lon="-2.04629">
        <ele>136.09335</ele>
        <time>2019-09-11T13:40:39Z</time>
      </trkpt>
      <trkpt lat="48.45822" lon="-2.04622">
        <ele>136.2731</ele>
        <time>2019-09-11T13:40:40Z</time>
      </trkpt>
      <trkpt lat="48.45821" lon="-2.04615">
        <ele>136.93237</ele>
        <time>2019-09-11T13:40:41Z</time>
      </trkpt>
      <trkpt lat="48.45821" lon="-2.04606">
        <ele>137.82413</ele>
        <time>2019-09-11T13:40:42Z</time>
      </trkpt>
      <trkpt lat="48.45821" lon="-2.04599">
        <ele>137.72672</ele>
        <time>2019-09-11T13:40:43Z</time>
      </trkpt>
      <trkpt lat="48.45821" lon="-2.04591">
        <ele>137.67606</ele>
        <time>2019-09-11T13:40:44Z</time>
      </trkpt>
      <trkpt lat="48.45821" lon="-2.04584">
        <ele>137.67046</ele>
        <time>2019-09-11T13:40:45Z</time>
      </trkpt>
      <trkpt lat="48.4582" lon="-2.04576">
        <ele>137.59825</ele>
        <time>2019-09-11T13:40:46Z</time>
      </trkpt>
      <trkpt lat="48.4582" lon="-2.04569">
        <ele>137.78969</ele>
        <time>2019-09-11T13:40:47Z</time>
      </trkpt>
      <trkpt lat="48.4582" lon="-2.0456">
        <ele>137.81825</ele>
        <time>2019-09-11T13:40:48Z</time>
      </trkpt>
      <trkpt lat="48.45821" lon="-2.04552">
        <ele>137.71695</ele>
        <time>2019-09-11T13:40:49Z</time>
      </trkpt>
      <trkpt lat="48.45821" lon="-2.04545">
        <ele>137.95628</ele>
        <time>2019-09-11T13:40:50Z</time>
      </trkpt>
      <trkpt lat="48.4582" lon="-2.04538">
        <ele>138.40172</ele>
        <time>2019-09-11T13:40:51Z</time>
      </trkpt>
      <trkpt lat="48.4582" lon="-2.0453">
        <ele>138.63977</ele>
        <time>2019-09-11T13:40:52Z</time>
      </trkpt>
      <trkpt lat="48.4582" lon="-2.04522">
        <ele>139.13055</ele>
        <time>2019-09-11T13:40:53Z</time>
      </trkpt>
      <trkpt lat="48.4582" lon="-2.04515">
        <ele>139.38393</ele>
        <time>2019-09-11T13:40:54Z</time>
      </trkpt>
      <trkpt lat="48.45819" lon="-2.04508">
        <ele>139.26805</ele>
        <time>2019-09-11T13:40:55Z</time>
      </trkpt>
      <trkpt lat="48.45818" lon="-2.04501">
        <ele>139.35286</ele>
        <time>2019-09-11T13:40:56Z</time>
      </trkpt>
      <trkpt lat="48.45816" lon="-2.04494">
        <ele>139.51877</ele>
        <time>2019-09-11T13:40:57Z</time>
      </trkpt>
      <trkpt lat="48.45815" lon="-2.04487">
        <ele>139.6564</ele>
        <time>2019-09-11T13:40:58Z</time>
      </trkpt>
      <trkpt lat="48.45813" lon="-2.04481">
        <ele>139.5231</ele>
        <time>2019-09-11T13:40:59Z</time>
      </trkpt>
      <trkpt lat="48.45811" lon="-2.04475">
        <ele>139.3329</ele>
        <time>2019-09-11T13:41:00Z</time>
      </trkpt>
      <trkpt lat="48.45809" lon="-2.04468">
        <ele>139.82101</ele>
        <time>2019-09-11T13:41:01Z</time>
      </trkpt>
      <trkpt lat="48.45808" lon="-2.04462">
        <ele>139.85947</ele>
        <time>2019-09-11T13:41:02Z</time>
      </trkpt>
      <trkpt lat="48.45808" lon="-2.04456">
        <ele>139.89357</ele>
        <time>2019-09-11T13:41:03Z</time>
      </trkpt>
      <trkpt lat="48.45811" lon="-2.0445">
        <ele>139.86362</ele>
        <time>2019-09-11T13:41:04Z</time>
      </trkpt>
      <trkpt lat="48.45815" lon="-2.04445">
        <ele>139.97685</ele>
        <time>2019-09-11T13:41:05Z</time>
      </trkpt>
      <trkpt lat="48.4582" lon="-2.04443">
        <ele>140.22812</ele>
        <time>2019-09-11T13:41:06Z</time>
      </trkpt>
      <trkpt lat="48.45825" lon="-2.04444">
        <ele>140.3667</ele>
        <time>2019-09-11T13:41:07Z</time>
      </trkpt>
      <trkpt lat="48.45831" lon="-2.04446">
        <ele>139.6922</ele>
        <time>2019-09-11T13:41:08Z</time>
      </trkpt>
      <trkpt lat="48.45836" lon="-2.04448">
        <ele>139.64397</ele>
        <time>2019-09-11T13:41:09Z</time>
      </trkpt>
      <trkpt lat="48.4584" lon="-2.0445">
        <ele>139.78708</ele>
        <time>2019-09-11T13:41:10Z</time>
      </trkpt>
      <trkpt lat="48.45844" lon="-2.0445">
        <ele>139.82756</ele>
        <time>2019-09-11T13:41:11Z</time>
      </trkpt>
      <trkpt lat="48.45847" lon="-2.0445">
        <ele>139.88615</ele>
        <time>2019-09-11T13:41:12Z</time>
      </trkpt>
      <trkpt lat="48.45851" lon="-2.04446">
        <ele>139.81953</ele>
        <time>2019-09-11T13:41:13Z</time>
      </trkpt>
      <trkpt lat="48.45855" lon="-2.04441">
        <ele>139.66632</ele>
        <time>2019-09-11T13:41:14Z</time>
      </trkpt>
      <trkpt lat="48.45858" lon="-2.04435">
        <ele>138.71938</ele>
        <time>2019-09-11T13:41:15Z</time>
      </trkpt>
      <trkpt lat="48.45861" lon="-2.04428">
        <ele>138.13486</ele>
        <time>2019-09-11T13:41:16Z</time>
      </trkpt>
      <trkpt lat="48.45864" lon="-2.04422">
        <ele>137.56425</ele>
        <time>2019-09-11T13:41:17Z</time>
      </trkpt>
      <trkpt lat="48.45867" lon="-2.04415">
        <ele>137.45064</ele>
        <time>2019-09-11T13:41:18Z</time>
      </trkpt>
      <trkpt lat="48.4587" lon="-2.04408">
        <ele>137.29474</ele>
        <time>2019-09-11T13:41:19Z</time>
      </trkpt>
      <trkpt lat="48.45873" lon="-2.04401">
        <ele>137.02138</ele>
        <time>2019-09-11T13:41:20Z</time>
      </trkpt>
      <trkpt lat="48.45875" lon="-2.04393">
        <ele>136.56332</ele>
        <time>2019-09-11T13:41:21Z</time>
      </trkpt>
      <trkpt lat="48.45878" lon="-2.04387">
        <ele>136.49687</ele>
        <time>2019-09-11T13:41:22Z</time>
      </trkpt>
      <trkpt lat="48.4588" lon="-2.04379">
        <ele>136.50435</ele>
        <time>2019-09-11T13:41:23Z</time>
      </trkpt>
      <trkpt lat="48.45883" lon="-2.04372">
        <ele>136.41528</ele>
        <time>2019-09-11T13:41:24Z</time>
      </trkpt>
      <trkpt lat="48.45886" lon="-2.04365">
        <ele>136.33182</ele>
        <time>2019-09-11T13:41:25Z</time>
      </trkpt>
      <trkpt lat="48.45889" lon="-2.04357">
        <ele>136.29593</ele>
        <time>2019-09-11T13:41:26Z</time>
      </trkpt>
      <trkpt lat="48.45892" lon="-2.0435">
        <ele>135.99756</ele>
        <time>2019-09-11T13:41:27Z</time>
      </trkpt>
      <trkpt lat="48.45895" lon="-2.04343">
        <ele>135.83095</ele>
        <time>2019-09-11T13:41:28Z</time>
      </trkpt>
      <trkpt lat="48.45898" lon="-2.04336">
        <ele>135.37636</ele>
        <time>2019-09-11T13:41:29Z</time>
      </trkpt>
      <trkpt lat="48.45901" lon="-2.04329">
        <ele>135.57501</ele>
        <time>2019-09-11T13:41:30Z</time>
      </trkpt>
      <trkpt lat="48.45903" lon="-2.0432">
        <ele>135.45564</ele>
        <time>2019-09-11T13:41:31Z</time>
      </trkpt>
      <trkpt lat="48.45905" lon="-2.04311">
        <ele>135.15688</ele>
        <time>2019-09-11T13:41:32Z</time>
      </trkpt>
      <trkpt lat="48.45904" lon="-2.04303">
        <ele>134.67308</ele>
        <time>2019-09-11T13:41:33Z</time>
      </trkpt>
      <trkpt lat="48.45902" lon="-2.04294">
        <ele>134.17485</ele>
        <time>2019-09-11T13:41:34Z</time>
      </trkpt>
      <trkpt lat="48.45901" lon="-2.04286">
        <ele>133.72147</ele>
        <time>2019-09-11T13:41:35Z</time>
      </trkpt>
      <trkpt lat="48.45901" lon="-2.04278">
        <ele>133.37057</ele>
        <time>2019-09-11T13:41:36Z</time>
      </trkpt>
      <trkpt lat="48.45901" lon="-2.04271">
        <ele>132.93369</ele>
        <time>2019-09-11T13:41:37Z</time>
      </trkpt>
      <trkpt lat="48.45901" lon="-2.04264">
        <ele>132.6109</ele>
        <time>2019-09-11T13:41:38Z</time>
      </trkpt>
      <trkpt lat="48.45901" lon="-2.04258">
        <ele>132.43617</ele>
        <time>2019-09-11T13:41:39Z</time>
      </trkpt>
      <trkpt lat="48.45901" lon="-2.04252">
        <ele>132.2753</ele>
        <time>2019-09-11T13:41:40Z</time>
      </trkpt>
      <trkpt lat="48.45901" lon="-2.04246">
        <ele>132.09874</ele>
        <time>2019-09-11T13:41:41Z</time>
      </trkpt>
      <trkpt lat="48.459" lon="-2.0424">
        <ele>131.76105</ele>
        <time>2019-09-11T13:41:42Z</time>
      </trkpt>
      <trkpt lat="48.459" lon="-2.04235">
        <ele>131.70844</ele>
        <time>2019-09-11T13:41:43Z</time>
      </trkpt>
      <trkpt lat="48.459" lon="-2.04231">
        <ele>131.78616</ele>
        <time>2019-09-11T13:41:44Z</time>
      </trkpt>
      <trkpt lat="48.45901" lon="-2.04229">
        <ele>131.61307</ele>
        <time>2019-09-11T13:41:45Z</time>
      </trkpt>
      <trkpt lat="48.45902" lon="-2.04228">
        <ele>131.76027</ele>
        <time>2019-09-11T13:41:46Z</time>
      </trkpt>
      <trkpt lat="48.45903" lon="-2.04227">
        <ele>131.76363</ele>
        <time>2019-09-11T13:41:47Z</time>
      </trkpt>
      <trkpt lat="48.45904" lon="-2.04226">
        <ele>131.97955</ele>
        <time>2019-09-11T13:41:48Z</time>
      </trkpt>
      <trkpt lat="48.45905" lon="-2.04225">
        <ele>132.03056</ele>
        <time>2019-09-11T13:41:49Z</time>
      </trkpt>
      <trkpt lat="48.45905" lon="-2.04222">
        <ele>132.29004</ele>
        <time>2019-09-11T13:41:50Z</time>
      </trkpt>
      <trkpt lat="48.45906" lon="-2.0422">
        <ele>132.25214</ele>
        <time>2019-09-11T13:41:51Z</time>
      </trkpt>
      <trkpt lat="48.45907" lon="-2.04218">
        <ele>132.24397</ele>
        <time>2019-09-11T13:41:52Z</time>
      </trkpt>
      <trkpt lat="48.45909" lon="-2.04215">
        <ele>132.52406</ele>
        <time>2019-09-11T13:41:53Z</time>
      </trkpt>
      <trkpt lat="48.45911" lon="-2.04211">
        <ele>133.07121</ele>
        <time>2019-09-11T13:41:54Z</time>
      </trkpt>
      <trkpt lat="48.45912" lon="-2.04207">
        <ele>132.83545</ele>
        <time>2019-09-11T13:41:55Z</time>
      </trkpt>
      <trkpt lat="48.45912" lon="-2.04201">
        <ele>132.72012</ele>
        <time>2019-09-11T13:41:56Z</time>
      </trkpt>
      <trkpt lat="48.45911" lon="-2.04195">
        <ele>132.52393</ele>
        <time>2019-09-11T13:41:57Z</time>
      </trkpt>
      <trkpt lat="48.45911" lon="-2.04188">
        <ele>132.88338</ele>
        <time>2019-09-11T13:41:58Z</time>
      </trkpt>
      <trkpt lat="48.45912" lon="-2.0418">
        <ele>133.03989</ele>
        <time>2019-09-11T13:41:59Z</time>
      </trkpt>
      <trkpt lat="48.45913" lon="-2.04171">
        <ele>133.31204</ele>
        <time>2019-09-11T13:42:00Z</time>
      </trkpt>
      <trkpt lat="48.45913" lon="-2.04162">
        <ele>133.25818</ele>
        <time>2019-09-11T13:42:01Z</time>
      </trkpt>
      <trkpt lat="48.45913" lon="-2.04153">
        <ele>133.15096</ele>
        <time>2019-09-11T13:42:02Z</time>
      </trkpt>
      <trkpt lat="48.45913" lon="-2.04145">
        <ele>133.0017</ele>
        <time>2019-09-11T13:42:03Z</time>
      </trkpt>
      <trkpt lat="48.45913" lon="-2.04137">
        <ele>132.69579</ele>
        <time>2019-09-11T13:42:04Z</time>
      </trkpt>
      <trkpt lat="48.45913" lon="-2.04129">
        <ele>132.64467</ele>
        <time>2019-09-11T13:42:05Z</time>
      </trkpt>
      <trkpt lat="48.45913" lon="-2.04121">
        <ele>133.27519</ele>
        <time>2019-09-11T13:42:06Z</time>
      </trkpt>
      <trkpt lat="48.45914" lon="-2.04113">
        <ele>133.37175</ele>
        <time>2019-09-11T13:42:07Z</time>
      </trkpt>
      <trkpt lat="48.45915" lon="-2.04105">
        <ele>132.39616</ele>
        <time>2019-09-11T13:42:08Z</time>
      </trkpt>
      <trkpt lat="48.45916" lon="-2.04096">
        <ele>131.23349</ele>
        <time>2019-09-11T13:42:09Z</time>
      </trkpt>
      <trkpt lat="48.45917" lon="-2.04088">
        <ele>131.43434</ele>
        <time>2019-09-11T13:42:10Z</time>
      </trkpt>
      <trkpt lat="48.45919" lon="-2.04081">
        <ele>131.47945</ele>
        <time>2019-09-11T13:42:11Z</time>
      </trkpt>
      <trkpt lat="48.45922" lon="-2.04075">
        <ele>131.4812</ele>
        <time>2019-09-11T13:42:12Z</time>
      </trkpt>
      <trkpt lat="48.45926" lon="-2.0407">
        <ele>131.1206</ele>
        <time>2019-09-11T13:42:13Z</time>
      </trkpt>
      <trkpt lat="48.4593" lon="-2.04065">
        <ele>130.64183</ele>
        <time>2019-09-11T13:42:14Z</time>
      </trkpt>
      <trkpt lat="48.45934" lon="-2.04058">
        <ele>129.4945</ele>
        <time>2019-09-11T13:42:15Z</time>
      </trkpt>
      <trkpt lat="48.45938" lon="-2.04051">
        <ele>128.55469</ele>
        <time>2019-09-11T13:42:16Z</time>
      </trkpt>
      <trkpt lat="48.45941" lon="-2.04043">
        <ele>127.60041</ele>
        <time>2019-09-11T13:42:17Z</time>
      </trkpt>
      <trkpt lat="48.45944" lon="-2.04037">
        <ele>126.817345</ele>
        <time>2019-09-11T13:42:18Z</time>
      </trkpt>
      <trkpt lat="48.45948" lon="-2.0403">
        <ele>126.00431</ele>
        <time>2019-09-11T13:42:19Z</time>
      </trkpt>
      <trkpt lat="48.45952" lon="-2.04024">
        <ele>125.55579</ele>
        <time>2019-09-11T13:42:20Z</time>
      </trkpt>
      <trkpt lat="48.45955" lon="-2.04018">
        <ele>125.51916</ele>
        <time>2019-09-11T13:42:21Z</time>
      </trkpt>
      <trkpt lat="48.4596" lon="-2.04012">
        <ele>125.560135</ele>
        <time>2019-09-11T13:42:22Z</time>
      </trkpt>
      <trkpt lat="48.45963" lon="-2.04006">
        <ele>125.16225</ele>
        <time>2019-09-11T13:42:23Z</time>
      </trkpt>
      <trkpt lat="48.45968" lon="-2.04">
        <ele>124.87422</ele>
        <time>2019-09-11T13:42:24Z</time>
      </trkpt>
      <trkpt lat="48.45972" lon="-2.03995">
        <ele>125.12677</ele>
        <time>2019-09-11T13:42:25Z</time>
      </trkpt>
      <trkpt lat="48.45976" lon="-2.0399">
        <ele>125.18853</ele>
        <time>2019-09-11T13:42:26Z</time>
      </trkpt>
      <trkpt lat="48.45981" lon="-2.03984">
        <ele>125.10057</ele>
        <time>2019-09-11T13:42:27Z</time>
      </trkpt>
      <trkpt lat="48.45985" lon="-2.03978">
        <ele>125.21881</ele>
        <time>2019-09-11T13:42:28Z</time>
      </trkpt>
      <trkpt lat="48.45989" lon="-2.03973">
        <ele>125.29447</ele>
        <time>2019-09-11T13:42:29Z</time>
      </trkpt>
      <trkpt lat="48.45993" lon="-2.03967">
        <ele>125.585915</ele>
        <time>2019-09-11T13:42:30Z</time>
      </trkpt>
      <trkpt lat="48.45997" lon="-2.0396">
        <ele>125.60551</ele>
        <time>2019-09-11T13:42:31Z</time>
      </trkpt>
      <trkpt lat="48.46002" lon="-2.03955">
        <ele>125.416756</ele>
        <time>2019-09-11T13:42:32Z</time>
      </trkpt>
      <trkpt lat="48.46007" lon="-2.03949">
        <ele>125.23055</ele>
        <time>2019-09-11T13:42:33Z</time>
      </trkpt>
      <trkpt lat="48.46011" lon="-2.03943">
        <ele>124.94861</ele>
        <time>2019-09-11T13:42:34Z</time>
      </trkpt>
      <trkpt lat="48.46016" lon="-2.03937">
        <ele>124.74242</ele>
        <time>2019-09-11T13:42:35Z</time>
      </trkpt>
      <trkpt lat="48.4602" lon="-2.03931">
        <ele>124.528275</ele>
        <time>2019-09-11T13:42:36Z</time>
      </trkpt>
      <trkpt lat="48.46025" lon="-2.03926">
        <ele>123.92142</ele>
        <time>2019-09-11T13:42:37Z</time>
      </trkpt>
      <trkpt lat="48.4603" lon="-2.0392">
        <ele>123.32854</ele>
        <time>2019-09-11T13:42:38Z</time>
      </trkpt>
      <trkpt lat="48.46035" lon="-2.03915">
        <ele>123.11288</ele>
        <time>2019-09-11T13:42:39Z</time>
      </trkpt>
      <trkpt lat="48.4604" lon="-2.03911">
        <ele>122.78235</ele>
        <time>2019-09-11T13:42:40Z</time>
      </trkpt>
      <trkpt lat="48.46045" lon="-2.03907">
        <ele>122.16892</ele>
        <time>2019-09-11T13:42:41Z</time>
      </trkpt>
      <trkpt lat="48.46051" lon="-2.03903">
        <ele>121.53532</ele>
        <time>2019-09-11T13:42:42Z</time>
      </trkpt>
      <trkpt lat="48.46056" lon="-2.039">
        <ele>121.39446</ele>
        <time>2019-09-11T13:42:43Z</time>
      </trkpt>
      <trkpt lat="48.46062" lon="-2.03896">
        <ele>121.531624</ele>
        <time>2019-09-11T13:42:44Z</time>
      </trkpt>
      <trkpt lat="48.46067" lon="-2.03893">
        <ele>121.71336</ele>
        <time>2019-09-11T13:42:45Z</time>
      </trkpt>
      <trkpt lat="48.46073" lon="-2.03891">
        <ele>121.80611</ele>
        <time>2019-09-11T13:42:46Z</time>
      </trkpt>
      <trkpt lat="48.46078" lon="-2.03888">
        <ele>121.61471</ele>
        <time>2019-09-11T13:42:47Z</time>
      </trkpt>
      <trkpt lat="48.46084" lon="-2.03885">
        <ele>121.11604</ele>
        <time>2019-09-11T13:42:48Z</time>
      </trkpt>
      <trkpt lat="48.46089" lon="-2.03883">
        <ele>120.65913</ele>
        <time>2019-09-11T13:42:49Z</time>
      </trkpt>
      <trkpt lat="48.46093" lon="-2.0388">
        <ele>120.48374</ele>
        <time>2019-09-11T13:42:50Z</time>
      </trkpt>
      <trkpt lat="48.46099" lon="-2.03877">
        <ele>120.27119</ele>
        <time>2019-09-11T13:42:51Z</time>
      </trkpt>
      <trkpt lat="48.46104" lon="-2.03874">
        <ele>119.43074</ele>
        <time>2019-09-11T13:42:52Z</time>
      </trkpt>
      <trkpt lat="48.46109" lon="-2.03871">
        <ele>119.23581</ele>
        <time>2019-09-11T13:42:53Z</time>
      </trkpt>
      <trkpt lat="48.46114" lon="-2.03868">
        <ele>118.667465</ele>
        <time>2019-09-11T13:42:54Z</time>
      </trkpt>
      <trkpt lat="48.46118" lon="-2.03865">
        <ele>118.256805</ele>
        <time>2019-09-11T13:42:55Z</time>
      </trkpt>
      <trkpt lat="48.46122" lon="-2.03862">
        <ele>118.11327</ele>
        <time>2019-09-11T13:42:56Z</time>
      </trkpt>
      <trkpt lat="48.46127" lon="-2.0386">
        <ele>117.946846</ele>
        <time>2019-09-11T13:42:57Z</time>
      </trkpt>
      <trkpt lat="48.46133" lon="-2.03858">
        <ele>117.90703</ele>
        <time>2019-09-11T13:42:58Z</time>
      </trkpt>
      <trkpt lat="48.46138" lon="-2.03854">
        <ele>117.75422</ele>
        <time>2019-09-11T13:42:59Z</time>
      </trkpt>
      <trkpt lat="48.46143" lon="-2.0385">
        <ele>117.69898</ele>
        <time>2019-09-11T13:43:00Z</time>
      </trkpt>
      <trkpt lat="48.46149" lon="-2.03847">
        <ele>117.5493</ele>
        <time>2019-09-11T13:43:01Z</time>
      </trkpt>
      <trkpt lat="48.46155" lon="-2.03845">
        <ele>117.65244</ele>
        <time>2019-09-11T13:43:02Z</time>
      </trkpt>
      <trkpt lat="48.46161" lon="-2.03842">
        <ele>117.54136</ele>
        <time>2019-09-11T13:43:03Z</time>
      </trkpt>
      <trkpt lat="48.46166" lon="-2.0384">
        <ele>117.68834</ele>
        <time>2019-09-11T13:43:04Z</time>
      </trkpt>
      <trkpt lat="48.46172" lon="-2.03837">
        <ele>117.82322</ele>
        <time>2019-09-11T13:43:05Z</time>
      </trkpt>
      <trkpt lat="48.46178" lon="-2.03835">
        <ele>118.40938</ele>
        <time>2019-09-11T13:43:06Z</time>
      </trkpt>
      <trkpt lat="48.46184" lon="-2.03833">
        <ele>118.39326</ele>
        <time>2019-09-11T13:43:07Z</time>
      </trkpt>
      <trkpt lat="48.4619" lon="-2.03832">
        <ele>118.43872</ele>
        <time>2019-09-11T13:43:08Z</time>
      </trkpt>
      <trkpt lat="48.46197" lon="-2.03831">
        <ele>118.289185</ele>
        <time>2019-09-11T13:43:09Z</time>
      </trkpt>
      <trkpt lat="48.46203" lon="-2.03829">
        <ele>117.57577</ele>
        <time>2019-09-11T13:43:10Z</time>
      </trkpt>
      <trkpt lat="48.46209" lon="-2.03829">
        <ele>117.31526</ele>
        <time>2019-09-11T13:43:11Z</time>
      </trkpt>
      <trkpt lat="48.46215" lon="-2.03827">
        <ele>117.235916</ele>
        <time>2019-09-11T13:43:12Z</time>
      </trkpt>
      <trkpt lat="48.4622" lon="-2.03823">
        <ele>117.502716</ele>
        <time>2019-09-11T13:43:13Z</time>
      </trkpt>
      <trkpt lat="48.46227" lon="-2.03821">
        <ele>117.15247</ele>
        <time>2019-09-11T13:43:14Z</time>
      </trkpt>
      <trkpt lat="48.46233" lon="-2.03819">
        <ele>117.29225</ele>
        <time>2019-09-11T13:43:15Z</time>
      </trkpt>
      <trkpt lat="48.4624" lon="-2.03817">
        <ele>117.797035</ele>
        <time>2019-09-11T13:43:16Z</time>
      </trkpt>
      <trkpt lat="48.46246" lon="-2.03815">
        <ele>117.87411</ele>
        <time>2019-09-11T13:43:17Z</time>
      </trkpt>
      <trkpt lat="48.46253" lon="-2.03812">
        <ele>118.20102</ele>
        <time>2019-09-11T13:43:18Z</time>
      </trkpt>
      <trkpt lat="48.46259" lon="-2.0381">
        <ele>118.169754</ele>
        <time>2019-09-11T13:43:19Z</time>
      </trkpt>
      <trkpt lat="48.46264" lon="-2.03808">
        <ele>118.14179</ele>
        <time>2019-09-11T13:43:20Z</time>
      </trkpt>
      <trkpt lat="48.4627" lon="-2.03806">
        <ele>117.97494</ele>
        <time>2019-09-11T13:43:21Z</time>
      </trkpt>
      <trkpt lat="48.46276" lon="-2.03803">
        <ele>117.482796</ele>
        <time>2019-09-11T13:43:22Z</time>
      </trkpt>
      <trkpt lat="48.46281" lon="-2.03801">
        <ele>117.08814</ele>
        <time>2019-09-11T13:43:23Z</time>
      </trkpt>
      <trkpt lat="48.46288" lon="-2.03799">
        <ele>117.20828</ele>
        <time>2019-09-11T13:43:24Z</time>
      </trkpt>
      <trkpt lat="48.46293" lon="-2.03797">
        <ele>117.15172</ele>
        <time>2019-09-11T13:43:25Z</time>
      </trkpt>
      <trkpt lat="48.46299" lon="-2.03795">
        <ele>117.483665</ele>
        <time>2019-09-11T13:43:26Z</time>
      </trkpt>
      <trkpt lat="48.46306" lon="-2.03793">
        <ele>118.423164</ele>
        <time>2019-09-11T13:43:27Z</time>
      </trkpt>
      <trkpt lat="48.46312" lon="-2.03791">
        <ele>119.11052</ele>
        <time>2019-09-11T13:43:28Z</time>
      </trkpt>
      <trkpt lat="48.46318" lon="-2.03789">
        <ele>119.60399</ele>
        <time>2019-09-11T13:43:29Z</time>
      </trkpt>
      <trkpt lat="48.46324" lon="-2.03788">
        <ele>119.70555</ele>
        <time>2019-09-11T13:43:30Z</time>
      </trkpt>
      <trkpt lat="48.4633" lon="-2.03787">
        <ele>119.63984</ele>
        <time>2019-09-11T13:43:31Z</time>
      </trkpt>
      <trkpt lat="48.46336" lon="-2.03785">
        <ele>119.632935</ele>
        <time>2019-09-11T13:43:32Z</time>
      </trkpt>
      <trkpt lat="48.46342" lon="-2.03783">
        <ele>119.640594</ele>
        <time>2019-09-11T13:43:33Z</time>
      </trkpt>
      <trkpt lat="48.46348" lon="-2.03781">
        <ele>119.689</ele>
        <time>2019-09-11T13:43:34Z</time>
      </trkpt>
      <trkpt lat="48.46354" lon="-2.0378">
        <ele>119.58542</ele>
        <time>2019-09-11T13:43:35Z</time>
      </trkpt>
      <trkpt lat="48.4636" lon="-2.03778">
        <ele>119.71783</ele>
        <time>2019-09-11T13:43:36Z</time>
      </trkpt>
      <trkpt lat="48.46366" lon="-2.03776">
        <ele>119.89483</ele>
        <time>2019-09-11T13:43:37Z</time>
      </trkpt>
      <trkpt lat="48.46372" lon="-2.03774">
        <ele>119.93339</ele>
        <time>2019-09-11T13:43:38Z</time>
      </trkpt>
      <trkpt lat="48.46377" lon="-2.03772">
        <ele>120.276924</ele>
        <time>2019-09-11T13:43:39Z</time>
      </trkpt>
      <trkpt lat="48.46383" lon="-2.0377">
        <ele>120.58809</ele>
        <time>2019-09-11T13:43:40Z</time>
      </trkpt>
      <trkpt lat="48.46389" lon="-2.03768">
        <ele>121.31681</ele>
        <time>2019-09-11T13:43:41Z</time>
      </trkpt>
      <trkpt lat="48.46394" lon="-2.03766">
        <ele>121.84455</ele>
        <time>2019-09-11T13:43:42Z</time>
      </trkpt>
      <trkpt lat="48.464" lon="-2.03765">
        <ele>122.415955</ele>
        <time>2019-09-11T13:43:43Z</time>
      </trkpt>
      <trkpt lat="48.46405" lon="-2.03764">
        <ele>123.01459</ele>
        <time>2019-09-11T13:43:44Z</time>
      </trkpt>
      <trkpt lat="48.46411" lon="-2.03763">
        <ele>123.546844</ele>
        <time>2019-09-11T13:43:45Z</time>
      </trkpt>
      <trkpt lat="48.46417" lon="-2.03761">
        <ele>123.81695</ele>
        <time>2019-09-11T13:43:46Z</time>
      </trkpt>
      <trkpt lat="48.46423" lon="-2.03758">
        <ele>123.37515</ele>
        <time>2019-09-11T13:43:47Z</time>
      </trkpt>
      <trkpt lat="48.46428" lon="-2.03755">
        <ele>122.90359</ele>
        <time>2019-09-11T13:43:48Z</time>
      </trkpt>
      <trkpt lat="48.46434" lon="-2.03749">
        <ele>123.01049</ele>
        <time>2019-09-11T13:43:49Z</time>
      </trkpt>
      <trkpt lat="48.46439" lon="-2.03743">
        <ele>123.19279</ele>
        <time>2019-09-11T13:43:50Z</time>
      </trkpt>
      <trkpt lat="48.46445" lon="-2.03737">
        <ele>123.46225</ele>
        <time>2019-09-11T13:43:51Z</time>
      </trkpt>
      <trkpt lat="48.46451" lon="-2.03732">
        <ele>123.64157</ele>
        <time>2019-09-11T13:43:52Z</time>
      </trkpt>
      <trkpt lat="48.46457" lon="-2.03729">
        <ele>123.87454</ele>
        <time>2019-09-11T13:43:53Z</time>
      </trkpt>
      <trkpt lat="48.46463" lon="-2.03728">
        <ele>124.0797</ele>
        <time>2019-09-11T13:43:54Z</time>
      </trkpt>
      <trkpt lat="48.4647" lon="-2.03726">
        <ele>124.49571</ele>
        <time>2019-09-11T13:43:55Z</time>
      </trkpt>
      <trkpt lat="48.46477" lon="-2.03723">
        <ele>125.00293</ele>
        <time>2019-09-11T13:43:56Z</time>
      </trkpt>
      <trkpt lat="48.46484" lon="-2.0372">
        <ele>125.31098</ele>
        <time>2019-09-11T13:43:57Z</time>
      </trkpt>
      <trkpt lat="48.46492" lon="-2.03717">
        <ele>125.60125</ele>
        <time>2019-09-11T13:43:58Z</time>
      </trkpt>
      <trkpt lat="48.465" lon="-2.03715">
        <ele>125.948944</ele>
        <time>2019-09-11T13:43:59Z</time>
      </trkpt>
      <trkpt lat="48.46509" lon="-2.03713">
        <ele>126.227615</ele>
        <time>2019-09-11T13:44:00Z</time>
      </trkpt>
      <trkpt lat="48.46516" lon="-2.03715">
        <ele>126.296036</ele>
        <time>2019-09-11T13:44:01Z</time>
      </trkpt>
      <trkpt lat="48.46524" lon="-2.03715">
        <ele>125.95596</ele>
        <time>2019-09-11T13:44:02Z</time>
      </trkpt>
      <trkpt lat="48.46532" lon="-2.03715">
        <ele>125.92584</ele>
        <time>2019-09-11T13:44:03Z</time>
      </trkpt>
      <trkpt lat="48.46539" lon="-2.03714">
        <ele>125.78712</ele>
        <time>2019-09-11T13:44:04Z</time>
      </trkpt>
      <trkpt lat="48.46547" lon="-2.03714">
        <ele>126.407974</ele>
        <time>2019-09-11T13:44:05Z</time>
      </trkpt>
      <trkpt lat="48.46554" lon="-2.03713">
        <ele>126.798996</ele>
        <time>2019-09-11T13:44:06Z</time>
      </trkpt>
      <trkpt lat="48.4656" lon="-2.0371">
        <ele>126.765755</ele>
        <time>2019-09-11T13:44:07Z</time>
      </trkpt>
      <trkpt lat="48.46564" lon="-2.03704">
        <ele>126.41063</ele>
        <time>2019-09-11T13:44:08Z</time>
      </trkpt>
      <trkpt lat="48.46568" lon="-2.03695">
        <ele>126.00932</ele>
        <time>2019-09-11T13:44:09Z</time>
      </trkpt>
      <trkpt lat="48.46572" lon="-2.03686">
        <ele>125.21835</ele>
        <time>2019-09-11T13:44:10Z</time>
      </trkpt>
      <trkpt lat="48.46575" lon="-2.03676">
        <ele>124.37679</ele>
        <time>2019-09-11T13:44:11Z</time>
      </trkpt>
      <trkpt lat="48.46577" lon="-2.03664">
        <ele>123.607475</ele>
        <time>2019-09-11T13:44:12Z</time>
      </trkpt>
      <trkpt lat="48.46579" lon="-2.03654">
        <ele>122.75775</ele>
        <time>2019-09-11T13:44:13Z</time>
      </trkpt>
      <trkpt lat="48.46583" lon="-2.03645">
        <ele>121.87882</ele>
        <time>2019-09-11T13:44:14Z</time>
      </trkpt>
      <trkpt lat="48.46589" lon="-2.03639">
        <ele>120.84822</ele>
        <time>2019-09-11T13:44:15Z</time>
      </trkpt>
      <trkpt lat="48.46595" lon="-2.03637">
        <ele>119.97303</ele>
        <time>2019-09-11T13:44:16Z</time>
      </trkpt>
      <trkpt lat="48.46601" lon="-2.0364">
        <ele>119.39974</ele>
        <time>2019-09-11T13:44:17Z</time>
      </trkpt>
      <trkpt lat="48.46606" lon="-2.03646">
        <ele>118.325226</ele>
        <time>2019-09-11T13:44:18Z</time>
      </trkpt>
      <trkpt lat="48.46612" lon="-2.03652">
        <ele>117.66448</ele>
        <time>2019-09-11T13:44:19Z</time>
      </trkpt>
      <trkpt lat="48.46617" lon="-2.03654">
        <ele>117.14536</ele>
        <time>2019-09-11T13:44:20Z</time>
      </trkpt>
      <trkpt lat="48.46622" lon="-2.03655">
        <ele>116.92746</ele>
        <time>2019-09-11T13:44:21Z</time>
      </trkpt>
      <trkpt lat="48.46628" lon="-2.03656">
        <ele>116.96222</ele>
        <time>2019-09-11T13:44:22Z</time>
      </trkpt>
      <trkpt lat="48.46634" lon="-2.03658">
        <ele>116.720856</ele>
        <time>2019-09-11T13:44:23Z</time>
      </trkpt>
      <trkpt lat="48.4664" lon="-2.0366">
        <ele>116.57012</ele>
        <time>2019-09-11T13:44:24Z</time>
      </trkpt>
      <trkpt lat="48.46645" lon="-2.0366">
        <ele>116.06851</ele>
        <time>2019-09-11T13:44:25Z</time>
      </trkpt>
      <trkpt lat="48.46649" lon="-2.03659">
        <ele>115.29908</ele>
        <time>2019-09-11T13:44:26Z</time>
      </trkpt>
      <trkpt lat="48.46653" lon="-2.03655">
        <ele>114.84454</ele>
        <time>2019-09-11T13:44:27Z</time>
      </trkpt>
      <trkpt lat="48.46655" lon="-2.0365">
        <ele>114.604294</ele>
        <time>2019-09-11T13:44:28Z</time>
      </trkpt>
      <trkpt lat="48.46658" lon="-2.03648">
        <ele>114.49605</ele>
        <time>2019-09-11T13:44:29Z</time>
      </trkpt>
      <trkpt lat="48.46661" lon="-2.03648">
        <ele>114.51903</ele>
        <time>2019-09-11T13:44:30Z</time>
      </trkpt>
      <trkpt lat="48.46663" lon="-2.0365">
        <ele>114.356575</ele>
        <time>2019-09-11T13:44:31Z</time>
      </trkpt>
      <trkpt lat="48.46665" lon="-2.03652">
        <ele>114.02183</ele>
        <time>2019-09-11T13:44:32Z</time>
      </trkpt>
      <trkpt lat="48.46667" lon="-2.03654">
        <ele>113.52678</ele>
        <time>2019-09-11T13:44:33Z</time>
      </trkpt>
      <trkpt lat="48.46668" lon="-2.03655">
        <ele>113.11131</ele>
        <time>2019-09-11T13:44:34Z</time>
      </trkpt>
      <trkpt lat="48.46669" lon="-2.03653">
        <ele>112.93616</ele>
        <time>2019-09-11T13:44:35Z</time>
      </trkpt>
      <trkpt lat="48.4667" lon="-2.03649">
        <ele>112.68084</ele>
        <time>2019-09-11T13:44:36Z</time>
      </trkpt>
      <trkpt lat="48.4667" lon="-2.03646">
        <ele>112.32242</ele>
        <time>2019-09-11T13:44:37Z</time>
      </trkpt>
      <trkpt lat="48.46671" lon="-2.03644">
        <ele>111.81422</ele>
        <time>2019-09-11T13:44:38Z</time>
      </trkpt>
      <trkpt lat="48.46673" lon="-2.03644">
        <ele>111.33185</ele>
        <time>2019-09-11T13:44:39Z</time>
      </trkpt>
      <trkpt lat="48.46676" lon="-2.03646">
        <ele>110.648895</ele>
        <time>2019-09-11T13:44:40Z</time>
      </trkpt>
      <trkpt lat="48.46677" lon="-2.03651">
        <ele>110.157524</ele>
        <time>2019-09-11T13:44:41Z</time>
      </trkpt>
      <trkpt lat="48.46679" lon="-2.03654">
        <ele>109.7034</ele>
        <time>2019-09-11T13:44:42Z</time>
      </trkpt>
      <trkpt lat="48.46681" lon="-2.03656">
        <ele>109.17287</ele>
        <time>2019-09-11T13:44:43Z</time>
      </trkpt>
      <trkpt lat="48.46682" lon="-2.03656">
        <ele>108.38826</ele>
        <time>2019-09-11T13:44:44Z</time>
      </trkpt>
      <trkpt lat="48.46684" lon="-2.03653">
        <ele>108.047356</ele>
        <time>2019-09-11T13:44:45Z</time>
      </trkpt>
      <trkpt lat="48.46684" lon="-2.0365">
        <ele>107.62407</ele>
        <time>2019-09-11T13:44:46Z</time>
      </trkpt>
      <trkpt lat="48.46682" lon="-2.03646">
        <ele>107.00127</ele>
        <time>2019-09-11T13:44:47Z</time>
      </trkpt>
      <trkpt lat="48.46683" lon="-2.03643">
        <ele>106.39566</ele>
        <time>2019-09-11T13:44:48Z</time>
      </trkpt>
      <trkpt lat="48.46684" lon="-2.03642">
        <ele>105.8495</ele>
        <time>2019-09-11T13:44:49Z</time>
      </trkpt>
      <trkpt lat="48.46685" lon="-2.03642">
        <ele>105.45207</ele>
        <time>2019-09-11T13:44:50Z</time>
      </trkpt>
      <trkpt lat="48.46687" lon="-2.03645">
        <ele>105.21025</ele>
        <time>2019-09-11T13:44:51Z</time>
      </trkpt>
      <trkpt lat="48.46689" lon="-2.03648">
        <ele>105.11199</ele>
        <time>2019-09-11T13:44:52Z</time>
      </trkpt>
      <trkpt lat="48.4669" lon="-2.03651">
        <ele>104.97076</ele>
        <time>2019-09-11T13:44:53Z</time>
      </trkpt>
      <trkpt lat="48.46692" lon="-2.03654">
        <ele>104.88721</ele>
        <time>2019-09-11T13:44:54Z</time>
      </trkpt>
      <trkpt lat="48.46693" lon="-2.03657">
        <ele>104.66201</ele>
        <time>2019-09-11T13:44:55Z</time>
      </trkpt>
      <trkpt lat="48.46694" lon="-2.0366">
        <ele>104.36293</ele>
        <time>2019-09-11T13:44:56Z</time>
      </trkpt>
      <trkpt lat="48.46694" lon="-2.03663">
        <ele>104.12301</ele>
        <time>2019-09-11T13:44:57Z</time>
      </trkpt>
      <trkpt lat="48.46694" lon="-2.03667">
        <ele>103.91896</ele>
        <time>2019-09-11T13:44:58Z</time>
      </trkpt>
      <trkpt lat="48.46694" lon="-2.0367">
        <ele>103.75425</ele>
        <time>2019-09-11T13:44:59Z</time>
      </trkpt>
      <trkpt lat="48.46693" lon="-2.03674">
        <ele>103.57318</ele>
        <time>2019-09-11T13:45:00Z</time>
      </trkpt>
      <trkpt lat="48.46692" lon="-2.03678">
        <ele>103.52282</ele>
        <time>2019-09-11T13:45:01Z</time>
      </trkpt>
      <trkpt lat="48.46692" lon="-2.03681">
        <ele>103.31919</ele>
        <time>2019-09-11T13:45:02Z</time>
      </trkpt>
      <trkpt lat="48.46691" lon="-2.03683">
        <ele>103.058044</ele>
        <time>2019-09-11T13:45:03Z</time>
      </trkpt>
      <trkpt lat="48.4669" lon="-2.03686">
        <ele>102.725945</ele>
        <time>2019-09-11T13:45:04Z</time>
      </trkpt>
      <trkpt lat="48.46691" lon="-2.03687">
        <ele>102.60395</ele>
        <time>2019-09-11T13:45:06Z</time>
      </trkpt>
      <trkpt lat="48.46692" lon="-2.03686">
        <ele>102.44114</ele>
        <time>2019-09-11T13:45:07Z</time>
      </trkpt>
      <trkpt lat="48.46693" lon="-2.03686">
        <ele>102.26868</ele>
        <time>2019-09-11T13:45:08Z</time>
      </trkpt>
      <trkpt lat="48.46694" lon="-2.03686">
        <ele>102.4499</ele>
        <time>2019-09-11T13:45:15Z</time>
      </trkpt>
      <trkpt lat="48.46694" lon="-2.03685">
        <ele>102.50437</ele>
        <time>2019-09-11T13:45:16Z</time>
      </trkpt>
      <trkpt lat="48.46696" lon="-2.03684">
        <ele>102.41929</ele>
        <time>2019-09-11T13:45:17Z</time>
      </trkpt>
      <trkpt lat="48.46698" lon="-2.03681">
        <ele>102.066216</ele>
        <time>2019-09-11T13:45:18Z</time>
      </trkpt>
      <trkpt lat="48.467" lon="-2.0368">
        <ele>101.82836</ele>
        <time>2019-09-11T13:45:19Z</time>
      </trkpt>
      <trkpt lat="48.46701" lon="-2.03679">
        <ele>101.64061</ele>
        <time>2019-09-11T13:45:20Z</time>
      </trkpt>
      <trkpt lat="48.46701" lon="-2.03677">
        <ele>101.34213</ele>
        <time>2019-09-11T13:45:21Z</time>
      </trkpt>
      <trkpt lat="48.46702" lon="-2.03675">
        <ele>101.05538</ele>
        <time>2019-09-11T13:45:22Z</time>
      </trkpt>
      <trkpt lat="48.46703" lon="-2.03673">
        <ele>100.73764</ele>
        <time>2019-09-11T13:45:23Z</time>
      </trkpt>
      <trkpt lat="48.46704" lon="-2.03671">
        <ele>100.03598</ele>
        <time>2019-09-11T13:45:24Z</time>
      </trkpt>
      <trkpt lat="48.46705" lon="-2.03668">
        <ele>99.71994</ele>
        <time>2019-09-11T13:45:25Z</time>
      </trkpt>
      <trkpt lat="48.46705" lon="-2.03665">
        <ele>99.490776</ele>
        <time>2019-09-11T13:45:26Z</time>
      </trkpt>
      <trkpt lat="48.46706" lon="-2.03662">
        <ele>99.152824</ele>
        <time>2019-09-11T13:45:27Z</time>
      </trkpt>
      <trkpt lat="48.46706" lon="-2.03659">
        <ele>98.97511</ele>
        <time>2019-09-11T13:45:28Z</time>
      </trkpt>
      <trkpt lat="48.46706" lon="-2.03656">
        <ele>98.79958</ele>
        <time>2019-09-11T13:45:29Z</time>
      </trkpt>
      <trkpt lat="48.46706" lon="-2.03653">
        <ele>98.6359</ele>
        <time>2019-09-11T13:45:30Z</time>
      </trkpt>
      <trkpt lat="48.46707" lon="-2.03651">
        <ele>98.57175</ele>
        <time>2019-09-11T13:45:31Z</time>
      </trkpt>
      <trkpt lat="48.46708" lon="-2.03651">
        <ele>98.691</ele>
        <time>2019-09-11T13:45:32Z</time>
      </trkpt>
      <trkpt lat="48.46709" lon="-2.03651">
        <ele>98.32504</ele>
        <time>2019-09-11T13:45:33Z</time>
      </trkpt>
      <trkpt lat="48.4671" lon="-2.03653">
        <ele>97.64568</ele>
        <time>2019-09-11T13:45:34Z</time>
      </trkpt>
      <trkpt lat="48.46711" lon="-2.03655">
        <ele>97.019</ele>
        <time>2019-09-11T13:45:35Z</time>
      </trkpt>
      <trkpt lat="48.46711" lon="-2.03658">
        <ele>96.801575</ele>
        <time>2019-09-11T13:45:36Z</time>
      </trkpt>
      <trkpt lat="48.46712" lon="-2.03661">
        <ele>96.6177</ele>
        <time>2019-09-11T13:45:37Z</time>
      </trkpt>
      <trkpt lat="48.46712" lon="-2.03665">
        <ele>96.21174</ele>
        <time>2019-09-11T13:45:38Z</time>
      </trkpt>
      <trkpt lat="48.46712" lon="-2.03668">
        <ele>95.38079</ele>
        <time>2019-09-11T13:45:39Z</time>
      </trkpt>
      <trkpt lat="48.46713" lon="-2.03671">
        <ele>95.0616</ele>
        <time>2019-09-11T13:45:40Z</time>
      </trkpt>
      <trkpt lat="48.46713" lon="-2.03675">
        <ele>95.138336</ele>
        <time>2019-09-11T13:45:41Z</time>
      </trkpt>
      <trkpt lat="48.46714" lon="-2.03677">
        <ele>94.98118</ele>
        <time>2019-09-11T13:45:42Z</time>
      </trkpt>
      <trkpt lat="48.46714" lon="-2.03679">
        <ele>95.0677</ele>
        <time>2019-09-11T13:45:43Z</time>
      </trkpt>
      <trkpt lat="48.46715" lon="-2.03681">
        <ele>94.917145</ele>
        <time>2019-09-11T13:45:44Z</time>
      </trkpt>
      <trkpt lat="48.46716" lon="-2.03682">
        <ele>94.627335</ele>
        <time>2019-09-11T13:45:45Z</time>
      </trkpt>
      <trkpt lat="48.46717" lon="-2.03682">
        <ele>94.375244</ele>
        <time>2019-09-11T13:45:46Z</time>
      </trkpt>
      <trkpt lat="48.46717" lon="-2.03681">
        <ele>94.153625</ele>
        <time>2019-09-11T13:45:47Z</time>
      </trkpt>
      <trkpt lat="48.46718" lon="-2.03678">
        <ele>94.01473</ele>
        <time>2019-09-11T13:45:48Z</time>
      </trkpt>
      <trkpt lat="48.46719" lon="-2.03674">
        <ele>93.76244</ele>
        <time>2019-09-11T13:45:49Z</time>
      </trkpt>
      <trkpt lat="48.4672" lon="-2.0367">
        <ele>93.562744</ele>
        <time>2019-09-11T13:45:50Z</time>
      </trkpt>
      <trkpt lat="48.46721" lon="-2.03666">
        <ele>92.85727</ele>
        <time>2019-09-11T13:45:51Z</time>
      </trkpt>
      <trkpt lat="48.46722" lon="-2.03662">
        <ele>92.06412</ele>
        <time>2019-09-11T13:45:52Z</time>
      </trkpt>
      <trkpt lat="48.46723" lon="-2.03659">
        <ele>91.60207</ele>
        <time>2019-09-11T13:45:53Z</time>
      </trkpt>
      <trkpt lat="48.46724" lon="-2.03655">
        <ele>91.165504</ele>
        <time>2019-09-11T13:45:54Z</time>
      </trkpt>
      <trkpt lat="48.46725" lon="-2.03652">
        <ele>90.65095</ele>
        <time>2019-09-11T13:45:55Z</time>
      </trkpt>
      <trkpt lat="48.46726" lon="-2.03649">
        <ele>89.891174</ele>
        <time>2019-09-11T13:45:56Z</time>
      </trkpt>
      <trkpt lat="48.46727" lon="-2.03648">
        <ele>88.97852</ele>
        <time>2019-09-11T13:45:57Z</time>
      </trkpt>
      <trkpt lat="48.46728" lon="-2.03649">
        <ele>88.010635</ele>
        <time>2019-09-11T13:45:58Z</time>
      </trkpt>
      <trkpt lat="48.46728" lon="-2.03652">
        <ele>87.25739</ele>
        <time>2019-09-11T13:45:59Z</time>
      </trkpt>
      <trkpt lat="48.46729" lon="-2.03655">
        <ele>86.52128</ele>
        <time>2019-09-11T13:46:00Z</time>
      </trkpt>
      <trkpt lat="48.4673" lon="-2.03659">
        <ele>85.86025</ele>
        <time>2019-09-11T13:46:01Z</time>
      </trkpt>
      <trkpt lat="48.46731" lon="-2.03663">
        <ele>85.43597</ele>
        <time>2019-09-11T13:46:02Z</time>
      </trkpt>
      <trkpt lat="48.46732" lon="-2.03666">
        <ele>84.919044</ele>
        <time>2019-09-11T13:46:03Z</time>
      </trkpt>
      <trkpt lat="48.46732" lon="-2.03669">
        <ele>84.16475</ele>
        <time>2019-09-11T13:46:04Z</time>
      </trkpt>
      <trkpt lat="48.46733" lon="-2.03672">
        <ele>83.29041</ele>
        <time>2019-09-11T13:46:05Z</time>
      </trkpt>
      <trkpt lat="48.46733" lon="-2.03674">
        <ele>82.75727</ele>
        <time>2019-09-11T13:46:06Z</time>
      </trkpt>
      <trkpt lat="48.46734" lon="-2.03676">
        <ele>82.14588</ele>
        <time>2019-09-11T13:46:07Z</time>
      </trkpt>
      <trkpt lat="48.46735" lon="-2.03675">
        <ele>81.577896</ele>
        <time>2019-09-11T13:46:08Z</time>
      </trkpt>
      <trkpt lat="48.46735" lon="-2.03674">
        <ele>80.494675</ele>
        <time>2019-09-11T13:46:09Z</time>
      </trkpt>
      <trkpt lat="48.46736" lon="-2.03672">
        <ele>79.89581</ele>
        <time>2019-09-11T13:46:10Z</time>
      </trkpt>
      <trkpt lat="48.46737" lon="-2.03669">
        <ele>79.628555</ele>
        <time>2019-09-11T13:46:11Z</time>
      </trkpt>
      <trkpt lat="48.46738" lon="-2.03664">
        <ele>79.353745</ele>
        <time>2019-09-11T13:46:12Z</time>
      </trkpt>
      <trkpt lat="48.46738" lon="-2.03657">
        <ele>79.19241</ele>
        <time>2019-09-11T13:46:13Z</time>
      </trkpt>
      <trkpt lat="48.46738" lon="-2.03648">
        <ele>79.091774</ele>
        <time>2019-09-11T13:46:14Z</time>
      </trkpt>
      <trkpt lat="48.46738" lon="-2.0364">
        <ele>78.97692</ele>
        <time>2019-09-11T13:46:15Z</time>
      </trkpt>
      <trkpt lat="48.46738" lon="-2.03631">
        <ele>79.04221</ele>
        <time>2019-09-11T13:46:16Z</time>
      </trkpt>
      <trkpt lat="48.46739" lon="-2.03624">
        <ele>78.86304</ele>
        <time>2019-09-11T13:46:17Z</time>
      </trkpt>
      <trkpt lat="48.46742" lon="-2.03616">
        <ele>78.55379</ele>
        <time>2019-09-11T13:46:18Z</time>
      </trkpt>
      <trkpt lat="48.46745" lon="-2.03608">
        <ele>78.40746</ele>
        <time>2019-09-11T13:46:19Z</time>
      </trkpt>
      <trkpt lat="48.46749" lon="-2.03603">
        <ele>78.26974</ele>
        <time>2019-09-11T13:46:20Z</time>
      </trkpt>
      <trkpt lat="48.46753" lon="-2.03601">
        <ele>77.907684</ele>
        <time>2019-09-11T13:46:21Z</time>
      </trkpt>
      <trkpt lat="48.4676" lon="-2.03598">
        <ele>77.965836</ele>
        <time>2019-09-11T13:46:22Z</time>
      </trkpt>
      <trkpt lat="48.46766" lon="-2.03589">
        <ele>77.90111</ele>
        <time>2019-09-11T13:46:23Z</time>
      </trkpt>
      <trkpt lat="48.46768" lon="-2.03579">
        <ele>77.71584</ele>
        <time>2019-09-11T13:46:24Z</time>
      </trkpt>
      <trkpt lat="48.46768" lon="-2.03567">
        <ele>77.54349</ele>
        <time>2019-09-11T13:46:25Z</time>
      </trkpt>
      <trkpt lat="48.46769" lon="-2.03554">
        <ele>77.51355</ele>
        <time>2019-09-11T13:46:26Z</time>
      </trkpt>
      <trkpt lat="48.4677" lon="-2.03543">
        <ele>77.241516</ele>
        <time>2019-09-11T13:46:27Z</time>
      </trkpt>
      <trkpt lat="48.4677" lon="-2.03532">
        <ele>77.159676</ele>
        <time>2019-09-11T13:46:28Z</time>
      </trkpt>
      <trkpt lat="48.46769" lon="-2.03521">
        <ele>76.70332</ele>
        <time>2019-09-11T13:46:29Z</time>
      </trkpt>
      <trkpt lat="48.46766" lon="-2.03509">
        <ele>76.12165</ele>
        <time>2019-09-11T13:46:30Z</time>
      </trkpt>
      <trkpt lat="48.46763" lon="-2.03498">
        <ele>75.066666</ele>
        <time>2019-09-11T13:46:31Z</time>
      </trkpt>
      <trkpt lat="48.4676" lon="-2.03489">
        <ele>74.123436</ele>
        <time>2019-09-11T13:46:32Z</time>
      </trkpt>
      <trkpt lat="48.46757" lon="-2.0348">
        <ele>74.03179</ele>
        <time>2019-09-11T13:46:33Z</time>
      </trkpt>
      <trkpt lat="48.46753" lon="-2.03473">
        <ele>73.78113</ele>
        <time>2019-09-11T13:46:34Z</time>
      </trkpt>
      <trkpt lat="48.46749" lon="-2.03466">
        <ele>74.02465</ele>
        <time>2019-09-11T13:46:35Z</time>
      </trkpt>
      <trkpt lat="48.46743" lon="-2.03459">
        <ele>74.41552</ele>
        <time>2019-09-11T13:46:36Z</time>
      </trkpt>
      <trkpt lat="48.46738" lon="-2.03452">
        <ele>75.09565</ele>
        <time>2019-09-11T13:46:37Z</time>
      </trkpt>
      <trkpt lat="48.46732" lon="-2.03445">
        <ele>75.572845</ele>
        <time>2019-09-11T13:46:38Z</time>
      </trkpt>
      <trkpt lat="48.46727" lon="-2.0344">
        <ele>76.01158</ele>
        <time>2019-09-11T13:46:39Z</time>
      </trkpt>
      <trkpt lat="48.46722" lon="-2.03435">
        <ele>76.46967</ele>
        <time>2019-09-11T13:46:40Z</time>
      </trkpt>
      <trkpt lat="48.46717" lon="-2.03429">
        <ele>77.19765</ele>
        <time>2019-09-11T13:46:41Z</time>
      </trkpt>
      <trkpt lat="48.46713" lon="-2.03424">
        <ele>77.8098</ele>
        <time>2019-09-11T13:46:42Z</time>
      </trkpt>
      <trkpt lat="48.46709" lon="-2.03419">
        <ele>78.45927</ele>
        <time>2019-09-11T13:46:43Z</time>
      </trkpt>
      <trkpt lat="48.46705" lon="-2.03414">
        <ele>78.68182</ele>
        <time>2019-09-11T13:46:44Z</time>
      </trkpt>
      <trkpt lat="48.467" lon="-2.0341">
        <ele>78.81691</ele>
        <time>2019-09-11T13:46:45Z</time>
      </trkpt>
      <trkpt lat="48.46696" lon="-2.03405">
        <ele>79.01618</ele>
        <time>2019-09-11T13:46:46Z</time>
      </trkpt>
      <trkpt lat="48.46691" lon="-2.034">
        <ele>79.335846</ele>
        <time>2019-09-11T13:46:47Z</time>
      </trkpt>
      <trkpt lat="48.46686" lon="-2.03396">
        <ele>80.04982</ele>
        <time>2019-09-11T13:46:48Z</time>
      </trkpt>
      <trkpt lat="48.46681" lon="-2.03392">
        <ele>79.76247</ele>
        <time>2019-09-11T13:46:49Z</time>
      </trkpt>
      <trkpt lat="48.46674" lon="-2.0339">
        <ele>80.1792</ele>
        <time>2019-09-11T13:46:50Z</time>
      </trkpt>
      <trkpt lat="48.46666" lon="-2.03389">
        <ele>80.448425</ele>
        <time>2019-09-11T13:46:51Z</time>
      </trkpt>
      <trkpt lat="48.46659" lon="-2.0339">
        <ele>80.77136</ele>
        <time>2019-09-11T13:46:52Z</time>
      </trkpt>
      <trkpt lat="48.46652" lon="-2.03389">
        <ele>81.2036</ele>
        <time>2019-09-11T13:46:53Z</time>
      </trkpt>
      <trkpt lat="48.46644" lon="-2.03388">
        <ele>81.44125</ele>
        <time>2019-09-11T13:46:54Z</time>
      </trkpt>
      <trkpt lat="48.46635" lon="-2.03386">
        <ele>81.724785</ele>
        <time>2019-09-11T13:46:55Z</time>
      </trkpt>
      <trkpt lat="48.46627" lon="-2.03384">
        <ele>81.780846</ele>
        <time>2019-09-11T13:46:56Z</time>
      </trkpt>
      <trkpt lat="48.46619" lon="-2.03383">
        <ele>81.93149</ele>
        <time>2019-09-11T13:46:57Z</time>
      </trkpt>
      <trkpt lat="48.4661" lon="-2.03382">
        <ele>82.289825</ele>
        <time>2019-09-11T13:46:58Z</time>
      </trkpt>
      <trkpt lat="48.46602" lon="-2.03382">
        <ele>82.16769</ele>
        <time>2019-09-11T13:46:59Z</time>
      </trkpt>
      <trkpt lat="48.46594" lon="-2.03382">
        <ele>82.25187</ele>
        <time>2019-09-11T13:47:00Z</time>
      </trkpt>
      <trkpt lat="48.46585" lon="-2.03383">
        <ele>82.31453</ele>
        <time>2019-09-11T13:47:01Z</time>
      </trkpt>
      <trkpt lat="48.46577" lon="-2.03383">
        <ele>82.30706</ele>
        <time>2019-09-11T13:47:02Z</time>
      </trkpt>
      <trkpt lat="48.46568" lon="-2.03382">
        <ele>82.43728</ele>
        <time>2019-09-11T13:47:03Z</time>
      </trkpt>
      <trkpt lat="48.46558" lon="-2.03383">
        <ele>82.564125</ele>
        <time>2019-09-11T13:47:04Z</time>
      </trkpt>
      <trkpt lat="48.46549" lon="-2.03384">
        <ele>82.78894</ele>
        <time>2019-09-11T13:47:05Z</time>
      </trkpt>
      <trkpt lat="48.4654" lon="-2.03386">
        <ele>83.00207</ele>
        <time>2019-09-11T13:47:06Z</time>
      </trkpt>
      <trkpt lat="48.46532" lon="-2.03388">
        <ele>83.09286</ele>
        <time>2019-09-11T13:47:07Z</time>
      </trkpt>
      <trkpt lat="48.46523" lon="-2.0339">
        <ele>83.22415</ele>
        <time>2019-09-11T13:47:08Z</time>
      </trkpt>
      <trkpt lat="48.46515" lon="-2.03391">
        <ele>83.32196</ele>
        <time>2019-09-11T13:47:09Z</time>
      </trkpt>
      <trkpt lat="48.46507" lon="-2.03393">
        <ele>83.55158</ele>
        <time>2019-09-11T13:47:10Z</time>
      </trkpt>
      <trkpt lat="48.46498" lon="-2.03394">
        <ele>83.94558</ele>
        <time>2019-09-11T13:47:11Z</time>
      </trkpt>
      <trkpt lat="48.46489" lon="-2.03394">
        <ele>84.27826</ele>
        <time>2019-09-11T13:47:12Z</time>
      </trkpt>
      <trkpt lat="48.46479" lon="-2.03392">
        <ele>84.60301</ele>
        <time>2019-09-11T13:47:13Z</time>
      </trkpt>
      <trkpt lat="48.4647" lon="-2.03387">
        <ele>84.814255</ele>
        <time>2019-09-11T13:47:14Z</time>
      </trkpt>
      <trkpt lat="48.46461" lon="-2.03381">
        <ele>86.418594</ele>
        <time>2019-09-11T13:47:15Z</time>
      </trkpt>
      <trkpt lat="48.46453" lon="-2.03373">
        <ele>87.11706</ele>
        <time>2019-09-11T13:47:16Z</time>
      </trkpt>
      <trkpt lat="48.46445" lon="-2.03363">
        <ele>87.72647</ele>
        <time>2019-09-11T13:47:17Z</time>
      </trkpt>
      <trkpt lat="48.46438" lon="-2.03353">
        <ele>87.88279</ele>
        <time>2019-09-11T13:47:18Z</time>
      </trkpt>
      <trkpt lat="48.46431" lon="-2.03344">
        <ele>88.140144</ele>
        <time>2019-09-11T13:47:19Z</time>
      </trkpt>
      <trkpt lat="48.46425" lon="-2.03337">
        <ele>88.03007</ele>
        <time>2019-09-11T13:47:20Z</time>
      </trkpt>
      <trkpt lat="48.46419" lon="-2.03331">
        <ele>87.945526</ele>
        <time>2019-09-11T13:47:21Z</time>
      </trkpt>
      <trkpt lat="48.46412" lon="-2.03325">
        <ele>87.82487</ele>
        <time>2019-09-11T13:47:22Z</time>
      </trkpt>
      <trkpt lat="48.46405" lon="-2.03319">
        <ele>87.219635</ele>
        <time>2019-09-11T13:47:23Z</time>
      </trkpt>
      <trkpt lat="48.46397" lon="-2.03314">
        <ele>86.584755</ele>
        <time>2019-09-11T13:47:24Z</time>
      </trkpt>
      <trkpt lat="48.4639" lon="-2.03308">
        <ele>85.68526</ele>
        <time>2019-09-11T13:47:25Z</time>
      </trkpt>
      <trkpt lat="48.46382" lon="-2.03301">
        <ele>84.63652</ele>
        <time>2019-09-11T13:47:26Z</time>
      </trkpt>
      <trkpt lat="48.46375" lon="-2.03295">
        <ele>83.771095</ele>
        <time>2019-09-11T13:47:27Z</time>
      </trkpt>
      <trkpt lat="48.46367" lon="-2.03289">
        <ele>82.87284</ele>
        <time>2019-09-11T13:47:28Z</time>
      </trkpt>
      <trkpt lat="48.4636" lon="-2.03284">
        <ele>82.93666</ele>
        <time>2019-09-11T13:47:29Z</time>
      </trkpt>
      <trkpt lat="48.46352" lon="-2.0328">
        <ele>83.398315</ele>
        <time>2019-09-11T13:47:30Z</time>
      </trkpt>
      <trkpt lat="48.46346" lon="-2.03275">
        <ele>84.09142</ele>
        <time>2019-09-11T13:47:31Z</time>
      </trkpt>
      <trkpt lat="48.4634" lon="-2.03269">
        <ele>84.66419</ele>
        <time>2019-09-11T13:47:32Z</time>
      </trkpt>
      <trkpt lat="48.46333" lon="-2.03264">
        <ele>84.74441</ele>
        <time>2019-09-11T13:47:33Z</time>
      </trkpt>
      <trkpt lat="48.46327" lon="-2.03259">
        <ele>84.818695</ele>
        <time>2019-09-11T13:47:34Z</time>
      </trkpt>
      <trkpt lat="48.46321" lon="-2.03254">
        <ele>84.86619</ele>
        <time>2019-09-11T13:47:35Z</time>
      </trkpt>
      <trkpt lat="48.46314" lon="-2.03251">
        <ele>84.46017</ele>
        <time>2019-09-11T13:47:36Z</time>
      </trkpt>
      <trkpt lat="48.46308" lon="-2.03248">
        <ele>83.5859</ele>
        <time>2019-09-11T13:47:37Z</time>
      </trkpt>
      <trkpt lat="48.46301" lon="-2.03244">
        <ele>82.68025</ele>
        <time>2019-09-11T13:47:38Z</time>
      </trkpt>
      <trkpt lat="48.46295" lon="-2.0324">
        <ele>82.124565</ele>
        <time>2019-09-11T13:47:39Z</time>
      </trkpt>
      <trkpt lat="48.46289" lon="-2.03237">
        <ele>81.62407</ele>
        <time>2019-09-11T13:47:40Z</time>
      </trkpt>
      <trkpt lat="48.46282" lon="-2.03235">
        <ele>80.96898</ele>
        <time>2019-09-11T13:47:41Z</time>
      </trkpt>
      <trkpt lat="48.46276" lon="-2.03235">
        <ele>80.270805</ele>
        <time>2019-09-11T13:47:42Z</time>
      </trkpt>
      <trkpt lat="48.46269" lon="-2.03236">
        <ele>79.887245</ele>
        <time>2019-09-11T13:47:43Z</time>
      </trkpt>
      <trkpt lat="48.46262" lon="-2.03238">
        <ele>79.48678</ele>
        <time>2019-09-11T13:47:44Z</time>
      </trkpt>
      <trkpt lat="48.46256" lon="-2.03241">
        <ele>79.31625</ele>
        <time>2019-09-11T13:47:45Z</time>
      </trkpt>
      <trkpt lat="48.4625" lon="-2.03244">
        <ele>79.02423</ele>
        <time>2019-09-11T13:47:46Z</time>
      </trkpt>
      <trkpt lat="48.46244" lon="-2.03248">
        <ele>78.63213</ele>
        <time>2019-09-11T13:47:47Z</time>
      </trkpt>
      <trkpt lat="48.46238" lon="-2.03252">
        <ele>77.983955</ele>
        <time>2019-09-11T13:47:48Z</time>
      </trkpt>
      <trkpt lat="48.46232" lon="-2.03256">
        <ele>77.16167</ele>
        <time>2019-09-11T13:47:49Z</time>
      </trkpt>
      <trkpt lat="48.46225" lon="-2.03258">
        <ele>76.45423</ele>
        <time>2019-09-11T13:47:50Z</time>
      </trkpt>
      <trkpt lat="48.46219" lon="-2.03257">
        <ele>76.18863</ele>
        <time>2019-09-11T13:47:51Z</time>
      </trkpt>
      <trkpt lat="48.46213" lon="-2.03253">
        <ele>76.00094</ele>
        <time>2019-09-11T13:47:52Z</time>
      </trkpt>
      <trkpt lat="48.46207" lon="-2.03248">
        <ele>76.00233</ele>
        <time>2019-09-11T13:47:53Z</time>
      </trkpt>
      <trkpt lat="48.46202" lon="-2.03242">
        <ele>75.98345</ele>
        <time>2019-09-11T13:47:54Z</time>
      </trkpt>
      <trkpt lat="48.46196" lon="-2.03237">
        <ele>76.00576</ele>
        <time>2019-09-11T13:47:55Z</time>
      </trkpt>
      <trkpt lat="48.4619" lon="-2.03233">
        <ele>76.08247</ele>
        <time>2019-09-11T13:47:56Z</time>
      </trkpt>
      <trkpt lat="48.46183" lon="-2.03233">
        <ele>77.037575</ele>
        <time>2019-09-11T13:47:57Z</time>
      </trkpt>
      <trkpt lat="48.46177" lon="-2.03236">
        <ele>77.7248</ele>
        <time>2019-09-11T13:47:58Z</time>
      </trkpt>
      <trkpt lat="48.4617" lon="-2.03242">
        <ele>77.28143</ele>
        <time>2019-09-11T13:47:59Z</time>
      </trkpt>
      <trkpt lat="48.46166" lon="-2.03249">
        <ele>76.477066</ele>
        <time>2019-09-11T13:48:00Z</time>
      </trkpt>
      <trkpt lat="48.46162" lon="-2.03254">
        <ele>75.73626</ele>
        <time>2019-09-11T13:48:01Z</time>
      </trkpt>
      <trkpt lat="48.46159" lon="-2.03258">
        <ele>74.65143</ele>
        <time>2019-09-11T13:48:02Z</time>
      </trkpt>
      <trkpt lat="48.46156" lon="-2.03261">
        <ele>73.988144</ele>
        <time>2019-09-11T13:48:03Z</time>
      </trkpt>
      <trkpt lat="48.46154" lon="-2.03261">
        <ele>73.36095</ele>
        <time>2019-09-11T13:48:04Z</time>
      </trkpt>
      <trkpt lat="48.46152" lon="-2.03257">
        <ele>72.90399</ele>
        <time>2019-09-11T13:48:05Z</time>
      </trkpt>
      <trkpt lat="48.46153" lon="-2.03251">
        <ele>71.18044</ele>
        <time>2019-09-11T13:48:06Z</time>
      </trkpt>
      <trkpt lat="48.46154" lon="-2.03246">
        <ele>71.11609</ele>
        <time>2019-09-11T13:48:07Z</time>
      </trkpt>
      <trkpt lat="48.46155" lon="-2.03241">
        <ele>71.082794</ele>
        <time>2019-09-11T13:48:08Z</time>
      </trkpt>
      <trkpt lat="48.46157" lon="-2.03236">
        <ele>71.24986</ele>
        <time>2019-09-11T13:48:09Z</time>
      </trkpt>
      <trkpt lat="48.46159" lon="-2.0323">
        <ele>71.005486</ele>
        <time>2019-09-11T13:48:10Z</time>
      </trkpt>
      <trkpt lat="48.46162" lon="-2.03225">
        <ele>70.60803</ele>
        <time>2019-09-11T13:48:11Z</time>
      </trkpt>
      <trkpt lat="48.46164" lon="-2.03221">
        <ele>70.51633</ele>
        <time>2019-09-11T13:48:12Z</time>
      </trkpt>
      <trkpt lat="48.46167" lon="-2.03217">
        <ele>70.65639</ele>
        <time>2019-09-11T13:48:13Z</time>
      </trkpt>
      <trkpt lat="48.4617" lon="-2.03213">
        <ele>70.34491</ele>
        <time>2019-09-11T13:48:14Z</time>
      </trkpt>
      <trkpt lat="48.46172" lon="-2.0321">
        <ele>70.415855</ele>
        <time>2019-09-11T13:48:15Z</time>
      </trkpt>
      <trkpt lat="48.46174" lon="-2.03208">
        <ele>70.537254</ele>
        <time>2019-09-11T13:48:16Z</time>
      </trkpt>
      <trkpt lat="48.46177" lon="-2.03205">
        <ele>70.31401</ele>
        <time>2019-09-11T13:48:17Z</time>
      </trkpt>
      <trkpt lat="48.46179" lon="-2.03203">
        <ele>70.15551</ele>
        <time>2019-09-11T13:48:18Z</time>
      </trkpt>
      <trkpt lat="48.46182" lon="-2.032">
        <ele>70.00714</ele>
        <time>2019-09-11T13:48:19Z</time>
      </trkpt>
      <trkpt lat="48.46183" lon="-2.03198">
        <ele>69.80818</ele>
        <time>2019-09-11T13:48:20Z</time>
      </trkpt>
      <trkpt lat="48.46185" lon="-2.03195">
        <ele>69.4664</ele>
        <time>2019-09-11T13:48:21Z</time>
      </trkpt>
      <trkpt lat="48.46187" lon="-2.03192">
        <ele>69.115585</ele>
        <time>2019-09-11T13:48:22Z</time>
      </trkpt>
      <trkpt lat="48.4619" lon="-2.03189">
        <ele>68.945145</ele>
        <time>2019-09-11T13:48:23Z</time>
      </trkpt>
      <trkpt lat="48.46192" lon="-2.03186">
        <ele>68.7755</ele>
        <time>2019-09-11T13:48:24Z</time>
      </trkpt>
      <trkpt lat="48.46194" lon="-2.03183">
        <ele>68.80803</ele>
        <time>2019-09-11T13:48:25Z</time>
      </trkpt>
      <trkpt lat="48.46196" lon="-2.0318">
        <ele>68.42145</ele>
        <time>2019-09-11T13:48:26Z</time>
      </trkpt>
      <trkpt lat="48.46198" lon="-2.03177">
        <ele>68.16288</ele>
        <time>2019-09-11T13:48:27Z</time>
      </trkpt>
      <trkpt lat="48.462" lon="-2.03174">
        <ele>68.17053</ele>
        <time>2019-09-11T13:48:28Z</time>
      </trkpt>
      <trkpt lat="48.46203" lon="-2.03172">
        <ele>68.291176</ele>
        <time>2019-09-11T13:48:29Z</time>
      </trkpt>
      <trkpt lat="48.46205" lon="-2.03169">
        <ele>68.24307</ele>
        <time>2019-09-11T13:48:30Z</time>
      </trkpt>
      <trkpt lat="48.46207" lon="-2.03167">
        <ele>68.127495</ele>
        <time>2019-09-11T13:48:31Z</time>
      </trkpt>
      <trkpt lat="48.4621" lon="-2.03164">
        <ele>68.202866</ele>
        <time>2019-09-11T13:48:32Z</time>
      </trkpt>
      <trkpt lat="48.46212" lon="-2.03161">
        <ele>68.262146</ele>
        <time>2019-09-11T13:48:33Z</time>
      </trkpt>
      <trkpt lat="48.46215" lon="-2.03159">
        <ele>68.50925</ele>
        <time>2019-09-11T13:48:34Z</time>
      </trkpt>
      <trkpt lat="48.46218" lon="-2.03156">
        <ele>68.84415</ele>
        <time>2019-09-11T13:48:35Z</time>
      </trkpt>
      <trkpt lat="48.46221" lon="-2.03154">
        <ele>69.22884</ele>
        <time>2019-09-11T13:48:36Z</time>
      </trkpt>
      <trkpt lat="48.46225" lon="-2.03151">
        <ele>69.75123</ele>
        <time>2019-09-11T13:48:37Z</time>
      </trkpt>
      <trkpt lat="48.46228" lon="-2.03149">
        <ele>70.24111</ele>
        <time>2019-09-11T13:48:38Z</time>
      </trkpt>
      <trkpt lat="48.46231" lon="-2.03146">
        <ele>70.777176</ele>
        <time>2019-09-11T13:48:39Z</time>
      </trkpt>
      <trkpt lat="48.46235" lon="-2.03143">
        <ele>71.03212</ele>
        <time>2019-09-11T13:48:40Z</time>
      </trkpt>
      <trkpt lat="48.46238" lon="-2.0314">
        <ele>71.01801</ele>
        <time>2019-09-11T13:48:41Z</time>
      </trkpt>
      <trkpt lat="48.4624" lon="-2.03137">
        <ele>71.52768</ele>
        <time>2019-09-11T13:48:42Z</time>
      </trkpt>
      <trkpt lat="48.46242" lon="-2.03134">
        <ele>71.745094</ele>
        <time>2019-09-11T13:48:43Z</time>
      </trkpt>
      <trkpt lat="48.46244" lon="-2.03132">
        <ele>72.27176</ele>
        <time>2019-09-11T13:48:44Z</time>
      </trkpt>
      <trkpt lat="48.46246" lon="-2.03131">
        <ele>72.784</ele>
        <time>2019-09-11T13:48:45Z</time>
      </trkpt>
      <trkpt lat="48.46248" lon="-2.03129">
        <ele>72.96797</ele>
        <time>2019-09-11T13:48:46Z</time>
      </trkpt>
      <trkpt lat="48.4625" lon="-2.03128">
        <ele>73.026566</ele>
        <time>2019-09-11T13:48:47Z</time>
      </trkpt>
      <trkpt lat="48.46252" lon="-2.03126">
        <ele>73.12883</ele>
        <time>2019-09-11T13:48:48Z</time>
      </trkpt>
      <trkpt lat="48.46255" lon="-2.03124">
        <ele>73.399734</ele>
        <time>2019-09-11T13:48:49Z</time>
      </trkpt>
      <trkpt lat="48.46257" lon="-2.03121">
        <ele>73.76247</ele>
        <time>2019-09-11T13:48:50Z</time>
      </trkpt>
      <trkpt lat="48.46261" lon="-2.03118">
        <ele>74.1797</ele>
        <time>2019-09-11T13:48:51Z</time>
      </trkpt>
      <trkpt lat="48.46264" lon="-2.03116">
        <ele>74.45302</ele>
        <time>2019-09-11T13:48:52Z</time>
      </trkpt>
      <trkpt lat="48.46266" lon="-2.03114">
        <ele>74.57894</ele>
        <time>2019-09-11T13:48:53Z</time>
      </trkpt>
      <trkpt lat="48.46269" lon="-2.03111">
        <ele>74.64176</ele>
        <time>2019-09-11T13:48:54Z</time>
      </trkpt>
      <trkpt lat="48.46272" lon="-2.03109">
        <ele>74.87654</ele>
        <time>2019-09-11T13:48:55Z</time>
      </trkpt>
      <trkpt lat="48.46274" lon="-2.03106">
        <ele>74.57759</ele>
        <time>2019-09-11T13:48:56Z</time>
      </trkpt>
      <trkpt lat="48.46276" lon="-2.03104">
        <ele>74.47318</ele>
        <time>2019-09-11T13:48:57Z</time>
      </trkpt>
      <trkpt lat="48.46278" lon="-2.03101">
        <ele>74.293434</ele>
        <time>2019-09-11T13:48:58Z</time>
      </trkpt>
      <trkpt lat="48.4628" lon="-2.03099">
        <ele>73.803665</ele>
        <time>2019-09-11T13:48:59Z</time>
      </trkpt>
      <trkpt lat="48.46282" lon="-2.03097">
        <ele>73.6113</ele>
        <time>2019-09-11T13:49:00Z</time>
      </trkpt>
      <trkpt lat="48.46284" lon="-2.03094">
        <ele>73.486565</ele>
        <time>2019-09-11T13:49:01Z</time>
      </trkpt>
      <trkpt lat="48.46286" lon="-2.03093">
        <ele>73.56607</ele>
        <time>2019-09-11T13:49:02Z</time>
      </trkpt>
      <trkpt lat="48.46288" lon="-2.0309">
        <ele>73.780266</ele>
        <time>2019-09-11T13:49:03Z</time>
      </trkpt>
      <trkpt lat="48.4629" lon="-2.03088">
        <ele>73.93886</ele>
        <time>2019-09-11T13:49:04Z</time>
      </trkpt>
      <trkpt lat="48.46293" lon="-2.03086">
        <ele>74.18335</ele>
        <time>2019-09-11T13:49:05Z</time>
      </trkpt>
      <trkpt lat="48.46294" lon="-2.03084">
        <ele>74.680786</ele>
        <time>2019-09-11T13:49:06Z</time>
      </trkpt>
      <trkpt lat="48.46296" lon="-2.03083">
        <ele>75.13003</ele>
        <time>2019-09-11T13:49:07Z</time>
      </trkpt>
      <trkpt lat="48.46298" lon="-2.03082">
        <ele>75.06006</ele>
        <time>2019-09-11T13:49:08Z</time>
      </trkpt>
      <trkpt lat="48.463" lon="-2.03081">
        <ele>75.632225</ele>
        <time>2019-09-11T13:49:09Z</time>
      </trkpt>
      <trkpt lat="48.46301" lon="-2.0308">
        <ele>76.10658</ele>
        <time>2019-09-11T13:49:10Z</time>
      </trkpt>
      <trkpt lat="48.46302" lon="-2.03079">
        <ele>76.613785</ele>
        <time>2019-09-11T13:49:11Z</time>
      </trkpt>
      <trkpt lat="48.46305" lon="-2.03077">
        <ele>76.92484</ele>
        <time>2019-09-11T13:49:12Z</time>
      </trkpt>
      <trkpt lat="48.46307" lon="-2.03076">
        <ele>77.13891</ele>
        <time>2019-09-11T13:49:13Z</time>
      </trkpt>
      <trkpt lat="48.46309" lon="-2.03075">
        <ele>77.52488</ele>
        <time>2019-09-11T13:49:14Z</time>
      </trkpt>
      <trkpt lat="48.4631" lon="-2.03074">
        <ele>78.06973</ele>
        <time>2019-09-11T13:49:15Z</time>
      </trkpt>
      <trkpt lat="48.46312" lon="-2.03073">
        <ele>78.563385</ele>
        <time>2019-09-11T13:49:16Z</time>
      </trkpt>
      <trkpt lat="48.46314" lon="-2.03072">
        <ele>79.13783</ele>
        <time>2019-09-11T13:49:17Z</time>
      </trkpt>
      <trkpt lat="48.46315" lon="-2.03071">
        <ele>79.45818</ele>
        <time>2019-09-11T13:49:18Z</time>
      </trkpt>
      <trkpt lat="48.46317" lon="-2.03069">
        <ele>79.78395</ele>
        <time>2019-09-11T13:49:19Z</time>
      </trkpt>
      <trkpt lat="48.46318" lon="-2.03068">
        <ele>80.37734</ele>
        <time>2019-09-11T13:49:20Z</time>
      </trkpt>
      <trkpt lat="48.4632" lon="-2.03067">
        <ele>80.84238</ele>
        <time>2019-09-11T13:49:21Z</time>
      </trkpt>
      <trkpt lat="48.46322" lon="-2.03066">
        <ele>81.43746</ele>
        <time>2019-09-11T13:49:22Z</time>
      </trkpt>
      <trkpt lat="48.46324" lon="-2.03066">
        <ele>82.08635</ele>
        <time>2019-09-11T13:49:23Z</time>
      </trkpt>
      <trkpt lat="48.46325" lon="-2.03066">
        <ele>82.56235</ele>
        <time>2019-09-11T13:49:24Z</time>
      </trkpt>
      <trkpt lat="48.46327" lon="-2.03065">
        <ele>83.08586</ele>
        <time>2019-09-11T13:49:25Z</time>
      </trkpt>
      <trkpt lat="48.46328" lon="-2.03065">
        <ele>83.65401</ele>
        <time>2019-09-11T13:49:26Z</time>
      </trkpt>
      <trkpt lat="48.4633" lon="-2.03064">
        <ele>84.65664</ele>
        <time>2019-09-11T13:49:27Z</time>
      </trkpt>
      <trkpt lat="48.46332" lon="-2.03063">
        <ele>85.2131</ele>
        <time>2019-09-11T13:49:28Z</time>
      </trkpt>
      <trkpt lat="48.46334" lon="-2.03062">
        <ele>85.88157</ele>
        <time>2019-09-11T13:49:30Z</time>
      </trkpt>
      <trkpt lat="48.46335" lon="-2.03062">
        <ele>86.190865</ele>
        <time>2019-09-11T13:49:31Z</time>
      </trkpt>
      <trkpt lat="48.46337" lon="-2.03064">
        <ele>86.544</ele>
        <time>2019-09-11T13:49:32Z</time>
      </trkpt>
      <trkpt lat="48.46339" lon="-2.03065">
        <ele>86.947914</ele>
        <time>2019-09-11T13:49:33Z</time>
      </trkpt>
      <trkpt lat="48.46341" lon="-2.03064">
        <ele>87.31087</ele>
        <time>2019-09-11T13:49:34Z</time>
      </trkpt>
      <trkpt lat="48.46343" lon="-2.03064">
        <ele>87.69232</ele>
        <time>2019-09-11T13:49:35Z</time>
      </trkpt>
      <trkpt lat="48.46345" lon="-2.03065">
        <ele>88.115715</ele>
        <time>2019-09-11T13:49:36Z</time>
      </trkpt>
      <trkpt lat="48.46346" lon="-2.03066">
        <ele>88.54495</ele>
        <time>2019-09-11T13:49:37Z</time>
      </trkpt>
      <trkpt lat="48.46348" lon="-2.03067">
        <ele>88.95273</ele>
        <time>2019-09-11T13:49:38Z</time>
      </trkpt>
      <trkpt lat="48.4635" lon="-2.03066">
        <ele>89.732414</ele>
        <time>2019-09-11T13:49:40Z</time>
      </trkpt>
      <trkpt lat="48.46352" lon="-2.03066">
        <ele>90.41835</ele>
        <time>2019-09-11T13:49:41Z</time>
      </trkpt>
      <trkpt lat="48.46353" lon="-2.03065">
        <ele>91.29512</ele>
        <time>2019-09-11T13:49:42Z</time>
      </trkpt>
      <trkpt lat="48.46354" lon="-2.03065">
        <ele>91.20854</ele>
        <time>2019-09-11T13:49:43Z</time>
      </trkpt>
      <trkpt lat="48.46356" lon="-2.03064">
        <ele>92.28963</ele>
        <time>2019-09-11T13:49:44Z</time>
      </trkpt>
      <trkpt lat="48.46357" lon="-2.03063">
        <ele>92.71703</ele>
        <time>2019-09-11T13:49:45Z</time>
      </trkpt>
      <trkpt lat="48.46359" lon="-2.03063">
        <ele>92.996216</ele>
        <time>2019-09-11T13:49:46Z</time>
      </trkpt>
      <trkpt lat="48.4636" lon="-2.03062">
        <ele>92.99152</ele>
        <time>2019-09-11T13:49:48Z</time>
      </trkpt>
      <trkpt lat="48.46361" lon="-2.03062">
        <ele>93.068726</ele>
        <time>2019-09-11T13:49:49Z</time>
      </trkpt>
      <trkpt lat="48.46362" lon="-2.03061">
        <ele>93.34003</ele>
        <time>2019-09-11T13:49:50Z</time>
      </trkpt>
      <trkpt lat="48.46363" lon="-2.03061">
        <ele>93.71687</ele>
        <time>2019-09-11T13:49:51Z</time>
      </trkpt>
      <trkpt lat="48.46364" lon="-2.0306">
        <ele>94.11501</ele>
        <time>2019-09-11T13:49:52Z</time>
      </trkpt>
      <trkpt lat="48.46365" lon="-2.03059">
        <ele>94.148155</ele>
        <time>2019-09-11T13:49:53Z</time>
      </trkpt>
      <trkpt lat="48.46367" lon="-2.03059">
        <ele>94.16666</ele>
        <time>2019-09-11T13:49:54Z</time>
      </trkpt>
      <trkpt lat="48.46368" lon="-2.03058">
        <ele>94.39158</ele>
        <time>2019-09-11T13:49:55Z</time>
      </trkpt>
      <trkpt lat="48.4637" lon="-2.03057">
        <ele>94.18191</ele>
        <time>2019-09-11T13:49:56Z</time>
      </trkpt>
      <trkpt lat="48.46372" lon="-2.03055">
        <ele>94.424614</ele>
        <time>2019-09-11T13:49:57Z</time>
      </trkpt>
      <trkpt lat="48.46373" lon="-2.03054">
        <ele>94.72178</ele>
        <time>2019-09-11T13:49:58Z</time>
      </trkpt>
      <trkpt lat="48.46375" lon="-2.03053">
        <ele>95.254326</ele>
        <time>2019-09-11T13:49:59Z</time>
      </trkpt>
      <trkpt lat="48.46377" lon="-2.03053">
        <ele>95.722015</ele>
        <time>2019-09-11T13:50:00Z</time>
      </trkpt>
      <trkpt lat="48.46379" lon="-2.03052">
        <ele>96.30059</ele>
        <time>2019-09-11T13:50:01Z</time>
      </trkpt>
      <trkpt lat="48.46381" lon="-2.03052">
        <ele>96.835526</ele>
        <time>2019-09-11T13:50:02Z</time>
      </trkpt>
      <trkpt lat="48.46383" lon="-2.03052">
        <ele>97.33811</ele>
        <time>2019-09-11T13:50:03Z</time>
      </trkpt>
      <trkpt lat="48.46384" lon="-2.03051">
        <ele>97.20514</ele>
        <time>2019-09-11T13:50:04Z</time>
      </trkpt>
      <trkpt lat="48.46386" lon="-2.0305">
        <ele>97.25686</ele>
        <time>2019-09-11T13:50:05Z</time>
      </trkpt>
      <trkpt lat="48.46388" lon="-2.03051">
        <ele>97.59541</ele>
        <time>2019-09-11T13:50:06Z</time>
      </trkpt>
      <trkpt lat="48.4639" lon="-2.03051">
        <ele>97.76755</ele>
        <time>2019-09-11T13:50:08Z</time>
      </trkpt>
      <trkpt lat="48.46391" lon="-2.0305">
        <ele>98.2892</ele>
        <time>2019-09-11T13:50:09Z</time>
      </trkpt>
      <trkpt lat="48.46394" lon="-2.03051">
        <ele>98.7944</ele>
        <time>2019-09-11T13:50:11Z</time>
      </trkpt>
      <trkpt lat="48.46395" lon="-2.03051">
        <ele>99.05586</ele>
        <time>2019-09-11T13:50:12Z</time>
      </trkpt>
      <trkpt lat="48.46398" lon="-2.03052">
        <ele>99.5696</ele>
        <time>2019-09-11T13:50:14Z</time>
      </trkpt>
      <trkpt lat="48.46399" lon="-2.03051">
        <ele>99.87392</ele>
        <time>2019-09-11T13:50:16Z</time>
      </trkpt>
      <trkpt lat="48.46402" lon="-2.0305">
        <ele>100.77746</ele>
        <time>2019-09-11T13:50:17Z</time>
      </trkpt>
      <trkpt lat="48.46404" lon="-2.0305">
        <ele>101.16785</ele>
        <time>2019-09-11T13:50:18Z</time>
      </trkpt>
      <trkpt lat="48.46407" lon="-2.03048">
        <ele>101.674194</ele>
        <time>2019-09-11T13:50:20Z</time>
      </trkpt>
      <trkpt lat="48.46409" lon="-2.03046">
        <ele>102.10994</ele>
        <time>2019-09-11T13:50:21Z</time>
      </trkpt>
      <trkpt lat="48.4641" lon="-2.03045">
        <ele>102.28725</ele>
        <time>2019-09-11T13:50:22Z</time>
      </trkpt>
      <trkpt lat="48.46411" lon="-2.03043">
        <ele>102.07938</ele>
        <time>2019-09-11T13:50:23Z</time>
      </trkpt>
      <trkpt lat="48.46413" lon="-2.03042">
        <ele>102.251724</ele>
        <time>2019-09-11T13:50:24Z</time>
      </trkpt>
      <trkpt lat="48.46415" lon="-2.03039">
        <ele>102.8562</ele>
        <time>2019-09-11T13:50:26Z</time>
      </trkpt>
      <trkpt lat="48.46416" lon="-2.03037">
        <ele>103.19549</ele>
        <time>2019-09-11T13:50:27Z</time>
      </trkpt>
      <trkpt lat="48.46418" lon="-2.03035">
        <ele>103.53775</ele>
        <time>2019-09-11T13:50:28Z</time>
      </trkpt>
      <trkpt lat="48.46419" lon="-2.03034">
        <ele>103.649445</ele>
        <time>2019-09-11T13:50:29Z</time>
      </trkpt>
      <trkpt lat="48.4642" lon="-2.03032">
        <ele>103.584435</ele>
        <time>2019-09-11T13:50:30Z</time>
      </trkpt>
      <trkpt lat="48.46422" lon="-2.03031">
        <ele>103.73703</ele>
        <time>2019-09-11T13:50:31Z</time>
      </trkpt>
      <trkpt lat="48.46423" lon="-2.0303">
        <ele>103.78289</ele>
        <time>2019-09-11T13:50:32Z</time>
      </trkpt>
      <trkpt lat="48.46426" lon="-2.03028">
        <ele>103.703</ele>
        <time>2019-09-11T13:50:34Z</time>
      </trkpt>
      <trkpt lat="48.46427" lon="-2.03027">
        <ele>104.23906</ele>
        <time>2019-09-11T13:50:35Z</time>
      </trkpt>
      <trkpt lat="48.46429" lon="-2.03027">
        <ele>104.64903</ele>
        <time>2019-09-11T13:50:36Z</time>
      </trkpt>
      <trkpt lat="48.46431" lon="-2.03027">
        <ele>105.41432</ele>
        <time>2019-09-11T13:50:37Z</time>
      </trkpt>
      <trkpt lat="48.46433" lon="-2.03027">
        <ele>105.874985</ele>
        <time>2019-09-11T13:50:38Z</time>
      </trkpt>
      <trkpt lat="48.46435" lon="-2.03027">
        <ele>106.38468</ele>
        <time>2019-09-11T13:50:39Z</time>
      </trkpt>
      <trkpt lat="48.46436" lon="-2.03027">
        <ele>106.68365</ele>
        <time>2019-09-11T13:50:40Z</time>
      </trkpt>
      <trkpt lat="48.46437" lon="-2.03027">
        <ele>107.05461</ele>
        <time>2019-09-11T13:50:41Z</time>
      </trkpt>
      <trkpt lat="48.46438" lon="-2.03027">
        <ele>107.322945</ele>
        <time>2019-09-11T13:50:42Z</time>
      </trkpt>
      <trkpt lat="48.46439" lon="-2.03026">
        <ele>107.82888</ele>
        <time>2019-09-11T13:50:43Z</time>
      </trkpt>
      <trkpt lat="48.4644" lon="-2.03026">
        <ele>108.16822</ele>
        <time>2019-09-11T13:50:44Z</time>
      </trkpt>
      <trkpt lat="48.46441" lon="-2.03025">
        <ele>108.46711</ele>
        <time>2019-09-11T13:50:45Z</time>
      </trkpt>
      <trkpt lat="48.46445" lon="-2.03025">
        <ele>108.51674</ele>
        <time>2019-09-11T13:50:47Z</time>
      </trkpt>
      <trkpt lat="48.46448" lon="-2.03025">
        <ele>108.38425</ele>
        <time>2019-09-11T13:50:49Z</time>
      </trkpt>
      <trkpt lat="48.4645" lon="-2.03025">
        <ele>108.38804</ele>
        <time>2019-09-11T13:50:50Z</time>
      </trkpt>
      <trkpt lat="48.46452" lon="-2.03026">
        <ele>108.56886</ele>
        <time>2019-09-11T13:50:51Z</time>
      </trkpt>
      <trkpt lat="48.46454" lon="-2.03026">
        <ele>108.56298</ele>
        <time>2019-09-11T13:50:52Z</time>
      </trkpt>
      <trkpt lat="48.46457" lon="-2.03025">
        <ele>108.50611</ele>
        <time>2019-09-11T13:50:53Z</time>
      </trkpt>
      <trkpt lat="48.46459" lon="-2.03025">
        <ele>108.663475</ele>
        <time>2019-09-11T13:50:54Z</time>
      </trkpt>
      <trkpt lat="48.46462" lon="-2.03025">
        <ele>109.01448</ele>
        <time>2019-09-11T13:50:55Z</time>
      </trkpt>
      <trkpt lat="48.46463" lon="-2.03025">
        <ele>109.22482</ele>
        <time>2019-09-11T13:50:56Z</time>
      </trkpt>
      <trkpt lat="48.46465" lon="-2.03025">
        <ele>109.27992</ele>
        <time>2019-09-11T13:50:57Z</time>
      </trkpt>
      <trkpt lat="48.46466" lon="-2.03025">
        <ele>109.21655</ele>
        <time>2019-09-11T13:50:58Z</time>
      </trkpt>
      <trkpt lat="48.46468" lon="-2.03025">
        <ele>109.302986</ele>
        <time>2019-09-11T13:50:59Z</time>
      </trkpt>
      <trkpt lat="48.46469" lon="-2.03025">
        <ele>109.35308</ele>
        <time>2019-09-11T13:51:00Z</time>
      </trkpt>
      <trkpt lat="48.46471" lon="-2.03025">
        <ele>109.10493</ele>
        <time>2019-09-11T13:51:01Z</time>
      </trkpt>
      <trkpt lat="48.46472" lon="-2.03025">
        <ele>108.5367</ele>
        <time>2019-09-11T13:51:02Z</time>
      </trkpt>
      <trkpt lat="48.46474" lon="-2.03025">
        <ele>107.943085</ele>
        <time>2019-09-11T13:51:03Z</time>
      </trkpt>
      <trkpt lat="48.46475" lon="-2.03026">
        <ele>107.166695</ele>
        <time>2019-09-11T13:51:04Z</time>
      </trkpt>
      <trkpt lat="48.46476" lon="-2.03027">
        <ele>106.97175</ele>
        <time>2019-09-11T13:51:05Z</time>
      </trkpt>
      <trkpt lat="48.46478" lon="-2.03027">
        <ele>106.98857</ele>
        <time>2019-09-11T13:51:06Z</time>
      </trkpt>
      <trkpt lat="48.4648" lon="-2.03028">
        <ele>106.611786</ele>
        <time>2019-09-11T13:51:07Z</time>
      </trkpt>
      <trkpt lat="48.46481" lon="-2.03028">
        <ele>106.320045</ele>
        <time>2019-09-11T13:51:08Z</time>
      </trkpt>
      <trkpt lat="48.46483" lon="-2.03028">
        <ele>106.099236</ele>
        <time>2019-09-11T13:51:09Z</time>
      </trkpt>
      <trkpt lat="48.46485" lon="-2.03029">
        <ele>106.0709</ele>
        <time>2019-09-11T13:51:10Z</time>
      </trkpt>
      <trkpt lat="48.46487" lon="-2.03029">
        <ele>105.93191</ele>
        <time>2019-09-11T13:51:11Z</time>
      </trkpt>
      <trkpt lat="48.4649" lon="-2.0303">
        <ele>106.1021</ele>
        <time>2019-09-11T13:51:12Z</time>
      </trkpt>
      <trkpt lat="48.46492" lon="-2.03031">
        <ele>106.3353</ele>
        <time>2019-09-11T13:51:13Z</time>
      </trkpt>
      <trkpt lat="48.46496" lon="-2.03032">
        <ele>105.99447</ele>
        <time>2019-09-11T13:51:15Z</time>
      </trkpt>
      <trkpt lat="48.46497" lon="-2.03032">
        <ele>105.89055</ele>
        <time>2019-09-11T13:51:16Z</time>
      </trkpt>
      <trkpt lat="48.46499" lon="-2.03032">
        <ele>105.7077</ele>
        <time>2019-09-11T13:51:17Z</time>
      </trkpt>
      <trkpt lat="48.465" lon="-2.03032">
        <ele>105.62365</ele>
        <time>2019-09-11T13:51:18Z</time>
      </trkpt>
      <trkpt lat="48.46503" lon="-2.03032">
        <ele>105.447075</ele>
        <time>2019-09-11T13:51:19Z</time>
      </trkpt>
      <trkpt lat="48.46505" lon="-2.03032">
        <ele>105.49078</ele>
        <time>2019-09-11T13:51:20Z</time>
      </trkpt>
      <trkpt lat="48.46507" lon="-2.03031">
        <ele>105.664635</ele>
        <time>2019-09-11T13:51:21Z</time>
      </trkpt>
      <trkpt lat="48.4651" lon="-2.03032">
        <ele>105.54501</ele>
        <time>2019-09-11T13:51:22Z</time>
      </trkpt>
      <trkpt lat="48.46512" lon="-2.03032">
        <ele>105.1592</ele>
        <time>2019-09-11T13:51:23Z</time>
      </trkpt>
      <trkpt lat="48.46515" lon="-2.03032">
        <ele>105.183685</ele>
        <time>2019-09-11T13:51:24Z</time>
      </trkpt>
      <trkpt lat="48.46517" lon="-2.03032">
        <ele>105.11321</ele>
        <time>2019-09-11T13:51:25Z</time>
      </trkpt>
      <trkpt lat="48.4652" lon="-2.03032">
        <ele>105.2598</ele>
        <time>2019-09-11T13:51:26Z</time>
      </trkpt>
      <trkpt lat="48.46523" lon="-2.03033">
        <ele>105.660736</ele>
        <time>2019-09-11T13:51:27Z</time>
      </trkpt>
      <trkpt lat="48.46525" lon="-2.03034">
        <ele>106.206314</ele>
        <time>2019-09-11T13:51:28Z</time>
      </trkpt>
      <trkpt lat="48.46528" lon="-2.03035">
        <ele>106.475365</ele>
        <time>2019-09-11T13:51:29Z</time>
      </trkpt>
      <trkpt lat="48.46531" lon="-2.03035">
        <ele>106.918365</ele>
        <time>2019-09-11T13:51:30Z</time>
      </trkpt>
      <trkpt lat="48.46533" lon="-2.03036">
        <ele>107.368675</ele>
        <time>2019-09-11T13:51:31Z</time>
      </trkpt>
      <trkpt lat="48.46536" lon="-2.03036">
        <ele>107.67469</ele>
        <time>2019-09-11T13:51:32Z</time>
      </trkpt>
      <trkpt lat="48.46538" lon="-2.03036">
        <ele>107.79013</ele>
        <time>2019-09-11T13:51:33Z</time>
      </trkpt>
      <trkpt lat="48.46541" lon="-2.03036">
        <ele>107.72943</ele>
        <time>2019-09-11T13:51:34Z</time>
      </trkpt>
      <trkpt lat="48.46544" lon="-2.03035">
        <ele>107.65772</ele>
        <time>2019-09-11T13:51:35Z</time>
      </trkpt>
      <trkpt lat="48.46547" lon="-2.03034">
        <ele>107.713135</ele>
        <time>2019-09-11T13:51:36Z</time>
      </trkpt>
      <trkpt lat="48.46551" lon="-2.03035">
        <ele>107.72492</ele>
        <time>2019-09-11T13:51:37Z</time>
      </trkpt>
      <trkpt lat="48.46555" lon="-2.03035">
        <ele>107.76842</ele>
        <time>2019-09-11T13:51:38Z</time>
      </trkpt>
      <trkpt lat="48.46559" lon="-2.03035">
        <ele>107.73839</ele>
        <time>2019-09-11T13:51:39Z</time>
      </trkpt>
      <trkpt lat="48.46563" lon="-2.03036">
        <ele>107.5843</ele>
        <time>2019-09-11T13:51:40Z</time>
      </trkpt>
      <trkpt lat="48.46568" lon="-2.03036">
        <ele>107.35121</ele>
        <time>2019-09-11T13:51:41Z</time>
      </trkpt>
      <trkpt lat="48.46572" lon="-2.03037">
        <ele>107.35862</ele>
        <time>2019-09-11T13:51:42Z</time>
      </trkpt>
      <trkpt lat="48.46577" lon="-2.03038">
        <ele>107.28894</ele>
        <time>2019-09-11T13:51:43Z</time>
      </trkpt>
      <trkpt lat="48.46581" lon="-2.03039">
        <ele>107.36077</ele>
        <time>2019-09-11T13:51:44Z</time>
      </trkpt>
      <trkpt lat="48.46586" lon="-2.0304">
        <ele>107.3109</ele>
        <time>2019-09-11T13:51:45Z</time>
      </trkpt>
      <trkpt lat="48.46589" lon="-2.0304">
        <ele>107.129425</ele>
        <time>2019-09-11T13:51:46Z</time>
      </trkpt>
      <trkpt lat="48.46593" lon="-2.03041">
        <ele>107.01807</ele>
        <time>2019-09-11T13:51:47Z</time>
      </trkpt>
      <trkpt lat="48.46597" lon="-2.03042">
        <ele>106.99135</ele>
        <time>2019-09-11T13:51:48Z</time>
      </trkpt>
      <trkpt lat="48.46601" lon="-2.03043">
        <ele>106.86993</ele>
        <time>2019-09-11T13:51:49Z</time>
      </trkpt>
      <trkpt lat="48.46605" lon="-2.03044">
        <ele>106.75928</ele>
        <time>2019-09-11T13:51:50Z</time>
      </trkpt>
      <trkpt lat="48.4661" lon="-2.03045">
        <ele>106.72749</ele>
        <time>2019-09-11T13:51:51Z</time>
      </trkpt>
      <trkpt lat="48.46615" lon="-2.03045">
        <ele>106.69148</ele>
        <time>2019-09-11T13:51:52Z</time>
      </trkpt>
      <trkpt lat="48.4662" lon="-2.03046">
        <ele>106.56111</ele>
        <time>2019-09-11T13:51:53Z</time>
      </trkpt>
      <trkpt lat="48.46625" lon="-2.03047">
        <ele>106.68162</ele>
        <time>2019-09-11T13:51:54Z</time>
      </trkpt>
      <trkpt lat="48.46629" lon="-2.03049">
        <ele>106.69448</ele>
        <time>2019-09-11T13:51:55Z</time>
      </trkpt>
      <trkpt lat="48.46634" lon="-2.0305">
        <ele>106.591125</ele>
        <time>2019-09-11T13:51:56Z</time>
      </trkpt>
      <trkpt lat="48.46639" lon="-2.03052">
        <ele>106.503204</ele>
        <time>2019-09-11T13:51:57Z</time>
      </trkpt>
      <trkpt lat="48.46643" lon="-2.03053">
        <ele>106.68524</ele>
        <time>2019-09-11T13:51:58Z</time>
      </trkpt>
      <trkpt lat="48.46648" lon="-2.03054">
        <ele>106.70865</ele>
        <time>2019-09-11T13:51:59Z</time>
      </trkpt>
      <trkpt lat="48.46653" lon="-2.03054">
        <ele>106.68558</ele>
        <time>2019-09-11T13:52:00Z</time>
      </trkpt>
      <trkpt lat="48.46658" lon="-2.03054">
        <ele>106.551315</ele>
        <time>2019-09-11T13:52:01Z</time>
      </trkpt>
      <trkpt lat="48.46662" lon="-2.03055">
        <ele>106.317726</ele>
        <time>2019-09-11T13:52:02Z</time>
      </trkpt>
      <trkpt lat="48.46666" lon="-2.03056">
        <ele>107.09816</ele>
        <time>2019-09-11T13:52:03Z</time>
      </trkpt>
      <trkpt lat="48.46671" lon="-2.03055">
        <ele>107.546646</ele>
        <time>2019-09-11T13:52:04Z</time>
      </trkpt>
      <trkpt lat="48.46674" lon="-2.03056">
        <ele>107.310776</ele>
        <time>2019-09-11T13:52:05Z</time>
      </trkpt>
      <trkpt lat="48.46678" lon="-2.03056">
        <ele>107.19451</ele>
        <time>2019-09-11T13:52:06Z</time>
      </trkpt>
      <trkpt lat="48.46682" lon="-2.03057">
        <ele>107.440765</ele>
        <time>2019-09-11T13:52:07Z</time>
      </trkpt>
      <trkpt lat="48.46685" lon="-2.03058">
        <ele>107.44379</ele>
        <time>2019-09-11T13:52:08Z</time>
      </trkpt>
      <trkpt lat="48.46689" lon="-2.03059">
        <ele>107.57703</ele>
        <time>2019-09-11T13:52:09Z</time>
      </trkpt>
      <trkpt lat="48.46692" lon="-2.03061">
        <ele>107.81612</ele>
        <time>2019-09-11T13:52:10Z</time>
      </trkpt>
      <trkpt lat="48.46695" lon="-2.03062">
        <ele>107.99087</ele>
        <time>2019-09-11T13:52:11Z</time>
      </trkpt>
      <trkpt lat="48.46698" lon="-2.03064">
        <ele>107.96582</ele>
        <time>2019-09-11T13:52:12Z</time>
      </trkpt>
      <trkpt lat="48.46701" lon="-2.03066">
        <ele>108.11508</ele>
        <time>2019-09-11T13:52:13Z</time>
      </trkpt>
      <trkpt lat="48.46703" lon="-2.03067">
        <ele>108.07612</ele>
        <time>2019-09-11T13:52:14Z</time>
      </trkpt>
      <trkpt lat="48.46706" lon="-2.03069">
        <ele>108.17083</ele>
        <time>2019-09-11T13:52:15Z</time>
      </trkpt>
      <trkpt lat="48.46709" lon="-2.0307">
        <ele>107.85757</ele>
        <time>2019-09-11T13:52:16Z</time>
      </trkpt>
      <trkpt lat="48.46713" lon="-2.03072">
        <ele>107.61615</ele>
        <time>2019-09-11T13:52:17Z</time>
      </trkpt>
      <trkpt lat="48.46716" lon="-2.03073">
        <ele>108.322296</ele>
        <time>2019-09-11T13:52:18Z</time>
      </trkpt>
      <trkpt lat="48.46719" lon="-2.03075">
        <ele>108.66761</ele>
        <time>2019-09-11T13:52:19Z</time>
      </trkpt>
      <trkpt lat="48.46722" lon="-2.03077">
        <ele>108.82239</ele>
        <time>2019-09-11T13:52:20Z</time>
      </trkpt>
      <trkpt lat="48.46725" lon="-2.0308">
        <ele>108.97001</ele>
        <time>2019-09-11T13:52:21Z</time>
      </trkpt>
      <trkpt lat="48.46727" lon="-2.03082">
        <ele>109.44093</ele>
        <time>2019-09-11T13:52:22Z</time>
      </trkpt>
      <trkpt lat="48.4673" lon="-2.03083">
        <ele>109.818726</ele>
        <time>2019-09-11T13:52:23Z</time>
      </trkpt>
      <trkpt lat="48.46732" lon="-2.03085">
        <ele>109.85234</ele>
        <time>2019-09-11T13:52:24Z</time>
      </trkpt>
      <trkpt lat="48.46734" lon="-2.03086">
        <ele>109.99099</ele>
        <time>2019-09-11T13:52:25Z</time>
      </trkpt>
      <trkpt lat="48.46735" lon="-2.03089">
        <ele>110.4498</ele>
        <time>2019-09-11T13:52:26Z</time>
      </trkpt>
      <trkpt lat="48.46737" lon="-2.03091">
        <ele>111.07</ele>
        <time>2019-09-11T13:52:27Z</time>
      </trkpt>
      <trkpt lat="48.46738" lon="-2.03092">
        <ele>111.49924</ele>
        <time>2019-09-11T13:52:28Z</time>
      </trkpt>
      <trkpt lat="48.4674" lon="-2.03093">
        <ele>111.88523</ele>
        <time>2019-09-11T13:52:29Z</time>
      </trkpt>
      <trkpt lat="48.46742" lon="-2.03094">
        <ele>112.40714</ele>
        <time>2019-09-11T13:52:30Z</time>
      </trkpt>
      <trkpt lat="48.46744" lon="-2.03095">
        <ele>112.802704</ele>
        <time>2019-09-11T13:52:31Z</time>
      </trkpt>
      <trkpt lat="48.46746" lon="-2.03096">
        <ele>113.19889</ele>
        <time>2019-09-11T13:52:32Z</time>
      </trkpt>
      <trkpt lat="48.46748" lon="-2.03097">
        <ele>113.55387</ele>
        <time>2019-09-11T13:52:33Z</time>
      </trkpt>
      <trkpt lat="48.4675" lon="-2.03098">
        <ele>114.06024</ele>
        <time>2019-09-11T13:52:34Z</time>
      </trkpt>
      <trkpt lat="48.46753" lon="-2.03099">
        <ele>114.43062</ele>
        <time>2019-09-11T13:52:35Z</time>
      </trkpt>
      <trkpt lat="48.46754" lon="-2.031">
        <ele>114.701935</ele>
        <time>2019-09-11T13:52:36Z</time>
      </trkpt>
      <trkpt lat="48.46756" lon="-2.03101">
        <ele>115.19925</ele>
        <time>2019-09-11T13:52:37Z</time>
      </trkpt>
      <trkpt lat="48.46757" lon="-2.03102">
        <ele>115.422935</ele>
        <time>2019-09-11T13:52:38Z</time>
      </trkpt>
      <trkpt lat="48.46759" lon="-2.03103">
        <ele>115.66082</ele>
        <time>2019-09-11T13:52:39Z</time>
      </trkpt>
      <trkpt lat="48.46761" lon="-2.03104">
        <ele>115.97346</ele>
        <time>2019-09-11T13:52:40Z</time>
      </trkpt>
      <trkpt lat="48.46763" lon="-2.03106">
        <ele>116.01758</ele>
        <time>2019-09-11T13:52:41Z</time>
      </trkpt>
      <trkpt lat="48.46764" lon="-2.03106">
        <ele>116.17807</ele>
        <time>2019-09-11T13:52:42Z</time>
      </trkpt>
      <trkpt lat="48.46766" lon="-2.03107">
        <ele>116.32434</ele>
        <time>2019-09-11T13:52:43Z</time>
      </trkpt>
      <trkpt lat="48.46768" lon="-2.03107">
        <ele>116.256256</ele>
        <time>2019-09-11T13:52:44Z</time>
      </trkpt>
      <trkpt lat="48.4677" lon="-2.03108">
        <ele>116.20735</ele>
        <time>2019-09-11T13:52:45Z</time>
      </trkpt>
      <trkpt lat="48.46772" lon="-2.03108">
        <ele>116.34147</ele>
        <time>2019-09-11T13:52:46Z</time>
      </trkpt>
      <trkpt lat="48.46775" lon="-2.03108">
        <ele>116.48911</ele>
        <time>2019-09-11T13:52:47Z</time>
      </trkpt>
      <trkpt lat="48.46777" lon="-2.03109">
        <ele>116.72268</ele>
        <time>2019-09-11T13:52:48Z</time>
      </trkpt>
      <trkpt lat="48.4678" lon="-2.03109">
        <ele>116.761055</ele>
        <time>2019-09-11T13:52:49Z</time>
      </trkpt>
      <trkpt lat="48.46783" lon="-2.0311">
        <ele>117.00354</ele>
        <time>2019-09-11T13:52:50Z</time>
      </trkpt>
      <trkpt lat="48.46786" lon="-2.03111">
        <ele>117.0995</ele>
        <time>2019-09-11T13:52:51Z</time>
      </trkpt>
      <trkpt lat="48.46789" lon="-2.03112">
        <ele>117.13649</ele>
        <time>2019-09-11T13:52:52Z</time>
      </trkpt>
      <trkpt lat="48.46792" lon="-2.03113">
        <ele>117.22779</ele>
        <time>2019-09-11T13:52:53Z</time>
      </trkpt>
      <trkpt lat="48.46795" lon="-2.03114">
        <ele>117.353775</ele>
        <time>2019-09-11T13:52:54Z</time>
      </trkpt>
      <trkpt lat="48.46798" lon="-2.03115">
        <ele>117.56033</ele>
        <time>2019-09-11T13:52:55Z</time>
      </trkpt>
      <trkpt lat="48.46801" lon="-2.03117">
        <ele>117.76407</ele>
        <time>2019-09-11T13:52:56Z</time>
      </trkpt>
      <trkpt lat="48.46805" lon="-2.03118">
        <ele>117.85895</ele>
        <time>2019-09-11T13:52:57Z</time>
      </trkpt>
      <trkpt lat="48.46809" lon="-2.03119">
        <ele>117.96688</ele>
        <time>2019-09-11T13:52:58Z</time>
      </trkpt>
      <trkpt lat="48.46812" lon="-2.03121">
        <ele>118.131874</ele>
        <time>2019-09-11T13:52:59Z</time>
      </trkpt>
      <trkpt lat="48.46816" lon="-2.03122">
        <ele>118.41754</ele>
        <time>2019-09-11T13:53:00Z</time>
      </trkpt>
      <trkpt lat="48.46819" lon="-2.03123">
        <ele>118.66302</ele>
        <time>2019-09-11T13:53:01Z</time>
      </trkpt>
      <trkpt lat="48.46822" lon="-2.03124">
        <ele>118.96121</ele>
        <time>2019-09-11T13:53:02Z</time>
      </trkpt>
      <trkpt lat="48.46826" lon="-2.03126">
        <ele>119.25276</ele>
        <time>2019-09-11T13:53:03Z</time>
      </trkpt>
      <trkpt lat="48.46829" lon="-2.03127">
        <ele>119.39896</ele>
        <time>2019-09-11T13:53:04Z</time>
      </trkpt>
      <trkpt lat="48.46833" lon="-2.03128">
        <ele>119.489655</ele>
        <time>2019-09-11T13:53:05Z</time>
      </trkpt>
      <trkpt lat="48.46837" lon="-2.03129">
        <ele>119.51454</ele>
        <time>2019-09-11T13:53:06Z</time>
      </trkpt>
      <trkpt lat="48.4684" lon="-2.0313">
        <ele>119.53022</ele>
        <time>2019-09-11T13:53:07Z</time>
      </trkpt>
      <trkpt lat="48.46844" lon="-2.0313">
        <ele>119.488976</ele>
        <time>2019-09-11T13:53:08Z</time>
      </trkpt>
      <trkpt lat="48.46848" lon="-2.03131">
        <ele>119.52283</ele>
        <time>2019-09-11T13:53:09Z</time>
      </trkpt>
      <trkpt lat="48.46852" lon="-2.03131">
        <ele>119.420876</ele>
        <time>2019-09-11T13:53:10Z</time>
      </trkpt>
      <trkpt lat="48.46856" lon="-2.03131">
        <ele>119.330696</ele>
        <time>2019-09-11T13:53:11Z</time>
      </trkpt>
      <trkpt lat="48.46859" lon="-2.03132">
        <ele>119.22138</ele>
        <time>2019-09-11T13:53:12Z</time>
      </trkpt>
      <trkpt lat="48.46863" lon="-2.03132">
        <ele>119.0753</ele>
        <time>2019-09-11T13:53:13Z</time>
      </trkpt>
      <trkpt lat="48.46867" lon="-2.03132">
        <ele>118.96502</ele>
        <time>2019-09-11T13:53:14Z</time>
      </trkpt>
      <trkpt lat="48.46871" lon="-2.03133">
        <ele>118.88201</ele>
        <time>2019-09-11T13:53:15Z</time>
      </trkpt>
      <trkpt lat="48.46875" lon="-2.03133">
        <ele>118.85338</ele>
        <time>2019-09-11T13:53:16Z</time>
      </trkpt>
      <trkpt lat="48.4688" lon="-2.03134">
        <ele>118.83357</ele>
        <time>2019-09-11T13:53:17Z</time>
      </trkpt>
      <trkpt lat="48.46885" lon="-2.03134">
        <ele>118.59124</ele>
        <time>2019-09-11T13:53:18Z</time>
      </trkpt>
      <trkpt lat="48.4689" lon="-2.03134">
        <ele>118.392746</ele>
        <time>2019-09-11T13:53:19Z</time>
      </trkpt>
      <trkpt lat="48.46895" lon="-2.03134">
        <ele>118.38795</ele>
        <time>2019-09-11T13:53:20Z</time>
      </trkpt>
      <trkpt lat="48.469" lon="-2.03134">
        <ele>118.29456</ele>
        <time>2019-09-11T13:53:21Z</time>
      </trkpt>
      <trkpt lat="48.46906" lon="-2.03133">
        <ele>118.35607</ele>
        <time>2019-09-11T13:53:22Z</time>
      </trkpt>
      <trkpt lat="48.46911" lon="-2.03133">
        <ele>118.508415</ele>
        <time>2019-09-11T13:53:23Z</time>
      </trkpt>
      <trkpt lat="48.46915" lon="-2.03131">
        <ele>118.67095</ele>
        <time>2019-09-11T13:53:24Z</time>
      </trkpt>
      <trkpt lat="48.4692" lon="-2.03129">
        <ele>118.71407</ele>
        <time>2019-09-11T13:53:25Z</time>
      </trkpt>
      <trkpt lat="48.46925" lon="-2.03127">
        <ele>118.69268</ele>
        <time>2019-09-11T13:53:26Z</time>
      </trkpt>
      <trkpt lat="48.4693" lon="-2.03124">
        <ele>118.526726</ele>
        <time>2019-09-11T13:53:27Z</time>
      </trkpt>
      <trkpt lat="48.46935" lon="-2.03121">
        <ele>118.586624</ele>
        <time>2019-09-11T13:53:28Z</time>
      </trkpt>
      <trkpt lat="48.4694" lon="-2.03118">
        <ele>118.65822</ele>
        <time>2019-09-11T13:53:29Z</time>
      </trkpt>
      <trkpt lat="48.46946" lon="-2.03115">
        <ele>118.834526</ele>
        <time>2019-09-11T13:53:30Z</time>
      </trkpt>
      <trkpt lat="48.46951" lon="-2.03112">
        <ele>118.97814</ele>
        <time>2019-09-11T13:53:31Z</time>
      </trkpt>
      <trkpt lat="48.46957" lon="-2.0311">
        <ele>119.038414</ele>
        <time>2019-09-11T13:53:32Z</time>
      </trkpt>
      <trkpt lat="48.46962" lon="-2.03107">
        <ele>119.15647</ele>
        <time>2019-09-11T13:53:33Z</time>
      </trkpt>
      <trkpt lat="48.46968" lon="-2.03105">
        <ele>119.29467</ele>
        <time>2019-09-11T13:53:34Z</time>
      </trkpt>
      <trkpt lat="48.46974" lon="-2.03103">
        <ele>119.1943</ele>
        <time>2019-09-11T13:53:35Z</time>
      </trkpt>
      <trkpt lat="48.4698" lon="-2.03101">
        <ele>118.96166</ele>
        <time>2019-09-11T13:53:36Z</time>
      </trkpt>
      <trkpt lat="48.46986" lon="-2.03099">
        <ele>118.87948</ele>
        <time>2019-09-11T13:53:37Z</time>
      </trkpt>
      <trkpt lat="48.46992" lon="-2.03098">
        <ele>119.064514</ele>
        <time>2019-09-11T13:53:38Z</time>
      </trkpt>
      <trkpt lat="48.46998" lon="-2.03097">
        <ele>119.18076</ele>
        <time>2019-09-11T13:53:39Z</time>
      </trkpt>
      <trkpt lat="48.47004" lon="-2.03096">
        <ele>119.30305</ele>
        <time>2019-09-11T13:53:40Z</time>
      </trkpt>
      <trkpt lat="48.4701" lon="-2.03094">
        <ele>119.53948</ele>
        <time>2019-09-11T13:53:41Z</time>
      </trkpt>
      <trkpt lat="48.47016" lon="-2.03093">
        <ele>119.50598</ele>
        <time>2019-09-11T13:53:42Z</time>
      </trkpt>
      <trkpt lat="48.47022" lon="-2.03092">
        <ele>119.49988</ele>
        <time>2019-09-11T13:53:43Z</time>
      </trkpt>
      <trkpt lat="48.47028" lon="-2.03091">
        <ele>119.46598</ele>
        <time>2019-09-11T13:53:44Z</time>
      </trkpt>
      <trkpt lat="48.47034" lon="-2.03089">
        <ele>119.55161</ele>
        <time>2019-09-11T13:53:45Z</time>
      </trkpt>
      <trkpt lat="48.47039" lon="-2.03088">
        <ele>119.51041</ele>
        <time>2019-09-11T13:53:46Z</time>
      </trkpt>
      <trkpt lat="48.47046" lon="-2.03086">
        <ele>119.430214</ele>
        <time>2019-09-11T13:53:47Z</time>
      </trkpt>
      <trkpt lat="48.47052" lon="-2.03085">
        <ele>119.365005</ele>
        <time>2019-09-11T13:53:48Z</time>
      </trkpt>
      <trkpt lat="48.47058" lon="-2.03083">
        <ele>119.37775</ele>
        <time>2019-09-11T13:53:49Z</time>
      </trkpt>
      <trkpt lat="48.47064" lon="-2.03081">
        <ele>119.30222</ele>
        <time>2019-09-11T13:53:50Z</time>
      </trkpt>
      <trkpt lat="48.4707" lon="-2.03079">
        <ele>119.31215</ele>
        <time>2019-09-11T13:53:51Z</time>
      </trkpt>
      <trkpt lat="48.47076" lon="-2.03077">
        <ele>119.03108</ele>
        <time>2019-09-11T13:53:52Z</time>
      </trkpt>
      <trkpt lat="48.47082" lon="-2.03075">
        <ele>118.77915</ele>
        <time>2019-09-11T13:53:53Z</time>
      </trkpt>
      <trkpt lat="48.47088" lon="-2.03074">
        <ele>118.21155</ele>
        <time>2019-09-11T13:53:54Z</time>
      </trkpt>
      <trkpt lat="48.47093" lon="-2.03073">
        <ele>118.239525</ele>
        <time>2019-09-11T13:53:55Z</time>
      </trkpt>
      <trkpt lat="48.47098" lon="-2.03072">
        <ele>118.20329</ele>
        <time>2019-09-11T13:53:56Z</time>
      </trkpt>
      <trkpt lat="48.47103" lon="-2.03072">
        <ele>118.00917</ele>
        <time>2019-09-11T13:53:57Z</time>
      </trkpt>
      <trkpt lat="48.47109" lon="-2.03072">
        <ele>117.526215</ele>
        <time>2019-09-11T13:53:58Z</time>
      </trkpt>
      <trkpt lat="48.47114" lon="-2.03072">
        <ele>117.563126</ele>
        <time>2019-09-11T13:53:59Z</time>
      </trkpt>
      <trkpt lat="48.4712" lon="-2.03072">
        <ele>117.42856</ele>
        <time>2019-09-11T13:54:00Z</time>
      </trkpt>
      <trkpt lat="48.47125" lon="-2.03073">
        <ele>117.485634</ele>
        <time>2019-09-11T13:54:01Z</time>
      </trkpt>
      <trkpt lat="48.4713" lon="-2.03074">
        <ele>117.502655</ele>
        <time>2019-09-11T13:54:02Z</time>
      </trkpt>
      <trkpt lat="48.47135" lon="-2.03075">
        <ele>117.423935</ele>
        <time>2019-09-11T13:54:03Z</time>
      </trkpt>
      <trkpt lat="48.47141" lon="-2.03077">
        <ele>117.47149</ele>
        <time>2019-09-11T13:54:04Z</time>
      </trkpt>
      <trkpt lat="48.47146" lon="-2.03079">
        <ele>117.15716</ele>
        <time>2019-09-11T13:54:05Z</time>
      </trkpt>
      <trkpt lat="48.4715" lon="-2.03081">
        <ele>116.98772</ele>
        <time>2019-09-11T13:54:06Z</time>
      </trkpt>
      <trkpt lat="48.47155" lon="-2.03084">
        <ele>116.814125</ele>
        <time>2019-09-11T13:54:07Z</time>
      </trkpt>
      <trkpt lat="48.4716" lon="-2.03088">
        <ele>116.694336</ele>
        <time>2019-09-11T13:54:08Z</time>
      </trkpt>
      <trkpt lat="48.47165" lon="-2.03092">
        <ele>116.67751</ele>
        <time>2019-09-11T13:54:09Z</time>
      </trkpt>
      <trkpt lat="48.4717" lon="-2.03097">
        <ele>116.52137</ele>
        <time>2019-09-11T13:54:10Z</time>
      </trkpt>
      <trkpt lat="48.47175" lon="-2.03101">
        <ele>116.7001</ele>
        <time>2019-09-11T13:54:11Z</time>
      </trkpt>
      <trkpt lat="48.47179" lon="-2.03106">
        <ele>116.5817</ele>
        <time>2019-09-11T13:54:12Z</time>
      </trkpt>
      <trkpt lat="48.47184" lon="-2.03111">
        <ele>116.568756</ele>
        <time>2019-09-11T13:54:13Z</time>
      </trkpt>
      <trkpt lat="48.47189" lon="-2.03116">
        <ele>116.81026</ele>
        <time>2019-09-11T13:54:14Z</time>
      </trkpt>
      <trkpt lat="48.47193" lon="-2.03121">
        <ele>117.08498</ele>
        <time>2019-09-11T13:54:15Z</time>
      </trkpt>
      <trkpt lat="48.47197" lon="-2.03126">
        <ele>117.38319</ele>
        <time>2019-09-11T13:54:16Z</time>
      </trkpt>
      <trkpt lat="48.47202" lon="-2.0313">
        <ele>117.48004</ele>
        <time>2019-09-11T13:54:17Z</time>
      </trkpt>
      <trkpt lat="48.47206" lon="-2.03135">
        <ele>117.70253</ele>
        <time>2019-09-11T13:54:18Z</time>
      </trkpt>
      <trkpt lat="48.4721" lon="-2.0314">
        <ele>117.76792</ele>
        <time>2019-09-11T13:54:19Z</time>
      </trkpt>
      <trkpt lat="48.47215" lon="-2.03144">
        <ele>117.99149</ele>
        <time>2019-09-11T13:54:20Z</time>
      </trkpt>
      <trkpt lat="48.47219" lon="-2.03147">
        <ele>118.2262</ele>
        <time>2019-09-11T13:54:21Z</time>
      </trkpt>
      <trkpt lat="48.47223" lon="-2.0315">
        <ele>118.313484</ele>
        <time>2019-09-11T13:54:22Z</time>
      </trkpt>
      <trkpt lat="48.47228" lon="-2.03154">
        <ele>118.63523</ele>
        <time>2019-09-11T13:54:23Z</time>
      </trkpt>
      <trkpt lat="48.47232" lon="-2.03158">
        <ele>118.74539</ele>
        <time>2019-09-11T13:54:24Z</time>
      </trkpt>
      <trkpt lat="48.47236" lon="-2.03163">
        <ele>118.91431</ele>
        <time>2019-09-11T13:54:25Z</time>
      </trkpt>
      <trkpt lat="48.4724" lon="-2.03167">
        <ele>119.27494</ele>
        <time>2019-09-11T13:54:26Z</time>
      </trkpt>
      <trkpt lat="48.47245" lon="-2.03171">
        <ele>119.457214</ele>
        <time>2019-09-11T13:54:27Z</time>
      </trkpt>
      <trkpt lat="48.47249" lon="-2.03175">
        <ele>119.5369</ele>
        <time>2019-09-11T13:54:28Z</time>
      </trkpt>
      <trkpt lat="48.47252" lon="-2.03179">
        <ele>119.775604</ele>
        <time>2019-09-11T13:54:29Z</time>
      </trkpt>
      <trkpt lat="48.47256" lon="-2.03183">
        <ele>119.96681</ele>
        <time>2019-09-11T13:54:30Z</time>
      </trkpt>
      <trkpt lat="48.47259" lon="-2.03187">
        <ele>119.95773</ele>
        <time>2019-09-11T13:54:31Z</time>
      </trkpt>
      <trkpt lat="48.47263" lon="-2.0319">
        <ele>120.07803</ele>
        <time>2019-09-11T13:54:32Z</time>
      </trkpt>
      <trkpt lat="48.47268" lon="-2.03193">
        <ele>120.1947</ele>
        <time>2019-09-11T13:54:33Z</time>
      </trkpt>
      <trkpt lat="48.47272" lon="-2.03197">
        <ele>120.27071</ele>
        <time>2019-09-11T13:54:34Z</time>
      </trkpt>
      <trkpt lat="48.47276" lon="-2.03199">
        <ele>119.99545</ele>
        <time>2019-09-11T13:54:35Z</time>
      </trkpt>
      <trkpt lat="48.4728" lon="-2.03201">
        <ele>119.94442</ele>
        <time>2019-09-11T13:54:36Z</time>
      </trkpt>
      <trkpt lat="48.47288" lon="-2.03204">
        <ele>119.78429</ele>
        <time>2019-09-11T13:54:38Z</time>
      </trkpt>
      <trkpt lat="48.47293" lon="-2.03205">
        <ele>119.76834</ele>
        <time>2019-09-11T13:54:39Z</time>
      </trkpt>
      <trkpt lat="48.47298" lon="-2.03205">
        <ele>119.583694</ele>
        <time>2019-09-11T13:54:40Z</time>
      </trkpt>
      <trkpt lat="48.47303" lon="-2.03206">
        <ele>119.49404</ele>
        <time>2019-09-11T13:54:41Z</time>
      </trkpt>
      <trkpt lat="48.47308" lon="-2.03207">
        <ele>119.57425</ele>
        <time>2019-09-11T13:54:42Z</time>
      </trkpt>
      <trkpt lat="48.47314" lon="-2.03209">
        <ele>119.66425</ele>
        <time>2019-09-11T13:54:43Z</time>
      </trkpt>
      <trkpt lat="48.47319" lon="-2.03212">
        <ele>119.60884</ele>
        <time>2019-09-11T13:54:44Z</time>
      </trkpt>
      <trkpt lat="48.47325" lon="-2.03213">
        <ele>119.55765</ele>
        <time>2019-09-11T13:54:45Z</time>
      </trkpt>
      <trkpt lat="48.47331" lon="-2.03214">
        <ele>119.55146</ele>
        <time>2019-09-11T13:54:46Z</time>
      </trkpt>
      <trkpt lat="48.47337" lon="-2.03215">
        <ele>119.51388</ele>
        <time>2019-09-11T13:54:47Z</time>
      </trkpt>
      <trkpt lat="48.47342" lon="-2.03216">
        <ele>119.43596</ele>
        <time>2019-09-11T13:54:48Z</time>
      </trkpt>
      <trkpt lat="48.47349" lon="-2.03217">
        <ele>119.57371</ele>
        <time>2019-09-11T13:54:49Z</time>
      </trkpt>
      <trkpt lat="48.47355" lon="-2.03218">
        <ele>119.60626</ele>
        <time>2019-09-11T13:54:50Z</time>
      </trkpt>
      <trkpt lat="48.47361" lon="-2.03219">
        <ele>119.64201</ele>
        <time>2019-09-11T13:54:51Z</time>
      </trkpt>
      <trkpt lat="48.47368" lon="-2.0322">
        <ele>119.65353</ele>
        <time>2019-09-11T13:54:52Z</time>
      </trkpt>
      <trkpt lat="48.47374" lon="-2.03221">
        <ele>119.781525</ele>
        <time>2019-09-11T13:54:53Z</time>
      </trkpt>
      <trkpt lat="48.4738" lon="-2.03222">
        <ele>119.79405</ele>
        <time>2019-09-11T13:54:54Z</time>
      </trkpt>
      <trkpt lat="48.47387" lon="-2.03222">
        <ele>119.87255</ele>
        <time>2019-09-11T13:54:55Z</time>
      </trkpt>
      <trkpt lat="48.47394" lon="-2.03222">
        <ele>119.8641</ele>
        <time>2019-09-11T13:54:56Z</time>
      </trkpt>
      <trkpt lat="48.47401" lon="-2.03221">
        <ele>119.8081</ele>
        <time>2019-09-11T13:54:57Z</time>
      </trkpt>
      <trkpt lat="48.47408" lon="-2.03219">
        <ele>119.81178</ele>
        <time>2019-09-11T13:54:58Z</time>
      </trkpt>
      <trkpt lat="48.47414" lon="-2.03216">
        <ele>120.02188</ele>
        <time>2019-09-11T13:54:59Z</time>
      </trkpt>
      <trkpt lat="48.4742" lon="-2.03214">
        <ele>120.22466</ele>
        <time>2019-09-11T13:55:00Z</time>
      </trkpt>
      <trkpt lat="48.47426" lon="-2.03211">
        <ele>120.05305</ele>
        <time>2019-09-11T13:55:01Z</time>
      </trkpt>
      <trkpt lat="48.47432" lon="-2.03208">
        <ele>120.06099</ele>
        <time>2019-09-11T13:55:02Z</time>
      </trkpt>
      <trkpt lat="48.47437" lon="-2.03205">
        <ele>119.93127</ele>
        <time>2019-09-11T13:55:03Z</time>
      </trkpt>
      <trkpt lat="48.47443" lon="-2.032">
        <ele>119.62369</ele>
        <time>2019-09-11T13:55:04Z</time>
      </trkpt>
      <trkpt lat="48.47448" lon="-2.03196">
        <ele>119.14285</ele>
        <time>2019-09-11T13:55:05Z</time>
      </trkpt>
      <trkpt lat="48.47453" lon="-2.0319">
        <ele>118.7167</ele>
        <time>2019-09-11T13:55:06Z</time>
      </trkpt>
      <trkpt lat="48.47458" lon="-2.03185">
        <ele>118.49672</ele>
        <time>2019-09-11T13:55:07Z</time>
      </trkpt>
      <trkpt lat="48.47463" lon="-2.0318">
        <ele>118.252884</ele>
        <time>2019-09-11T13:55:08Z</time>
      </trkpt>
      <trkpt lat="48.47468" lon="-2.03175">
        <ele>118.0664</ele>
        <time>2019-09-11T13:55:09Z</time>
      </trkpt>
      <trkpt lat="48.47474" lon="-2.03171">
        <ele>117.94982</ele>
        <time>2019-09-11T13:55:10Z</time>
      </trkpt>
      <trkpt lat="48.47479" lon="-2.03167">
        <ele>117.90633</ele>
        <time>2019-09-11T13:55:11Z</time>
      </trkpt>
      <trkpt lat="48.47485" lon="-2.03163">
        <ele>118.06765</ele>
        <time>2019-09-11T13:55:12Z</time>
      </trkpt>
      <trkpt lat="48.4749" lon="-2.03158">
        <ele>118.20138</ele>
        <time>2019-09-11T13:55:13Z</time>
      </trkpt>
      <trkpt lat="48.47496" lon="-2.03154">
        <ele>118.285484</ele>
        <time>2019-09-11T13:55:14Z</time>
      </trkpt>
      <trkpt lat="48.47503" lon="-2.0315">
        <ele>118.34936</ele>
        <time>2019-09-11T13:55:15Z</time>
      </trkpt>
      <trkpt lat="48.47509" lon="-2.03146">
        <ele>118.43177</ele>
        <time>2019-09-11T13:55:16Z</time>
      </trkpt>
      <trkpt lat="48.47515" lon="-2.03142">
        <ele>118.6189</ele>
        <time>2019-09-11T13:55:17Z</time>
      </trkpt>
      <trkpt lat="48.47521" lon="-2.03138">
        <ele>118.78891</ele>
        <time>2019-09-11T13:55:18Z</time>
      </trkpt>
      <trkpt lat="48.47527" lon="-2.03134">
        <ele>118.96422</ele>
        <time>2019-09-11T13:55:19Z</time>
      </trkpt>
      <trkpt lat="48.47534" lon="-2.0313">
        <ele>119.13118</ele>
        <time>2019-09-11T13:55:20Z</time>
      </trkpt>
      <trkpt lat="48.47541" lon="-2.03126">
        <ele>119.393135</ele>
        <time>2019-09-11T13:55:21Z</time>
      </trkpt>
      <trkpt lat="48.47547" lon="-2.03123">
        <ele>119.47165</ele>
        <time>2019-09-11T13:55:22Z</time>
      </trkpt>
      <trkpt lat="48.47554" lon="-2.03119">
        <ele>119.43563</ele>
        <time>2019-09-11T13:55:23Z</time>
      </trkpt>
      <trkpt lat="48.47561" lon="-2.03115">
        <ele>119.447914</ele>
        <time>2019-09-11T13:55:24Z</time>
      </trkpt>
      <trkpt lat="48.47568" lon="-2.03111">
        <ele>119.41085</ele>
        <time>2019-09-11T13:55:25Z</time>
      </trkpt>
      <trkpt lat="48.47575" lon="-2.03107">
        <ele>119.27763</ele>
        <time>2019-09-11T13:55:26Z</time>
      </trkpt>
      <trkpt lat="48.47583" lon="-2.03103">
        <ele>119.15127</ele>
        <time>2019-09-11T13:55:27Z</time>
      </trkpt>
      <trkpt lat="48.47591" lon="-2.03099">
        <ele>118.98056</ele>
        <time>2019-09-11T13:55:28Z</time>
      </trkpt>
      <trkpt lat="48.47598" lon="-2.03095">
        <ele>118.92254</ele>
        <time>2019-09-11T13:55:29Z</time>
      </trkpt>
      <trkpt lat="48.47605" lon="-2.03092">
        <ele>118.84765</ele>
        <time>2019-09-11T13:55:30Z</time>
      </trkpt>
      <trkpt lat="48.47613" lon="-2.03089">
        <ele>118.812004</ele>
        <time>2019-09-11T13:55:31Z</time>
      </trkpt>
      <trkpt lat="48.4762" lon="-2.03086">
        <ele>118.64985</ele>
        <time>2019-09-11T13:55:32Z</time>
      </trkpt>
      <trkpt lat="48.47627" lon="-2.03083">
        <ele>118.53566</ele>
        <time>2019-09-11T13:55:33Z</time>
      </trkpt>
      <trkpt lat="48.47634" lon="-2.03079">
        <ele>118.290955</ele>
        <time>2019-09-11T13:55:34Z</time>
      </trkpt>
      <trkpt lat="48.47641" lon="-2.03077">
        <ele>118.34905</ele>
        <time>2019-09-11T13:55:35Z</time>
      </trkpt>
      <trkpt lat="48.47648" lon="-2.03074">
        <ele>118.36534</ele>
        <time>2019-09-11T13:55:36Z</time>
      </trkpt>
      <trkpt lat="48.47655" lon="-2.03072">
        <ele>118.213524</ele>
        <time>2019-09-11T13:55:37Z</time>
      </trkpt>
      <trkpt lat="48.47662" lon="-2.03069">
        <ele>118.2136</ele>
        <time>2019-09-11T13:55:38Z</time>
      </trkpt>
      <trkpt lat="48.47668" lon="-2.03067">
        <ele>118.102135</ele>
        <time>2019-09-11T13:55:39Z</time>
      </trkpt>
      <trkpt lat="48.47675" lon="-2.03065">
        <ele>118.14079</ele>
        <time>2019-09-11T13:55:40Z</time>
      </trkpt>
      <trkpt lat="48.47681" lon="-2.03062">
        <ele>117.946236</ele>
        <time>2019-09-11T13:55:41Z</time>
      </trkpt>
      <trkpt lat="48.47688" lon="-2.0306">
        <ele>117.84645</ele>
        <time>2019-09-11T13:55:42Z</time>
      </trkpt>
      <trkpt lat="48.47694" lon="-2.03058">
        <ele>117.66717</ele>
        <time>2019-09-11T13:55:43Z</time>
      </trkpt>
      <trkpt lat="48.47701" lon="-2.03056">
        <ele>117.43002</ele>
        <time>2019-09-11T13:55:44Z</time>
      </trkpt>
      <trkpt lat="48.47706" lon="-2.03055">
        <ele>117.33134</ele>
        <time>2019-09-11T13:55:45Z</time>
      </trkpt>
      <trkpt lat="48.47712" lon="-2.03053">
        <ele>117.297005</ele>
        <time>2019-09-11T13:55:46Z</time>
      </trkpt>
      <trkpt lat="48.47718" lon="-2.03052">
        <ele>117.194725</ele>
        <time>2019-09-11T13:55:47Z</time>
      </trkpt>
      <trkpt lat="48.47724" lon="-2.0305">
        <ele>116.87926</ele>
        <time>2019-09-11T13:55:48Z</time>
      </trkpt>
      <trkpt lat="48.47729" lon="-2.03049">
        <ele>116.676</ele>
        <time>2019-09-11T13:55:49Z</time>
      </trkpt>
      <trkpt lat="48.47735" lon="-2.03047">
        <ele>116.59811</ele>
        <time>2019-09-11T13:55:50Z</time>
      </trkpt>
      <trkpt lat="48.47741" lon="-2.03045">
        <ele>116.70978</ele>
        <time>2019-09-11T13:55:51Z</time>
      </trkpt>
      <trkpt lat="48.47747" lon="-2.03044">
        <ele>116.58361</ele>
        <time>2019-09-11T13:55:52Z</time>
      </trkpt>
      <trkpt lat="48.47752" lon="-2.03044">
        <ele>116.637215</ele>
        <time>2019-09-11T13:55:53Z</time>
      </trkpt>
      <trkpt lat="48.47758" lon="-2.03044">
        <ele>116.4371</ele>
        <time>2019-09-11T13:55:54Z</time>
      </trkpt>
      <trkpt lat="48.47764" lon="-2.03044">
        <ele>116.25871</ele>
        <time>2019-09-11T13:55:55Z</time>
      </trkpt>
      <trkpt lat="48.4777" lon="-2.03043">
        <ele>115.95882</ele>
        <time>2019-09-11T13:55:56Z</time>
      </trkpt>
      <trkpt lat="48.47777" lon="-2.03043">
        <ele>115.98222</ele>
        <time>2019-09-11T13:55:57Z</time>
      </trkpt>
      <trkpt lat="48.47784" lon="-2.03043">
        <ele>116.034706</ele>
        <time>2019-09-11T13:55:58Z</time>
      </trkpt>
      <trkpt lat="48.47791" lon="-2.03044">
        <ele>116.06631</ele>
        <time>2019-09-11T13:55:59Z</time>
      </trkpt>
      <trkpt lat="48.47797" lon="-2.03044">
        <ele>116.08887</ele>
        <time>2019-09-11T13:56:00Z</time>
      </trkpt>
      <trkpt lat="48.47804" lon="-2.03044">
        <ele>116.07328</ele>
        <time>2019-09-11T13:56:01Z</time>
      </trkpt>
      <trkpt lat="48.47812" lon="-2.03043">
        <ele>115.994225</ele>
        <time>2019-09-11T13:56:02Z</time>
      </trkpt>
      <trkpt lat="48.47819" lon="-2.03042">
        <ele>116.05094</ele>
        <time>2019-09-11T13:56:03Z</time>
      </trkpt>
      <trkpt lat="48.47826" lon="-2.03041">
        <ele>116.1234</ele>
        <time>2019-09-11T13:56:04Z</time>
      </trkpt>
      <trkpt lat="48.47833" lon="-2.03039">
        <ele>116.1319</ele>
        <time>2019-09-11T13:56:05Z</time>
      </trkpt>
      <trkpt lat="48.4784" lon="-2.03036">
        <ele>116.1337</ele>
        <time>2019-09-11T13:56:06Z</time>
      </trkpt>
      <trkpt lat="48.47847" lon="-2.03033">
        <ele>116.09271</ele>
        <time>2019-09-11T13:56:07Z</time>
      </trkpt>
      <trkpt lat="48.47854" lon="-2.0303">
        <ele>115.986115</ele>
        <time>2019-09-11T13:56:08Z</time>
      </trkpt>
      <trkpt lat="48.4786" lon="-2.03027">
        <ele>115.85759</ele>
        <time>2019-09-11T13:56:09Z</time>
      </trkpt>
      <trkpt lat="48.47868" lon="-2.03024">
        <ele>116.013016</ele>
        <time>2019-09-11T13:56:10Z</time>
      </trkpt>
      <trkpt lat="48.47875" lon="-2.0302">
        <ele>115.97124</ele>
        <time>2019-09-11T13:56:11Z</time>
      </trkpt>
      <trkpt lat="48.47882" lon="-2.03016">
        <ele>115.77555</ele>
        <time>2019-09-11T13:56:12Z</time>
      </trkpt>
      <trkpt lat="48.47889" lon="-2.03012">
        <ele>115.644966</ele>
        <time>2019-09-11T13:56:13Z</time>
      </trkpt>
      <trkpt lat="48.47896" lon="-2.03008">
        <ele>115.469635</ele>
        <time>2019-09-11T13:56:14Z</time>
      </trkpt>
      <trkpt lat="48.47904" lon="-2.03003">
        <ele>115.32843</ele>
        <time>2019-09-11T13:56:15Z</time>
      </trkpt>
      <trkpt lat="48.47911" lon="-2.02999">
        <ele>115.18253</ele>
        <time>2019-09-11T13:56:16Z</time>
      </trkpt>
      <trkpt lat="48.47919" lon="-2.02994">
        <ele>115.04142</ele>
        <time>2019-09-11T13:56:17Z</time>
      </trkpt>
      <trkpt lat="48.47926" lon="-2.02989">
        <ele>114.81875</ele>
        <time>2019-09-11T13:56:18Z</time>
      </trkpt>
      <trkpt lat="48.47934" lon="-2.02985">
        <ele>114.66611</ele>
        <time>2019-09-11T13:56:19Z</time>
      </trkpt>
      <trkpt lat="48.47942" lon="-2.0298">
        <ele>114.620514</ele>
        <time>2019-09-11T13:56:20Z</time>
      </trkpt>
      <trkpt lat="48.4795" lon="-2.02976">
        <ele>114.612946</ele>
        <time>2019-09-11T13:56:21Z</time>
      </trkpt>
      <trkpt lat="48.47958" lon="-2.02972">
        <ele>114.614876</ele>
        <time>2019-09-11T13:56:22Z</time>
      </trkpt>
      <trkpt lat="48.47966" lon="-2.02968">
        <ele>114.48573</ele>
        <time>2019-09-11T13:56:23Z</time>
      </trkpt>
      <trkpt lat="48.47974" lon="-2.02965">
        <ele>114.4684</ele>
        <time>2019-09-11T13:56:24Z</time>
      </trkpt>
      <trkpt lat="48.47983" lon="-2.02963">
        <ele>114.32734</ele>
        <time>2019-09-11T13:56:25Z</time>
      </trkpt>
      <trkpt lat="48.47991" lon="-2.0296">
        <ele>114.29929</ele>
        <time>2019-09-11T13:56:26Z</time>
      </trkpt>
      <trkpt lat="48.48" lon="-2.02958">
        <ele>114.248344</ele>
        <time>2019-09-11T13:56:27Z</time>
      </trkpt>
      <trkpt lat="48.48008" lon="-2.02956">
        <ele>114.202225</ele>
        <time>2019-09-11T13:56:28Z</time>
      </trkpt>
      <trkpt lat="48.48017" lon="-2.02954">
        <ele>114.214714</ele>
        <time>2019-09-11T13:56:29Z</time>
      </trkpt>
      <trkpt lat="48.48026" lon="-2.02952">
        <ele>114.29457</ele>
        <time>2019-09-11T13:56:30Z</time>
      </trkpt>
      <trkpt lat="48.48034" lon="-2.0295">
        <ele>114.57835</ele>
        <time>2019-09-11T13:56:31Z</time>
      </trkpt>
      <trkpt lat="48.48042" lon="-2.02949">
        <ele>114.67663</ele>
        <time>2019-09-11T13:56:32Z</time>
      </trkpt>
      <trkpt lat="48.4805" lon="-2.02947">
        <ele>114.7909</ele>
        <time>2019-09-11T13:56:33Z</time>
      </trkpt>
      <trkpt lat="48.48058" lon="-2.02944">
        <ele>114.73126</ele>
        <time>2019-09-11T13:56:34Z</time>
      </trkpt>
      <trkpt lat="48.48066" lon="-2.02942">
        <ele>114.94232</ele>
        <time>2019-09-11T13:56:35Z</time>
      </trkpt>
      <trkpt lat="48.48074" lon="-2.0294">
        <ele>115.05944</ele>
        <time>2019-09-11T13:56:36Z</time>
      </trkpt>
      <trkpt lat="48.48082" lon="-2.02938">
        <ele>115.08978</ele>
        <time>2019-09-11T13:56:37Z</time>
      </trkpt>
      <trkpt lat="48.4809" lon="-2.02936">
        <ele>115.18658</ele>
        <time>2019-09-11T13:56:38Z</time>
      </trkpt>
      <trkpt lat="48.48098" lon="-2.02935">
        <ele>115.24886</ele>
        <time>2019-09-11T13:56:39Z</time>
      </trkpt>
      <trkpt lat="48.48106" lon="-2.02933">
        <ele>115.474625</ele>
        <time>2019-09-11T13:56:40Z</time>
      </trkpt>
      <trkpt lat="48.48114" lon="-2.02931">
        <ele>115.82204</ele>
        <time>2019-09-11T13:56:41Z</time>
      </trkpt>
      <trkpt lat="48.48122" lon="-2.02929">
        <ele>115.90765</ele>
        <time>2019-09-11T13:56:42Z</time>
      </trkpt>
      <trkpt lat="48.4813" lon="-2.02928">
        <ele>116.06529</ele>
        <time>2019-09-11T13:56:43Z</time>
      </trkpt>
      <trkpt lat="48.48138" lon="-2.02926">
        <ele>116.20175</ele>
        <time>2019-09-11T13:56:44Z</time>
      </trkpt>
      <trkpt lat="48.48146" lon="-2.02924">
        <ele>116.46569</ele>
        <time>2019-09-11T13:56:45Z</time>
      </trkpt>
      <trkpt lat="48.48154" lon="-2.02921">
        <ele>116.70275</ele>
        <time>2019-09-11T13:56:46Z</time>
      </trkpt>
      <trkpt lat="48.48161" lon="-2.02919">
        <ele>116.8672</ele>
        <time>2019-09-11T13:56:47Z</time>
      </trkpt>
      <trkpt lat="48.48169" lon="-2.02917">
        <ele>117.11534</ele>
        <time>2019-09-11T13:56:48Z</time>
      </trkpt>
      <trkpt lat="48.48176" lon="-2.02915">
        <ele>117.22181</ele>
        <time>2019-09-11T13:56:49Z</time>
      </trkpt>
      <trkpt lat="48.48183" lon="-2.02913">
        <ele>117.49973</ele>
        <time>2019-09-11T13:56:50Z</time>
      </trkpt>
      <trkpt lat="48.4819" lon="-2.02911">
        <ele>117.789</ele>
        <time>2019-09-11T13:56:51Z</time>
      </trkpt>
      <trkpt lat="48.48197" lon="-2.02909">
        <ele>117.984886</ele>
        <time>2019-09-11T13:56:52Z</time>
      </trkpt>
      <trkpt lat="48.48204" lon="-2.02907">
        <ele>118.00113</ele>
        <time>2019-09-11T13:56:53Z</time>
      </trkpt>
      <trkpt lat="48.48211" lon="-2.02906">
        <ele>117.72198</ele>
        <time>2019-09-11T13:56:54Z</time>
      </trkpt>
      <trkpt lat="48.48217" lon="-2.02905">
        <ele>117.7534</ele>
        <time>2019-09-11T13:56:55Z</time>
      </trkpt>
      <trkpt lat="48.48222" lon="-2.02904">
        <ele>117.77045</ele>
        <time>2019-09-11T13:56:56Z</time>
      </trkpt>
      <trkpt lat="48.48228" lon="-2.02903">
        <ele>117.602974</ele>
        <time>2019-09-11T13:56:57Z</time>
      </trkpt>
      <trkpt lat="48.48234" lon="-2.02903">
        <ele>117.50621</ele>
        <time>2019-09-11T13:56:58Z</time>
      </trkpt>
      <trkpt lat="48.48239" lon="-2.02903">
        <ele>117.5063</ele>
        <time>2019-09-11T13:56:59Z</time>
      </trkpt>
      <trkpt lat="48.48245" lon="-2.02903">
        <ele>117.86064</ele>
        <time>2019-09-11T13:57:00Z</time>
      </trkpt>
      <trkpt lat="48.48251" lon="-2.02902">
        <ele>118.01732</ele>
        <time>2019-09-11T13:57:01Z</time>
      </trkpt>
      <trkpt lat="48.48256" lon="-2.02901">
        <ele>118.27603</ele>
        <time>2019-09-11T13:57:02Z</time>
      </trkpt>
      <trkpt lat="48.48261" lon="-2.029">
        <ele>118.74196</ele>
        <time>2019-09-11T13:57:03Z</time>
      </trkpt>
      <trkpt lat="48.48267" lon="-2.02899">
        <ele>119.36615</ele>
        <time>2019-09-11T13:57:04Z</time>
      </trkpt>
      <trkpt lat="48.48272" lon="-2.02899">
        <ele>119.71</ele>
        <time>2019-09-11T13:57:05Z</time>
      </trkpt>
      <trkpt lat="48.48277" lon="-2.02898">
        <ele>119.99743</ele>
        <time>2019-09-11T13:57:06Z</time>
      </trkpt>
      <trkpt lat="48.48282" lon="-2.02896">
        <ele>120.2512</ele>
        <time>2019-09-11T13:57:07Z</time>
      </trkpt>
      <trkpt lat="48.48286" lon="-2.02896">
        <ele>120.55368</ele>
        <time>2019-09-11T13:57:08Z</time>
      </trkpt>
      <trkpt lat="48.48291" lon="-2.02895">
        <ele>120.932846</ele>
        <time>2019-09-11T13:57:09Z</time>
      </trkpt>
      <trkpt lat="48.48296" lon="-2.02893">
        <ele>121.3418</ele>
        <time>2019-09-11T13:57:10Z</time>
      </trkpt>
      <trkpt lat="48.483" lon="-2.02892">
        <ele>121.56888</ele>
        <time>2019-09-11T13:57:11Z</time>
      </trkpt>
      <trkpt lat="48.48305" lon="-2.02891">
        <ele>121.75842</ele>
        <time>2019-09-11T13:57:12Z</time>
      </trkpt>
      <trkpt lat="48.4831" lon="-2.0289">
        <ele>121.9794</ele>
        <time>2019-09-11T13:57:13Z</time>
      </trkpt>
      <trkpt lat="48.48315" lon="-2.0289">
        <ele>122.175064</ele>
        <time>2019-09-11T13:57:14Z</time>
      </trkpt>
      <trkpt lat="48.4832" lon="-2.02889">
        <ele>122.30842</ele>
        <time>2019-09-11T13:57:15Z</time>
      </trkpt>
      <trkpt lat="48.48326" lon="-2.02888">
        <ele>122.62556</ele>
        <time>2019-09-11T13:57:16Z</time>
      </trkpt>
      <trkpt lat="48.48332" lon="-2.02887">
        <ele>122.87022</ele>
        <time>2019-09-11T13:57:17Z</time>
      </trkpt>
      <trkpt lat="48.48337" lon="-2.02886">
        <ele>123.05839</ele>
        <time>2019-09-11T13:57:18Z</time>
      </trkpt>
      <trkpt lat="48.48343" lon="-2.02885">
        <ele>123.20013</ele>
        <time>2019-09-11T13:57:19Z</time>
      </trkpt>
      <trkpt lat="48.48348" lon="-2.02885">
        <ele>123.28385</ele>
        <time>2019-09-11T13:57:20Z</time>
      </trkpt>
      <trkpt lat="48.48353" lon="-2.02883">
        <ele>123.38777</ele>
        <time>2019-09-11T13:57:21Z</time>
      </trkpt>
      <trkpt lat="48.48358" lon="-2.0288">
        <ele>123.39592</ele>
        <time>2019-09-11T13:57:22Z</time>
      </trkpt>
      <trkpt lat="48.48361" lon="-2.02876">
        <ele>122.796425</ele>
        <time>2019-09-11T13:57:23Z</time>
      </trkpt>
      <trkpt lat="48.48362" lon="-2.02871">
        <ele>122.68985</ele>
        <time>2019-09-11T13:57:24Z</time>
      </trkpt>
      <trkpt lat="48.48361" lon="-2.02865">
        <ele>122.75675</ele>
        <time>2019-09-11T13:57:25Z</time>
      </trkpt>
      <trkpt lat="48.48359" lon="-2.02858">
        <ele>122.70918</ele>
        <time>2019-09-11T13:57:26Z</time>
      </trkpt>
      <trkpt lat="48.48356" lon="-2.02852">
        <ele>122.676895</ele>
        <time>2019-09-11T13:57:27Z</time>
      </trkpt>
      <trkpt lat="48.48353" lon="-2.02845">
        <ele>122.6863</ele>
        <time>2019-09-11T13:57:28Z</time>
      </trkpt>
      <trkpt lat="48.48351" lon="-2.02838">
        <ele>122.69571</ele>
        <time>2019-09-11T13:57:29Z</time>
      </trkpt>
      <trkpt lat="48.48349" lon="-2.0283">
        <ele>122.86225</ele>
        <time>2019-09-11T13:57:30Z</time>
      </trkpt>
      <trkpt lat="48.48346" lon="-2.02822">
        <ele>122.87357</ele>
        <time>2019-09-11T13:57:31Z</time>
      </trkpt>
      <trkpt lat="48.48344" lon="-2.02813">
        <ele>123.11232</ele>
        <time>2019-09-11T13:57:32Z</time>
      </trkpt>
      <trkpt lat="48.48342" lon="-2.02804">
        <ele>123.10282</ele>
        <time>2019-09-11T13:57:33Z</time>
      </trkpt>
      <trkpt lat="48.4834" lon="-2.02796">
        <ele>122.59356</ele>
        <time>2019-09-11T13:57:34Z</time>
      </trkpt>
      <trkpt lat="48.48338" lon="-2.02787">
        <ele>122.378044</ele>
        <time>2019-09-11T13:57:35Z</time>
      </trkpt>
      <trkpt lat="48.48335" lon="-2.02779">
        <ele>122.09146</ele>
        <time>2019-09-11T13:57:36Z</time>
      </trkpt>
      <trkpt lat="48.48333" lon="-2.0277">
        <ele>122.022865</ele>
        <time>2019-09-11T13:57:37Z</time>
      </trkpt>
      <trkpt lat="48.4833" lon="-2.02762">
        <ele>121.8658</ele>
        <time>2019-09-11T13:57:38Z</time>
      </trkpt>
      <trkpt lat="48.48328" lon="-2.02754">
        <ele>121.60761</ele>
        <time>2019-09-11T13:57:39Z</time>
      </trkpt>
      <trkpt lat="48.48325" lon="-2.02746">
        <ele>121.49684</ele>
        <time>2019-09-11T13:57:40Z</time>
      </trkpt>
      <trkpt lat="48.48322" lon="-2.02737">
        <ele>121.40421</ele>
        <time>2019-09-11T13:57:41Z</time>
      </trkpt>
      <trkpt lat="48.4832" lon="-2.02729">
        <ele>121.43392</ele>
        <time>2019-09-11T13:57:42Z</time>
      </trkpt>
      <trkpt lat="48.48319" lon="-2.0272">
        <ele>121.40828</ele>
        <time>2019-09-11T13:57:43Z</time>
      </trkpt>
      <trkpt lat="48.48318" lon="-2.02711">
        <ele>121.264366</ele>
        <time>2019-09-11T13:57:44Z</time>
      </trkpt>
      <trkpt lat="48.48317" lon="-2.02701">
        <ele>121.06965</ele>
        <time>2019-09-11T13:57:45Z</time>
      </trkpt>
      <trkpt lat="48.48316" lon="-2.02692">
        <ele>120.87397</ele>
        <time>2019-09-11T13:57:46Z</time>
      </trkpt>
      <trkpt lat="48.48315" lon="-2.02682">
        <ele>120.74209</ele>
        <time>2019-09-11T13:57:47Z</time>
      </trkpt>
      <trkpt lat="48.48315" lon="-2.02671">
        <ele>120.59347</ele>
        <time>2019-09-11T13:57:48Z</time>
      </trkpt>
      <trkpt lat="48.48315" lon="-2.02661">
        <ele>120.56725</ele>
        <time>2019-09-11T13:57:49Z</time>
      </trkpt>
      <trkpt lat="48.48315" lon="-2.02651">
        <ele>120.69286</ele>
        <time>2019-09-11T13:57:50Z</time>
      </trkpt>
      <trkpt lat="48.48315" lon="-2.02641">
        <ele>120.642815</ele>
        <time>2019-09-11T13:57:51Z</time>
      </trkpt>
      <trkpt lat="48.48317" lon="-2.02631">
        <ele>120.926636</ele>
        <time>2019-09-11T13:57:52Z</time>
      </trkpt>
      <trkpt lat="48.48318" lon="-2.02621">
        <ele>120.928665</ele>
        <time>2019-09-11T13:57:53Z</time>
      </trkpt>
      <trkpt lat="48.4832" lon="-2.02611">
        <ele>120.99872</ele>
        <time>2019-09-11T13:57:54Z</time>
      </trkpt>
      <trkpt lat="48.48323" lon="-2.02602">
        <ele>121.071785</ele>
        <time>2019-09-11T13:57:55Z</time>
      </trkpt>
      <trkpt lat="48.48325" lon="-2.02591">
        <ele>121.202095</ele>
        <time>2019-09-11T13:57:56Z</time>
      </trkpt>
      <trkpt lat="48.48328" lon="-2.0258">
        <ele>121.28265</ele>
        <time>2019-09-11T13:57:57Z</time>
      </trkpt>
      <trkpt lat="48.48331" lon="-2.02569">
        <ele>121.302826</ele>
        <time>2019-09-11T13:57:58Z</time>
      </trkpt>
      <trkpt lat="48.48334" lon="-2.02558">
        <ele>121.34669</ele>
        <time>2019-09-11T13:57:59Z</time>
      </trkpt>
      <trkpt lat="48.48336" lon="-2.02549">
        <ele>121.29949</ele>
        <time>2019-09-11T13:58:00Z</time>
      </trkpt>
      <trkpt lat="48.48339" lon="-2.02539">
        <ele>121.24449</ele>
        <time>2019-09-11T13:58:01Z</time>
      </trkpt>
      <trkpt lat="48.48341" lon="-2.02529">
        <ele>121.008156</ele>
        <time>2019-09-11T13:58:02Z</time>
      </trkpt>
      <trkpt lat="48.48344" lon="-2.02518">
        <ele>120.24582</ele>
        <time>2019-09-11T13:58:03Z</time>
      </trkpt>
      <trkpt lat="48.48346" lon="-2.02508">
        <ele>119.947655</ele>
        <time>2019-09-11T13:58:04Z</time>
      </trkpt>
      <trkpt lat="48.48349" lon="-2.02498">
        <ele>119.9993</ele>
        <time>2019-09-11T13:58:05Z</time>
      </trkpt>
      <trkpt lat="48.48352" lon="-2.02487">
        <ele>119.85876</ele>
        <time>2019-09-11T13:58:06Z</time>
      </trkpt>
      <trkpt lat="48.48355" lon="-2.02477">
        <ele>119.67161</ele>
        <time>2019-09-11T13:58:07Z</time>
      </trkpt>
      <trkpt lat="48.48358" lon="-2.02467">
        <ele>119.642044</ele>
        <time>2019-09-11T13:58:08Z</time>
      </trkpt>
      <trkpt lat="48.48361" lon="-2.02457">
        <ele>119.80461</ele>
        <time>2019-09-11T13:58:09Z</time>
      </trkpt>
      <trkpt lat="48.48364" lon="-2.02448">
        <ele>119.9523</ele>
        <time>2019-09-11T13:58:10Z</time>
      </trkpt>
      <trkpt lat="48.48368" lon="-2.02438">
        <ele>120.12642</ele>
        <time>2019-09-11T13:58:11Z</time>
      </trkpt>
      <trkpt lat="48.48372" lon="-2.02428">
        <ele>120.270805</ele>
        <time>2019-09-11T13:58:12Z</time>
      </trkpt>
      <trkpt lat="48.48375" lon="-2.02418">
        <ele>120.264046</ele>
        <time>2019-09-11T13:58:13Z</time>
      </trkpt>
      <trkpt lat="48.48378" lon="-2.02409">
        <ele>120.630646</ele>
        <time>2019-09-11T13:58:14Z</time>
      </trkpt>
      <trkpt lat="48.48382" lon="-2.02402">
        <ele>120.80798</ele>
        <time>2019-09-11T13:58:15Z</time>
      </trkpt>
      <trkpt lat="48.48386" lon="-2.02396">
        <ele>120.934715</ele>
        <time>2019-09-11T13:58:16Z</time>
      </trkpt>
      <trkpt lat="48.4839" lon="-2.02389">
        <ele>121.030045</ele>
        <time>2019-09-11T13:58:17Z</time>
      </trkpt>
      <trkpt lat="48.48394" lon="-2.0238">
        <ele>121.2828</ele>
        <time>2019-09-11T13:58:18Z</time>
      </trkpt>
      <trkpt lat="48.48398" lon="-2.02373">
        <ele>121.384575</ele>
        <time>2019-09-11T13:58:19Z</time>
      </trkpt>
      <trkpt lat="48.48401" lon="-2.02366">
        <ele>121.430115</ele>
        <time>2019-09-11T13:58:20Z</time>
      </trkpt>
      <trkpt lat="48.48404" lon="-2.0236">
        <ele>121.4208</ele>
        <time>2019-09-11T13:58:21Z</time>
      </trkpt>
      <trkpt lat="48.48406" lon="-2.02353">
        <ele>121.3439</ele>
        <time>2019-09-11T13:58:22Z</time>
      </trkpt>
      <trkpt lat="48.48408" lon="-2.02344">
        <ele>121.35344</ele>
        <time>2019-09-11T13:58:23Z</time>
      </trkpt>
      <trkpt lat="48.4841" lon="-2.02333">
        <ele>121.39957</ele>
        <time>2019-09-11T13:58:24Z</time>
      </trkpt>
      <trkpt lat="48.48411" lon="-2.02322">
        <ele>121.2887</ele>
        <time>2019-09-11T13:58:25Z</time>
      </trkpt>
      <trkpt lat="48.48412" lon="-2.02312">
        <ele>121.29214</ele>
        <time>2019-09-11T13:58:26Z</time>
      </trkpt>
      <trkpt lat="48.48414" lon="-2.02301">
        <ele>121.31612</ele>
        <time>2019-09-11T13:58:27Z</time>
      </trkpt>
      <trkpt lat="48.48415" lon="-2.02289">
        <ele>121.397705</ele>
        <time>2019-09-11T13:58:28Z</time>
      </trkpt>
      <trkpt lat="48.48418" lon="-2.02277">
        <ele>121.627235</ele>
        <time>2019-09-11T13:58:29Z</time>
      </trkpt>
      <trkpt lat="48.4842" lon="-2.02266">
        <ele>121.78968</ele>
        <time>2019-09-11T13:58:30Z</time>
      </trkpt>
      <trkpt lat="48.48422" lon="-2.02255">
        <ele>121.82043</ele>
        <time>2019-09-11T13:58:31Z</time>
      </trkpt>
      <trkpt lat="48.48424" lon="-2.02244">
        <ele>121.81422</ele>
        <time>2019-09-11T13:58:32Z</time>
      </trkpt>
      <trkpt lat="48.48427" lon="-2.02235">
        <ele>121.80228</ele>
        <time>2019-09-11T13:58:33Z</time>
      </trkpt>
      <trkpt lat="48.4843" lon="-2.02226">
        <ele>121.78757</ele>
        <time>2019-09-11T13:58:34Z</time>
      </trkpt>
      <trkpt lat="48.48432" lon="-2.02218">
        <ele>121.79927</ele>
        <time>2019-09-11T13:58:35Z</time>
      </trkpt>
      <trkpt lat="48.48435" lon="-2.02207">
        <ele>122.05939</ele>
        <time>2019-09-11T13:58:36Z</time>
      </trkpt>
      <trkpt lat="48.48438" lon="-2.02196">
        <ele>122.174324</ele>
        <time>2019-09-11T13:58:37Z</time>
      </trkpt>
      <trkpt lat="48.48441" lon="-2.02183">
        <ele>122.40699</ele>
        <time>2019-09-11T13:58:38Z</time>
      </trkpt>
      <trkpt lat="48.48443" lon="-2.02169">
        <ele>122.64068</ele>
        <time>2019-09-11T13:58:39Z</time>
      </trkpt>
      <trkpt lat="48.48444" lon="-2.02155">
        <ele>122.59382</ele>
        <time>2019-09-11T13:58:40Z</time>
      </trkpt>
      <trkpt lat="48.48446" lon="-2.02142">
        <ele>122.68666</ele>
        <time>2019-09-11T13:58:41Z</time>
      </trkpt>
      <trkpt lat="48.48446" lon="-2.02131">
        <ele>122.690796</ele>
        <time>2019-09-11T13:58:42Z</time>
      </trkpt>
      <trkpt lat="48.48445" lon="-2.0212">
        <ele>122.30654</ele>
        <time>2019-09-11T13:58:43Z</time>
      </trkpt>
      <trkpt lat="48.48444" lon="-2.0211">
        <ele>122.37934</ele>
        <time>2019-09-11T13:58:44Z</time>
      </trkpt>
      <trkpt lat="48.48444" lon="-2.021">
        <ele>122.648125</ele>
        <time>2019-09-11T13:58:45Z</time>
      </trkpt>
      <trkpt lat="48.48443" lon="-2.02089">
        <ele>122.618515</ele>
        <time>2019-09-11T13:58:46Z</time>
      </trkpt>
      <trkpt lat="48.48441" lon="-2.02077">
        <ele>122.32487</ele>
        <time>2019-09-11T13:58:47Z</time>
      </trkpt>
      <trkpt lat="48.48439" lon="-2.02065">
        <ele>122.16949</ele>
        <time>2019-09-11T13:58:48Z</time>
      </trkpt>
      <trkpt lat="48.48438" lon="-2.02053">
        <ele>121.910515</ele>
        <time>2019-09-11T13:58:49Z</time>
      </trkpt>
      <trkpt lat="48.48435" lon="-2.02041">
        <ele>121.622505</ele>
        <time>2019-09-11T13:58:50Z</time>
      </trkpt>
      <trkpt lat="48.48433" lon="-2.02028">
        <ele>121.156296</ele>
        <time>2019-09-11T13:58:51Z</time>
      </trkpt>
      <trkpt lat="48.48431" lon="-2.02016">
        <ele>120.76961</ele>
        <time>2019-09-11T13:58:52Z</time>
      </trkpt>
      <trkpt lat="48.4843" lon="-2.02003">
        <ele>120.415276</ele>
        <time>2019-09-11T13:58:53Z</time>
      </trkpt>
      <trkpt lat="48.48428" lon="-2.01992">
        <ele>119.93968</ele>
        <time>2019-09-11T13:58:54Z</time>
      </trkpt>
      <trkpt lat="48.48426" lon="-2.01981">
        <ele>119.31542</ele>
        <time>2019-09-11T13:58:55Z</time>
      </trkpt>
      <trkpt lat="48.48423" lon="-2.01972">
        <ele>118.923805</ele>
        <time>2019-09-11T13:58:56Z</time>
      </trkpt>
      <trkpt lat="48.48421" lon="-2.01963">
        <ele>118.59287</ele>
        <time>2019-09-11T13:58:57Z</time>
      </trkpt>
      <trkpt lat="48.48418" lon="-2.01953">
        <ele>118.20406</ele>
        <time>2019-09-11T13:58:58Z</time>
      </trkpt>
      <trkpt lat="48.48415" lon="-2.01944">
        <ele>117.58196</ele>
        <time>2019-09-11T13:58:59Z</time>
      </trkpt>
      <trkpt lat="48.48412" lon="-2.01936">
        <ele>117.076454</ele>
        <time>2019-09-11T13:59:00Z</time>
      </trkpt>
      <trkpt lat="48.48409" lon="-2.01928">
        <ele>116.67583</ele>
        <time>2019-09-11T13:59:01Z</time>
      </trkpt>
      <trkpt lat="48.48407" lon="-2.01922">
        <ele>116.30079</ele>
        <time>2019-09-11T13:59:02Z</time>
      </trkpt>
      <trkpt lat="48.48405" lon="-2.01914">
        <ele>115.70186</ele>
        <time>2019-09-11T13:59:03Z</time>
      </trkpt>
      <trkpt lat="48.48404" lon="-2.01906">
        <ele>114.99765</ele>
        <time>2019-09-11T13:59:04Z</time>
      </trkpt>
      <trkpt lat="48.48401" lon="-2.01896">
        <ele>114.288536</ele>
        <time>2019-09-11T13:59:05Z</time>
      </trkpt>
      <trkpt lat="48.48399" lon="-2.01885">
        <ele>113.37148</ele>
        <time>2019-09-11T13:59:06Z</time>
      </trkpt>
      <trkpt lat="48.48396" lon="-2.01874">
        <ele>112.94073</ele>
        <time>2019-09-11T13:59:07Z</time>
      </trkpt>
      <trkpt lat="48.48394" lon="-2.01864">
        <ele>112.363434</ele>
        <time>2019-09-11T13:59:08Z</time>
      </trkpt>
      <trkpt lat="48.48391" lon="-2.01853">
        <ele>111.907524</ele>
        <time>2019-09-11T13:59:09Z</time>
      </trkpt>
      <trkpt lat="48.48389" lon="-2.01842">
        <ele>111.112335</ele>
        <time>2019-09-11T13:59:10Z</time>
      </trkpt>
      <trkpt lat="48.48386" lon="-2.01832">
        <ele>110.03436</ele>
        <time>2019-09-11T13:59:11Z</time>
      </trkpt>
      <trkpt lat="48.48385" lon="-2.01822">
        <ele>109.06484</ele>
        <time>2019-09-11T13:59:12Z</time>
      </trkpt>
      <trkpt lat="48.48383" lon="-2.01811">
        <ele>108.35038</ele>
        <time>2019-09-11T13:59:13Z</time>
      </trkpt>
      <trkpt lat="48.48381" lon="-2.01801">
        <ele>107.2186</ele>
        <time>2019-09-11T13:59:14Z</time>
      </trkpt>
      <trkpt lat="48.48379" lon="-2.0179">
        <ele>106.16637</ele>
        <time>2019-09-11T13:59:15Z</time>
      </trkpt>
      <trkpt lat="48.48377" lon="-2.0178">
        <ele>105.81834</ele>
        <time>2019-09-11T13:59:16Z</time>
      </trkpt>
      <trkpt lat="48.48375" lon="-2.0177">
        <ele>105.32962</ele>
        <time>2019-09-11T13:59:17Z</time>
      </trkpt>
      <trkpt lat="48.48373" lon="-2.01761">
        <ele>105.2706</ele>
        <time>2019-09-11T13:59:18Z</time>
      </trkpt>
      <trkpt lat="48.48372" lon="-2.01752">
        <ele>104.72363</ele>
        <time>2019-09-11T13:59:19Z</time>
      </trkpt>
      <trkpt lat="48.48372" lon="-2.01742">
        <ele>104.30773</ele>
        <time>2019-09-11T13:59:20Z</time>
      </trkpt>
      <trkpt lat="48.48371" lon="-2.01731">
        <ele>103.93633</ele>
        <time>2019-09-11T13:59:21Z</time>
      </trkpt>
      <trkpt lat="48.48369" lon="-2.01719">
        <ele>103.56244</ele>
        <time>2019-09-11T13:59:22Z</time>
      </trkpt>
      <trkpt lat="48.48367" lon="-2.01708">
        <ele>103.044106</ele>
        <time>2019-09-11T13:59:23Z</time>
      </trkpt>
      <trkpt lat="48.48365" lon="-2.01698">
        <ele>102.6599</ele>
        <time>2019-09-11T13:59:24Z</time>
      </trkpt>
      <trkpt lat="48.48364" lon="-2.01688">
        <ele>102.29322</ele>
        <time>2019-09-11T13:59:25Z</time>
      </trkpt>
      <trkpt lat="48.48363" lon="-2.01677">
        <ele>102.33828</ele>
        <time>2019-09-11T13:59:26Z</time>
      </trkpt>
      <trkpt lat="48.48362" lon="-2.01667">
        <ele>102.26589</ele>
        <time>2019-09-11T13:59:27Z</time>
      </trkpt>
      <trkpt lat="48.48362" lon="-2.01658">
        <ele>101.993126</ele>
        <time>2019-09-11T13:59:28Z</time>
      </trkpt>
      <trkpt lat="48.4836" lon="-2.01649">
        <ele>101.78846</ele>
        <time>2019-09-11T13:59:29Z</time>
      </trkpt>
      <trkpt lat="48.48358" lon="-2.0164">
        <ele>101.74481</ele>
        <time>2019-09-11T13:59:30Z</time>
      </trkpt>
      <trkpt lat="48.48355" lon="-2.01632">
        <ele>101.65098</ele>
        <time>2019-09-11T13:59:31Z</time>
      </trkpt>
      <trkpt lat="48.48352" lon="-2.01624">
        <ele>101.2536</ele>
        <time>2019-09-11T13:59:32Z</time>
      </trkpt>
      <trkpt lat="48.48348" lon="-2.01617">
        <ele>100.93929</ele>
        <time>2019-09-11T13:59:33Z</time>
      </trkpt>
      <trkpt lat="48.48344" lon="-2.01611">
        <ele>100.21012</ele>
        <time>2019-09-11T13:59:34Z</time>
      </trkpt>
      <trkpt lat="48.4834" lon="-2.01604">
        <ele>99.36931</ele>
        <time>2019-09-11T13:59:35Z</time>
      </trkpt>
      <trkpt lat="48.48336" lon="-2.01598">
        <ele>99.00166</ele>
        <time>2019-09-11T13:59:36Z</time>
      </trkpt>
      <trkpt lat="48.48333" lon="-2.01592">
        <ele>98.4004</ele>
        <time>2019-09-11T13:59:37Z</time>
      </trkpt>
      <trkpt lat="48.4833" lon="-2.01585">
        <ele>97.9848</ele>
        <time>2019-09-11T13:59:38Z</time>
      </trkpt>
      <trkpt lat="48.48327" lon="-2.01577">
        <ele>97.987236</ele>
        <time>2019-09-11T13:59:39Z</time>
      </trkpt>
      <trkpt lat="48.48325" lon="-2.0157">
        <ele>98.209366</ele>
        <time>2019-09-11T13:59:40Z</time>
      </trkpt>
      <trkpt lat="48.48323" lon="-2.01563">
        <ele>97.9876</ele>
        <time>2019-09-11T13:59:41Z</time>
      </trkpt>
      <trkpt lat="48.48322" lon="-2.01557">
        <ele>97.69004</ele>
        <time>2019-09-11T13:59:42Z</time>
      </trkpt>
      <trkpt lat="48.4832" lon="-2.01551">
        <ele>96.960014</ele>
        <time>2019-09-11T13:59:43Z</time>
      </trkpt>
      <trkpt lat="48.48319" lon="-2.01545">
        <ele>96.74316</ele>
        <time>2019-09-11T13:59:44Z</time>
      </trkpt>
      <trkpt lat="48.48317" lon="-2.01539">
        <ele>96.497665</ele>
        <time>2019-09-11T13:59:45Z</time>
      </trkpt>
      <trkpt lat="48.48315" lon="-2.01534">
        <ele>96.63741</ele>
        <time>2019-09-11T13:59:46Z</time>
      </trkpt>
      <trkpt lat="48.48315" lon="-2.01529">
        <ele>96.64109</ele>
        <time>2019-09-11T13:59:47Z</time>
      </trkpt>
      <trkpt lat="48.48315" lon="-2.01524">
        <ele>96.66846</ele>
        <time>2019-09-11T13:59:48Z</time>
      </trkpt>
      <trkpt lat="48.48316" lon="-2.01519">
        <ele>96.93615</ele>
        <time>2019-09-11T13:59:49Z</time>
      </trkpt>
      <trkpt lat="48.48318" lon="-2.01513">
        <ele>96.77496</ele>
        <time>2019-09-11T13:59:50Z</time>
      </trkpt>
      <trkpt lat="48.48321" lon="-2.01508">
        <ele>96.56398</ele>
        <time>2019-09-11T13:59:51Z</time>
      </trkpt>
      <trkpt lat="48.48324" lon="-2.01504">
        <ele>95.99834</ele>
        <time>2019-09-11T13:59:52Z</time>
      </trkpt>
      <trkpt lat="48.48328" lon="-2.01501">
        <ele>95.63181</ele>
        <time>2019-09-11T13:59:53Z</time>
      </trkpt>
      <trkpt lat="48.48332" lon="-2.01499">
        <ele>95.237114</ele>
        <time>2019-09-11T13:59:54Z</time>
      </trkpt>
      <trkpt lat="48.48336" lon="-2.01495">
        <ele>94.9871</ele>
        <time>2019-09-11T13:59:55Z</time>
      </trkpt>
      <trkpt lat="48.48341" lon="-2.01492">
        <ele>94.92318</ele>
        <time>2019-09-11T13:59:56Z</time>
      </trkpt>
      <trkpt lat="48.48345" lon="-2.01489">
        <ele>94.86113</ele>
        <time>2019-09-11T13:59:57Z</time>
      </trkpt>
      <trkpt lat="48.48349" lon="-2.01485">
        <ele>94.82727</ele>
        <time>2019-09-11T13:59:58Z</time>
      </trkpt>
      <trkpt lat="48.48353" lon="-2.01481">
        <ele>94.80302</ele>
        <time>2019-09-11T13:59:59Z</time>
      </trkpt>
      <trkpt lat="48.48357" lon="-2.01478">
        <ele>94.751625</ele>
        <time>2019-09-11T14:00:00Z</time>
      </trkpt>
      <trkpt lat="48.48362" lon="-2.01474">
        <ele>94.55806</ele>
        <time>2019-09-11T14:00:01Z</time>
      </trkpt>
      <trkpt lat="48.48366" lon="-2.0147">
        <ele>94.7606</ele>
        <time>2019-09-11T14:00:02Z</time>
      </trkpt>
      <trkpt lat="48.4837" lon="-2.01466">
        <ele>95.11222</ele>
        <time>2019-09-11T14:00:03Z</time>
      </trkpt>
      <trkpt lat="48.48375" lon="-2.01462">
        <ele>95.42799</ele>
        <time>2019-09-11T14:00:04Z</time>
      </trkpt>
      <trkpt lat="48.48379" lon="-2.01459">
        <ele>95.717995</ele>
        <time>2019-09-11T14:00:05Z</time>
      </trkpt>
      <trkpt lat="48.48384" lon="-2.01454">
        <ele>96.03972</ele>
        <time>2019-09-11T14:00:06Z</time>
      </trkpt>
      <trkpt lat="48.48388" lon="-2.0145">
        <ele>96.14042</ele>
        <time>2019-09-11T14:00:07Z</time>
      </trkpt>
      <trkpt lat="48.48393" lon="-2.01446">
        <ele>96.14123</ele>
        <time>2019-09-11T14:00:08Z</time>
      </trkpt>
      <trkpt lat="48.48397" lon="-2.01442">
        <ele>96.169235</ele>
        <time>2019-09-11T14:00:09Z</time>
      </trkpt>
      <trkpt lat="48.48401" lon="-2.01437">
        <ele>96.15522</ele>
        <time>2019-09-11T14:00:10Z</time>
      </trkpt>
      <trkpt lat="48.48406" lon="-2.01433">
        <ele>96.225494</ele>
        <time>2019-09-11T14:00:11Z</time>
      </trkpt>
      <trkpt lat="48.4841" lon="-2.01429">
        <ele>96.36589</ele>
        <time>2019-09-11T14:00:12Z</time>
      </trkpt>
      <trkpt lat="48.48415" lon="-2.01424">
        <ele>96.33909</ele>
        <time>2019-09-11T14:00:13Z</time>
      </trkpt>
      <trkpt lat="48.4842" lon="-2.0142">
        <ele>96.39413</ele>
        <time>2019-09-11T14:00:14Z</time>
      </trkpt>
      <trkpt lat="48.48425" lon="-2.01417">
        <ele>96.5436</ele>
        <time>2019-09-11T14:00:15Z</time>
      </trkpt>
      <trkpt lat="48.4843" lon="-2.01415">
        <ele>96.81049</ele>
        <time>2019-09-11T14:00:16Z</time>
      </trkpt>
      <trkpt lat="48.48435" lon="-2.01415">
        <ele>96.932144</ele>
        <time>2019-09-11T14:00:17Z</time>
      </trkpt>
      <trkpt lat="48.48439" lon="-2.01417">
        <ele>96.90509</ele>
        <time>2019-09-11T14:00:18Z</time>
      </trkpt>
      <trkpt lat="48.48442" lon="-2.01421">
        <ele>97.00738</ele>
        <time>2019-09-11T14:00:19Z</time>
      </trkpt>
      <trkpt lat="48.48444" lon="-2.01426">
        <ele>96.99588</ele>
        <time>2019-09-11T14:00:20Z</time>
      </trkpt>
      <trkpt lat="48.48445" lon="-2.01433">
        <ele>96.99676</ele>
        <time>2019-09-11T14:00:21Z</time>
      </trkpt>
      <trkpt lat="48.48445" lon="-2.0144">
        <ele>96.91609</ele>
        <time>2019-09-11T14:00:22Z</time>
      </trkpt>
      <trkpt lat="48.48446" lon="-2.01448">
        <ele>96.838264</ele>
        <time>2019-09-11T14:00:23Z</time>
      </trkpt>
      <trkpt lat="48.48447" lon="-2.01456">
        <ele>96.680336</ele>
        <time>2019-09-11T14:00:24Z</time>
      </trkpt>
      <trkpt lat="48.48449" lon="-2.01461">
        <ele>96.619156</ele>
        <time>2019-09-11T14:00:25Z</time>
      </trkpt>
      <trkpt lat="48.48453" lon="-2.01461">
        <ele>96.54911</ele>
        <time>2019-09-11T14:00:26Z</time>
      </trkpt>
      <trkpt lat="48.48457" lon="-2.0146">
        <ele>96.5484</ele>
        <time>2019-09-11T14:00:27Z</time>
      </trkpt>
      <trkpt lat="48.48462" lon="-2.01458">
        <ele>96.65629</ele>
        <time>2019-09-11T14:00:28Z</time>
      </trkpt>
      <trkpt lat="48.48467" lon="-2.01456">
        <ele>96.806725</ele>
        <time>2019-09-11T14:00:29Z</time>
      </trkpt>
      <trkpt lat="48.48471" lon="-2.01454">
        <ele>97.10108</ele>
        <time>2019-09-11T14:00:30Z</time>
      </trkpt>
      <trkpt lat="48.48475" lon="-2.01452">
        <ele>97.24215</ele>
        <time>2019-09-11T14:00:31Z</time>
      </trkpt>
      <trkpt lat="48.48479" lon="-2.0145">
        <ele>97.50725</ele>
        <time>2019-09-11T14:00:32Z</time>
      </trkpt>
      <trkpt lat="48.48483" lon="-2.01447">
        <ele>97.5995</ele>
        <time>2019-09-11T14:00:33Z</time>
      </trkpt>
      <trkpt lat="48.48487" lon="-2.01446">
        <ele>97.740616</ele>
        <time>2019-09-11T14:00:34Z</time>
      </trkpt>
      <trkpt lat="48.48492" lon="-2.01445">
        <ele>97.79456</ele>
        <time>2019-09-11T14:00:35Z</time>
      </trkpt>
      <trkpt lat="48.48496" lon="-2.01443">
        <ele>97.67782</ele>
        <time>2019-09-11T14:00:36Z</time>
      </trkpt>
      <trkpt lat="48.485" lon="-2.01441">
        <ele>97.60394</ele>
        <time>2019-09-11T14:00:37Z</time>
      </trkpt>
      <trkpt lat="48.48502" lon="-2.0144">
        <ele>97.15814</ele>
        <time>2019-09-11T14:00:38Z</time>
      </trkpt>
      <trkpt lat="48.48504" lon="-2.01441">
        <ele>97.04237</ele>
        <time>2019-09-11T14:00:39Z</time>
      </trkpt>
      <trkpt lat="48.48504" lon="-2.01441">
        <ele>97.151825</ele>
        <time>2019-09-11T14:00:41Z</time>
      </trkpt>
      <trkpt lat="48.48504" lon="-2.01443">
        <ele>96.950356</ele>
        <time>2019-09-11T14:00:42Z</time>
      </trkpt>
      <trkpt lat="48.48505" lon="-2.01444">
        <ele>97.04127</ele>
        <time>2019-09-11T14:00:43Z</time>
      </trkpt>
      <trkpt lat="48.48507" lon="-2.01443">
        <ele>97.1002</ele>
        <time>2019-09-11T14:01:30Z</time>
      </trkpt>
      <trkpt lat="48.48509" lon="-2.01442">
        <ele>96.91362</ele>
        <time>2019-09-11T14:01:31Z</time>
      </trkpt>
      <trkpt lat="48.48511" lon="-2.01441">
        <ele>96.94975</ele>
        <time>2019-09-11T14:01:32Z</time>
      </trkpt>
      <trkpt lat="48.48513" lon="-2.01439">
        <ele>96.66238</ele>
        <time>2019-09-11T14:01:33Z</time>
      </trkpt>
      <trkpt lat="48.48517" lon="-2.01438">
        <ele>96.62743</ele>
        <time>2019-09-11T14:01:34Z</time>
      </trkpt>
      <trkpt lat="48.4852" lon="-2.01436">
        <ele>96.85628</ele>
        <time>2019-09-11T14:01:35Z</time>
      </trkpt>
      <trkpt lat="48.48524" lon="-2.01434">
        <ele>96.83014</ele>
        <time>2019-09-11T14:01:36Z</time>
      </trkpt>
      <trkpt lat="48.48528" lon="-2.01433">
        <ele>96.72508</ele>
        <time>2019-09-11T14:01:37Z</time>
      </trkpt>
      <trkpt lat="48.48532" lon="-2.01431">
        <ele>96.62252</ele>
        <time>2019-09-11T14:01:38Z</time>
      </trkpt>
      <trkpt lat="48.48536" lon="-2.0143">
        <ele>95.9214</ele>
        <time>2019-09-11T14:01:39Z</time>
      </trkpt>
      <trkpt lat="48.48538" lon="-2.01428">
        <ele>95.98347</ele>
        <time>2019-09-11T14:01:40Z</time>
      </trkpt>
      <trkpt lat="48.48541" lon="-2.01427">
        <ele>96.16279</ele>
        <time>2019-09-11T14:01:41Z</time>
      </trkpt>
      <trkpt lat="48.48545" lon="-2.01425">
        <ele>96.254105</ele>
        <time>2019-09-11T14:01:42Z</time>
      </trkpt>
      <trkpt lat="48.48548" lon="-2.01422">
        <ele>96.29968</ele>
        <time>2019-09-11T14:01:43Z</time>
      </trkpt>
      <trkpt lat="48.48552" lon="-2.0142">
        <ele>96.426094</ele>
        <time>2019-09-11T14:01:44Z</time>
      </trkpt>
      <trkpt lat="48.48555" lon="-2.01417">
        <ele>96.7811</ele>
        <time>2019-09-11T14:01:45Z</time>
      </trkpt>
      <trkpt lat="48.48558" lon="-2.01414">
        <ele>96.95143</ele>
        <time>2019-09-11T14:01:46Z</time>
      </trkpt>
      <trkpt lat="48.48562" lon="-2.01411">
        <ele>97.23813</ele>
        <time>2019-09-11T14:01:47Z</time>
      </trkpt>
      <trkpt lat="48.48564" lon="-2.01407">
        <ele>97.50099</ele>
        <time>2019-09-11T14:01:48Z</time>
      </trkpt>
      <trkpt lat="48.48566" lon="-2.01404">
        <ele>97.530106</ele>
        <time>2019-09-11T14:01:49Z</time>
      </trkpt>
      <trkpt lat="48.48568" lon="-2.014">
        <ele>97.72132</ele>
        <time>2019-09-11T14:01:50Z</time>
      </trkpt>
      <trkpt lat="48.48571" lon="-2.01397">
        <ele>98.11175</ele>
        <time>2019-09-11T14:01:51Z</time>
      </trkpt>
      <trkpt lat="48.48574" lon="-2.01394">
        <ele>98.28209</ele>
        <time>2019-09-11T14:01:52Z</time>
      </trkpt>
      <trkpt lat="48.48577" lon="-2.01392">
        <ele>98.59368</ele>
        <time>2019-09-11T14:01:53Z</time>
      </trkpt>
      <trkpt lat="48.48581" lon="-2.0139">
        <ele>98.9761</ele>
        <time>2019-09-11T14:01:54Z</time>
      </trkpt>
      <trkpt lat="48.48584" lon="-2.01389">
        <ele>99.27249</ele>
        <time>2019-09-11T14:01:55Z</time>
      </trkpt>
      <trkpt lat="48.48588" lon="-2.01388">
        <ele>99.54231</ele>
        <time>2019-09-11T14:01:56Z</time>
      </trkpt>
      <trkpt lat="48.48591" lon="-2.01386">
        <ele>99.794464</ele>
        <time>2019-09-11T14:01:57Z</time>
      </trkpt>
      <trkpt lat="48.48594" lon="-2.01384">
        <ele>100.00086</ele>
        <time>2019-09-11T14:01:58Z</time>
      </trkpt>
      <trkpt lat="48.48597" lon="-2.01382">
        <ele>100.304695</ele>
        <time>2019-09-11T14:01:59Z</time>
      </trkpt>
      <trkpt lat="48.48601" lon="-2.01379">
        <ele>100.91127</ele>
        <time>2019-09-11T14:02:00Z</time>
      </trkpt>
      <trkpt lat="48.48605" lon="-2.01377">
        <ele>101.40542</ele>
        <time>2019-09-11T14:02:01Z</time>
      </trkpt>
      <trkpt lat="48.48609" lon="-2.01376">
        <ele>101.81386</ele>
        <time>2019-09-11T14:02:02Z</time>
      </trkpt>
      <trkpt lat="48.48613" lon="-2.01375">
        <ele>102.05192</ele>
        <time>2019-09-11T14:02:03Z</time>
      </trkpt>
      <trkpt lat="48.48617" lon="-2.01375">
        <ele>102.379555</ele>
        <time>2019-09-11T14:02:04Z</time>
      </trkpt>
      <trkpt lat="48.48621" lon="-2.01374">
        <ele>102.67823</ele>
        <time>2019-09-11T14:02:05Z</time>
      </trkpt>
      <trkpt lat="48.48625" lon="-2.01374">
        <ele>103.09051</ele>
        <time>2019-09-11T14:02:06Z</time>
      </trkpt>
      <trkpt lat="48.48629" lon="-2.01373">
        <ele>103.455</ele>
        <time>2019-09-11T14:02:07Z</time>
      </trkpt>
      <trkpt lat="48.48634" lon="-2.01373">
        <ele>103.70343</ele>
        <time>2019-09-11T14:02:08Z</time>
      </trkpt>
      <trkpt lat="48.4864" lon="-2.01373">
        <ele>103.98828</ele>
        <time>2019-09-11T14:02:09Z</time>
      </trkpt>
      <trkpt lat="48.48646" lon="-2.01372">
        <ele>104.38853</ele>
        <time>2019-09-11T14:02:10Z</time>
      </trkpt>
      <trkpt lat="48.48652" lon="-2.01371">
        <ele>104.65796</ele>
        <time>2019-09-11T14:02:11Z</time>
      </trkpt>
      <trkpt lat="48.48659" lon="-2.01371">
        <ele>105.09827</ele>
        <time>2019-09-11T14:02:12Z</time>
      </trkpt>
      <trkpt lat="48.48665" lon="-2.0137">
        <ele>105.352165</ele>
        <time>2019-09-11T14:02:13Z</time>
      </trkpt>
      <trkpt lat="48.48669" lon="-2.01369">
        <ele>105.66482</ele>
        <time>2019-09-11T14:02:14Z</time>
      </trkpt>
      <trkpt lat="48.48673" lon="-2.01368">
        <ele>105.85773</ele>
        <time>2019-09-11T14:02:15Z</time>
      </trkpt>
      <trkpt lat="48.48678" lon="-2.01368">
        <ele>106.06991</ele>
        <time>2019-09-11T14:02:16Z</time>
      </trkpt>
      <trkpt lat="48.48682" lon="-2.01369">
        <ele>106.199745</ele>
        <time>2019-09-11T14:02:17Z</time>
      </trkpt>
      <trkpt lat="48.48685" lon="-2.01371">
        <ele>106.19141</ele>
        <time>2019-09-11T14:02:18Z</time>
      </trkpt>
      <trkpt lat="48.48689" lon="-2.01372">
        <ele>106.68762</ele>
        <time>2019-09-11T14:02:19Z</time>
      </trkpt>
      <trkpt lat="48.48693" lon="-2.01372">
        <ele>107.11814</ele>
        <time>2019-09-11T14:02:20Z</time>
      </trkpt>
      <trkpt lat="48.48697" lon="-2.01371">
        <ele>107.38638</ele>
        <time>2019-09-11T14:02:21Z</time>
      </trkpt>
      <trkpt lat="48.48702" lon="-2.01371">
        <ele>107.69294</ele>
        <time>2019-09-11T14:02:22Z</time>
      </trkpt>
      <trkpt lat="48.48706" lon="-2.0137">
        <ele>107.87736</ele>
        <time>2019-09-11T14:02:23Z</time>
      </trkpt>
      <trkpt lat="48.48712" lon="-2.01367">
        <ele>107.52902</ele>
        <time>2019-09-11T14:02:24Z</time>
      </trkpt>
      <trkpt lat="48.48716" lon="-2.01365">
        <ele>107.096504</ele>
        <time>2019-09-11T14:02:25Z</time>
      </trkpt>
      <trkpt lat="48.48721" lon="-2.01363">
        <ele>107.02941</ele>
        <time>2019-09-11T14:02:26Z</time>
      </trkpt>
      <trkpt lat="48.48725" lon="-2.01362">
        <ele>106.77439</ele>
        <time>2019-09-11T14:02:27Z</time>
      </trkpt>
      <trkpt lat="48.48729" lon="-2.01361">
        <ele>106.55864</ele>
        <time>2019-09-11T14:02:28Z</time>
      </trkpt>
      <trkpt lat="48.48733" lon="-2.01359">
        <ele>106.3005</ele>
        <time>2019-09-11T14:02:29Z</time>
      </trkpt>
      <trkpt lat="48.48736" lon="-2.01357">
        <ele>105.92853</ele>
        <time>2019-09-11T14:02:30Z</time>
      </trkpt>
      <trkpt lat="48.4874" lon="-2.01355">
        <ele>105.236496</ele>
        <time>2019-09-11T14:02:31Z</time>
      </trkpt>
      <trkpt lat="48.48743" lon="-2.01353">
        <ele>104.583626</ele>
        <time>2019-09-11T14:02:32Z</time>
      </trkpt>
      <trkpt lat="48.48748" lon="-2.01353">
        <ele>104.40183</ele>
        <time>2019-09-11T14:02:33Z</time>
      </trkpt>
      <trkpt lat="48.48752" lon="-2.01352">
        <ele>104.37779</ele>
        <time>2019-09-11T14:02:34Z</time>
      </trkpt>
      <trkpt lat="48.48756" lon="-2.01352">
        <ele>104.394066</ele>
        <time>2019-09-11T14:02:35Z</time>
      </trkpt>
      <trkpt lat="48.4876" lon="-2.01351">
        <ele>104.34718</ele>
        <time>2019-09-11T14:02:36Z</time>
      </trkpt>
      <trkpt lat="48.48763" lon="-2.0135">
        <ele>104.879265</ele>
        <time>2019-09-11T14:02:37Z</time>
      </trkpt>
      <trkpt lat="48.48766" lon="-2.01348">
        <ele>104.8991</ele>
        <time>2019-09-11T14:02:38Z</time>
      </trkpt>
      <trkpt lat="48.48768" lon="-2.01347">
        <ele>104.85931</ele>
        <time>2019-09-11T14:02:39Z</time>
      </trkpt>
      <trkpt lat="48.48771" lon="-2.01346">
        <ele>104.92455</ele>
        <time>2019-09-11T14:02:40Z</time>
      </trkpt>
      <trkpt lat="48.48773" lon="-2.01345">
        <ele>104.93429</ele>
        <time>2019-09-11T14:02:41Z</time>
      </trkpt>
      <trkpt lat="48.48776" lon="-2.01344">
        <ele>105.24516</ele>
        <time>2019-09-11T14:02:42Z</time>
      </trkpt>
      <trkpt lat="48.48779" lon="-2.01343">
        <ele>105.491</ele>
        <time>2019-09-11T14:02:43Z</time>
      </trkpt>
      <trkpt lat="48.48782" lon="-2.01341">
        <ele>105.81411</ele>
        <time>2019-09-11T14:02:44Z</time>
      </trkpt>
      <trkpt lat="48.48785" lon="-2.01341">
        <ele>106.04064</ele>
        <time>2019-09-11T14:02:45Z</time>
      </trkpt>
      <trkpt lat="48.48788" lon="-2.0134">
        <ele>106.2048</ele>
        <time>2019-09-11T14:02:46Z</time>
      </trkpt>
      <trkpt lat="48.48791" lon="-2.01339">
        <ele>106.10429</ele>
        <time>2019-09-11T14:02:47Z</time>
      </trkpt>
      <trkpt lat="48.48794" lon="-2.01338">
        <ele>106.1886</ele>
        <time>2019-09-11T14:02:48Z</time>
      </trkpt>
      <trkpt lat="48.48797" lon="-2.01337">
        <ele>106.34043</ele>
        <time>2019-09-11T14:02:49Z</time>
      </trkpt>
      <trkpt lat="48.488" lon="-2.01336">
        <ele>106.55015</ele>
        <time>2019-09-11T14:02:50Z</time>
      </trkpt>
      <trkpt lat="48.48803" lon="-2.01334">
        <ele>106.75859</ele>
        <time>2019-09-11T14:02:51Z</time>
      </trkpt>
      <trkpt lat="48.48806" lon="-2.01333">
        <ele>106.92697</ele>
        <time>2019-09-11T14:02:52Z</time>
      </trkpt>
      <trkpt lat="48.48808" lon="-2.01332">
        <ele>107.175644</ele>
        <time>2019-09-11T14:02:53Z</time>
      </trkpt>
      <trkpt lat="48.48811" lon="-2.01331">
        <ele>107.07058</ele>
        <time>2019-09-11T14:02:54Z</time>
      </trkpt>
      <trkpt lat="48.48814" lon="-2.01331">
        <ele>107.14197</ele>
        <time>2019-09-11T14:02:55Z</time>
      </trkpt>
      <trkpt lat="48.48816" lon="-2.0133">
        <ele>107.57636</ele>
        <time>2019-09-11T14:02:56Z</time>
      </trkpt>
      <trkpt lat="48.48819" lon="-2.01328">
        <ele>107.60947</ele>
        <time>2019-09-11T14:02:57Z</time>
      </trkpt>
      <trkpt lat="48.48822" lon="-2.01327">
        <ele>107.58269</ele>
        <time>2019-09-11T14:02:58Z</time>
      </trkpt>
      <trkpt lat="48.48824" lon="-2.01327">
        <ele>107.83758</ele>
        <time>2019-09-11T14:02:59Z</time>
      </trkpt>
      <trkpt lat="48.48827" lon="-2.01326">
        <ele>108.00487</ele>
        <time>2019-09-11T14:03:00Z</time>
      </trkpt>
      <trkpt lat="48.4883" lon="-2.01326">
        <ele>108.33987</ele>
        <time>2019-09-11T14:03:01Z</time>
      </trkpt>
      <trkpt lat="48.48833" lon="-2.01325">
        <ele>108.39378</ele>
        <time>2019-09-11T14:03:02Z</time>
      </trkpt>
      <trkpt lat="48.48836" lon="-2.01324">
        <ele>108.563866</ele>
        <time>2019-09-11T14:03:03Z</time>
      </trkpt>
      <trkpt lat="48.48839" lon="-2.01323">
        <ele>108.86663</ele>
        <time>2019-09-11T14:03:04Z</time>
      </trkpt>
      <trkpt lat="48.48842" lon="-2.01322">
        <ele>108.95364</ele>
        <time>2019-09-11T14:03:05Z</time>
      </trkpt>
      <trkpt lat="48.48845" lon="-2.01322">
        <ele>108.76994</ele>
        <time>2019-09-11T14:03:06Z</time>
      </trkpt>
      <trkpt lat="48.48848" lon="-2.01321">
        <ele>108.88604</ele>
        <time>2019-09-11T14:03:07Z</time>
      </trkpt>
      <trkpt lat="48.48851" lon="-2.0132">
        <ele>109.02223</ele>
        <time>2019-09-11T14:03:08Z</time>
      </trkpt>
      <trkpt lat="48.48853" lon="-2.01319">
        <ele>108.84368</ele>
        <time>2019-09-11T14:03:09Z</time>
      </trkpt>
      <trkpt lat="48.48855" lon="-2.0132">
        <ele>108.82466</ele>
        <time>2019-09-11T14:03:10Z</time>
      </trkpt>
      <trkpt lat="48.48857" lon="-2.0132">
        <ele>108.988106</ele>
        <time>2019-09-11T14:03:11Z</time>
      </trkpt>
      <trkpt lat="48.48859" lon="-2.0132">
        <ele>109.164474</ele>
        <time>2019-09-11T14:03:12Z</time>
      </trkpt>
      <trkpt lat="48.48861" lon="-2.01321">
        <ele>109.423584</ele>
        <time>2019-09-11T14:03:13Z</time>
      </trkpt>
      <trkpt lat="48.48863" lon="-2.0132">
        <ele>109.55111</ele>
        <time>2019-09-11T14:03:14Z</time>
      </trkpt>
      <trkpt lat="48.48865" lon="-2.01319">
        <ele>109.75945</ele>
        <time>2019-09-11T14:03:15Z</time>
      </trkpt>
      <trkpt lat="48.48867" lon="-2.01318">
        <ele>109.88393</ele>
        <time>2019-09-11T14:03:16Z</time>
      </trkpt>
      <trkpt lat="48.48869" lon="-2.01318">
        <ele>110.00467</ele>
        <time>2019-09-11T14:03:17Z</time>
      </trkpt>
      <trkpt lat="48.48871" lon="-2.01318">
        <ele>109.90854</ele>
        <time>2019-09-11T14:03:18Z</time>
      </trkpt>
      <trkpt lat="48.48873" lon="-2.01318">
        <ele>109.85662</ele>
        <time>2019-09-11T14:03:19Z</time>
      </trkpt>
      <trkpt lat="48.48875" lon="-2.01318">
        <ele>109.93345</ele>
        <time>2019-09-11T14:03:20Z</time>
      </trkpt>
      <trkpt lat="48.48877" lon="-2.01318">
        <ele>110.15934</ele>
        <time>2019-09-11T14:03:21Z</time>
      </trkpt>
      <trkpt lat="48.48879" lon="-2.01317">
        <ele>110.15425</ele>
        <time>2019-09-11T14:03:22Z</time>
      </trkpt>
      <trkpt lat="48.48881" lon="-2.01317">
        <ele>110.08829</ele>
        <time>2019-09-11T14:03:23Z</time>
      </trkpt>
      <trkpt lat="48.48883" lon="-2.01317">
        <ele>110.091896</ele>
        <time>2019-09-11T14:03:24Z</time>
      </trkpt>
      <trkpt lat="48.48885" lon="-2.01316">
        <ele>110.09003</ele>
        <time>2019-09-11T14:03:25Z</time>
      </trkpt>
      <trkpt lat="48.48887" lon="-2.01314">
        <ele>110.24648</ele>
        <time>2019-09-11T14:03:26Z</time>
      </trkpt>
      <trkpt lat="48.48889" lon="-2.01313">
        <ele>110.26504</ele>
        <time>2019-09-11T14:03:27Z</time>
      </trkpt>
      <trkpt lat="48.48891" lon="-2.01312">
        <ele>109.70919</ele>
        <time>2019-09-11T14:03:28Z</time>
      </trkpt>
      <trkpt lat="48.48894" lon="-2.01312">
        <ele>109.23303</ele>
        <time>2019-09-11T14:03:29Z</time>
      </trkpt>
      <trkpt lat="48.48896" lon="-2.01312">
        <ele>108.9657</ele>
        <time>2019-09-11T14:03:30Z</time>
      </trkpt>
      <trkpt lat="48.48899" lon="-2.01314">
        <ele>109.05481</ele>
        <time>2019-09-11T14:03:31Z</time>
      </trkpt>
      <trkpt lat="48.48901" lon="-2.01316">
        <ele>109.18509</ele>
        <time>2019-09-11T14:03:32Z</time>
      </trkpt>
      <trkpt lat="48.48904" lon="-2.01319">
        <ele>109.33939</ele>
        <time>2019-09-11T14:03:33Z</time>
      </trkpt>
      <trkpt lat="48.48907" lon="-2.01323">
        <ele>109.61702</ele>
        <time>2019-09-11T14:03:34Z</time>
      </trkpt>
      <trkpt lat="48.48909" lon="-2.01326">
        <ele>109.56934</ele>
        <time>2019-09-11T14:03:35Z</time>
      </trkpt>
      <trkpt lat="48.48912" lon="-2.01329">
        <ele>110.051025</ele>
        <time>2019-09-11T14:03:36Z</time>
      </trkpt>
      <trkpt lat="48.48915" lon="-2.01332">
        <ele>110.18957</ele>
        <time>2019-09-11T14:03:37Z</time>
      </trkpt>
      <trkpt lat="48.48919" lon="-2.01334">
        <ele>110.57333</ele>
        <time>2019-09-11T14:03:38Z</time>
      </trkpt>
      <trkpt lat="48.48922" lon="-2.01336">
        <ele>110.82977</ele>
        <time>2019-09-11T14:03:39Z</time>
      </trkpt>
      <trkpt lat="48.48926" lon="-2.01337">
        <ele>110.90861</ele>
        <time>2019-09-11T14:03:40Z</time>
      </trkpt>
      <trkpt lat="48.4893" lon="-2.01337">
        <ele>110.625854</ele>
        <time>2019-09-11T14:03:41Z</time>
      </trkpt>
      <trkpt lat="48.48935" lon="-2.01336">
        <ele>110.566124</ele>
        <time>2019-09-11T14:03:42Z</time>
      </trkpt>
      <trkpt lat="48.4894" lon="-2.01336">
        <ele>110.665764</ele>
        <time>2019-09-11T14:03:43Z</time>
      </trkpt>
      <trkpt lat="48.48945" lon="-2.01335">
        <ele>110.79415</ele>
        <time>2019-09-11T14:03:44Z</time>
      </trkpt>
      <trkpt lat="48.48949" lon="-2.01333">
        <ele>110.79577</ele>
        <time>2019-09-11T14:03:45Z</time>
      </trkpt>
      <trkpt lat="48.48954" lon="-2.01332">
        <ele>110.90075</ele>
        <time>2019-09-11T14:03:46Z</time>
      </trkpt>
      <trkpt lat="48.48959" lon="-2.01331">
        <ele>110.91219</ele>
        <time>2019-09-11T14:03:47Z</time>
      </trkpt>
      <trkpt lat="48.48963" lon="-2.01331">
        <ele>110.95105</ele>
        <time>2019-09-11T14:03:48Z</time>
      </trkpt>
      <trkpt lat="48.48968" lon="-2.01329">
        <ele>111.02414</ele>
        <time>2019-09-11T14:03:49Z</time>
      </trkpt>
      <trkpt lat="48.48974" lon="-2.01327">
        <ele>111.038536</ele>
        <time>2019-09-11T14:03:50Z</time>
      </trkpt>
      <trkpt lat="48.48978" lon="-2.01325">
        <ele>110.935265</ele>
        <time>2019-09-11T14:03:51Z</time>
      </trkpt>
      <trkpt lat="48.48983" lon="-2.01323">
        <ele>111.039474</ele>
        <time>2019-09-11T14:03:52Z</time>
      </trkpt>
      <trkpt lat="48.48989" lon="-2.0132">
        <ele>111.05817</ele>
        <time>2019-09-11T14:03:53Z</time>
      </trkpt>
      <trkpt lat="48.48994" lon="-2.01318">
        <ele>111.1207</ele>
        <time>2019-09-11T14:03:54Z</time>
      </trkpt>
      <trkpt lat="48.48999" lon="-2.01316">
        <ele>111.18587</ele>
        <time>2019-09-11T14:03:55Z</time>
      </trkpt>
      <trkpt lat="48.49005" lon="-2.01313">
        <ele>111.16526</ele>
        <time>2019-09-11T14:03:56Z</time>
      </trkpt>
      <trkpt lat="48.49011" lon="-2.01311">
        <ele>111.28826</ele>
        <time>2019-09-11T14:03:57Z</time>
      </trkpt>
      <trkpt lat="48.49016" lon="-2.0131">
        <ele>111.13989</ele>
        <time>2019-09-11T14:03:58Z</time>
      </trkpt>
      <trkpt lat="48.49021" lon="-2.0131">
        <ele>111.094536</ele>
        <time>2019-09-11T14:03:59Z</time>
      </trkpt>
      <trkpt lat="48.49027" lon="-2.0131">
        <ele>110.91366</ele>
        <time>2019-09-11T14:04:00Z</time>
      </trkpt>
      <trkpt lat="48.49031" lon="-2.01309">
        <ele>110.71594</ele>
        <time>2019-09-11T14:04:01Z</time>
      </trkpt>
      <trkpt lat="48.49036" lon="-2.01308">
        <ele>110.91372</ele>
        <time>2019-09-11T14:04:02Z</time>
      </trkpt>
      <trkpt lat="48.49041" lon="-2.01306">
        <ele>110.74204</ele>
        <time>2019-09-11T14:04:03Z</time>
      </trkpt>
      <trkpt lat="48.49046" lon="-2.01304">
        <ele>110.88444</ele>
        <time>2019-09-11T14:04:04Z</time>
      </trkpt>
      <trkpt lat="48.49051" lon="-2.01302">
        <ele>110.82793</ele>
        <time>2019-09-11T14:04:05Z</time>
      </trkpt>
      <trkpt lat="48.49056" lon="-2.013">
        <ele>110.74871</ele>
        <time>2019-09-11T14:04:06Z</time>
      </trkpt>
      <trkpt lat="48.49061" lon="-2.01298">
        <ele>110.70508</ele>
        <time>2019-09-11T14:04:07Z</time>
      </trkpt>
      <trkpt lat="48.49067" lon="-2.01296">
        <ele>110.82635</ele>
        <time>2019-09-11T14:04:08Z</time>
      </trkpt>
      <trkpt lat="48.49072" lon="-2.01294">
        <ele>110.702095</ele>
        <time>2019-09-11T14:04:09Z</time>
      </trkpt>
      <trkpt lat="48.49077" lon="-2.01292">
        <ele>110.57114</ele>
        <time>2019-09-11T14:04:10Z</time>
      </trkpt>
      <trkpt lat="48.49082" lon="-2.01291">
        <ele>110.3406</ele>
        <time>2019-09-11T14:04:11Z</time>
      </trkpt>
      <trkpt lat="48.49087" lon="-2.0129">
        <ele>110.13004</ele>
        <time>2019-09-11T14:04:12Z</time>
      </trkpt>
      <trkpt lat="48.49092" lon="-2.01288">
        <ele>109.940315</ele>
        <time>2019-09-11T14:04:13Z</time>
      </trkpt>
      <trkpt lat="48.49097" lon="-2.01285">
        <ele>109.88143</ele>
        <time>2019-09-11T14:04:14Z</time>
      </trkpt>
      <trkpt lat="48.49101" lon="-2.01283">
        <ele>109.86029</ele>
        <time>2019-09-11T14:04:15Z</time>
      </trkpt>
      <trkpt lat="48.49106" lon="-2.01281">
        <ele>109.853355</ele>
        <time>2019-09-11T14:04:16Z</time>
      </trkpt>
      <trkpt lat="48.4911" lon="-2.01279">
        <ele>109.753944</ele>
        <time>2019-09-11T14:04:17Z</time>
      </trkpt>
      <trkpt lat="48.49115" lon="-2.01278">
        <ele>109.65589</ele>
        <time>2019-09-11T14:04:18Z</time>
      </trkpt>
      <trkpt lat="48.49121" lon="-2.01277">
        <ele>109.78845</ele>
        <time>2019-09-11T14:04:19Z</time>
      </trkpt>
      <trkpt lat="48.49126" lon="-2.01277">
        <ele>109.848206</ele>
        <time>2019-09-11T14:04:20Z</time>
      </trkpt>
      <trkpt lat="48.49132" lon="-2.01277">
        <ele>109.86928</ele>
        <time>2019-09-11T14:04:21Z</time>
      </trkpt>
      <trkpt lat="48.49137" lon="-2.01277">
        <ele>109.78566</ele>
        <time>2019-09-11T14:04:22Z</time>
      </trkpt>
      <trkpt lat="48.49142" lon="-2.01276">
        <ele>109.732956</ele>
        <time>2019-09-11T14:04:23Z</time>
      </trkpt>
      <trkpt lat="48.49147" lon="-2.01274">
        <ele>109.68927</ele>
        <time>2019-09-11T14:04:24Z</time>
      </trkpt>
      <trkpt lat="48.49152" lon="-2.01273">
        <ele>109.54222</ele>
        <time>2019-09-11T14:04:25Z</time>
      </trkpt>
      <trkpt lat="48.49158" lon="-2.01273">
        <ele>109.49242</ele>
        <time>2019-09-11T14:04:26Z</time>
      </trkpt>
      <trkpt lat="48.49163" lon="-2.01272">
        <ele>109.49427</ele>
        <time>2019-09-11T14:04:27Z</time>
      </trkpt>
      <trkpt lat="48.49169" lon="-2.01272">
        <ele>109.403404</ele>
        <time>2019-09-11T14:04:28Z</time>
      </trkpt>
      <trkpt lat="48.49175" lon="-2.01271">
        <ele>109.30493</ele>
        <time>2019-09-11T14:04:29Z</time>
      </trkpt>
      <trkpt lat="48.49181" lon="-2.0127">
        <ele>109.174934</ele>
        <time>2019-09-11T14:04:30Z</time>
      </trkpt>
      <trkpt lat="48.49187" lon="-2.01269">
        <ele>108.96423</ele>
        <time>2019-09-11T14:04:31Z</time>
      </trkpt>
      <trkpt lat="48.49192" lon="-2.01268">
        <ele>108.69095</ele>
        <time>2019-09-11T14:04:32Z</time>
      </trkpt>
      <trkpt lat="48.49199" lon="-2.01267">
        <ele>108.40031</ele>
        <time>2019-09-11T14:04:33Z</time>
      </trkpt>
      <trkpt lat="48.49204" lon="-2.01267">
        <ele>108.190674</ele>
        <time>2019-09-11T14:04:34Z</time>
      </trkpt>
      <trkpt lat="48.4921" lon="-2.01266">
        <ele>108.10733</ele>
        <time>2019-09-11T14:04:35Z</time>
      </trkpt>
      <trkpt lat="48.49214" lon="-2.01267">
        <ele>107.87988</ele>
        <time>2019-09-11T14:04:36Z</time>
      </trkpt>
      <trkpt lat="48.49218" lon="-2.01271">
        <ele>107.5248</ele>
        <time>2019-09-11T14:04:37Z</time>
      </trkpt>
      <trkpt lat="48.49221" lon="-2.01276">
        <ele>107.909645</ele>
        <time>2019-09-11T14:04:38Z</time>
      </trkpt>
      <trkpt lat="48.49221" lon="-2.01284">
        <ele>108.23542</ele>
        <time>2019-09-11T14:04:39Z</time>
      </trkpt>
      <trkpt lat="48.4922" lon="-2.01291">
        <ele>108.344986</ele>
        <time>2019-09-11T14:04:40Z</time>
      </trkpt>
      <trkpt lat="48.49219" lon="-2.01299">
        <ele>108.17493</ele>
        <time>2019-09-11T14:04:41Z</time>
      </trkpt>
      <trkpt lat="48.49218" lon="-2.01306">
        <ele>108.05171</ele>
        <time>2019-09-11T14:04:42Z</time>
      </trkpt>
      <trkpt lat="48.49218" lon="-2.01313">
        <ele>108.04352</ele>
        <time>2019-09-11T14:04:43Z</time>
      </trkpt>
      <trkpt lat="48.4922" lon="-2.01318">
        <ele>107.934235</ele>
        <time>2019-09-11T14:04:44Z</time>
      </trkpt>
      <trkpt lat="48.49223" lon="-2.01322">
        <ele>107.84152</ele>
        <time>2019-09-11T14:04:45Z</time>
      </trkpt>
      <trkpt lat="48.49227" lon="-2.01326">
        <ele>107.72693</ele>
        <time>2019-09-11T14:04:46Z</time>
      </trkpt>
      <trkpt lat="48.49231" lon="-2.01329">
        <ele>107.65028</ele>
        <time>2019-09-11T14:04:47Z</time>
      </trkpt>
      <trkpt lat="48.49235" lon="-2.01332">
        <ele>107.74034</ele>
        <time>2019-09-11T14:04:48Z</time>
      </trkpt>
      <trkpt lat="48.49239" lon="-2.01335">
        <ele>107.66125</ele>
        <time>2019-09-11T14:04:49Z</time>
      </trkpt>
      <trkpt lat="48.49244" lon="-2.01337">
        <ele>107.32718</ele>
        <time>2019-09-11T14:04:50Z</time>
      </trkpt>
      <trkpt lat="48.49248" lon="-2.01341">
        <ele>107.446526</ele>
        <time>2019-09-11T14:04:51Z</time>
      </trkpt>
      <trkpt lat="48.49254" lon="-2.01345">
        <ele>107.64192</ele>
        <time>2019-09-11T14:04:52Z</time>
      </trkpt>
      <trkpt lat="48.49259" lon="-2.01348">
        <ele>107.842865</ele>
        <time>2019-09-11T14:04:53Z</time>
      </trkpt>
      <trkpt lat="48.49264" lon="-2.01352">
        <ele>108.11244</ele>
        <time>2019-09-11T14:04:54Z</time>
      </trkpt>
      <trkpt lat="48.4927" lon="-2.01356">
        <ele>108.18765</ele>
        <time>2019-09-11T14:04:55Z</time>
      </trkpt>
      <trkpt lat="48.49276" lon="-2.01359">
        <ele>108.20528</ele>
        <time>2019-09-11T14:04:56Z</time>
      </trkpt>
      <trkpt lat="48.49282" lon="-2.01361">
        <ele>108.364296</ele>
        <time>2019-09-11T14:04:57Z</time>
      </trkpt>
      <trkpt lat="48.49287" lon="-2.01363">
        <ele>108.29069</ele>
        <time>2019-09-11T14:04:58Z</time>
      </trkpt>
      <trkpt lat="48.49292" lon="-2.01364">
        <ele>108.42025</ele>
        <time>2019-09-11T14:04:59Z</time>
      </trkpt>
      <trkpt lat="48.49296" lon="-2.01366">
        <ele>108.50762</ele>
        <time>2019-09-11T14:05:00Z</time>
      </trkpt>
      <trkpt lat="48.493" lon="-2.01367">
        <ele>108.494</ele>
        <time>2019-09-11T14:05:01Z</time>
      </trkpt>
      <trkpt lat="48.49304" lon="-2.01369">
        <ele>108.29133</ele>
        <time>2019-09-11T14:05:02Z</time>
      </trkpt>
      <trkpt lat="48.49308" lon="-2.01371">
        <ele>108.17272</ele>
        <time>2019-09-11T14:05:03Z</time>
      </trkpt>
      <trkpt lat="48.49313" lon="-2.01374">
        <ele>108.10981</ele>
        <time>2019-09-11T14:05:04Z</time>
      </trkpt>
      <trkpt lat="48.49318" lon="-2.01376">
        <ele>108.03103</ele>
        <time>2019-09-11T14:05:05Z</time>
      </trkpt>
      <trkpt lat="48.49323" lon="-2.01378">
        <ele>107.97582</ele>
        <time>2019-09-11T14:05:06Z</time>
      </trkpt>
      <trkpt lat="48.49327" lon="-2.0138">
        <ele>107.75541</ele>
        <time>2019-09-11T14:05:07Z</time>
      </trkpt>
      <trkpt lat="48.49332" lon="-2.01382">
        <ele>107.43976</ele>
        <time>2019-09-11T14:05:08Z</time>
      </trkpt>
      <trkpt lat="48.49337" lon="-2.01383">
        <ele>107.123566</ele>
        <time>2019-09-11T14:05:09Z</time>
      </trkpt>
      <trkpt lat="48.49342" lon="-2.01386">
        <ele>107.003456</ele>
        <time>2019-09-11T14:05:10Z</time>
      </trkpt>
      <trkpt lat="48.49348" lon="-2.01389">
        <ele>107.09461</ele>
        <time>2019-09-11T14:05:11Z</time>
      </trkpt>
      <trkpt lat="48.49353" lon="-2.01391">
        <ele>107.21942</ele>
        <time>2019-09-11T14:05:12Z</time>
      </trkpt>
      <trkpt lat="48.49358" lon="-2.01393">
        <ele>107.57261</ele>
        <time>2019-09-11T14:05:13Z</time>
      </trkpt>
      <trkpt lat="48.49363" lon="-2.01395">
        <ele>107.481316</ele>
        <time>2019-09-11T14:05:14Z</time>
      </trkpt>
      <trkpt lat="48.49368" lon="-2.01399">
        <ele>107.263725</ele>
        <time>2019-09-11T14:05:15Z</time>
      </trkpt>
      <trkpt lat="48.49373" lon="-2.01403">
        <ele>106.63279</ele>
        <time>2019-09-11T14:05:16Z</time>
      </trkpt>
      <trkpt lat="48.49378" lon="-2.01408">
        <ele>106.59266</ele>
        <time>2019-09-11T14:05:17Z</time>
      </trkpt>
      <trkpt lat="48.49383" lon="-2.01411">
        <ele>106.51218</ele>
        <time>2019-09-11T14:05:18Z</time>
      </trkpt>
      <trkpt lat="48.49389" lon="-2.01414">
        <ele>106.62813</ele>
        <time>2019-09-11T14:05:19Z</time>
      </trkpt>
      <trkpt lat="48.49395" lon="-2.01418">
        <ele>106.15983</ele>
        <time>2019-09-11T14:05:20Z</time>
      </trkpt>
      <trkpt lat="48.494" lon="-2.01421">
        <ele>105.86984</ele>
        <time>2019-09-11T14:05:21Z</time>
      </trkpt>
      <trkpt lat="48.49405" lon="-2.01424">
        <ele>105.409706</ele>
        <time>2019-09-11T14:05:22Z</time>
      </trkpt>
      <trkpt lat="48.49407" lon="-2.01427">
        <ele>104.859024</ele>
        <time>2019-09-11T14:05:23Z</time>
      </trkpt>
      <trkpt lat="48.49409" lon="-2.01428">
        <ele>104.31367</ele>
        <time>2019-09-11T14:05:24Z</time>
      </trkpt>
      <trkpt lat="48.4941" lon="-2.0143">
        <ele>103.495415</ele>
        <time>2019-09-11T14:05:25Z</time>
      </trkpt>
      <trkpt lat="48.4941" lon="-2.01431">
        <ele>102.92848</ele>
        <time>2019-09-11T14:05:26Z</time>
      </trkpt>
      <trkpt lat="48.49409" lon="-2.01433">
        <ele>102.917465</ele>
        <time>2019-09-11T14:05:27Z</time>
      </trkpt>
      <trkpt lat="48.49409" lon="-2.01436">
        <ele>102.73825</ele>
        <time>2019-09-11T14:05:28Z</time>
      </trkpt>
      <trkpt lat="48.49408" lon="-2.01439">
        <ele>102.53248</ele>
        <time>2019-09-11T14:05:29Z</time>
      </trkpt>
      <trkpt lat="48.49407" lon="-2.01444">
        <ele>102.121506</ele>
        <time>2019-09-11T14:05:30Z</time>
      </trkpt>
      <trkpt lat="48.49406" lon="-2.01449">
        <ele>101.90928</ele>
        <time>2019-09-11T14:05:31Z</time>
      </trkpt>
      <trkpt lat="48.49405" lon="-2.01455">
        <ele>102.47139</ele>
        <time>2019-09-11T14:05:32Z</time>
      </trkpt>
      <trkpt lat="48.49404" lon="-2.0146">
        <ele>102.25075</ele>
        <time>2019-09-11T14:05:33Z</time>
      </trkpt>
      <trkpt lat="48.49403" lon="-2.01467">
        <ele>102.373</ele>
        <time>2019-09-11T14:05:34Z</time>
      </trkpt>
      <trkpt lat="48.49402" lon="-2.01474">
        <ele>102.27106</ele>
        <time>2019-09-11T14:05:35Z</time>
      </trkpt>
      <trkpt lat="48.494" lon="-2.0148">
        <ele>102.07326</ele>
        <time>2019-09-11T14:05:36Z</time>
      </trkpt>
      <trkpt lat="48.49398" lon="-2.01486">
        <ele>102.126434</ele>
        <time>2019-09-11T14:05:37Z</time>
      </trkpt>
      <trkpt lat="48.49396" lon="-2.01493">
        <ele>101.92923</ele>
        <time>2019-09-11T14:05:38Z</time>
      </trkpt>
      <trkpt lat="48.49394" lon="-2.015">
        <ele>101.78965</ele>
        <time>2019-09-11T14:05:39Z</time>
      </trkpt>
      <trkpt lat="48.49392" lon="-2.01508">
        <ele>101.79501</ele>
        <time>2019-09-11T14:05:40Z</time>
      </trkpt>
      <trkpt lat="48.4939" lon="-2.01515">
        <ele>101.76644</ele>
        <time>2019-09-11T14:05:41Z</time>
      </trkpt>
      <trkpt lat="48.49388" lon="-2.01522">
        <ele>101.49653</ele>
        <time>2019-09-11T14:05:42Z</time>
      </trkpt>
      <trkpt lat="48.49386" lon="-2.01529">
        <ele>101.249214</ele>
        <time>2019-09-11T14:05:43Z</time>
      </trkpt>
      <trkpt lat="48.49384" lon="-2.01536">
        <ele>100.90375</ele>
        <time>2019-09-11T14:05:44Z</time>
      </trkpt>
      <trkpt lat="48.49382" lon="-2.01542">
        <ele>100.8128</ele>
        <time>2019-09-11T14:05:45Z</time>
      </trkpt>
      <trkpt lat="48.4938" lon="-2.01548">
        <ele>100.66582</ele>
        <time>2019-09-11T14:05:46Z</time>
      </trkpt>
      <trkpt lat="48.49378" lon="-2.01553">
        <ele>100.53836</ele>
        <time>2019-09-11T14:05:47Z</time>
      </trkpt>
      <trkpt lat="48.49376" lon="-2.01559">
        <ele>100.50023</ele>
        <time>2019-09-11T14:05:48Z</time>
      </trkpt>
      <trkpt lat="48.49374" lon="-2.01565">
        <ele>100.459915</ele>
        <time>2019-09-11T14:05:49Z</time>
      </trkpt>
      <trkpt lat="48.49372" lon="-2.01571">
        <ele>100.42939</ele>
        <time>2019-09-11T14:05:50Z</time>
      </trkpt>
      <trkpt lat="48.4937" lon="-2.01577">
        <ele>100.44297</ele>
        <time>2019-09-11T14:05:51Z</time>
      </trkpt>
      <trkpt lat="48.49368" lon="-2.01582">
        <ele>100.48119</ele>
        <time>2019-09-11T14:05:52Z</time>
      </trkpt>
      <trkpt lat="48.49366" lon="-2.01588">
        <ele>100.438354</ele>
        <time>2019-09-11T14:05:53Z</time>
      </trkpt>
      <trkpt lat="48.49365" lon="-2.01595">
        <ele>100.35018</ele>
        <time>2019-09-11T14:05:54Z</time>
      </trkpt>
      <trkpt lat="48.49363" lon="-2.01601">
        <ele>100.1859</ele>
        <time>2019-09-11T14:05:55Z</time>
      </trkpt>
      <trkpt lat="48.49361" lon="-2.01607">
        <ele>100.15812</ele>
        <time>2019-09-11T14:05:56Z</time>
      </trkpt>
      <trkpt lat="48.49359" lon="-2.01614">
        <ele>100.174065</ele>
        <time>2019-09-11T14:05:57Z</time>
      </trkpt>
      <trkpt lat="48.49357" lon="-2.0162">
        <ele>100.43601</ele>
        <time>2019-09-11T14:05:58Z</time>
      </trkpt>
      <trkpt lat="48.49355" lon="-2.01627">
        <ele>100.73813</ele>
        <time>2019-09-11T14:05:59Z</time>
      </trkpt>
      <trkpt lat="48.49353" lon="-2.01634">
        <ele>100.892876</ele>
        <time>2019-09-11T14:06:00Z</time>
      </trkpt>
      <trkpt lat="48.4935" lon="-2.01641">
        <ele>101.27065</ele>
        <time>2019-09-11T14:06:01Z</time>
      </trkpt>
      <trkpt lat="48.49348" lon="-2.01648">
        <ele>101.53765</ele>
        <time>2019-09-11T14:06:02Z</time>
      </trkpt>
      <trkpt lat="48.49346" lon="-2.01655">
        <ele>101.67473</ele>
        <time>2019-09-11T14:06:03Z</time>
      </trkpt>
      <trkpt lat="48.49344" lon="-2.01661">
        <ele>101.800674</ele>
        <time>2019-09-11T14:06:04Z</time>
      </trkpt>
      <trkpt lat="48.49343" lon="-2.01668">
        <ele>102.38139</ele>
        <time>2019-09-11T14:06:05Z</time>
      </trkpt>
      <trkpt lat="48.49341" lon="-2.01675">
        <ele>102.48241</ele>
        <time>2019-09-11T14:06:06Z</time>
      </trkpt>
      <trkpt lat="48.49339" lon="-2.01681">
        <ele>102.54141</ele>
        <time>2019-09-11T14:06:07Z</time>
      </trkpt>
      <trkpt lat="48.49337" lon="-2.01687">
        <ele>102.84346</ele>
        <time>2019-09-11T14:06:08Z</time>
      </trkpt>
      <trkpt lat="48.49335" lon="-2.01693">
        <ele>103.1604</ele>
        <time>2019-09-11T14:06:09Z</time>
      </trkpt>
      <trkpt lat="48.49333" lon="-2.01699">
        <ele>103.356</ele>
        <time>2019-09-11T14:06:10Z</time>
      </trkpt>
      <trkpt lat="48.49331" lon="-2.01704">
        <ele>103.61445</ele>
        <time>2019-09-11T14:06:11Z</time>
      </trkpt>
      <trkpt lat="48.49329" lon="-2.0171">
        <ele>103.77118</ele>
        <time>2019-09-11T14:06:12Z</time>
      </trkpt>
      <trkpt lat="48.49328" lon="-2.01715">
        <ele>103.88245</ele>
        <time>2019-09-11T14:06:13Z</time>
      </trkpt>
      <trkpt lat="48.49326" lon="-2.01721">
        <ele>103.91041</ele>
        <time>2019-09-11T14:06:14Z</time>
      </trkpt>
      <trkpt lat="48.49325" lon="-2.01728">
        <ele>104.04951</ele>
        <time>2019-09-11T14:06:15Z</time>
      </trkpt>
      <trkpt lat="48.49323" lon="-2.01733">
        <ele>104.15339</ele>
        <time>2019-09-11T14:06:16Z</time>
      </trkpt>
      <trkpt lat="48.49321" lon="-2.01739">
        <ele>104.10792</ele>
        <time>2019-09-11T14:06:17Z</time>
      </trkpt>
      <trkpt lat="48.4932" lon="-2.01744">
        <ele>104.19323</ele>
        <time>2019-09-11T14:06:18Z</time>
      </trkpt>
      <trkpt lat="48.49318" lon="-2.0175">
        <ele>104.378334</ele>
        <time>2019-09-11T14:06:19Z</time>
      </trkpt>
      <trkpt lat="48.49317" lon="-2.01755">
        <ele>104.3493</ele>
        <time>2019-09-11T14:06:20Z</time>
      </trkpt>
      <trkpt lat="48.49316" lon="-2.01761">
        <ele>104.15227</ele>
        <time>2019-09-11T14:06:21Z</time>
      </trkpt>
      <trkpt lat="48.49314" lon="-2.01766">
        <ele>103.95701</ele>
        <time>2019-09-11T14:06:22Z</time>
      </trkpt>
      <trkpt lat="48.49313" lon="-2.01771">
        <ele>103.7087</ele>
        <time>2019-09-11T14:06:23Z</time>
      </trkpt>
      <trkpt lat="48.49312" lon="-2.01776">
        <ele>103.53874</ele>
        <time>2019-09-11T14:06:24Z</time>
      </trkpt>
      <trkpt lat="48.4931" lon="-2.01781">
        <ele>103.485176</ele>
        <time>2019-09-11T14:06:25Z</time>
      </trkpt>
      <trkpt lat="48.49309" lon="-2.01786">
        <ele>103.495544</ele>
        <time>2019-09-11T14:06:26Z</time>
      </trkpt>
      <trkpt lat="48.49309" lon="-2.0179">
        <ele>103.57771</ele>
        <time>2019-09-11T14:06:27Z</time>
      </trkpt>
      <trkpt lat="48.4931" lon="-2.01793">
        <ele>103.671875</ele>
        <time>2019-09-11T14:06:28Z</time>
      </trkpt>
      <trkpt lat="48.49312" lon="-2.01794">
        <ele>104.10645</ele>
        <time>2019-09-11T14:06:29Z</time>
      </trkpt>
      <trkpt lat="48.49315" lon="-2.01795">
        <ele>105.24102</ele>
        <time>2019-09-11T14:06:30Z</time>
      </trkpt>
      <trkpt lat="48.49318" lon="-2.01795">
        <ele>105.8652</ele>
        <time>2019-09-11T14:06:31Z</time>
      </trkpt>
      <trkpt lat="48.49323" lon="-2.01794">
        <ele>106.26471</ele>
        <time>2019-09-11T14:06:32Z</time>
      </trkpt>
      <trkpt lat="48.49328" lon="-2.01793">
        <ele>106.67609</ele>
        <time>2019-09-11T14:06:33Z</time>
      </trkpt>
      <trkpt lat="48.49332" lon="-2.01793">
        <ele>107.29624</ele>
        <time>2019-09-11T14:06:34Z</time>
      </trkpt>
      <trkpt lat="48.49338" lon="-2.01793">
        <ele>107.57156</ele>
        <time>2019-09-11T14:06:35Z</time>
      </trkpt>
      <trkpt lat="48.49343" lon="-2.01793">
        <ele>107.802155</ele>
        <time>2019-09-11T14:06:36Z</time>
      </trkpt>
      <trkpt lat="48.49348" lon="-2.01793">
        <ele>108.09787</ele>
        <time>2019-09-11T14:06:37Z</time>
      </trkpt>
      <trkpt lat="48.49353" lon="-2.01794">
        <ele>108.089165</ele>
        <time>2019-09-11T14:06:38Z</time>
      </trkpt>
      <trkpt lat="48.49359" lon="-2.01793">
        <ele>108.128265</ele>
        <time>2019-09-11T14:06:39Z</time>
      </trkpt>
      <trkpt lat="48.49365" lon="-2.01793">
        <ele>108.51161</ele>
        <time>2019-09-11T14:06:40Z</time>
      </trkpt>
      <trkpt lat="48.4937" lon="-2.01793">
        <ele>108.62974</ele>
        <time>2019-09-11T14:06:41Z</time>
      </trkpt>
      <trkpt lat="48.49376" lon="-2.01793">
        <ele>108.56765</ele>
        <time>2019-09-11T14:06:42Z</time>
      </trkpt>
      <trkpt lat="48.49381" lon="-2.01794">
        <ele>108.623665</ele>
        <time>2019-09-11T14:06:43Z</time>
      </trkpt>
      <trkpt lat="48.49387" lon="-2.01796">
        <ele>109.01444</ele>
        <time>2019-09-11T14:06:44Z</time>
      </trkpt>
      <trkpt lat="48.49393" lon="-2.01798">
        <ele>108.98227</ele>
        <time>2019-09-11T14:06:45Z</time>
      </trkpt>
      <trkpt lat="48.49398" lon="-2.01801">
        <ele>108.95737</ele>
        <time>2019-09-11T14:06:46Z</time>
      </trkpt>
      <trkpt lat="48.49403" lon="-2.01803">
        <ele>108.84671</ele>
        <time>2019-09-11T14:06:47Z</time>
      </trkpt>
      <trkpt lat="48.49409" lon="-2.01806">
        <ele>108.47397</ele>
        <time>2019-09-11T14:06:48Z</time>
      </trkpt>
      <trkpt lat="48.49414" lon="-2.01809">
        <ele>108.39703</ele>
        <time>2019-09-11T14:06:49Z</time>
      </trkpt>
      <trkpt lat="48.4942" lon="-2.01811">
        <ele>108.3206</ele>
        <time>2019-09-11T14:06:50Z</time>
      </trkpt>
      <trkpt lat="48.49426" lon="-2.01813">
        <ele>108.423645</ele>
        <time>2019-09-11T14:06:51Z</time>
      </trkpt>
      <trkpt lat="48.49432" lon="-2.01816">
        <ele>108.490906</ele>
        <time>2019-09-11T14:06:52Z</time>
      </trkpt>
      <trkpt lat="48.49438" lon="-2.01818">
        <ele>108.42448</ele>
        <time>2019-09-11T14:06:53Z</time>
      </trkpt>
      <trkpt lat="48.49444" lon="-2.0182">
        <ele>108.34666</ele>
        <time>2019-09-11T14:06:54Z</time>
      </trkpt>
      <trkpt lat="48.4945" lon="-2.01822">
        <ele>108.18222</ele>
        <time>2019-09-11T14:06:55Z</time>
      </trkpt>
      <trkpt lat="48.49455" lon="-2.01824">
        <ele>108.1059</ele>
        <time>2019-09-11T14:06:56Z</time>
      </trkpt>
      <trkpt lat="48.49461" lon="-2.01827">
        <ele>108.07111</ele>
        <time>2019-09-11T14:06:57Z</time>
      </trkpt>
      <trkpt lat="48.49468" lon="-2.0183">
        <ele>108.25475</ele>
        <time>2019-09-11T14:06:58Z</time>
      </trkpt>
      <trkpt lat="48.49473" lon="-2.01832">
        <ele>107.995255</ele>
        <time>2019-09-11T14:06:59Z</time>
      </trkpt>
      <trkpt lat="48.49479" lon="-2.01835">
        <ele>107.83207</ele>
        <time>2019-09-11T14:07:00Z</time>
      </trkpt>
      <trkpt lat="48.49484" lon="-2.01836">
        <ele>106.978294</ele>
        <time>2019-09-11T14:07:01Z</time>
      </trkpt>
      <trkpt lat="48.49489" lon="-2.01838">
        <ele>106.34796</ele>
        <time>2019-09-11T14:07:02Z</time>
      </trkpt>
      <trkpt lat="48.49493" lon="-2.01838">
        <ele>105.57111</ele>
        <time>2019-09-11T14:07:03Z</time>
      </trkpt>
      <trkpt lat="48.49495" lon="-2.01835">
        <ele>105.08002</ele>
        <time>2019-09-11T14:07:04Z</time>
      </trkpt>
      <trkpt lat="48.49496" lon="-2.0183">
        <ele>104.21432</ele>
        <time>2019-09-11T14:07:05Z</time>
      </trkpt>
      <trkpt lat="48.49497" lon="-2.01824">
        <ele>104.06637</ele>
        <time>2019-09-11T14:07:06Z</time>
      </trkpt>
      <trkpt lat="48.49498" lon="-2.01816">
        <ele>103.76987</ele>
        <time>2019-09-11T14:07:07Z</time>
      </trkpt>
      <trkpt lat="48.49499" lon="-2.01807">
        <ele>103.66965</ele>
        <time>2019-09-11T14:07:08Z</time>
      </trkpt>
      <trkpt lat="48.49501" lon="-2.01797">
        <ele>103.412254</ele>
        <time>2019-09-11T14:07:09Z</time>
      </trkpt>
      <trkpt lat="48.49503" lon="-2.01787">
        <ele>102.8053</ele>
        <time>2019-09-11T14:07:10Z</time>
      </trkpt>
      <trkpt lat="48.49505" lon="-2.01776">
        <ele>102.17976</ele>
        <time>2019-09-11T14:07:11Z</time>
      </trkpt>
      <trkpt lat="48.49506" lon="-2.01765">
        <ele>101.89542</ele>
        <time>2019-09-11T14:07:12Z</time>
      </trkpt>
      <trkpt lat="48.49508" lon="-2.01755">
        <ele>101.63183</ele>
        <time>2019-09-11T14:07:13Z</time>
      </trkpt>
      <trkpt lat="48.4951" lon="-2.01745">
        <ele>101.46999</ele>
        <time>2019-09-11T14:07:14Z</time>
      </trkpt>
      <trkpt lat="48.49511" lon="-2.01735">
        <ele>101.237335</ele>
        <time>2019-09-11T14:07:15Z</time>
      </trkpt>
      <trkpt lat="48.49513" lon="-2.01724">
        <ele>100.82706</ele>
        <time>2019-09-11T14:07:16Z</time>
      </trkpt>
      <trkpt lat="48.49514" lon="-2.01714">
        <ele>100.55903</ele>
        <time>2019-09-11T14:07:17Z</time>
      </trkpt>
      <trkpt lat="48.49515" lon="-2.01703">
        <ele>100.338234</ele>
        <time>2019-09-11T14:07:18Z</time>
      </trkpt>
      <trkpt lat="48.49516" lon="-2.01692">
        <ele>100.10291</ele>
        <time>2019-09-11T14:07:19Z</time>
      </trkpt>
      <trkpt lat="48.49517" lon="-2.01681">
        <ele>99.80337</ele>
        <time>2019-09-11T14:07:20Z</time>
      </trkpt>
      <trkpt lat="48.49519" lon="-2.01671">
        <ele>100.02301</ele>
        <time>2019-09-11T14:07:21Z</time>
      </trkpt>
      <trkpt lat="48.49521" lon="-2.01661">
        <ele>99.907234</ele>
        <time>2019-09-11T14:07:22Z</time>
      </trkpt>
      <trkpt lat="48.49522" lon="-2.01652">
        <ele>99.90985</ele>
        <time>2019-09-11T14:07:23Z</time>
      </trkpt>
      <trkpt lat="48.49524" lon="-2.01643">
        <ele>99.638985</ele>
        <time>2019-09-11T14:07:24Z</time>
      </trkpt>
      <trkpt lat="48.49525" lon="-2.01634">
        <ele>99.4608</ele>
        <time>2019-09-11T14:07:25Z</time>
      </trkpt>
      <trkpt lat="48.49526" lon="-2.01625">
        <ele>99.24717</ele>
        <time>2019-09-11T14:07:26Z</time>
      </trkpt>
      <trkpt lat="48.49527" lon="-2.01616">
        <ele>98.8118</ele>
        <time>2019-09-11T14:07:27Z</time>
      </trkpt>
      <trkpt lat="48.49528" lon="-2.01606">
        <ele>98.42526</ele>
        <time>2019-09-11T14:07:28Z</time>
      </trkpt>
      <trkpt lat="48.49529" lon="-2.01597">
        <ele>97.981995</ele>
        <time>2019-09-11T14:07:29Z</time>
      </trkpt>
      <trkpt lat="48.4953" lon="-2.01589">
        <ele>97.88092</ele>
        <time>2019-09-11T14:07:30Z</time>
      </trkpt>
      <trkpt lat="48.49531" lon="-2.01581">
        <ele>98.05261</ele>
        <time>2019-09-11T14:07:31Z</time>
      </trkpt>
      <trkpt lat="48.49533" lon="-2.01573">
        <ele>98.095276</ele>
        <time>2019-09-11T14:07:32Z</time>
      </trkpt>
      <trkpt lat="48.49534" lon="-2.01565">
        <ele>98.10488</ele>
        <time>2019-09-11T14:07:33Z</time>
      </trkpt>
      <trkpt lat="48.49536" lon="-2.01556">
        <ele>98.12212</ele>
        <time>2019-09-11T14:07:34Z</time>
      </trkpt>
      <trkpt lat="48.49537" lon="-2.01548">
        <ele>98.079414</ele>
        <time>2019-09-11T14:07:35Z</time>
      </trkpt>
      <trkpt lat="48.49538" lon="-2.0154">
        <ele>97.91396</ele>
        <time>2019-09-11T14:07:36Z</time>
      </trkpt>
      <trkpt lat="48.49539" lon="-2.01533">
        <ele>97.512245</ele>
        <time>2019-09-11T14:07:37Z</time>
      </trkpt>
      <trkpt lat="48.4954" lon="-2.01526">
        <ele>97.22374</ele>
        <time>2019-09-11T14:07:38Z</time>
      </trkpt>
      <trkpt lat="48.49541" lon="-2.0152">
        <ele>97.2367</ele>
        <time>2019-09-11T14:07:39Z</time>
      </trkpt>
      <trkpt lat="48.49542" lon="-2.01516">
        <ele>97.000755</ele>
        <time>2019-09-11T14:07:40Z</time>
      </trkpt>
      <trkpt lat="48.49544" lon="-2.01513">
        <ele>96.877716</ele>
        <time>2019-09-11T14:07:41Z</time>
      </trkpt>
      <trkpt lat="48.49547" lon="-2.01513">
        <ele>97.26022</ele>
        <time>2019-09-11T14:07:42Z</time>
      </trkpt>
      <trkpt lat="48.49551" lon="-2.01515">
        <ele>97.236786</ele>
        <time>2019-09-11T14:07:43Z</time>
      </trkpt>
      <trkpt lat="48.49556" lon="-2.01518">
        <ele>97.038826</ele>
        <time>2019-09-11T14:07:44Z</time>
      </trkpt>
      <trkpt lat="48.49561" lon="-2.01521">
        <ele>96.7502</ele>
        <time>2019-09-11T14:07:45Z</time>
      </trkpt>
      <trkpt lat="48.49566" lon="-2.01524">
        <ele>96.564545</ele>
        <time>2019-09-11T14:07:46Z</time>
      </trkpt>
      <trkpt lat="48.49571" lon="-2.01527">
        <ele>96.52348</ele>
        <time>2019-09-11T14:07:47Z</time>
      </trkpt>
      <trkpt lat="48.49576" lon="-2.0153">
        <ele>96.51586</ele>
        <time>2019-09-11T14:07:48Z</time>
      </trkpt>
      <trkpt lat="48.49581" lon="-2.01533">
        <ele>96.53383</ele>
        <time>2019-09-11T14:07:49Z</time>
      </trkpt>
      <trkpt lat="48.49587" lon="-2.01536">
        <ele>96.73565</ele>
        <time>2019-09-11T14:07:50Z</time>
      </trkpt>
      <trkpt lat="48.49593" lon="-2.01539">
        <ele>96.86594</ele>
        <time>2019-09-11T14:07:51Z</time>
      </trkpt>
      <trkpt lat="48.49598" lon="-2.01542">
        <ele>96.74786</ele>
        <time>2019-09-11T14:07:52Z</time>
      </trkpt>
      <trkpt lat="48.49603" lon="-2.01545">
        <ele>96.91993</ele>
        <time>2019-09-11T14:07:53Z</time>
      </trkpt>
      <trkpt lat="48.49608" lon="-2.01547">
        <ele>97.10805</ele>
        <time>2019-09-11T14:07:54Z</time>
      </trkpt>
      <trkpt lat="48.49613" lon="-2.0155">
        <ele>97.366646</ele>
        <time>2019-09-11T14:07:55Z</time>
      </trkpt>
      <trkpt lat="48.49618" lon="-2.01553">
        <ele>97.13994</ele>
        <time>2019-09-11T14:07:56Z</time>
      </trkpt>
      <trkpt lat="48.49624" lon="-2.01555">
        <ele>97.00917</ele>
        <time>2019-09-11T14:07:57Z</time>
      </trkpt>
      <trkpt lat="48.49628" lon="-2.01558">
        <ele>97.00795</ele>
        <time>2019-09-11T14:07:58Z</time>
      </trkpt>
      <trkpt lat="48.49634" lon="-2.0156">
        <ele>96.97183</ele>
        <time>2019-09-11T14:07:59Z</time>
      </trkpt>
      <trkpt lat="48.4964" lon="-2.01561">
        <ele>97.027855</ele>
        <time>2019-09-11T14:08:00Z</time>
      </trkpt>
      <trkpt lat="48.49646" lon="-2.01561">
        <ele>96.84726</ele>
        <time>2019-09-11T14:08:01Z</time>
      </trkpt>
      <trkpt lat="48.49651" lon="-2.01562">
        <ele>96.84219</ele>
        <time>2019-09-11T14:08:02Z</time>
      </trkpt>
      <trkpt lat="48.49656" lon="-2.01564">
        <ele>96.517456</ele>
        <time>2019-09-11T14:08:03Z</time>
      </trkpt>
      <trkpt lat="48.49661" lon="-2.01565">
        <ele>96.45664</ele>
        <time>2019-09-11T14:08:04Z</time>
      </trkpt>
      <trkpt lat="48.49665" lon="-2.01568">
        <ele>96.33118</ele>
        <time>2019-09-11T14:08:05Z</time>
      </trkpt>
      <trkpt lat="48.49669" lon="-2.0157">
        <ele>95.93092</ele>
        <time>2019-09-11T14:08:06Z</time>
      </trkpt>
      <trkpt lat="48.49673" lon="-2.01573">
        <ele>95.802666</ele>
        <time>2019-09-11T14:08:07Z</time>
      </trkpt>
      <trkpt lat="48.49677" lon="-2.01575">
        <ele>95.64651</ele>
        <time>2019-09-11T14:08:08Z</time>
      </trkpt>
      <trkpt lat="48.4968" lon="-2.01577">
        <ele>95.743065</ele>
        <time>2019-09-11T14:08:09Z</time>
      </trkpt>
      <trkpt lat="48.49685" lon="-2.01579">
        <ele>95.69833</ele>
        <time>2019-09-11T14:08:10Z</time>
      </trkpt>
      <trkpt lat="48.49688" lon="-2.01581">
        <ele>95.62538</ele>
        <time>2019-09-11T14:08:11Z</time>
      </trkpt>
      <trkpt lat="48.49693" lon="-2.01584">
        <ele>95.48496</ele>
        <time>2019-09-11T14:08:12Z</time>
      </trkpt>
      <trkpt lat="48.49697" lon="-2.01586">
        <ele>95.34835</ele>
        <time>2019-09-11T14:08:13Z</time>
      </trkpt>
      <trkpt lat="48.49701" lon="-2.01589">
        <ele>95.26087</ele>
        <time>2019-09-11T14:08:14Z</time>
      </trkpt>
      <trkpt lat="48.49705" lon="-2.01592">
        <ele>95.19265</ele>
        <time>2019-09-11T14:08:15Z</time>
      </trkpt>
      <trkpt lat="48.4971" lon="-2.01595">
        <ele>95.013374</ele>
        <time>2019-09-11T14:08:16Z</time>
      </trkpt>
      <trkpt lat="48.49714" lon="-2.01597">
        <ele>94.9027</ele>
        <time>2019-09-11T14:08:17Z</time>
      </trkpt>
      <trkpt lat="48.49719" lon="-2.01599">
        <ele>94.95067</ele>
        <time>2019-09-11T14:08:18Z</time>
      </trkpt>
      <trkpt lat="48.49723" lon="-2.01602">
        <ele>94.75365</ele>
        <time>2019-09-11T14:08:19Z</time>
      </trkpt>
      <trkpt lat="48.49728" lon="-2.01604">
        <ele>94.42385</ele>
        <time>2019-09-11T14:08:20Z</time>
      </trkpt>
      <trkpt lat="48.49732" lon="-2.01607">
        <ele>94.44164</ele>
        <time>2019-09-11T14:08:21Z</time>
      </trkpt>
      <trkpt lat="48.49737" lon="-2.0161">
        <ele>94.4508</ele>
        <time>2019-09-11T14:08:22Z</time>
      </trkpt>
      <trkpt lat="48.49742" lon="-2.01613">
        <ele>94.21845</ele>
        <time>2019-09-11T14:08:23Z</time>
      </trkpt>
      <trkpt lat="48.49747" lon="-2.01615">
        <ele>93.98475</ele>
        <time>2019-09-11T14:08:24Z</time>
      </trkpt>
      <trkpt lat="48.49752" lon="-2.01618">
        <ele>93.76262</ele>
        <time>2019-09-11T14:08:25Z</time>
      </trkpt>
      <trkpt lat="48.49757" lon="-2.01621">
        <ele>93.46852</ele>
        <time>2019-09-11T14:08:26Z</time>
      </trkpt>
      <trkpt lat="48.49763" lon="-2.01624">
        <ele>93.38433</ele>
        <time>2019-09-11T14:08:27Z</time>
      </trkpt>
      <trkpt lat="48.49768" lon="-2.01627">
        <ele>92.96951</ele>
        <time>2019-09-11T14:08:28Z</time>
      </trkpt>
      <trkpt lat="48.49773" lon="-2.01629">
        <ele>92.88424</ele>
        <time>2019-09-11T14:08:29Z</time>
      </trkpt>
      <trkpt lat="48.49778" lon="-2.01632">
        <ele>92.626</ele>
        <time>2019-09-11T14:08:30Z</time>
      </trkpt>
      <trkpt lat="48.49783" lon="-2.01635">
        <ele>92.41634</ele>
        <time>2019-09-11T14:08:31Z</time>
      </trkpt>
      <trkpt lat="48.49788" lon="-2.01638">
        <ele>92.14164</ele>
        <time>2019-09-11T14:08:32Z</time>
      </trkpt>
      <trkpt lat="48.49793" lon="-2.01641">
        <ele>91.81818</ele>
        <time>2019-09-11T14:08:33Z</time>
      </trkpt>
      <trkpt lat="48.49799" lon="-2.01643">
        <ele>91.48243</ele>
        <time>2019-09-11T14:08:34Z</time>
      </trkpt>
      <trkpt lat="48.49804" lon="-2.01646">
        <ele>91.157265</ele>
        <time>2019-09-11T14:08:35Z</time>
      </trkpt>
      <trkpt lat="48.49809" lon="-2.01649">
        <ele>90.800514</ele>
        <time>2019-09-11T14:08:36Z</time>
      </trkpt>
      <trkpt lat="48.49815" lon="-2.01652">
        <ele>90.4924</ele>
        <time>2019-09-11T14:08:37Z</time>
      </trkpt>
      <trkpt lat="48.49818" lon="-2.01655">
        <ele>90.013725</ele>
        <time>2019-09-11T14:08:38Z</time>
      </trkpt>
      <trkpt lat="48.49823" lon="-2.01657">
        <ele>89.77257</ele>
        <time>2019-09-11T14:08:39Z</time>
      </trkpt>
      <trkpt lat="48.49827" lon="-2.01659">
        <ele>89.32233</ele>
        <time>2019-09-11T14:08:40Z</time>
      </trkpt>
      <trkpt lat="48.49831" lon="-2.01662">
        <ele>88.92036</ele>
        <time>2019-09-11T14:08:41Z</time>
      </trkpt>
      <trkpt lat="48.49836" lon="-2.01664">
        <ele>88.82243</ele>
        <time>2019-09-11T14:08:42Z</time>
      </trkpt>
      <trkpt lat="48.4984" lon="-2.01667">
        <ele>88.62183</ele>
        <time>2019-09-11T14:08:43Z</time>
      </trkpt>
      <trkpt lat="48.49845" lon="-2.0167">
        <ele>88.30145</ele>
        <time>2019-09-11T14:08:44Z</time>
      </trkpt>
      <trkpt lat="48.49849" lon="-2.01672">
        <ele>87.905136</ele>
        <time>2019-09-11T14:08:45Z</time>
      </trkpt>
      <trkpt lat="48.49852" lon="-2.01672">
        <ele>87.5822</ele>
        <time>2019-09-11T14:08:46Z</time>
      </trkpt>
      <trkpt lat="48.49855" lon="-2.01673">
        <ele>86.98702</ele>
        <time>2019-09-11T14:08:47Z</time>
      </trkpt>
      <trkpt lat="48.49859" lon="-2.01674">
        <ele>86.57201</ele>
        <time>2019-09-11T14:08:48Z</time>
      </trkpt>
      <trkpt lat="48.49864" lon="-2.01676">
        <ele>86.41196</ele>
        <time>2019-09-11T14:08:49Z</time>
      </trkpt>
      <trkpt lat="48.49869" lon="-2.0168">
        <ele>86.20204</ele>
        <time>2019-09-11T14:08:50Z</time>
      </trkpt>
      <trkpt lat="48.49872" lon="-2.01682">
        <ele>85.955185</ele>
        <time>2019-09-11T14:08:51Z</time>
      </trkpt>
      <trkpt lat="48.49875" lon="-2.01682">
        <ele>85.69194</ele>
        <time>2019-09-11T14:08:52Z</time>
      </trkpt>
      <trkpt lat="48.49877" lon="-2.01682">
        <ele>85.30483</ele>
        <time>2019-09-11T14:08:53Z</time>
      </trkpt>
      <trkpt lat="48.49881" lon="-2.01682">
        <ele>85.03566</ele>
        <time>2019-09-11T14:08:54Z</time>
      </trkpt>
      <trkpt lat="48.49884" lon="-2.01682">
        <ele>84.736145</ele>
        <time>2019-09-11T14:08:55Z</time>
      </trkpt>
      <trkpt lat="48.49889" lon="-2.01681">
        <ele>84.43067</ele>
        <time>2019-09-11T14:08:56Z</time>
      </trkpt>
      <trkpt lat="48.49893" lon="-2.01679">
        <ele>84.251976</ele>
        <time>2019-09-11T14:08:57Z</time>
      </trkpt>
      <trkpt lat="48.49897" lon="-2.01678">
        <ele>84.134155</ele>
        <time>2019-09-11T14:08:58Z</time>
      </trkpt>
      <trkpt lat="48.499" lon="-2.01677">
        <ele>83.921814</ele>
        <time>2019-09-11T14:08:59Z</time>
      </trkpt>
      <trkpt lat="48.49904" lon="-2.01674">
        <ele>83.695496</ele>
        <time>2019-09-11T14:09:00Z</time>
      </trkpt>
      <trkpt lat="48.49908" lon="-2.01669">
        <ele>83.363464</ele>
        <time>2019-09-11T14:09:01Z</time>
      </trkpt>
      <trkpt lat="48.49911" lon="-2.01664">
        <ele>83.17391</ele>
        <time>2019-09-11T14:09:02Z</time>
      </trkpt>
      <trkpt lat="48.49915" lon="-2.0166">
        <ele>82.99135</ele>
        <time>2019-09-11T14:09:03Z</time>
      </trkpt>
      <trkpt lat="48.4992" lon="-2.01657">
        <ele>82.91123</ele>
        <time>2019-09-11T14:09:04Z</time>
      </trkpt>
      <trkpt lat="48.49925" lon="-2.01655">
        <ele>82.79113</ele>
        <time>2019-09-11T14:09:05Z</time>
      </trkpt>
      <trkpt lat="48.49929" lon="-2.01652">
        <ele>82.8412</ele>
        <time>2019-09-11T14:09:06Z</time>
      </trkpt>
      <trkpt lat="48.49933" lon="-2.01649">
        <ele>82.92322</ele>
        <time>2019-09-11T14:09:07Z</time>
      </trkpt>
      <trkpt lat="48.49937" lon="-2.01648">
        <ele>82.95455</ele>
        <time>2019-09-11T14:09:08Z</time>
      </trkpt>
      <trkpt lat="48.49941" lon="-2.01647">
        <ele>82.91808</ele>
        <time>2019-09-11T14:09:09Z</time>
      </trkpt>
      <trkpt lat="48.49945" lon="-2.01647">
        <ele>82.860344</ele>
        <time>2019-09-11T14:09:10Z</time>
      </trkpt>
      <trkpt lat="48.49948" lon="-2.01648">
        <ele>82.92082</ele>
        <time>2019-09-11T14:09:11Z</time>
      </trkpt>
      <trkpt lat="48.49952" lon="-2.01651">
        <ele>83.12525</ele>
        <time>2019-09-11T14:09:12Z</time>
      </trkpt>
      <trkpt lat="48.49955" lon="-2.01654">
        <ele>83.299355</ele>
        <time>2019-09-11T14:09:13Z</time>
      </trkpt>
      <trkpt lat="48.49958" lon="-2.01658">
        <ele>83.18298</ele>
        <time>2019-09-11T14:09:14Z</time>
      </trkpt>
      <trkpt lat="48.4996" lon="-2.01661">
        <ele>83.056145</ele>
        <time>2019-09-11T14:09:15Z</time>
      </trkpt>
      <trkpt lat="48.49963" lon="-2.01663">
        <ele>82.603775</ele>
        <time>2019-09-11T14:09:16Z</time>
      </trkpt>
      <trkpt lat="48.49965" lon="-2.01665">
        <ele>82.4721</ele>
        <time>2019-09-11T14:09:17Z</time>
      </trkpt>
      <trkpt lat="48.49968" lon="-2.01666">
        <ele>82.448845</ele>
        <time>2019-09-11T14:09:18Z</time>
      </trkpt>
      <trkpt lat="48.4997" lon="-2.01667">
        <ele>82.628426</ele>
        <time>2019-09-11T14:09:19Z</time>
      </trkpt>
      <trkpt lat="48.49971" lon="-2.01669">
        <ele>82.56044</ele>
        <time>2019-09-11T14:09:20Z</time>
      </trkpt>
      <trkpt lat="48.49973" lon="-2.01671">
        <ele>83.002075</ele>
        <time>2019-09-11T14:09:40Z</time>
      </trkpt>
      <trkpt lat="48.49974" lon="-2.01671">
        <ele>83.28917</ele>
        <time>2019-09-11T14:09:41Z</time>
      </trkpt>
      <trkpt lat="48.49975" lon="-2.01672">
        <ele>83.65899</ele>
        <time>2019-09-11T14:09:42Z</time>
      </trkpt>
      <trkpt lat="48.49976" lon="-2.01673">
        <ele>84.10604</ele>
        <time>2019-09-11T14:09:43Z</time>
      </trkpt>
      <trkpt lat="48.49977" lon="-2.01673">
        <ele>84.62195</ele>
        <time>2019-09-11T14:09:44Z</time>
      </trkpt>
      <trkpt lat="48.49979" lon="-2.01673">
        <ele>85.342735</ele>
        <time>2019-09-11T14:09:45Z</time>
      </trkpt>
      <trkpt lat="48.49982" lon="-2.01672">
        <ele>85.89117</ele>
        <time>2019-09-11T14:09:46Z</time>
      </trkpt>
      <trkpt lat="48.49984" lon="-2.0167">
        <ele>86.377304</ele>
        <time>2019-09-11T14:09:47Z</time>
      </trkpt>
      <trkpt lat="48.49987" lon="-2.01668">
        <ele>86.69014</ele>
        <time>2019-09-11T14:09:48Z</time>
      </trkpt>
      <trkpt lat="48.49989" lon="-2.01664">
        <ele>86.9187</ele>
        <time>2019-09-11T14:09:49Z</time>
      </trkpt>
      <trkpt lat="48.49992" lon="-2.0166">
        <ele>87.198784</ele>
        <time>2019-09-11T14:09:50Z</time>
      </trkpt>
      <trkpt lat="48.49995" lon="-2.01656">
        <ele>87.62081</ele>
        <time>2019-09-11T14:09:51Z</time>
      </trkpt>
      <trkpt lat="48.49997" lon="-2.01652">
        <ele>87.82995</ele>
        <time>2019-09-11T14:09:52Z</time>
      </trkpt>
      <trkpt lat="48.5" lon="-2.01649">
        <ele>88.28954</ele>
        <time>2019-09-11T14:09:53Z</time>
      </trkpt>
      <trkpt lat="48.50002" lon="-2.01645">
        <ele>88.88713</ele>
        <time>2019-09-11T14:09:54Z</time>
      </trkpt>
      <trkpt lat="48.50005" lon="-2.01642">
        <ele>89.45106</ele>
        <time>2019-09-11T14:09:55Z</time>
      </trkpt>
      <trkpt lat="48.50007" lon="-2.0164">
        <ele>89.56405</ele>
        <time>2019-09-11T14:09:56Z</time>
      </trkpt>
      <trkpt lat="48.50011" lon="-2.01638">
        <ele>88.36691</ele>
        <time>2019-09-11T14:09:57Z</time>
      </trkpt>
      <trkpt lat="48.50014" lon="-2.01636">
        <ele>87.59705</ele>
        <time>2019-09-11T14:09:58Z</time>
      </trkpt>
      <trkpt lat="48.50017" lon="-2.01635">
        <ele>86.26589</ele>
        <time>2019-09-11T14:09:59Z</time>
      </trkpt>
      <trkpt lat="48.5002" lon="-2.01633">
        <ele>85.20429</ele>
        <time>2019-09-11T14:10:00Z</time>
      </trkpt>
      <trkpt lat="48.50023" lon="-2.01632">
        <ele>84.31798</ele>
        <time>2019-09-11T14:10:01Z</time>
      </trkpt>
      <trkpt lat="48.50026" lon="-2.01631">
        <ele>83.32146</ele>
        <time>2019-09-11T14:10:02Z</time>
      </trkpt>
      <trkpt lat="48.50028" lon="-2.01631">
        <ele>82.54433</ele>
        <time>2019-09-11T14:10:03Z</time>
      </trkpt>
      <trkpt lat="48.50029" lon="-2.01632">
        <ele>82.07227</ele>
        <time>2019-09-11T14:10:04Z</time>
      </trkpt>
      <trkpt lat="48.50031" lon="-2.01633">
        <ele>81.756714</ele>
        <time>2019-09-11T14:10:05Z</time>
      </trkpt>
      <trkpt lat="48.50032" lon="-2.01633">
        <ele>81.711205</ele>
        <time>2019-09-11T14:10:06Z</time>
      </trkpt>
      <trkpt lat="48.50034" lon="-2.01632">
        <ele>81.66415</ele>
        <time>2019-09-11T14:10:07Z</time>
      </trkpt>
      <trkpt lat="48.50036" lon="-2.01633">
        <ele>81.43255</ele>
        <time>2019-09-11T14:10:08Z</time>
      </trkpt>
      <trkpt lat="48.50037" lon="-2.01634">
        <ele>81.22866</ele>
        <time>2019-09-11T14:10:09Z</time>
      </trkpt>
      <trkpt lat="48.50039" lon="-2.01634">
        <ele>80.95469</ele>
        <time>2019-09-11T14:10:10Z</time>
      </trkpt>
      <trkpt lat="48.50041" lon="-2.01635">
        <ele>80.90406</ele>
        <time>2019-09-11T14:10:11Z</time>
      </trkpt>
      <trkpt lat="48.50043" lon="-2.01636">
        <ele>81.24758</ele>
        <time>2019-09-11T14:10:12Z</time>
      </trkpt>
      <trkpt lat="48.50045" lon="-2.01637">
        <ele>81.46571</ele>
        <time>2019-09-11T14:10:13Z</time>
      </trkpt>
      <trkpt lat="48.50046" lon="-2.01638">
        <ele>81.78825</ele>
        <time>2019-09-11T14:10:14Z</time>
      </trkpt>
      <trkpt lat="48.50048" lon="-2.0164">
        <ele>81.62101</ele>
        <time>2019-09-11T14:10:16Z</time>
      </trkpt>
      <trkpt lat="48.5005" lon="-2.0164">
        <ele>81.288956</ele>
        <time>2019-09-11T14:10:17Z</time>
      </trkpt>
      <trkpt lat="48.50052" lon="-2.01641">
        <ele>81.0459</ele>
        <time>2019-09-11T14:10:18Z</time>
      </trkpt>
      <trkpt lat="48.50053" lon="-2.01641">
        <ele>80.86426</ele>
        <time>2019-09-11T14:10:19Z</time>
      </trkpt>
      <trkpt lat="48.50056" lon="-2.0164">
        <ele>80.76427</ele>
        <time>2019-09-11T14:10:20Z</time>
      </trkpt>
      <trkpt lat="48.50058" lon="-2.0164">
        <ele>80.75061</ele>
        <time>2019-09-11T14:10:21Z</time>
      </trkpt>
      <trkpt lat="48.50061" lon="-2.01639">
        <ele>80.28156</ele>
        <time>2019-09-11T14:10:22Z</time>
      </trkpt>
      <trkpt lat="48.50063" lon="-2.01638">
        <ele>80.17045</ele>
        <time>2019-09-11T14:10:23Z</time>
      </trkpt>
      <trkpt lat="48.50066" lon="-2.01637">
        <ele>79.99449</ele>
        <time>2019-09-11T14:10:24Z</time>
      </trkpt>
      <trkpt lat="48.50069" lon="-2.01636">
        <ele>80.152435</ele>
        <time>2019-09-11T14:10:25Z</time>
      </trkpt>
      <trkpt lat="48.50073" lon="-2.01636">
        <ele>80.50417</ele>
        <time>2019-09-11T14:10:26Z</time>
      </trkpt>
      <trkpt lat="48.50076" lon="-2.01635">
        <ele>80.91463</ele>
        <time>2019-09-11T14:10:27Z</time>
      </trkpt>
      <trkpt lat="48.5008" lon="-2.01636">
        <ele>81.58105</ele>
        <time>2019-09-11T14:10:28Z</time>
      </trkpt>
      <trkpt lat="48.50084" lon="-2.01636">
        <ele>81.93349</ele>
        <time>2019-09-11T14:10:29Z</time>
      </trkpt>
      <trkpt lat="48.50088" lon="-2.01635">
        <ele>82.35105</ele>
        <time>2019-09-11T14:10:30Z</time>
      </trkpt>
      <trkpt lat="48.50091" lon="-2.01635">
        <ele>82.674</ele>
        <time>2019-09-11T14:10:31Z</time>
      </trkpt>
      <trkpt lat="48.50095" lon="-2.01635">
        <ele>83.14993</ele>
        <time>2019-09-11T14:10:32Z</time>
      </trkpt>
      <trkpt lat="48.50098" lon="-2.01635">
        <ele>83.418045</ele>
        <time>2019-09-11T14:10:33Z</time>
      </trkpt>
      <trkpt lat="48.50102" lon="-2.01635">
        <ele>83.33671</ele>
        <time>2019-09-11T14:10:34Z</time>
      </trkpt>
      <trkpt lat="48.50104" lon="-2.01635">
        <ele>83.31099</ele>
        <time>2019-09-11T14:10:35Z</time>
      </trkpt>
      <trkpt lat="48.50107" lon="-2.01634">
        <ele>83.32819</ele>
        <time>2019-09-11T14:10:36Z</time>
      </trkpt>
      <trkpt lat="48.5011" lon="-2.01634">
        <ele>83.33694</ele>
        <time>2019-09-11T14:10:37Z</time>
      </trkpt>
      <trkpt lat="48.50112" lon="-2.01634">
        <ele>83.31</ele>
        <time>2019-09-11T14:10:38Z</time>
      </trkpt>
      <trkpt lat="48.50115" lon="-2.01633">
        <ele>83.55503</ele>
        <time>2019-09-11T14:10:39Z</time>
      </trkpt>
      <trkpt lat="48.50119" lon="-2.01633">
        <ele>83.90859</ele>
        <time>2019-09-11T14:10:40Z</time>
      </trkpt>
      <trkpt lat="48.50122" lon="-2.01633">
        <ele>83.872665</ele>
        <time>2019-09-11T14:10:41Z</time>
      </trkpt>
      <trkpt lat="48.50126" lon="-2.01633">
        <ele>83.76715</ele>
        <time>2019-09-11T14:10:42Z</time>
      </trkpt>
      <trkpt lat="48.50129" lon="-2.01632">
        <ele>83.30742</ele>
        <time>2019-09-11T14:10:43Z</time>
      </trkpt>
      <trkpt lat="48.50132" lon="-2.0163">
        <ele>83.35888</ele>
        <time>2019-09-11T14:10:44Z</time>
      </trkpt>
      <trkpt lat="48.50135" lon="-2.01629">
        <ele>83.21473</ele>
        <time>2019-09-11T14:10:45Z</time>
      </trkpt>
      <trkpt lat="48.50138" lon="-2.01628">
        <ele>82.67372</ele>
        <time>2019-09-11T14:10:46Z</time>
      </trkpt>
      <trkpt lat="48.50141" lon="-2.01627">
        <ele>82.61927</ele>
        <time>2019-09-11T14:10:47Z</time>
      </trkpt>
      <trkpt lat="48.50144" lon="-2.01626">
        <ele>82.5693</ele>
        <time>2019-09-11T14:10:48Z</time>
      </trkpt>
      <trkpt lat="48.50148" lon="-2.01625">
        <ele>82.489044</ele>
        <time>2019-09-11T14:10:49Z</time>
      </trkpt>
      <trkpt lat="48.50151" lon="-2.01625">
        <ele>82.290955</ele>
        <time>2019-09-11T14:10:50Z</time>
      </trkpt>
      <trkpt lat="48.50155" lon="-2.01624">
        <ele>82.028984</ele>
        <time>2019-09-11T14:10:51Z</time>
      </trkpt>
      <trkpt lat="48.50158" lon="-2.01624">
        <ele>81.94188</ele>
        <time>2019-09-11T14:10:52Z</time>
      </trkpt>
      <trkpt lat="48.50163" lon="-2.01624">
        <ele>81.860985</ele>
        <time>2019-09-11T14:10:53Z</time>
      </trkpt>
      <trkpt lat="48.50166" lon="-2.01624">
        <ele>81.91997</ele>
        <time>2019-09-11T14:10:54Z</time>
      </trkpt>
      <trkpt lat="48.50171" lon="-2.01624">
        <ele>82.01126</ele>
        <time>2019-09-11T14:10:55Z</time>
      </trkpt>
      <trkpt lat="48.50175" lon="-2.01624">
        <ele>82.227776</ele>
        <time>2019-09-11T14:10:56Z</time>
      </trkpt>
      <trkpt lat="48.50179" lon="-2.01624">
        <ele>82.69163</ele>
        <time>2019-09-11T14:10:57Z</time>
      </trkpt>
      <trkpt lat="48.50182" lon="-2.01623">
        <ele>83.47529</ele>
        <time>2019-09-11T14:10:58Z</time>
      </trkpt>
      <trkpt lat="48.50185" lon="-2.01623">
        <ele>83.969185</ele>
        <time>2019-09-11T14:10:59Z</time>
      </trkpt>
      <trkpt lat="48.50188" lon="-2.01624">
        <ele>84.23783</ele>
        <time>2019-09-11T14:11:00Z</time>
      </trkpt>
      <trkpt lat="48.5019" lon="-2.01625">
        <ele>84.30317</ele>
        <time>2019-09-11T14:11:01Z</time>
      </trkpt>
      <trkpt lat="48.50192" lon="-2.01627">
        <ele>84.49437</ele>
        <time>2019-09-11T14:11:02Z</time>
      </trkpt>
      <trkpt lat="48.50194" lon="-2.01628">
        <ele>84.88496</ele>
        <time>2019-09-11T14:11:03Z</time>
      </trkpt>
      <trkpt lat="48.50196" lon="-2.01629">
        <ele>85.47641</ele>
        <time>2019-09-11T14:11:04Z</time>
      </trkpt>
      <trkpt lat="48.50198" lon="-2.01629">
        <ele>86.232376</ele>
        <time>2019-09-11T14:11:05Z</time>
      </trkpt>
      <trkpt lat="48.50201" lon="-2.01628">
        <ele>86.69156</ele>
        <time>2019-09-11T14:11:06Z</time>
      </trkpt>
      <trkpt lat="48.50202" lon="-2.01626">
        <ele>87.22677</ele>
        <time>2019-09-11T14:11:07Z</time>
      </trkpt>
      <trkpt lat="48.50204" lon="-2.01623">
        <ele>87.615715</ele>
        <time>2019-09-11T14:11:08Z</time>
      </trkpt>
      <trkpt lat="48.50205" lon="-2.0162">
        <ele>87.87926</ele>
        <time>2019-09-11T14:11:09Z</time>
      </trkpt>
      <trkpt lat="48.50205" lon="-2.01616">
        <ele>88.15004</ele>
        <time>2019-09-11T14:11:10Z</time>
      </trkpt>
      <trkpt lat="48.50205" lon="-2.01613">
        <ele>88.422104</ele>
        <time>2019-09-11T14:11:11Z</time>
      </trkpt>
      <trkpt lat="48.50205" lon="-2.0161">
        <ele>88.453835</ele>
        <time>2019-09-11T14:11:12Z</time>
      </trkpt>
      <trkpt lat="48.50205" lon="-2.01606">
        <ele>88.55332</ele>
        <time>2019-09-11T14:11:13Z</time>
      </trkpt>
      <trkpt lat="48.50205" lon="-2.01602">
        <ele>88.624054</ele>
        <time>2019-09-11T14:11:14Z</time>
      </trkpt>
      <trkpt lat="48.50205" lon="-2.01599">
        <ele>88.79863</ele>
        <time>2019-09-11T14:11:15Z</time>
      </trkpt>
      <trkpt lat="48.50206" lon="-2.01595">
        <ele>89.17492</ele>
        <time>2019-09-11T14:11:16Z</time>
      </trkpt>
      <trkpt lat="48.50208" lon="-2.0159">
        <ele>89.43075</ele>
        <time>2019-09-11T14:11:17Z</time>
      </trkpt>
      <trkpt lat="48.50209" lon="-2.01587">
        <ele>89.50126</ele>
        <time>2019-09-11T14:11:18Z</time>
      </trkpt>
      <trkpt lat="48.50211" lon="-2.01584">
        <ele>89.47913</ele>
        <time>2019-09-11T14:11:19Z</time>
      </trkpt>
      <trkpt lat="48.50212" lon="-2.0158">
        <ele>89.20386</ele>
        <time>2019-09-11T14:11:20Z</time>
      </trkpt>
      <trkpt lat="48.50213" lon="-2.01577">
        <ele>88.699875</ele>
        <time>2019-09-11T14:11:21Z</time>
      </trkpt>
      <trkpt lat="48.50214" lon="-2.01573">
        <ele>88.084816</ele>
        <time>2019-09-11T14:11:22Z</time>
      </trkpt>
      <trkpt lat="48.50216" lon="-2.01568">
        <ele>88.179306</ele>
        <time>2019-09-11T14:11:23Z</time>
      </trkpt>
      <trkpt lat="48.50218" lon="-2.01564">
        <ele>87.903076</ele>
        <time>2019-09-11T14:11:24Z</time>
      </trkpt>
      <trkpt lat="48.50221" lon="-2.01561">
        <ele>87.80628</ele>
        <time>2019-09-11T14:11:25Z</time>
      </trkpt>
      <trkpt lat="48.50224" lon="-2.01559">
        <ele>87.76341</ele>
        <time>2019-09-11T14:11:26Z</time>
      </trkpt>
      <trkpt lat="48.50228" lon="-2.01557">
        <ele>87.73956</ele>
        <time>2019-09-11T14:11:27Z</time>
      </trkpt>
      <trkpt lat="48.50232" lon="-2.01556">
        <ele>87.72755</ele>
        <time>2019-09-11T14:11:28Z</time>
      </trkpt>
      <trkpt lat="48.50235" lon="-2.01554">
        <ele>87.831535</ele>
        <time>2019-09-11T14:11:29Z</time>
      </trkpt>
      <trkpt lat="48.50238" lon="-2.01552">
        <ele>88.131256</ele>
        <time>2019-09-11T14:11:30Z</time>
      </trkpt>
      <trkpt lat="48.50242" lon="-2.01551">
        <ele>88.5514</ele>
        <time>2019-09-11T14:11:31Z</time>
      </trkpt>
      <trkpt lat="48.50245" lon="-2.0155">
        <ele>89.35001</ele>
        <time>2019-09-11T14:11:32Z</time>
      </trkpt>
      <trkpt lat="48.50248" lon="-2.0155">
        <ele>89.31749</ele>
        <time>2019-09-11T14:11:33Z</time>
      </trkpt>
      <trkpt lat="48.50251" lon="-2.01549">
        <ele>89.33025</ele>
        <time>2019-09-11T14:11:34Z</time>
      </trkpt>
      <trkpt lat="48.50253" lon="-2.0155">
        <ele>89.25737</ele>
        <time>2019-09-11T14:11:35Z</time>
      </trkpt>
      <trkpt lat="48.50256" lon="-2.0155">
        <ele>89.03211</ele>
        <time>2019-09-11T14:11:36Z</time>
      </trkpt>
      <trkpt lat="48.50259" lon="-2.01551">
        <ele>88.96499</ele>
        <time>2019-09-11T14:11:37Z</time>
      </trkpt>
      <trkpt lat="48.50263" lon="-2.01551">
        <ele>88.85299</ele>
        <time>2019-09-11T14:11:38Z</time>
      </trkpt>
      <trkpt lat="48.50266" lon="-2.01552">
        <ele>89.16609</ele>
        <time>2019-09-11T14:11:39Z</time>
      </trkpt>
      <trkpt lat="48.50269" lon="-2.01552">
        <ele>89.16064</ele>
        <time>2019-09-11T14:11:40Z</time>
      </trkpt>
      <trkpt lat="48.50272" lon="-2.01553">
        <ele>89.32021</ele>
        <time>2019-09-11T14:11:41Z</time>
      </trkpt>
      <trkpt lat="48.50275" lon="-2.01553">
        <ele>89.703674</ele>
        <time>2019-09-11T14:11:42Z</time>
      </trkpt>
      <trkpt lat="48.50279" lon="-2.01554">
        <ele>90.06291</ele>
        <time>2019-09-11T14:11:43Z</time>
      </trkpt>
      <trkpt lat="48.50282" lon="-2.01554">
        <ele>90.4511</ele>
        <time>2019-09-11T14:11:44Z</time>
      </trkpt>
      <trkpt lat="48.50285" lon="-2.01555">
        <ele>90.83551</ele>
        <time>2019-09-11T14:11:45Z</time>
      </trkpt>
      <trkpt lat="48.50288" lon="-2.01555">
        <ele>91.36797</ele>
        <time>2019-09-11T14:11:46Z</time>
      </trkpt>
      <trkpt lat="48.50292" lon="-2.01555">
        <ele>91.62463</ele>
        <time>2019-09-11T14:11:47Z</time>
      </trkpt>
      <trkpt lat="48.50295" lon="-2.01555">
        <ele>91.518005</ele>
        <time>2019-09-11T14:11:48Z</time>
      </trkpt>
      <trkpt lat="48.50298" lon="-2.01555">
        <ele>91.49526</ele>
        <time>2019-09-11T14:11:49Z</time>
      </trkpt>
      <trkpt lat="48.503" lon="-2.01555">
        <ele>91.59712</ele>
        <time>2019-09-11T14:11:50Z</time>
      </trkpt>
      <trkpt lat="48.50303" lon="-2.01555">
        <ele>91.73972</ele>
        <time>2019-09-11T14:11:51Z</time>
      </trkpt>
      <trkpt lat="48.50305" lon="-2.01555">
        <ele>91.96929</ele>
        <time>2019-09-11T14:11:52Z</time>
      </trkpt>
      <trkpt lat="48.50308" lon="-2.01555">
        <ele>91.846054</ele>
        <time>2019-09-11T14:11:53Z</time>
      </trkpt>
      <trkpt lat="48.50311" lon="-2.01555">
        <ele>92.00687</ele>
        <time>2019-09-11T14:11:54Z</time>
      </trkpt>
      <trkpt lat="48.50313" lon="-2.01556">
        <ele>91.89687</ele>
        <time>2019-09-11T14:11:55Z</time>
      </trkpt>
      <trkpt lat="48.50317" lon="-2.01556">
        <ele>91.77521</ele>
        <time>2019-09-11T14:11:56Z</time>
      </trkpt>
      <trkpt lat="48.5032" lon="-2.01556">
        <ele>91.527954</ele>
        <time>2019-09-11T14:11:57Z</time>
      </trkpt>
      <trkpt lat="48.50324" lon="-2.01557">
        <ele>91.56611</ele>
        <time>2019-09-11T14:11:58Z</time>
      </trkpt>
      <trkpt lat="48.50327" lon="-2.01558">
        <ele>91.368996</ele>
        <time>2019-09-11T14:11:59Z</time>
      </trkpt>
      <trkpt lat="48.50331" lon="-2.01559">
        <ele>91.32541</ele>
        <time>2019-09-11T14:12:00Z</time>
      </trkpt>
      <trkpt lat="48.50334" lon="-2.01559">
        <ele>91.20102</ele>
        <time>2019-09-11T14:12:01Z</time>
      </trkpt>
      <trkpt lat="48.50338" lon="-2.01559">
        <ele>90.838936</ele>
        <time>2019-09-11T14:12:02Z</time>
      </trkpt>
      <trkpt lat="48.50341" lon="-2.01559">
        <ele>90.764114</ele>
        <time>2019-09-11T14:12:03Z</time>
      </trkpt>
      <trkpt lat="48.50345" lon="-2.01559">
        <ele>90.71545</ele>
        <time>2019-09-11T14:12:04Z</time>
      </trkpt>
      <trkpt lat="48.50348" lon="-2.0156">
        <ele>91.003876</ele>
        <time>2019-09-11T14:12:05Z</time>
      </trkpt>
      <trkpt lat="48.50352" lon="-2.0156">
        <ele>91.17268</ele>
        <time>2019-09-11T14:12:06Z</time>
      </trkpt>
      <trkpt lat="48.50355" lon="-2.01561">
        <ele>91.2679</ele>
        <time>2019-09-11T14:12:07Z</time>
      </trkpt>
      <trkpt lat="48.50358" lon="-2.01562">
        <ele>91.24827</ele>
        <time>2019-09-11T14:12:08Z</time>
      </trkpt>
      <trkpt lat="48.50361" lon="-2.01562">
        <ele>91.423065</ele>
        <time>2019-09-11T14:12:09Z</time>
      </trkpt>
      <trkpt lat="48.50364" lon="-2.01563">
        <ele>91.5491</ele>
        <time>2019-09-11T14:12:10Z</time>
      </trkpt>
      <trkpt lat="48.50367" lon="-2.01564">
        <ele>91.60834</ele>
        <time>2019-09-11T14:12:11Z</time>
      </trkpt>
      <trkpt lat="48.50371" lon="-2.01565">
        <ele>91.59687</ele>
        <time>2019-09-11T14:12:12Z</time>
      </trkpt>
      <trkpt lat="48.50374" lon="-2.01565">
        <ele>91.56725</ele>
        <time>2019-09-11T14:12:13Z</time>
      </trkpt>
      <trkpt lat="48.50378" lon="-2.01566">
        <ele>91.59841</ele>
        <time>2019-09-11T14:12:14Z</time>
      </trkpt>
      <trkpt lat="48.50382" lon="-2.01566">
        <ele>91.66086</ele>
        <time>2019-09-11T14:12:15Z</time>
      </trkpt>
      <trkpt lat="48.50386" lon="-2.01567">
        <ele>91.74317</ele>
        <time>2019-09-11T14:12:16Z</time>
      </trkpt>
      <trkpt lat="48.5039" lon="-2.01568">
        <ele>92.07364</ele>
        <time>2019-09-11T14:12:17Z</time>
      </trkpt>
      <trkpt lat="48.50394" lon="-2.0157">
        <ele>92.29912</ele>
        <time>2019-09-11T14:12:18Z</time>
      </trkpt>
      <trkpt lat="48.50398" lon="-2.01571">
        <ele>92.69365</ele>
        <time>2019-09-11T14:12:19Z</time>
      </trkpt>
      <trkpt lat="48.50402" lon="-2.01573">
        <ele>92.766685</ele>
        <time>2019-09-11T14:12:20Z</time>
      </trkpt>
      <trkpt lat="48.50406" lon="-2.01574">
        <ele>92.75115</ele>
        <time>2019-09-11T14:12:21Z</time>
      </trkpt>
      <trkpt lat="48.50409" lon="-2.01576">
        <ele>92.88846</ele>
        <time>2019-09-11T14:12:22Z</time>
      </trkpt>
      <trkpt lat="48.50413" lon="-2.01578">
        <ele>92.93668</ele>
        <time>2019-09-11T14:12:23Z</time>
      </trkpt>
      <trkpt lat="48.50416" lon="-2.0158">
        <ele>93.20307</ele>
        <time>2019-09-11T14:12:24Z</time>
      </trkpt>
      <trkpt lat="48.5042" lon="-2.01582">
        <ele>92.89926</ele>
        <time>2019-09-11T14:12:25Z</time>
      </trkpt>
      <trkpt lat="48.50423" lon="-2.01584">
        <ele>92.909935</ele>
        <time>2019-09-11T14:12:26Z</time>
      </trkpt>
      <trkpt lat="48.50427" lon="-2.01586">
        <ele>93.1237</ele>
        <time>2019-09-11T14:12:27Z</time>
      </trkpt>
      <trkpt lat="48.5043" lon="-2.01588">
        <ele>93.34482</ele>
        <time>2019-09-11T14:12:28Z</time>
      </trkpt>
      <trkpt lat="48.50434" lon="-2.01589">
        <ele>93.494934</ele>
        <time>2019-09-11T14:12:29Z</time>
      </trkpt>
      <trkpt lat="48.50437" lon="-2.01591">
        <ele>93.7099</ele>
        <time>2019-09-11T14:12:30Z</time>
      </trkpt>
      <trkpt lat="48.50441" lon="-2.01593">
        <ele>93.68374</ele>
        <time>2019-09-11T14:12:31Z</time>
      </trkpt>
      <trkpt lat="48.50444" lon="-2.01595">
        <ele>93.61114</ele>
        <time>2019-09-11T14:12:32Z</time>
      </trkpt>
      <trkpt lat="48.50446" lon="-2.01597">
        <ele>93.709236</ele>
        <time>2019-09-11T14:12:33Z</time>
      </trkpt>
      <trkpt lat="48.50449" lon="-2.01598">
        <ele>94.12579</ele>
        <time>2019-09-11T14:12:34Z</time>
      </trkpt>
      <trkpt lat="48.50451" lon="-2.016">
        <ele>94.32018</ele>
        <time>2019-09-11T14:12:35Z</time>
      </trkpt>
      <trkpt lat="48.50453" lon="-2.01601">
        <ele>94.46859</ele>
        <time>2019-09-11T14:12:36Z</time>
      </trkpt>
      <trkpt lat="48.50456" lon="-2.01602">
        <ele>94.74441</ele>
        <time>2019-09-11T14:12:37Z</time>
      </trkpt>
      <trkpt lat="48.50459" lon="-2.01602">
        <ele>94.743454</ele>
        <time>2019-09-11T14:12:38Z</time>
      </trkpt>
      <trkpt lat="48.50461" lon="-2.01603">
        <ele>94.81552</ele>
        <time>2019-09-11T14:12:39Z</time>
      </trkpt>
      <trkpt lat="48.50464" lon="-2.01604">
        <ele>94.85922</ele>
        <time>2019-09-11T14:12:40Z</time>
      </trkpt>
      <trkpt lat="48.50467" lon="-2.01606">
        <ele>94.80858</ele>
        <time>2019-09-11T14:12:41Z</time>
      </trkpt>
      <trkpt lat="48.5047" lon="-2.01608">
        <ele>94.604744</ele>
        <time>2019-09-11T14:12:42Z</time>
      </trkpt>
      <trkpt lat="48.50474" lon="-2.01611">
        <ele>94.30773</ele>
        <time>2019-09-11T14:12:43Z</time>
      </trkpt>
      <trkpt lat="48.50477" lon="-2.01614">
        <ele>94.292</ele>
        <time>2019-09-11T14:12:44Z</time>
      </trkpt>
      <trkpt lat="48.5048" lon="-2.01616">
        <ele>94.55589</ele>
        <time>2019-09-11T14:12:45Z</time>
      </trkpt>
      <trkpt lat="48.50483" lon="-2.01619">
        <ele>94.71785</ele>
        <time>2019-09-11T14:12:46Z</time>
      </trkpt>
      <trkpt lat="48.50485" lon="-2.01621">
        <ele>94.93827</ele>
        <time>2019-09-11T14:12:47Z</time>
      </trkpt>
      <trkpt lat="48.50486" lon="-2.01622">
        <ele>95.42071</ele>
        <time>2019-09-11T14:12:48Z</time>
      </trkpt>
      <trkpt lat="48.50488" lon="-2.01624">
        <ele>95.68957</ele>
        <time>2019-09-11T14:12:49Z</time>
      </trkpt>
      <trkpt lat="48.5049" lon="-2.01624">
        <ele>95.42423</ele>
        <time>2019-09-11T14:12:50Z</time>
      </trkpt>
      <trkpt lat="48.50493" lon="-2.01625">
        <ele>95.05995</ele>
        <time>2019-09-11T14:12:51Z</time>
      </trkpt>
      <trkpt lat="48.50496" lon="-2.01625">
        <ele>94.737305</ele>
        <time>2019-09-11T14:12:52Z</time>
      </trkpt>
      <trkpt lat="48.505" lon="-2.01625">
        <ele>94.46058</ele>
        <time>2019-09-11T14:12:53Z</time>
      </trkpt>
      <trkpt lat="48.50503" lon="-2.01625">
        <ele>94.569466</ele>
        <time>2019-09-11T14:12:54Z</time>
      </trkpt>
      <trkpt lat="48.50506" lon="-2.01625">
        <ele>94.49633</ele>
        <time>2019-09-11T14:12:55Z</time>
      </trkpt>
      <trkpt lat="48.50509" lon="-2.01624">
        <ele>94.761406</ele>
        <time>2019-09-11T14:12:56Z</time>
      </trkpt>
      <trkpt lat="48.50513" lon="-2.01625">
        <ele>95.37913</ele>
        <time>2019-09-11T14:12:57Z</time>
      </trkpt>
      <trkpt lat="48.50516" lon="-2.01625">
        <ele>95.43587</ele>
        <time>2019-09-11T14:12:58Z</time>
      </trkpt>
      <trkpt lat="48.50519" lon="-2.01624">
        <ele>95.983696</ele>
        <time>2019-09-11T14:12:59Z</time>
      </trkpt>
      <trkpt lat="48.50523" lon="-2.01623">
        <ele>96.60868</ele>
        <time>2019-09-11T14:13:00Z</time>
      </trkpt>
      <trkpt lat="48.50526" lon="-2.01622">
        <ele>97.16145</ele>
        <time>2019-09-11T14:13:01Z</time>
      </trkpt>
      <trkpt lat="48.5053" lon="-2.01622">
        <ele>97.60666</ele>
        <time>2019-09-11T14:13:02Z</time>
      </trkpt>
      <trkpt lat="48.50533" lon="-2.01622">
        <ele>97.691475</ele>
        <time>2019-09-11T14:13:03Z</time>
      </trkpt>
      <trkpt lat="48.50537" lon="-2.01622">
        <ele>97.79663</ele>
        <time>2019-09-11T14:13:04Z</time>
      </trkpt>
      <trkpt lat="48.5054" lon="-2.01623">
        <ele>97.84799</ele>
        <time>2019-09-11T14:13:05Z</time>
      </trkpt>
      <trkpt lat="48.50544" lon="-2.01623">
        <ele>97.7982</ele>
        <time>2019-09-11T14:13:06Z</time>
      </trkpt>
      <trkpt lat="48.50547" lon="-2.01624">
        <ele>97.63805</ele>
        <time>2019-09-11T14:13:07Z</time>
      </trkpt>
      <trkpt lat="48.50551" lon="-2.01625">
        <ele>97.531975</ele>
        <time>2019-09-11T14:13:08Z</time>
      </trkpt>
      <trkpt lat="48.50554" lon="-2.01626">
        <ele>97.57309</ele>
        <time>2019-09-11T14:13:09Z</time>
      </trkpt>
      <trkpt lat="48.50557" lon="-2.01628">
        <ele>97.502</ele>
        <time>2019-09-11T14:13:10Z</time>
      </trkpt>
      <trkpt lat="48.50561" lon="-2.01629">
        <ele>97.33894</ele>
        <time>2019-09-11T14:13:11Z</time>
      </trkpt>
      <trkpt lat="48.50565" lon="-2.01629">
        <ele>97.25628</ele>
        <time>2019-09-11T14:13:12Z</time>
      </trkpt>
      <trkpt lat="48.50568" lon="-2.01629">
        <ele>97.22135</ele>
        <time>2019-09-11T14:13:13Z</time>
      </trkpt>
      <trkpt lat="48.50571" lon="-2.0163">
        <ele>97.34179</ele>
        <time>2019-09-11T14:13:14Z</time>
      </trkpt>
      <trkpt lat="48.50575" lon="-2.0163">
        <ele>97.546555</ele>
        <time>2019-09-11T14:13:15Z</time>
      </trkpt>
      <trkpt lat="48.50579" lon="-2.0163">
        <ele>97.56187</ele>
        <time>2019-09-11T14:13:16Z</time>
      </trkpt>
      <trkpt lat="48.50583" lon="-2.0163">
        <ele>97.72525</ele>
        <time>2019-09-11T14:13:17Z</time>
      </trkpt>
      <trkpt lat="48.50586" lon="-2.01631">
        <ele>97.670715</ele>
        <time>2019-09-11T14:13:18Z</time>
      </trkpt>
      <trkpt lat="48.50589" lon="-2.01632">
        <ele>97.5136</ele>
        <time>2019-09-11T14:13:19Z</time>
      </trkpt>
      <trkpt lat="48.50593" lon="-2.01633">
        <ele>97.42382</ele>
        <time>2019-09-11T14:13:20Z</time>
      </trkpt>
      <trkpt lat="48.50597" lon="-2.01634">
        <ele>97.33234</ele>
        <time>2019-09-11T14:13:21Z</time>
      </trkpt>
      <trkpt lat="48.506" lon="-2.01634">
        <ele>97.20125</ele>
        <time>2019-09-11T14:13:22Z</time>
      </trkpt>
      <trkpt lat="48.50604" lon="-2.01635">
        <ele>97.18413</ele>
        <time>2019-09-11T14:13:23Z</time>
      </trkpt>
      <trkpt lat="48.50608" lon="-2.01635">
        <ele>97.15365</ele>
        <time>2019-09-11T14:13:24Z</time>
      </trkpt>
      <trkpt lat="48.50611" lon="-2.01636">
        <ele>97.26906</ele>
        <time>2019-09-11T14:13:25Z</time>
      </trkpt>
      <trkpt lat="48.50615" lon="-2.01637">
        <ele>97.20048</ele>
        <time>2019-09-11T14:13:26Z</time>
      </trkpt>
      <trkpt lat="48.50619" lon="-2.01638">
        <ele>97.05093</ele>
        <time>2019-09-11T14:13:27Z</time>
      </trkpt>
      <trkpt lat="48.50623" lon="-2.01639">
        <ele>97.01077</ele>
        <time>2019-09-11T14:13:28Z</time>
      </trkpt>
      <trkpt lat="48.50626" lon="-2.0164">
        <ele>97.21158</ele>
        <time>2019-09-11T14:13:29Z</time>
      </trkpt>
      <trkpt lat="48.5063" lon="-2.01641">
        <ele>97.31608</ele>
        <time>2019-09-11T14:13:30Z</time>
      </trkpt>
      <trkpt lat="48.50634" lon="-2.01641">
        <ele>97.38216</ele>
        <time>2019-09-11T14:13:31Z</time>
      </trkpt>
      <trkpt lat="48.50637" lon="-2.01642">
        <ele>97.582405</ele>
        <time>2019-09-11T14:13:32Z</time>
      </trkpt>
      <trkpt lat="48.50641" lon="-2.01643">
        <ele>97.7512</ele>
        <time>2019-09-11T14:13:33Z</time>
      </trkpt>
      <trkpt lat="48.50645" lon="-2.01644">
        <ele>97.91815</ele>
        <time>2019-09-11T14:13:34Z</time>
      </trkpt>
      <trkpt lat="48.50649" lon="-2.01644">
        <ele>97.995445</ele>
        <time>2019-09-11T14:13:35Z</time>
      </trkpt>
      <trkpt lat="48.50653" lon="-2.01644">
        <ele>98.167816</ele>
        <time>2019-09-11T14:13:36Z</time>
      </trkpt>
      <trkpt lat="48.50657" lon="-2.01644">
        <ele>98.132065</ele>
        <time>2019-09-11T14:13:37Z</time>
      </trkpt>
      <trkpt lat="48.50661" lon="-2.01645">
        <ele>97.996376</ele>
        <time>2019-09-11T14:13:38Z</time>
      </trkpt>
      <trkpt lat="48.50665" lon="-2.01645">
        <ele>97.98727</ele>
        <time>2019-09-11T14:13:39Z</time>
      </trkpt>
      <trkpt lat="48.50668" lon="-2.01646">
        <ele>98.04007</ele>
        <time>2019-09-11T14:13:40Z</time>
      </trkpt>
      <trkpt lat="48.50673" lon="-2.01647">
        <ele>98.07584</ele>
        <time>2019-09-11T14:13:41Z</time>
      </trkpt>
      <trkpt lat="48.50676" lon="-2.01648">
        <ele>98.110985</ele>
        <time>2019-09-11T14:13:42Z</time>
      </trkpt>
      <trkpt lat="48.50681" lon="-2.01649">
        <ele>98.06424</ele>
        <time>2019-09-11T14:13:43Z</time>
      </trkpt>
      <trkpt lat="48.50684" lon="-2.01649">
        <ele>98.20387</ele>
        <time>2019-09-11T14:13:44Z</time>
      </trkpt>
      <trkpt lat="48.50688" lon="-2.0165">
        <ele>98.287224</ele>
        <time>2019-09-11T14:13:45Z</time>
      </trkpt>
      <trkpt lat="48.50692" lon="-2.0165">
        <ele>98.401</ele>
        <time>2019-09-11T14:13:46Z</time>
      </trkpt>
      <trkpt lat="48.50695" lon="-2.01651">
        <ele>98.5189</ele>
        <time>2019-09-11T14:13:47Z</time>
      </trkpt>
      <trkpt lat="48.50699" lon="-2.01652">
        <ele>98.719345</ele>
        <time>2019-09-11T14:13:48Z</time>
      </trkpt>
      <trkpt lat="48.50703" lon="-2.01652">
        <ele>98.859116</ele>
        <time>2019-09-11T14:13:49Z</time>
      </trkpt>
      <trkpt lat="48.50706" lon="-2.01653">
        <ele>99.235115</ele>
        <time>2019-09-11T14:13:50Z</time>
      </trkpt>
      <trkpt lat="48.5071" lon="-2.01653">
        <ele>99.524216</ele>
        <time>2019-09-11T14:13:51Z</time>
      </trkpt>
      <trkpt lat="48.50713" lon="-2.01653">
        <ele>99.9002</ele>
        <time>2019-09-11T14:13:52Z</time>
      </trkpt>
      <trkpt lat="48.50716" lon="-2.01653">
        <ele>100.12337</ele>
        <time>2019-09-11T14:13:53Z</time>
      </trkpt>
      <trkpt lat="48.5072" lon="-2.01654">
        <ele>100.46094</ele>
        <time>2019-09-11T14:13:54Z</time>
      </trkpt>
      <trkpt lat="48.50724" lon="-2.01655">
        <ele>100.5422</ele>
        <time>2019-09-11T14:13:55Z</time>
      </trkpt>
      <trkpt lat="48.50728" lon="-2.01655">
        <ele>100.80839</ele>
        <time>2019-09-11T14:13:56Z</time>
      </trkpt>
      <trkpt lat="48.50732" lon="-2.01656">
        <ele>101.049355</ele>
        <time>2019-09-11T14:13:57Z</time>
      </trkpt>
      <trkpt lat="48.50736" lon="-2.01657">
        <ele>101.11782</ele>
        <time>2019-09-11T14:13:58Z</time>
      </trkpt>
      <trkpt lat="48.5074" lon="-2.01657">
        <ele>101.32665</ele>
        <time>2019-09-11T14:13:59Z</time>
      </trkpt>
      <trkpt lat="48.50744" lon="-2.01658">
        <ele>101.346855</ele>
        <time>2019-09-11T14:14:00Z</time>
      </trkpt>
      <trkpt lat="48.50748" lon="-2.01659">
        <ele>101.57972</ele>
        <time>2019-09-11T14:14:01Z</time>
      </trkpt>
      <trkpt lat="48.50752" lon="-2.01659">
        <ele>101.72815</ele>
        <time>2019-09-11T14:14:02Z</time>
      </trkpt>
      <trkpt lat="48.50756" lon="-2.0166">
        <ele>101.84998</ele>
        <time>2019-09-11T14:14:03Z</time>
      </trkpt>
      <trkpt lat="48.5076" lon="-2.01661">
        <ele>102.01061</ele>
        <time>2019-09-11T14:14:04Z</time>
      </trkpt>
      <trkpt lat="48.50764" lon="-2.01661">
        <ele>102.021416</ele>
        <time>2019-09-11T14:14:05Z</time>
      </trkpt>
      <trkpt lat="48.50768" lon="-2.01662">
        <ele>102.07613</ele>
        <time>2019-09-11T14:14:06Z</time>
      </trkpt>
      <trkpt lat="48.50771" lon="-2.01662">
        <ele>102.16171</ele>
        <time>2019-09-11T14:14:07Z</time>
      </trkpt>
      <trkpt lat="48.50776" lon="-2.01663">
        <ele>102.422165</ele>
        <time>2019-09-11T14:14:08Z</time>
      </trkpt>
      <trkpt lat="48.50779" lon="-2.01663">
        <ele>102.567535</ele>
        <time>2019-09-11T14:14:09Z</time>
      </trkpt>
      <trkpt lat="48.50783" lon="-2.01663">
        <ele>102.73523</ele>
        <time>2019-09-11T14:14:10Z</time>
      </trkpt>
      <trkpt lat="48.50786" lon="-2.01663">
        <ele>102.988144</ele>
        <time>2019-09-11T14:14:11Z</time>
      </trkpt>
      <trkpt lat="48.5079" lon="-2.01663">
        <ele>103.32007</ele>
        <time>2019-09-11T14:14:12Z</time>
      </trkpt>
      <trkpt lat="48.50794" lon="-2.01664">
        <ele>103.57763</ele>
        <time>2019-09-11T14:14:13Z</time>
      </trkpt>
      <trkpt lat="48.50797" lon="-2.01665">
        <ele>103.85028</ele>
        <time>2019-09-11T14:14:14Z</time>
      </trkpt>
      <trkpt lat="48.508" lon="-2.01665">
        <ele>104.125786</ele>
        <time>2019-09-11T14:14:15Z</time>
      </trkpt>
      <trkpt lat="48.50804" lon="-2.01666">
        <ele>104.48612</ele>
        <time>2019-09-11T14:14:16Z</time>
      </trkpt>
      <trkpt lat="48.50807" lon="-2.01667">
        <ele>104.45825</ele>
        <time>2019-09-11T14:14:17Z</time>
      </trkpt>
      <trkpt lat="48.50811" lon="-2.01668">
        <ele>104.622475</ele>
        <time>2019-09-11T14:14:18Z</time>
      </trkpt>
      <trkpt lat="48.50814" lon="-2.01668">
        <ele>104.90428</ele>
        <time>2019-09-11T14:14:19Z</time>
      </trkpt>
      <trkpt lat="48.50818" lon="-2.01669">
        <ele>105.14525</ele>
        <time>2019-09-11T14:14:20Z</time>
      </trkpt>
      <trkpt lat="48.50821" lon="-2.01669">
        <ele>105.39076</ele>
        <time>2019-09-11T14:14:21Z</time>
      </trkpt>
      <trkpt lat="48.50825" lon="-2.01669">
        <ele>105.54221</ele>
        <time>2019-09-11T14:14:22Z</time>
      </trkpt>
      <trkpt lat="48.50828" lon="-2.0167">
        <ele>105.79353</ele>
        <time>2019-09-11T14:14:23Z</time>
      </trkpt>
      <trkpt lat="48.50831" lon="-2.01671">
        <ele>106.09656</ele>
        <time>2019-09-11T14:14:24Z</time>
      </trkpt>
      <trkpt lat="48.50834" lon="-2.01671">
        <ele>106.92709</ele>
        <time>2019-09-11T14:14:25Z</time>
      </trkpt>
      <trkpt lat="48.50838" lon="-2.01671">
        <ele>107.60505</ele>
        <time>2019-09-11T14:14:26Z</time>
      </trkpt>
      <trkpt lat="48.5084" lon="-2.0167">
        <ele>107.92374</ele>
        <time>2019-09-11T14:14:27Z</time>
      </trkpt>
      <trkpt lat="48.50843" lon="-2.0167">
        <ele>108.35991</ele>
        <time>2019-09-11T14:14:28Z</time>
      </trkpt>
      <trkpt lat="48.50846" lon="-2.01669">
        <ele>108.86642</ele>
        <time>2019-09-11T14:14:29Z</time>
      </trkpt>
      <trkpt lat="48.50848" lon="-2.01669">
        <ele>109.48966</ele>
        <time>2019-09-11T14:14:30Z</time>
      </trkpt>
      <trkpt lat="48.50851" lon="-2.01669">
        <ele>110.259514</ele>
        <time>2019-09-11T14:14:31Z</time>
      </trkpt>
      <trkpt lat="48.50853" lon="-2.0167">
        <ele>110.74808</ele>
        <time>2019-09-11T14:14:32Z</time>
      </trkpt>
      <trkpt lat="48.50855" lon="-2.01672">
        <ele>111.06974</ele>
        <time>2019-09-11T14:14:33Z</time>
      </trkpt>
      <trkpt lat="48.50857" lon="-2.01674">
        <ele>111.358116</ele>
        <time>2019-09-11T14:14:34Z</time>
      </trkpt>
      <trkpt lat="48.50858" lon="-2.01678">
        <ele>111.55849</ele>
        <time>2019-09-11T14:14:35Z</time>
      </trkpt>
      <trkpt lat="48.50859" lon="-2.0168">
        <ele>111.8991</ele>
        <time>2019-09-11T14:14:36Z</time>
      </trkpt>
      <trkpt lat="48.50861" lon="-2.01683">
        <ele>112.27486</ele>
        <time>2019-09-11T14:14:37Z</time>
      </trkpt>
      <trkpt lat="48.50863" lon="-2.01685">
        <ele>112.58797</ele>
        <time>2019-09-11T14:14:38Z</time>
      </trkpt>
      <trkpt lat="48.50865" lon="-2.01687">
        <ele>112.91082</ele>
        <time>2019-09-11T14:14:39Z</time>
      </trkpt>
      <trkpt lat="48.50867" lon="-2.01689">
        <ele>113.19075</ele>
        <time>2019-09-11T14:14:40Z</time>
      </trkpt>
      <trkpt lat="48.50869" lon="-2.01691">
        <ele>113.443054</ele>
        <time>2019-09-11T14:14:41Z</time>
      </trkpt>
      <trkpt lat="48.50871" lon="-2.01694">
        <ele>113.684235</ele>
        <time>2019-09-11T14:14:42Z</time>
      </trkpt>
      <trkpt lat="48.50873" lon="-2.01697">
        <ele>113.87389</ele>
        <time>2019-09-11T14:14:43Z</time>
      </trkpt>
      <trkpt lat="48.50876" lon="-2.01701">
        <ele>113.98377</ele>
        <time>2019-09-11T14:14:44Z</time>
      </trkpt>
      <trkpt lat="48.50878" lon="-2.01705">
        <ele>114.1453</ele>
        <time>2019-09-11T14:14:45Z</time>
      </trkpt>
      <trkpt lat="48.5088" lon="-2.01708">
        <ele>114.47618</ele>
        <time>2019-09-11T14:14:46Z</time>
      </trkpt>
      <trkpt lat="48.50882" lon="-2.01712">
        <ele>114.72547</ele>
        <time>2019-09-11T14:14:47Z</time>
      </trkpt>
      <trkpt lat="48.50884" lon="-2.01715">
        <ele>114.84074</ele>
        <time>2019-09-11T14:14:48Z</time>
      </trkpt>
      <trkpt lat="48.50887" lon="-2.01719">
        <ele>114.95118</ele>
        <time>2019-09-11T14:14:49Z</time>
      </trkpt>
      <trkpt lat="48.50888" lon="-2.01722">
        <ele>115.231834</ele>
        <time>2019-09-11T14:14:50Z</time>
      </trkpt>
      <trkpt lat="48.5089" lon="-2.01726">
        <ele>115.54672</ele>
        <time>2019-09-11T14:14:51Z</time>
      </trkpt>
      <trkpt lat="48.50893" lon="-2.0173">
        <ele>115.87236</ele>
        <time>2019-09-11T14:14:52Z</time>
      </trkpt>
      <trkpt lat="48.50896" lon="-2.01735">
        <ele>116.124626</ele>
        <time>2019-09-11T14:14:53Z</time>
      </trkpt>
      <trkpt lat="48.50897" lon="-2.0174">
        <ele>116.25485</ele>
        <time>2019-09-11T14:14:54Z</time>
      </trkpt>
      <trkpt lat="48.50899" lon="-2.01744">
        <ele>116.45257</ele>
        <time>2019-09-11T14:14:55Z</time>
      </trkpt>
      <trkpt lat="48.509" lon="-2.01748">
        <ele>116.6612</ele>
        <time>2019-09-11T14:14:56Z</time>
      </trkpt>
      <trkpt lat="48.50901" lon="-2.01753">
        <ele>116.901245</ele>
        <time>2019-09-11T14:14:57Z</time>
      </trkpt>
      <trkpt lat="48.50903" lon="-2.01757">
        <ele>117.206116</ele>
        <time>2019-09-11T14:14:58Z</time>
      </trkpt>
      <trkpt lat="48.50905" lon="-2.0176">
        <ele>117.5563</ele>
        <time>2019-09-11T14:14:59Z</time>
      </trkpt>
      <trkpt lat="48.50907" lon="-2.01764">
        <ele>117.88496</ele>
        <time>2019-09-11T14:15:00Z</time>
      </trkpt>
      <trkpt lat="48.50909" lon="-2.01768">
        <ele>118.30117</ele>
        <time>2019-09-11T14:15:01Z</time>
      </trkpt>
      <trkpt lat="48.50911" lon="-2.01773">
        <ele>118.55503</ele>
        <time>2019-09-11T14:15:02Z</time>
      </trkpt>
      <trkpt lat="48.50913" lon="-2.01779">
        <ele>118.92065</ele>
        <time>2019-09-11T14:15:03Z</time>
      </trkpt>
      <trkpt lat="48.50915" lon="-2.01785">
        <ele>119.41428</ele>
        <time>2019-09-11T14:15:04Z</time>
      </trkpt>
      <trkpt lat="48.50917" lon="-2.01791">
        <ele>119.86327</ele>
        <time>2019-09-11T14:15:05Z</time>
      </trkpt>
      <trkpt lat="48.50918" lon="-2.01796">
        <ele>120.35524</ele>
        <time>2019-09-11T14:15:06Z</time>
      </trkpt>
      <trkpt lat="48.5092" lon="-2.01802">
        <ele>120.87646</ele>
        <time>2019-09-11T14:15:07Z</time>
      </trkpt>
      <trkpt lat="48.50922" lon="-2.01807">
        <ele>121.37764</ele>
        <time>2019-09-11T14:15:08Z</time>
      </trkpt>
      <trkpt lat="48.50925" lon="-2.01813">
        <ele>121.82038</ele>
        <time>2019-09-11T14:15:09Z</time>
      </trkpt>
      <trkpt lat="48.50927" lon="-2.01817">
        <ele>122.2458</ele>
        <time>2019-09-11T14:15:10Z</time>
      </trkpt>
      <trkpt lat="48.5093" lon="-2.01819">
        <ele>122.726204</ele>
        <time>2019-09-11T14:15:11Z</time>
      </trkpt>
      <trkpt lat="48.50932" lon="-2.01819">
        <ele>123.42125</ele>
        <time>2019-09-11T14:15:12Z</time>
      </trkpt>
      <trkpt lat="48.50935" lon="-2.01817">
        <ele>124.3775</ele>
        <time>2019-09-11T14:15:13Z</time>
      </trkpt>
      <trkpt lat="48.50938" lon="-2.01815">
        <ele>125.15233</ele>
        <time>2019-09-11T14:15:14Z</time>
      </trkpt>
      <trkpt lat="48.50942" lon="-2.01813">
        <ele>125.9044</ele>
        <time>2019-09-11T14:15:15Z</time>
      </trkpt>
      <trkpt lat="48.50945" lon="-2.0181">
        <ele>126.537964</ele>
        <time>2019-09-11T14:15:16Z</time>
      </trkpt>
      <trkpt lat="48.50948" lon="-2.01808">
        <ele>127.16443</ele>
        <time>2019-09-11T14:15:17Z</time>
      </trkpt>
      <trkpt lat="48.50949" lon="-2.01806">
        <ele>127.64455</ele>
        <time>2019-09-11T14:15:18Z</time>
      </trkpt>
      <trkpt lat="48.50952" lon="-2.01804">
        <ele>127.93017</ele>
        <time>2019-09-11T14:15:19Z</time>
      </trkpt>
      <trkpt lat="48.50955" lon="-2.01802">
        <ele>128.35951</ele>
        <time>2019-09-11T14:15:20Z</time>
      </trkpt>
      <trkpt lat="48.50958" lon="-2.018">
        <ele>128.99147</ele>
        <time>2019-09-11T14:15:21Z</time>
      </trkpt>
      <trkpt lat="48.50961" lon="-2.01797">
        <ele>129.35107</ele>
        <time>2019-09-11T14:15:22Z</time>
      </trkpt>
      <trkpt lat="48.50964" lon="-2.01794">
        <ele>129.84161</ele>
        <time>2019-09-11T14:15:23Z</time>
      </trkpt>
      <trkpt lat="48.50966" lon="-2.01791">
        <ele>130.37318</ele>
        <time>2019-09-11T14:15:24Z</time>
      </trkpt>
      <trkpt lat="48.50969" lon="-2.01789">
        <ele>130.54721</ele>
        <time>2019-09-11T14:15:25Z</time>
      </trkpt>
      <trkpt lat="48.50972" lon="-2.01786">
        <ele>130.69849</ele>
        <time>2019-09-11T14:15:26Z</time>
      </trkpt>
      <trkpt lat="48.50974" lon="-2.01783">
        <ele>130.93298</ele>
        <time>2019-09-11T14:15:27Z</time>
      </trkpt>
      <trkpt lat="48.50977" lon="-2.0178">
        <ele>131.23277</ele>
        <time>2019-09-11T14:15:28Z</time>
      </trkpt>
      <trkpt lat="48.50979" lon="-2.01777">
        <ele>131.74852</ele>
        <time>2019-09-11T14:15:29Z</time>
      </trkpt>
      <trkpt lat="48.50982" lon="-2.01775">
        <ele>132.29149</ele>
        <time>2019-09-11T14:15:30Z</time>
      </trkpt>
      <trkpt lat="48.50984" lon="-2.01772">
        <ele>132.7278</ele>
        <time>2019-09-11T14:15:31Z</time>
      </trkpt>
      <trkpt lat="48.50986" lon="-2.0177">
        <ele>133.09427</ele>
        <time>2019-09-11T14:15:32Z</time>
      </trkpt>
      <trkpt lat="48.50989" lon="-2.01767">
        <ele>133.6666</ele>
        <time>2019-09-11T14:15:33Z</time>
      </trkpt>
      <trkpt lat="48.50991" lon="-2.01764">
        <ele>134.03017</ele>
        <time>2019-09-11T14:15:34Z</time>
      </trkpt>
      <trkpt lat="48.50995" lon="-2.0176">
        <ele>134.13496</ele>
        <time>2019-09-11T14:15:35Z</time>
      </trkpt>
      <trkpt lat="48.50998" lon="-2.01757">
        <ele>134.4628</ele>
        <time>2019-09-11T14:15:36Z</time>
      </trkpt>
      <trkpt lat="48.51002" lon="-2.01752">
        <ele>134.81099</ele>
        <time>2019-09-11T14:15:37Z</time>
      </trkpt>
      <trkpt lat="48.51006" lon="-2.01748">
        <ele>134.74251</ele>
        <time>2019-09-11T14:15:38Z</time>
      </trkpt>
      <trkpt lat="48.51011" lon="-2.01744">
        <ele>134.98106</ele>
        <time>2019-09-11T14:15:39Z</time>
      </trkpt>
      <trkpt lat="48.51016" lon="-2.0174">
        <ele>135.35672</ele>
        <time>2019-09-11T14:15:40Z</time>
      </trkpt>
      <trkpt lat="48.5102" lon="-2.01736">
        <ele>135.8226</ele>
        <time>2019-09-11T14:15:41Z</time>
      </trkpt>
      <trkpt lat="48.51025" lon="-2.01733">
        <ele>135.87646</ele>
        <time>2019-09-11T14:15:42Z</time>
      </trkpt>
      <trkpt lat="48.51029" lon="-2.0173">
        <ele>136.0688</ele>
        <time>2019-09-11T14:15:43Z</time>
      </trkpt>
      <trkpt lat="48.51033" lon="-2.01727">
        <ele>136.3446</ele>
        <time>2019-09-11T14:15:44Z</time>
      </trkpt>
      <trkpt lat="48.51037" lon="-2.01724">
        <ele>136.23781</ele>
        <time>2019-09-11T14:15:45Z</time>
      </trkpt>
      <trkpt lat="48.5104" lon="-2.01722">
        <ele>136.26869</ele>
        <time>2019-09-11T14:15:46Z</time>
      </trkpt>
      <trkpt lat="48.51044" lon="-2.0172">
        <ele>136.4381</ele>
        <time>2019-09-11T14:15:47Z</time>
      </trkpt>
      <trkpt lat="48.51047" lon="-2.01719">
        <ele>136.5029</ele>
        <time>2019-09-11T14:15:48Z</time>
      </trkpt>
      <trkpt lat="48.51051" lon="-2.01718">
        <ele>136.76779</ele>
        <time>2019-09-11T14:15:49Z</time>
      </trkpt>
      <trkpt lat="48.51054" lon="-2.01716">
        <ele>137.04259</ele>
        <time>2019-09-11T14:15:50Z</time>
      </trkpt>
      <trkpt lat="48.51057" lon="-2.01715">
        <ele>137.28458</ele>
        <time>2019-09-11T14:15:51Z</time>
      </trkpt>
      <trkpt lat="48.51062" lon="-2.01713">
        <ele>137.3139</ele>
        <time>2019-09-11T14:15:52Z</time>
      </trkpt>
      <trkpt lat="48.51066" lon="-2.01712">
        <ele>137.25473</ele>
        <time>2019-09-11T14:15:53Z</time>
      </trkpt>
      <trkpt lat="48.5107" lon="-2.0171">
        <ele>137.17921</ele>
        <time>2019-09-11T14:15:54Z</time>
      </trkpt>
      <trkpt lat="48.51075" lon="-2.01708">
        <ele>136.97255</ele>
        <time>2019-09-11T14:15:55Z</time>
      </trkpt>
      <trkpt lat="48.51081" lon="-2.01706">
        <ele>136.92044</ele>
        <time>2019-09-11T14:15:56Z</time>
      </trkpt>
      <trkpt lat="48.51085" lon="-2.01703">
        <ele>136.9518</ele>
        <time>2019-09-11T14:15:57Z</time>
      </trkpt>
      <trkpt lat="48.51088" lon="-2.01702">
        <ele>137.0008</ele>
        <time>2019-09-11T14:15:58Z</time>
      </trkpt>
      <trkpt lat="48.5109" lon="-2.017">
        <ele>137.02481</ele>
        <time>2019-09-11T14:15:59Z</time>
      </trkpt>
      <trkpt lat="48.51093" lon="-2.01699">
        <ele>137.22919</ele>
        <time>2019-09-11T14:16:00Z</time>
      </trkpt>
      <trkpt lat="48.51095" lon="-2.01699">
        <ele>136.80202</ele>
        <time>2019-09-11T14:16:01Z</time>
      </trkpt>
      <trkpt lat="48.51098" lon="-2.01699">
        <ele>136.59242</ele>
        <time>2019-09-11T14:16:02Z</time>
      </trkpt>
      <trkpt lat="48.511" lon="-2.01698">
        <ele>136.5147</ele>
        <time>2019-09-11T14:16:03Z</time>
      </trkpt>
      <trkpt lat="48.51104" lon="-2.01698">
        <ele>136.60776</ele>
        <time>2019-09-11T14:16:04Z</time>
      </trkpt>
      <trkpt lat="48.51107" lon="-2.01698">
        <ele>136.61937</ele>
        <time>2019-09-11T14:16:05Z</time>
      </trkpt>
      <trkpt lat="48.51111" lon="-2.01699">
        <ele>136.71236</ele>
        <time>2019-09-11T14:16:06Z</time>
      </trkpt>
      <trkpt lat="48.51115" lon="-2.017">
        <ele>136.52393</ele>
        <time>2019-09-11T14:16:07Z</time>
      </trkpt>
      <trkpt lat="48.51119" lon="-2.01701">
        <ele>135.88081</ele>
        <time>2019-09-11T14:16:08Z</time>
      </trkpt>
      <trkpt lat="48.51121" lon="-2.017">
        <ele>135.87454</ele>
        <time>2019-09-11T14:16:09Z</time>
      </trkpt>
      <trkpt lat="48.51123" lon="-2.01698">
        <ele>135.94827</ele>
        <time>2019-09-11T14:16:10Z</time>
      </trkpt>
      <trkpt lat="48.51127" lon="-2.01697">
        <ele>135.96144</ele>
        <time>2019-09-11T14:16:11Z</time>
      </trkpt>
      <trkpt lat="48.51131" lon="-2.01694">
        <ele>136.09822</ele>
        <time>2019-09-11T14:16:12Z</time>
      </trkpt>
      <trkpt lat="48.51135" lon="-2.01693">
        <ele>136.19695</ele>
        <time>2019-09-11T14:16:13Z</time>
      </trkpt>
      <trkpt lat="48.51139" lon="-2.01691">
        <ele>136.26692</ele>
        <time>2019-09-11T14:16:14Z</time>
      </trkpt>
      <trkpt lat="48.51143" lon="-2.01689">
        <ele>136.56462</ele>
        <time>2019-09-11T14:16:15Z</time>
      </trkpt>
      <trkpt lat="48.51148" lon="-2.01687">
        <ele>136.75446</ele>
        <time>2019-09-11T14:16:16Z</time>
      </trkpt>
      <trkpt lat="48.51152" lon="-2.01685">
        <ele>136.77106</ele>
        <time>2019-09-11T14:16:17Z</time>
      </trkpt>
      <trkpt lat="48.51156" lon="-2.01683">
        <ele>136.72423</ele>
        <time>2019-09-11T14:16:18Z</time>
      </trkpt>
      <trkpt lat="48.5116" lon="-2.0168">
        <ele>136.60876</ele>
        <time>2019-09-11T14:16:19Z</time>
      </trkpt>
      <trkpt lat="48.51165" lon="-2.01678">
        <ele>136.87402</ele>
        <time>2019-09-11T14:16:20Z</time>
      </trkpt>
      <trkpt lat="48.51169" lon="-2.01675">
        <ele>137.0166</ele>
        <time>2019-09-11T14:16:21Z</time>
      </trkpt>
      <trkpt lat="48.51174" lon="-2.01672">
        <ele>137.15108</ele>
        <time>2019-09-11T14:16:22Z</time>
      </trkpt>
      <trkpt lat="48.51177" lon="-2.01669">
        <ele>136.90567</ele>
        <time>2019-09-11T14:16:23Z</time>
      </trkpt>
      <trkpt lat="48.51181" lon="-2.01667">
        <ele>136.73065</ele>
        <time>2019-09-11T14:16:24Z</time>
      </trkpt>
      <trkpt lat="48.51185" lon="-2.01663">
        <ele>136.76205</ele>
        <time>2019-09-11T14:16:25Z</time>
      </trkpt>
      <trkpt lat="48.51189" lon="-2.01659">
        <ele>136.75525</ele>
        <time>2019-09-11T14:16:26Z</time>
      </trkpt>
      <trkpt lat="48.51194" lon="-2.01656">
        <ele>136.89656</ele>
        <time>2019-09-11T14:16:27Z</time>
      </trkpt>
      <trkpt lat="48.51199" lon="-2.01652">
        <ele>137.1806</ele>
        <time>2019-09-11T14:16:28Z</time>
      </trkpt>
      <trkpt lat="48.51205" lon="-2.01648">
        <ele>137.52261</ele>
        <time>2019-09-11T14:16:29Z</time>
      </trkpt>
      <trkpt lat="48.51209" lon="-2.01645">
        <ele>138.11595</ele>
        <time>2019-09-11T14:16:30Z</time>
      </trkpt>
      <trkpt lat="48.51214" lon="-2.0164">
        <ele>138.36105</ele>
        <time>2019-09-11T14:16:31Z</time>
      </trkpt>
      <trkpt lat="48.5122" lon="-2.01636">
        <ele>138.67076</ele>
        <time>2019-09-11T14:16:32Z</time>
      </trkpt>
      <trkpt lat="48.51224" lon="-2.01631">
        <ele>138.99036</ele>
        <time>2019-09-11T14:16:33Z</time>
      </trkpt>
      <trkpt lat="48.51228" lon="-2.01626">
        <ele>139.23409</ele>
        <time>2019-09-11T14:16:34Z</time>
      </trkpt>
      <trkpt lat="48.51233" lon="-2.01623">
        <ele>139.44734</ele>
        <time>2019-09-11T14:16:35Z</time>
      </trkpt>
      <trkpt lat="48.51237" lon="-2.01619">
        <ele>139.77896</ele>
        <time>2019-09-11T14:16:36Z</time>
      </trkpt>
      <trkpt lat="48.51241" lon="-2.01616">
        <ele>140.14265</ele>
        <time>2019-09-11T14:16:37Z</time>
      </trkpt>
      <trkpt lat="48.51246" lon="-2.01612">
        <ele>140.6773</ele>
        <time>2019-09-11T14:16:38Z</time>
      </trkpt>
      <trkpt lat="48.51248" lon="-2.01608">
        <ele>141.0229</ele>
        <time>2019-09-11T14:16:39Z</time>
      </trkpt>
      <trkpt lat="48.51251" lon="-2.01605">
        <ele>141.32214</ele>
        <time>2019-09-11T14:16:40Z</time>
      </trkpt>
      <trkpt lat="48.51253" lon="-2.01601">
        <ele>141.73885</ele>
        <time>2019-09-11T14:16:41Z</time>
      </trkpt>
      <trkpt lat="48.51256" lon="-2.01597">
        <ele>141.98837</ele>
        <time>2019-09-11T14:16:42Z</time>
      </trkpt>
      <trkpt lat="48.51259" lon="-2.01593">
        <ele>142.14656</ele>
        <time>2019-09-11T14:16:43Z</time>
      </trkpt>
      <trkpt lat="48.51261" lon="-2.01589">
        <ele>142.12975</ele>
        <time>2019-09-11T14:16:44Z</time>
      </trkpt>
      <trkpt lat="48.51264" lon="-2.01584">
        <ele>142.24377</ele>
        <time>2019-09-11T14:16:45Z</time>
      </trkpt>
      <trkpt lat="48.51267" lon="-2.01581">
        <ele>142.24847</ele>
        <time>2019-09-11T14:16:46Z</time>
      </trkpt>
      <trkpt lat="48.51271" lon="-2.01578">
        <ele>142.28546</ele>
        <time>2019-09-11T14:16:47Z</time>
      </trkpt>
      <trkpt lat="48.51276" lon="-2.01574">
        <ele>142.24161</ele>
        <time>2019-09-11T14:16:48Z</time>
      </trkpt>
      <trkpt lat="48.51281" lon="-2.0157">
        <ele>142.18568</ele>
        <time>2019-09-11T14:16:49Z</time>
      </trkpt>
      <trkpt lat="48.51287" lon="-2.01566">
        <ele>141.91219</ele>
        <time>2019-09-11T14:16:50Z</time>
      </trkpt>
      <trkpt lat="48.51292" lon="-2.01562">
        <ele>141.68777</ele>
        <time>2019-09-11T14:16:51Z</time>
      </trkpt>
      <trkpt lat="48.51297" lon="-2.01559">
        <ele>141.4849</ele>
        <time>2019-09-11T14:16:52Z</time>
      </trkpt>
      <trkpt lat="48.51302" lon="-2.01557">
        <ele>141.00793</ele>
        <time>2019-09-11T14:16:53Z</time>
      </trkpt>
      <trkpt lat="48.51307" lon="-2.01559">
        <ele>140.68083</ele>
        <time>2019-09-11T14:16:54Z</time>
      </trkpt>
      <trkpt lat="48.5131" lon="-2.01563">
        <ele>140.40259</ele>
        <time>2019-09-11T14:16:55Z</time>
      </trkpt>
      <trkpt lat="48.51312" lon="-2.01567">
        <ele>139.95082</ele>
        <time>2019-09-11T14:16:56Z</time>
      </trkpt>
      <trkpt lat="48.51313" lon="-2.01572">
        <ele>139.39056</ele>
        <time>2019-09-11T14:16:57Z</time>
      </trkpt>
      <trkpt lat="48.51315" lon="-2.01577">
        <ele>138.80995</ele>
        <time>2019-09-11T14:16:58Z</time>
      </trkpt>
      <trkpt lat="48.51315" lon="-2.01582">
        <ele>138.30608</ele>
        <time>2019-09-11T14:16:59Z</time>
      </trkpt>
      <trkpt lat="48.51315" lon="-2.01586">
        <ele>137.68993</ele>
        <time>2019-09-11T14:17:00Z</time>
      </trkpt>
      <trkpt lat="48.51315" lon="-2.01591">
        <ele>136.77324</ele>
        <time>2019-09-11T14:17:01Z</time>
      </trkpt>
      <trkpt lat="48.51315" lon="-2.01596">
        <ele>136.08476</ele>
        <time>2019-09-11T14:17:02Z</time>
      </trkpt>
      <trkpt lat="48.51315" lon="-2.016">
        <ele>135.42444</ele>
        <time>2019-09-11T14:17:03Z</time>
      </trkpt>
      <trkpt lat="48.51314" lon="-2.01605">
        <ele>135.0578</ele>
        <time>2019-09-11T14:17:04Z</time>
      </trkpt>
      <trkpt lat="48.51313" lon="-2.01609">
        <ele>134.75613</ele>
        <time>2019-09-11T14:17:05Z</time>
      </trkpt>
      <trkpt lat="48.51313" lon="-2.01613">
        <ele>133.86441</ele>
        <time>2019-09-11T14:17:06Z</time>
      </trkpt>
      <trkpt lat="48.51312" lon="-2.01616">
        <ele>133.18718</ele>
        <time>2019-09-11T14:17:07Z</time>
      </trkpt>
      <trkpt lat="48.51311" lon="-2.0162">
        <ele>133.00826</ele>
        <time>2019-09-11T14:17:08Z</time>
      </trkpt>
      <trkpt lat="48.51309" lon="-2.01626">
        <ele>132.85077</ele>
        <time>2019-09-11T14:17:09Z</time>
      </trkpt>
      <trkpt lat="48.51307" lon="-2.01632">
        <ele>132.72906</ele>
        <time>2019-09-11T14:17:10Z</time>
      </trkpt>
      <trkpt lat="48.51304" lon="-2.0164">
        <ele>132.79854</ele>
        <time>2019-09-11T14:17:11Z</time>
      </trkpt>
      <trkpt lat="48.51301" lon="-2.01648">
        <ele>132.8764</ele>
        <time>2019-09-11T14:17:12Z</time>
      </trkpt>
      <trkpt lat="48.51298" lon="-2.01656">
        <ele>132.45813</ele>
        <time>2019-09-11T14:17:13Z</time>
      </trkpt>
      <trkpt lat="48.51296" lon="-2.01663">
        <ele>132.48347</ele>
        <time>2019-09-11T14:17:14Z</time>
      </trkpt>
      <trkpt lat="48.51293" lon="-2.01669">
        <ele>132.69878</ele>
        <time>2019-09-11T14:17:15Z</time>
      </trkpt>
      <trkpt lat="48.51291" lon="-2.01675">
        <ele>132.88286</ele>
        <time>2019-09-11T14:17:16Z</time>
      </trkpt>
      <trkpt lat="48.51289" lon="-2.01682">
        <ele>133.52032</ele>
        <time>2019-09-11T14:17:17Z</time>
      </trkpt>
      <trkpt lat="48.51288" lon="-2.01689">
        <ele>133.27971</ele>
        <time>2019-09-11T14:17:18Z</time>
      </trkpt>
      <trkpt lat="48.51286" lon="-2.01695">
        <ele>132.9845</ele>
        <time>2019-09-11T14:17:19Z</time>
      </trkpt>
      <trkpt lat="48.51285" lon="-2.017">
        <ele>132.62936</ele>
        <time>2019-09-11T14:17:20Z</time>
      </trkpt>
      <trkpt lat="48.51284" lon="-2.01705">
        <ele>132.08548</ele>
        <time>2019-09-11T14:17:21Z</time>
      </trkpt>
      <trkpt lat="48.51283" lon="-2.0171">
        <ele>132.08366</ele>
        <time>2019-09-11T14:17:22Z</time>
      </trkpt>
      <trkpt lat="48.51281" lon="-2.01716">
        <ele>131.75034</ele>
        <time>2019-09-11T14:17:23Z</time>
      </trkpt>
      <trkpt lat="48.5128" lon="-2.01722">
        <ele>131.05907</ele>
        <time>2019-09-11T14:17:24Z</time>
      </trkpt>
      <trkpt lat="48.51279" lon="-2.01727">
        <ele>130.6945</ele>
        <time>2019-09-11T14:17:25Z</time>
      </trkpt>
      <trkpt lat="48.51279" lon="-2.01732">
        <ele>130.24207</ele>
        <time>2019-09-11T14:17:26Z</time>
      </trkpt>
      <trkpt lat="48.51278" lon="-2.01738">
        <ele>130.06471</ele>
        <time>2019-09-11T14:17:27Z</time>
      </trkpt>
      <trkpt lat="48.51277" lon="-2.01744">
        <ele>130.07867</ele>
        <time>2019-09-11T14:17:28Z</time>
      </trkpt>
      <trkpt lat="48.51276" lon="-2.01751">
        <ele>130.25896</ele>
        <time>2019-09-11T14:17:29Z</time>
      </trkpt>
      <trkpt lat="48.51275" lon="-2.01758">
        <ele>130.38673</ele>
        <time>2019-09-11T14:17:30Z</time>
      </trkpt>
      <trkpt lat="48.51273" lon="-2.01765">
        <ele>130.46103</ele>
        <time>2019-09-11T14:17:31Z</time>
      </trkpt>
      <trkpt lat="48.51273" lon="-2.01772">
        <ele>130.46716</ele>
        <time>2019-09-11T14:17:32Z</time>
      </trkpt>
      <trkpt lat="48.51273" lon="-2.01779">
        <ele>130.25209</ele>
        <time>2019-09-11T14:17:33Z</time>
      </trkpt>
      <trkpt lat="48.51271" lon="-2.01786">
        <ele>130.3255</ele>
        <time>2019-09-11T14:17:34Z</time>
      </trkpt>
      <trkpt lat="48.51271" lon="-2.01792">
        <ele>130.29836</ele>
        <time>2019-09-11T14:17:35Z</time>
      </trkpt>
      <trkpt lat="48.5127" lon="-2.01798">
        <ele>130.27142</ele>
        <time>2019-09-11T14:17:36Z</time>
      </trkpt>
      <trkpt lat="48.5127" lon="-2.01804">
        <ele>130.1157</ele>
        <time>2019-09-11T14:17:37Z</time>
      </trkpt>
      <trkpt lat="48.51269" lon="-2.01809">
        <ele>130.1378</ele>
        <time>2019-09-11T14:17:38Z</time>
      </trkpt>
      <trkpt lat="48.51268" lon="-2.01814">
        <ele>130.1748</ele>
        <time>2019-09-11T14:17:39Z</time>
      </trkpt>
      <trkpt lat="48.51268" lon="-2.0182">
        <ele>130.36913</ele>
        <time>2019-09-11T14:17:40Z</time>
      </trkpt>
      <trkpt lat="48.51267" lon="-2.01825">
        <ele>130.18263</ele>
        <time>2019-09-11T14:17:41Z</time>
      </trkpt>
      <trkpt lat="48.51267" lon="-2.0183">
        <ele>129.86752</ele>
        <time>2019-09-11T14:17:42Z</time>
      </trkpt>
      <trkpt lat="48.51267" lon="-2.01835">
        <ele>129.41557</ele>
        <time>2019-09-11T14:17:43Z</time>
      </trkpt>
      <trkpt lat="48.51267" lon="-2.01839">
        <ele>128.80481</ele>
        <time>2019-09-11T14:17:44Z</time>
      </trkpt>
      <trkpt lat="48.51266" lon="-2.01842">
        <ele>128.29605</ele>
        <time>2019-09-11T14:17:45Z</time>
      </trkpt>
      <trkpt lat="48.51265" lon="-2.01845">
        <ele>127.99972</ele>
        <time>2019-09-11T14:17:46Z</time>
      </trkpt>
      <trkpt lat="48.51263" lon="-2.01846">
        <ele>127.39844</ele>
        <time>2019-09-11T14:17:47Z</time>
      </trkpt>
      <trkpt lat="48.51261" lon="-2.01849">
        <ele>126.75503</ele>
        <time>2019-09-11T14:17:48Z</time>
      </trkpt>
      <trkpt lat="48.51258" lon="-2.01852">
        <ele>127.09213</ele>
        <time>2019-09-11T14:17:49Z</time>
      </trkpt>
      <trkpt lat="48.51254" lon="-2.01854">
        <ele>126.669044</ele>
        <time>2019-09-11T14:17:50Z</time>
      </trkpt>
      <trkpt lat="48.51251" lon="-2.01855">
        <ele>126.59118</ele>
        <time>2019-09-11T14:17:51Z</time>
      </trkpt>
      <trkpt lat="48.51247" lon="-2.01857">
        <ele>126.49623</ele>
        <time>2019-09-11T14:17:52Z</time>
      </trkpt>
      <trkpt lat="48.51242" lon="-2.01857">
        <ele>126.04859</ele>
        <time>2019-09-11T14:17:53Z</time>
      </trkpt>
      <trkpt lat="48.51238" lon="-2.01858">
        <ele>126.000885</ele>
        <time>2019-09-11T14:17:54Z</time>
      </trkpt>
      <trkpt lat="48.51234" lon="-2.01859">
        <ele>126.021164</ele>
        <time>2019-09-11T14:17:55Z</time>
      </trkpt>
      <trkpt lat="48.5123" lon="-2.0186">
        <ele>126.04954</ele>
        <time>2019-09-11T14:17:56Z</time>
      </trkpt>
      <trkpt lat="48.51225" lon="-2.01859">
        <ele>125.821594</ele>
        <time>2019-09-11T14:17:57Z</time>
      </trkpt>
      <trkpt lat="48.51221" lon="-2.01859">
        <ele>125.62234</ele>
        <time>2019-09-11T14:17:58Z</time>
      </trkpt>
      <trkpt lat="48.51216" lon="-2.0186">
        <ele>125.529465</ele>
        <time>2019-09-11T14:17:59Z</time>
      </trkpt>
      <trkpt lat="48.51212" lon="-2.01861">
        <ele>125.41409</ele>
        <time>2019-09-11T14:18:00Z</time>
      </trkpt>
      <trkpt lat="48.51207" lon="-2.01862">
        <ele>125.16839</ele>
        <time>2019-09-11T14:18:01Z</time>
      </trkpt>
      <trkpt lat="48.51202" lon="-2.01862">
        <ele>125.27531</ele>
        <time>2019-09-11T14:18:02Z</time>
      </trkpt>
      <trkpt lat="48.51198" lon="-2.01862">
        <ele>125.43904</ele>
        <time>2019-09-11T14:18:03Z</time>
      </trkpt>
      <trkpt lat="48.51193" lon="-2.01863">
        <ele>125.349304</ele>
        <time>2019-09-11T14:18:04Z</time>
      </trkpt>
      <trkpt lat="48.51189" lon="-2.01864">
        <ele>125.06113</ele>
        <time>2019-09-11T14:18:05Z</time>
      </trkpt>
      <trkpt lat="48.51185" lon="-2.01864">
        <ele>124.92071</ele>
        <time>2019-09-11T14:18:06Z</time>
      </trkpt>
      <trkpt lat="48.5118" lon="-2.01864">
        <ele>123.909325</ele>
        <time>2019-09-11T14:18:07Z</time>
      </trkpt>
      <trkpt lat="48.51176" lon="-2.01864">
        <ele>123.41432</ele>
        <time>2019-09-11T14:18:08Z</time>
      </trkpt>
      <trkpt lat="48.51171" lon="-2.01864">
        <ele>123.14143</ele>
        <time>2019-09-11T14:18:09Z</time>
      </trkpt>
      <trkpt lat="48.51166" lon="-2.01864">
        <ele>123.068054</ele>
        <time>2019-09-11T14:18:10Z</time>
      </trkpt>
      <trkpt lat="48.5116" lon="-2.01865">
        <ele>122.87813</ele>
        <time>2019-09-11T14:18:11Z</time>
      </trkpt>
      <trkpt lat="48.51155" lon="-2.01866">
        <ele>122.93325</ele>
        <time>2019-09-11T14:18:12Z</time>
      </trkpt>
      <trkpt lat="48.51149" lon="-2.01867">
        <ele>122.83201</ele>
        <time>2019-09-11T14:18:13Z</time>
      </trkpt>
      <trkpt lat="48.51144" lon="-2.01867">
        <ele>122.669174</ele>
        <time>2019-09-11T14:18:14Z</time>
      </trkpt>
      <trkpt lat="48.51138" lon="-2.01867">
        <ele>122.74415</ele>
        <time>2019-09-11T14:18:15Z</time>
      </trkpt>
      <trkpt lat="48.51132" lon="-2.01868">
        <ele>122.63834</ele>
        <time>2019-09-11T14:18:16Z</time>
      </trkpt>
      <trkpt lat="48.51127" lon="-2.01869">
        <ele>122.701035</ele>
        <time>2019-09-11T14:18:17Z</time>
      </trkpt>
      <trkpt lat="48.51121" lon="-2.01871">
        <ele>122.98888</ele>
        <time>2019-09-11T14:18:18Z</time>
      </trkpt>
      <trkpt lat="48.51115" lon="-2.01871">
        <ele>123.390785</ele>
        <time>2019-09-11T14:18:19Z</time>
      </trkpt>
      <trkpt lat="48.5111" lon="-2.01871">
        <ele>123.590096</ele>
        <time>2019-09-11T14:18:20Z</time>
      </trkpt>
      <trkpt lat="48.51104" lon="-2.01871">
        <ele>123.98208</ele>
        <time>2019-09-11T14:18:21Z</time>
      </trkpt>
      <trkpt lat="48.51097" lon="-2.01872">
        <ele>124.31979</ele>
        <time>2019-09-11T14:18:22Z</time>
      </trkpt>
      <trkpt lat="48.5109" lon="-2.01873">
        <ele>124.61602</ele>
        <time>2019-09-11T14:18:23Z</time>
      </trkpt>
      <trkpt lat="48.51084" lon="-2.01873">
        <ele>124.96419</ele>
        <time>2019-09-11T14:18:24Z</time>
      </trkpt>
      <trkpt lat="48.51077" lon="-2.01874">
        <ele>125.047005</ele>
        <time>2019-09-11T14:18:25Z</time>
      </trkpt>
      <trkpt lat="48.51071" lon="-2.01874">
        <ele>125.14448</ele>
        <time>2019-09-11T14:18:26Z</time>
      </trkpt>
      <trkpt lat="48.51064" lon="-2.01875">
        <ele>125.08961</ele>
        <time>2019-09-11T14:18:27Z</time>
      </trkpt>
      <trkpt lat="48.51057" lon="-2.01875">
        <ele>125.10152</ele>
        <time>2019-09-11T14:18:28Z</time>
      </trkpt>
      <trkpt lat="48.51051" lon="-2.01875">
        <ele>124.741776</ele>
        <time>2019-09-11T14:18:29Z</time>
      </trkpt>
      <trkpt lat="48.51044" lon="-2.01876">
        <ele>124.90878</ele>
        <time>2019-09-11T14:18:30Z</time>
      </trkpt>
      <trkpt lat="48.51037" lon="-2.01878">
        <ele>125.17857</ele>
        <time>2019-09-11T14:18:31Z</time>
      </trkpt>
      <trkpt lat="48.5103" lon="-2.01879">
        <ele>125.20312</ele>
        <time>2019-09-11T14:18:32Z</time>
      </trkpt>
      <trkpt lat="48.51024" lon="-2.0188">
        <ele>125.31983</ele>
        <time>2019-09-11T14:18:33Z</time>
      </trkpt>
      <trkpt lat="48.51016" lon="-2.01882">
        <ele>125.43445</ele>
        <time>2019-09-11T14:18:34Z</time>
      </trkpt>
      <trkpt lat="48.5101" lon="-2.01883">
        <ele>125.49638</ele>
        <time>2019-09-11T14:18:35Z</time>
      </trkpt>
      <trkpt lat="48.51004" lon="-2.01885">
        <ele>125.42707</ele>
        <time>2019-09-11T14:18:36Z</time>
      </trkpt>
      <trkpt lat="48.50998" lon="-2.01886">
        <ele>125.41496</ele>
        <time>2019-09-11T14:18:37Z</time>
      </trkpt>
      <trkpt lat="48.50992" lon="-2.01887">
        <ele>125.37825</ele>
        <time>2019-09-11T14:18:38Z</time>
      </trkpt>
      <trkpt lat="48.50986" lon="-2.01888">
        <ele>125.34521</ele>
        <time>2019-09-11T14:18:39Z</time>
      </trkpt>
      <trkpt lat="48.5098" lon="-2.01889">
        <ele>125.34916</ele>
        <time>2019-09-11T14:18:40Z</time>
      </trkpt>
      <trkpt lat="48.50975" lon="-2.01889">
        <ele>125.42229</ele>
        <time>2019-09-11T14:18:41Z</time>
      </trkpt>
      <trkpt lat="48.50971" lon="-2.0189">
        <ele>125.37084</ele>
        <time>2019-09-11T14:18:42Z</time>
      </trkpt>
      <trkpt lat="48.50967" lon="-2.01889">
        <ele>125.25148</ele>
        <time>2019-09-11T14:18:43Z</time>
      </trkpt>
      <trkpt lat="48.50963" lon="-2.01887">
        <ele>125.09172</ele>
        <time>2019-09-11T14:18:44Z</time>
      </trkpt>
      <trkpt lat="48.5096" lon="-2.01884">
        <ele>124.89882</ele>
        <time>2019-09-11T14:18:45Z</time>
      </trkpt>
      <trkpt lat="48.50958" lon="-2.0188">
        <ele>124.36059</ele>
        <time>2019-09-11T14:18:46Z</time>
      </trkpt>
      <trkpt lat="48.50956" lon="-2.01877">
        <ele>124.061066</ele>
        <time>2019-09-11T14:18:47Z</time>
      </trkpt>
      <trkpt lat="48.50954" lon="-2.01873">
        <ele>123.894165</ele>
        <time>2019-09-11T14:18:48Z</time>
      </trkpt>
      <trkpt lat="48.50952" lon="-2.01868">
        <ele>123.55307</ele>
        <time>2019-09-11T14:18:49Z</time>
      </trkpt>
      <trkpt lat="48.5095" lon="-2.01863">
        <ele>123.11602</ele>
        <time>2019-09-11T14:18:50Z</time>
      </trkpt>
      <trkpt lat="48.50947" lon="-2.01859">
        <ele>122.659904</ele>
        <time>2019-09-11T14:18:51Z</time>
      </trkpt>
      <trkpt lat="48.50945" lon="-2.01855">
        <ele>122.22954</ele>
        <time>2019-09-11T14:18:52Z</time>
      </trkpt>
      <trkpt lat="48.50943" lon="-2.01851">
        <ele>122.09104</ele>
        <time>2019-09-11T14:18:53Z</time>
      </trkpt>
      <trkpt lat="48.5094" lon="-2.01845">
        <ele>122.02356</ele>
        <time>2019-09-11T14:18:54Z</time>
      </trkpt>
      <trkpt lat="48.50938" lon="-2.01838">
        <ele>122.05228</ele>
        <time>2019-09-11T14:18:55Z</time>
      </trkpt>
      <trkpt lat="48.50935" lon="-2.01831">
        <ele>121.79137</ele>
        <time>2019-09-11T14:18:56Z</time>
      </trkpt>
      <trkpt lat="48.50932" lon="-2.01824">
        <ele>121.63264</ele>
        <time>2019-09-11T14:18:57Z</time>
      </trkpt>
      <trkpt lat="48.5093" lon="-2.01816">
        <ele>121.526985</ele>
        <time>2019-09-11T14:18:58Z</time>
      </trkpt>
      <trkpt lat="48.50927" lon="-2.01808">
        <ele>121.57893</ele>
        <time>2019-09-11T14:18:59Z</time>
      </trkpt>
      <trkpt lat="48.50923" lon="-2.01799">
        <ele>121.43587</ele>
        <time>2019-09-11T14:19:00Z</time>
      </trkpt>
      <trkpt lat="48.50919" lon="-2.0179">
        <ele>121.32748</ele>
        <time>2019-09-11T14:19:01Z</time>
      </trkpt>
      <trkpt lat="48.50915" lon="-2.01781">
        <ele>121.29356</ele>
        <time>2019-09-11T14:19:02Z</time>
      </trkpt>
      <trkpt lat="48.50911" lon="-2.01773">
        <ele>121.304245</ele>
        <time>2019-09-11T14:19:03Z</time>
      </trkpt>
      <trkpt lat="48.50907" lon="-2.01763">
        <ele>121.15425</ele>
        <time>2019-09-11T14:19:04Z</time>
      </trkpt>
      <trkpt lat="48.50903" lon="-2.01757">
        <ele>121.122154</ele>
        <time>2019-09-11T14:19:05Z</time>
      </trkpt>
      <trkpt lat="48.50898" lon="-2.01749">
        <ele>121.13946</ele>
        <time>2019-09-11T14:19:06Z</time>
      </trkpt>
      <trkpt lat="48.50894" lon="-2.01741">
        <ele>121.296234</ele>
        <time>2019-09-11T14:19:07Z</time>
      </trkpt>
      <trkpt lat="48.50889" lon="-2.01732">
        <ele>121.27478</ele>
        <time>2019-09-11T14:19:08Z</time>
      </trkpt>
      <trkpt lat="48.50885" lon="-2.01724">
        <ele>121.20194</ele>
        <time>2019-09-11T14:19:09Z</time>
      </trkpt>
      <trkpt lat="48.5088" lon="-2.01715">
        <ele>121.313126</ele>
        <time>2019-09-11T14:19:10Z</time>
      </trkpt>
      <trkpt lat="48.50876" lon="-2.01707">
        <ele>121.303566</ele>
        <time>2019-09-11T14:19:11Z</time>
      </trkpt>
      <trkpt lat="48.50872" lon="-2.017">
        <ele>121.23913</ele>
        <time>2019-09-11T14:19:12Z</time>
      </trkpt>
      <trkpt lat="48.50867" lon="-2.01692">
        <ele>120.78619</ele>
        <time>2019-09-11T14:19:13Z</time>
      </trkpt>
      <trkpt lat="48.50861" lon="-2.01684">
        <ele>119.91384</ele>
        <time>2019-09-11T14:19:14Z</time>
      </trkpt>
      <trkpt lat="48.50855" lon="-2.01675">
        <ele>118.92629</ele>
        <time>2019-09-11T14:19:15Z</time>
      </trkpt>
      <trkpt lat="48.50849" lon="-2.01667">
        <ele>117.175644</ele>
        <time>2019-09-11T14:19:16Z</time>
      </trkpt>
      <trkpt lat="48.50842" lon="-2.01662">
        <ele>116.26595</ele>
        <time>2019-09-11T14:19:17Z</time>
      </trkpt>
      <trkpt lat="48.50835" lon="-2.01659">
        <ele>115.80656</ele>
        <time>2019-09-11T14:19:18Z</time>
      </trkpt>
      <trkpt lat="48.50827" lon="-2.01658">
        <ele>115.55996</ele>
        <time>2019-09-11T14:19:19Z</time>
      </trkpt>
      <trkpt lat="48.50819" lon="-2.01657">
        <ele>115.08838</ele>
        <time>2019-09-11T14:19:20Z</time>
      </trkpt>
      <trkpt lat="48.50812" lon="-2.01656">
        <ele>114.2697</ele>
        <time>2019-09-11T14:19:21Z</time>
      </trkpt>
      <trkpt lat="48.50804" lon="-2.01655">
        <ele>112.95819</ele>
        <time>2019-09-11T14:19:22Z</time>
      </trkpt>
      <trkpt lat="48.50796" lon="-2.01655">
        <ele>111.78786</ele>
        <time>2019-09-11T14:19:23Z</time>
      </trkpt>
      <trkpt lat="48.50788" lon="-2.01655">
        <ele>110.87574</ele>
        <time>2019-09-11T14:19:24Z</time>
      </trkpt>
      <trkpt lat="48.5078" lon="-2.01654">
        <ele>110.19442</ele>
        <time>2019-09-11T14:19:25Z</time>
      </trkpt>
      <trkpt lat="48.50772" lon="-2.01653">
        <ele>109.79858</ele>
        <time>2019-09-11T14:19:26Z</time>
      </trkpt>
      <trkpt lat="48.50763" lon="-2.01653">
        <ele>109.25999</ele>
        <time>2019-09-11T14:19:27Z</time>
      </trkpt>
      <trkpt lat="48.50755" lon="-2.01652">
        <ele>108.72361</ele>
        <time>2019-09-11T14:19:28Z</time>
      </trkpt>
      <trkpt lat="48.50746" lon="-2.01651">
        <ele>108.36401</ele>
        <time>2019-09-11T14:19:29Z</time>
      </trkpt>
      <trkpt lat="48.50738" lon="-2.01652">
        <ele>107.82354</ele>
        <time>2019-09-11T14:19:30Z</time>
      </trkpt>
      <trkpt lat="48.5073" lon="-2.01653">
        <ele>106.91663</ele>
        <time>2019-09-11T14:19:31Z</time>
      </trkpt>
      <trkpt lat="48.50721" lon="-2.01653">
        <ele>106.29592</ele>
        <time>2019-09-11T14:19:32Z</time>
      </trkpt>
      <trkpt lat="48.50713" lon="-2.01651">
        <ele>105.48543</ele>
        <time>2019-09-11T14:19:33Z</time>
      </trkpt>
      <trkpt lat="48.50705" lon="-2.0165">
        <ele>104.843834</ele>
        <time>2019-09-11T14:19:34Z</time>
      </trkpt>
      <trkpt lat="48.50697" lon="-2.01649">
        <ele>104.31791</ele>
        <time>2019-09-11T14:19:35Z</time>
      </trkpt>
      <trkpt lat="48.50688" lon="-2.01648">
        <ele>103.94067</ele>
        <time>2019-09-11T14:19:36Z</time>
      </trkpt>
      <trkpt lat="48.5068" lon="-2.01647">
        <ele>103.54074</ele>
        <time>2019-09-11T14:19:37Z</time>
      </trkpt>
      <trkpt lat="48.50671" lon="-2.01645">
        <ele>103.08021</ele>
        <time>2019-09-11T14:19:38Z</time>
      </trkpt>
      <trkpt lat="48.50663" lon="-2.01644">
        <ele>102.646904</ele>
        <time>2019-09-11T14:19:39Z</time>
      </trkpt>
      <trkpt lat="48.50654" lon="-2.01642">
        <ele>102.19915</ele>
        <time>2019-09-11T14:19:40Z</time>
      </trkpt>
      <trkpt lat="48.50645" lon="-2.01641">
        <ele>101.87047</ele>
        <time>2019-09-11T14:19:41Z</time>
      </trkpt>
      <trkpt lat="48.50637" lon="-2.01639">
        <ele>101.49476</ele>
        <time>2019-09-11T14:19:42Z</time>
      </trkpt>
      <trkpt lat="48.50628" lon="-2.01637">
        <ele>101.060196</ele>
        <time>2019-09-11T14:19:43Z</time>
      </trkpt>
      <trkpt lat="48.5062" lon="-2.01636">
        <ele>100.75272</ele>
        <time>2019-09-11T14:19:44Z</time>
      </trkpt>
      <trkpt lat="48.50611" lon="-2.01634">
        <ele>100.43703</ele>
        <time>2019-09-11T14:19:45Z</time>
      </trkpt>
      <trkpt lat="48.50603" lon="-2.01632">
        <ele>100.17477</ele>
        <time>2019-09-11T14:19:46Z</time>
      </trkpt>
      <trkpt lat="48.50594" lon="-2.01631">
        <ele>99.92082</ele>
        <time>2019-09-11T14:19:47Z</time>
      </trkpt>
      <trkpt lat="48.50586" lon="-2.01629">
        <ele>99.64176</ele>
        <time>2019-09-11T14:19:48Z</time>
      </trkpt>
      <trkpt lat="48.50578" lon="-2.01627">
        <ele>99.34465</ele>
        <time>2019-09-11T14:19:49Z</time>
      </trkpt>
      <trkpt lat="48.5057" lon="-2.01626">
        <ele>99.04516</ele>
        <time>2019-09-11T14:19:50Z</time>
      </trkpt>
      <trkpt lat="48.50562" lon="-2.01625">
        <ele>98.77163</ele>
        <time>2019-09-11T14:19:51Z</time>
      </trkpt>
      <trkpt lat="48.50555" lon="-2.01624">
        <ele>98.29259</ele>
        <time>2019-09-11T14:19:52Z</time>
      </trkpt>
      <trkpt lat="48.50547" lon="-2.01624">
        <ele>97.891014</ele>
        <time>2019-09-11T14:19:53Z</time>
      </trkpt>
      <trkpt lat="48.50539" lon="-2.01624">
        <ele>97.60064</ele>
        <time>2019-09-11T14:19:54Z</time>
      </trkpt>
      <trkpt lat="48.50533" lon="-2.01625">
        <ele>97.31878</ele>
        <time>2019-09-11T14:19:55Z</time>
      </trkpt>
      <trkpt lat="48.50526" lon="-2.01625">
        <ele>96.99096</ele>
        <time>2019-09-11T14:19:56Z</time>
      </trkpt>
      <trkpt lat="48.5052" lon="-2.01625">
        <ele>96.56178</ele>
        <time>2019-09-11T14:19:57Z</time>
      </trkpt>
      <trkpt lat="48.50514" lon="-2.01626">
        <ele>96.10884</ele>
        <time>2019-09-11T14:19:58Z</time>
      </trkpt>
      <trkpt lat="48.50507" lon="-2.01627">
        <ele>95.78811</ele>
        <time>2019-09-11T14:19:59Z</time>
      </trkpt>
      <trkpt lat="48.50502" lon="-2.01628">
        <ele>95.642555</ele>
        <time>2019-09-11T14:20:00Z</time>
      </trkpt>
      <trkpt lat="48.50498" lon="-2.01629">
        <ele>95.51921</ele>
        <time>2019-09-11T14:20:01Z</time>
      </trkpt>
      <trkpt lat="48.50495" lon="-2.01629">
        <ele>95.59557</ele>
        <time>2019-09-11T14:20:02Z</time>
      </trkpt>
      <trkpt lat="48.50491" lon="-2.01628">
        <ele>95.55238</ele>
        <time>2019-09-11T14:20:03Z</time>
      </trkpt>
      <trkpt lat="48.50489" lon="-2.01626">
        <ele>94.95053</ele>
        <time>2019-09-11T14:20:04Z</time>
      </trkpt>
      <trkpt lat="48.50486" lon="-2.01622">
        <ele>94.03283</ele>
        <time>2019-09-11T14:20:05Z</time>
      </trkpt>
      <trkpt lat="48.50483" lon="-2.01618">
        <ele>93.41237</ele>
        <time>2019-09-11T14:20:06Z</time>
      </trkpt>
      <trkpt lat="48.5048" lon="-2.01615">
        <ele>92.81589</ele>
        <time>2019-09-11T14:20:07Z</time>
      </trkpt>
      <trkpt lat="48.50476" lon="-2.01611">
        <ele>92.11714</ele>
        <time>2019-09-11T14:20:08Z</time>
      </trkpt>
      <trkpt lat="48.50471" lon="-2.01608">
        <ele>91.58603</ele>
        <time>2019-09-11T14:20:09Z</time>
      </trkpt>
      <trkpt lat="48.50466" lon="-2.01606">
        <ele>91.0514</ele>
        <time>2019-09-11T14:20:10Z</time>
      </trkpt>
      <trkpt lat="48.50462" lon="-2.01604">
        <ele>90.274895</ele>
        <time>2019-09-11T14:20:11Z</time>
      </trkpt>
      <trkpt lat="48.50457" lon="-2.01601">
        <ele>89.65656</ele>
        <time>2019-09-11T14:20:12Z</time>
      </trkpt>
      <trkpt lat="48.50453" lon="-2.01598">
        <ele>89.183556</ele>
        <time>2019-09-11T14:20:13Z</time>
      </trkpt>
      <trkpt lat="48.50449" lon="-2.01594">
        <ele>88.404335</ele>
        <time>2019-09-11T14:20:14Z</time>
      </trkpt>
      <trkpt lat="48.50444" lon="-2.01591">
        <ele>87.46992</ele>
        <time>2019-09-11T14:20:15Z</time>
      </trkpt>
      <trkpt lat="48.5044" lon="-2.01589">
        <ele>86.54152</ele>
        <time>2019-09-11T14:20:16Z</time>
      </trkpt>
      <trkpt lat="48.50435" lon="-2.01588">
        <ele>86.380394</ele>
        <time>2019-09-11T14:20:17Z</time>
      </trkpt>
      <trkpt lat="48.5043" lon="-2.01586">
        <ele>85.77307</ele>
        <time>2019-09-11T14:20:18Z</time>
      </trkpt>
      <trkpt lat="48.50423" lon="-2.01583">
        <ele>85.3905</ele>
        <time>2019-09-11T14:20:19Z</time>
      </trkpt>
      <trkpt lat="48.50417" lon="-2.0158">
        <ele>85.46902</ele>
        <time>2019-09-11T14:20:20Z</time>
      </trkpt>
      <trkpt lat="48.50412" lon="-2.01577">
        <ele>85.514534</ele>
        <time>2019-09-11T14:20:21Z</time>
      </trkpt>
      <trkpt lat="48.50406" lon="-2.01575">
        <ele>86.10539</ele>
        <time>2019-09-11T14:20:22Z</time>
      </trkpt>
      <trkpt lat="48.50401" lon="-2.01572">
        <ele>86.49688</ele>
        <time>2019-09-11T14:20:23Z</time>
      </trkpt>
      <trkpt lat="48.50395" lon="-2.01569">
        <ele>86.61783</ele>
        <time>2019-09-11T14:20:24Z</time>
      </trkpt>
      <trkpt lat="48.5039" lon="-2.01568">
        <ele>87.84552</ele>
        <time>2019-09-11T14:20:25Z</time>
      </trkpt>
      <trkpt lat="48.50384" lon="-2.01567">
        <ele>88.257065</ele>
        <time>2019-09-11T14:20:26Z</time>
      </trkpt>
      <trkpt lat="48.50377" lon="-2.01565">
        <ele>88.30647</ele>
        <time>2019-09-11T14:20:27Z</time>
      </trkpt>
      <trkpt lat="48.50371" lon="-2.01564">
        <ele>88.34244</ele>
        <time>2019-09-11T14:20:28Z</time>
      </trkpt>
      <trkpt lat="48.50365" lon="-2.01563">
        <ele>88.23969</ele>
        <time>2019-09-11T14:20:29Z</time>
      </trkpt>
      <trkpt lat="48.50359" lon="-2.01561">
        <ele>88.413155</ele>
        <time>2019-09-11T14:20:30Z</time>
      </trkpt>
      <trkpt lat="48.50353" lon="-2.0156">
        <ele>88.36894</ele>
        <time>2019-09-11T14:20:31Z</time>
      </trkpt>
      <trkpt lat="48.50348" lon="-2.01559">
        <ele>88.58176</ele>
        <time>2019-09-11T14:20:32Z</time>
      </trkpt>
      <trkpt lat="48.50342" lon="-2.01558">
        <ele>88.906906</ele>
        <time>2019-09-11T14:20:33Z</time>
      </trkpt>
      <trkpt lat="48.50336" lon="-2.01558">
        <ele>88.74256</ele>
        <time>2019-09-11T14:20:34Z</time>
      </trkpt>
      <trkpt lat="48.50331" lon="-2.01557">
        <ele>88.6302</ele>
        <time>2019-09-11T14:20:35Z</time>
      </trkpt>
      <trkpt lat="48.50326" lon="-2.01557">
        <ele>88.392715</ele>
        <time>2019-09-11T14:20:36Z</time>
      </trkpt>
      <trkpt lat="48.50323" lon="-2.01557">
        <ele>88.115204</ele>
        <time>2019-09-11T14:20:37Z</time>
      </trkpt>
      <trkpt lat="48.50322" lon="-2.01557">
        <ele>87.92152</ele>
        <time>2019-09-11T14:20:38Z</time>
      </trkpt>
      <trkpt lat="48.50322" lon="-2.01558">
        <ele>87.89964</ele>
        <time>2019-09-11T14:20:39Z</time>
      </trkpt>
      <trkpt lat="48.50322" lon="-2.01556">
        <ele>88.64553</ele>
        <time>2019-09-11T14:20:46Z</time>
      </trkpt>
      <trkpt lat="48.50322" lon="-2.01556">
        <ele>88.2392</ele>
        <time>2019-09-11T14:25:08Z</time>
      </trkpt>
      <trkpt lat="48.50321" lon="-2.01556">
        <ele>88.30551</ele>
        <time>2019-09-11T14:25:09Z</time>
      </trkpt>
      <trkpt lat="48.5032" lon="-2.01556">
        <ele>88.17158</ele>
        <time>2019-09-11T14:25:10Z</time>
      </trkpt>
      <trkpt lat="48.50319" lon="-2.01556">
        <ele>87.831245</ele>
        <time>2019-09-11T14:25:11Z</time>
      </trkpt>
      <trkpt lat="48.50317" lon="-2.01556">
        <ele>87.55959</ele>
        <time>2019-09-11T14:25:12Z</time>
      </trkpt>
      <trkpt lat="48.50314" lon="-2.01557">
        <ele>87.23247</ele>
        <time>2019-09-11T14:25:13Z</time>
      </trkpt>
      <trkpt lat="48.50311" lon="-2.01557">
        <ele>86.8691</ele>
        <time>2019-09-11T14:25:14Z</time>
      </trkpt>
      <trkpt lat="48.50308" lon="-2.01557">
        <ele>86.42602</ele>
        <time>2019-09-11T14:25:15Z</time>
      </trkpt>
      <trkpt lat="48.50304" lon="-2.01557">
        <ele>86.36619</ele>
        <time>2019-09-11T14:25:16Z</time>
      </trkpt>
      <trkpt lat="48.503" lon="-2.01556">
        <ele>86.0994</ele>
        <time>2019-09-11T14:25:17Z</time>
      </trkpt>
      <trkpt lat="48.50295" lon="-2.01555">
        <ele>85.77475</ele>
        <time>2019-09-11T14:25:18Z</time>
      </trkpt>
      <trkpt lat="48.5029" lon="-2.01555">
        <ele>85.57464</ele>
        <time>2019-09-11T14:25:19Z</time>
      </trkpt>
      <trkpt lat="48.50285" lon="-2.01555">
        <ele>85.16971</ele>
        <time>2019-09-11T14:25:20Z</time>
      </trkpt>
      <trkpt lat="48.5028" lon="-2.01555">
        <ele>84.82373</ele>
        <time>2019-09-11T14:25:21Z</time>
      </trkpt>
      <trkpt lat="48.50275" lon="-2.01555">
        <ele>84.766426</ele>
        <time>2019-09-11T14:25:22Z</time>
      </trkpt>
      <trkpt lat="48.50271" lon="-2.01555">
        <ele>84.4586</ele>
        <time>2019-09-11T14:25:23Z</time>
      </trkpt>
      <trkpt lat="48.50267" lon="-2.01555">
        <ele>84.22338</ele>
        <time>2019-09-11T14:25:24Z</time>
      </trkpt>
      <trkpt lat="48.50262" lon="-2.01554">
        <ele>84.04976</ele>
        <time>2019-09-11T14:25:25Z</time>
      </trkpt>
      <trkpt lat="48.50258" lon="-2.01554">
        <ele>84.1202</ele>
        <time>2019-09-11T14:25:26Z</time>
      </trkpt>
      <trkpt lat="48.50254" lon="-2.01554">
        <ele>83.84415</ele>
        <time>2019-09-11T14:25:27Z</time>
      </trkpt>
      <trkpt lat="48.50251" lon="-2.01554">
        <ele>83.590836</ele>
        <time>2019-09-11T14:25:28Z</time>
      </trkpt>
      <trkpt lat="48.50248" lon="-2.01553">
        <ele>83.413086</ele>
        <time>2019-09-11T14:25:29Z</time>
      </trkpt>
      <trkpt lat="48.50244" lon="-2.01553">
        <ele>83.38263</ele>
        <time>2019-09-11T14:25:30Z</time>
      </trkpt>
      <trkpt lat="48.5024" lon="-2.01553">
        <ele>83.03152</ele>
        <time>2019-09-11T14:25:31Z</time>
      </trkpt>
      <trkpt lat="48.50235" lon="-2.01553">
        <ele>82.70355</ele>
        <time>2019-09-11T14:25:32Z</time>
      </trkpt>
      <trkpt lat="48.50232" lon="-2.01554">
        <ele>81.96252</ele>
        <time>2019-09-11T14:25:33Z</time>
      </trkpt>
      <trkpt lat="48.50228" lon="-2.01555">
        <ele>81.92471</ele>
        <time>2019-09-11T14:25:34Z</time>
      </trkpt>
      <trkpt lat="48.50225" lon="-2.01557">
        <ele>81.76029</ele>
        <time>2019-09-11T14:25:35Z</time>
      </trkpt>
      <trkpt lat="48.50223" lon="-2.01559">
        <ele>82.05172</ele>
        <time>2019-09-11T14:25:36Z</time>
      </trkpt>
      <trkpt lat="48.50221" lon="-2.01562">
        <ele>82.06189</ele>
        <time>2019-09-11T14:25:37Z</time>
      </trkpt>
      <trkpt lat="48.5022" lon="-2.01566">
        <ele>81.98825</ele>
        <time>2019-09-11T14:25:38Z</time>
      </trkpt>
      <trkpt lat="48.5022" lon="-2.0157">
        <ele>81.835464</ele>
        <time>2019-09-11T14:25:39Z</time>
      </trkpt>
      <trkpt lat="48.50219" lon="-2.01575">
        <ele>81.54976</ele>
        <time>2019-09-11T14:25:40Z</time>
      </trkpt>
      <trkpt lat="48.50219" lon="-2.01579">
        <ele>81.28143</ele>
        <time>2019-09-11T14:25:41Z</time>
      </trkpt>
      <trkpt lat="48.50217" lon="-2.01583">
        <ele>81.04925</ele>
        <time>2019-09-11T14:25:42Z</time>
      </trkpt>
      <trkpt lat="48.50216" lon="-2.01586">
        <ele>80.61411</ele>
        <time>2019-09-11T14:25:43Z</time>
      </trkpt>
      <trkpt lat="48.50213" lon="-2.01587">
        <ele>81.090034</ele>
        <time>2019-09-11T14:25:44Z</time>
      </trkpt>
      <trkpt lat="48.5021" lon="-2.01587">
        <ele>80.9075</ele>
        <time>2019-09-11T14:25:45Z</time>
      </trkpt>
      <trkpt lat="48.50208" lon="-2.01586">
        <ele>80.72739</ele>
        <time>2019-09-11T14:25:46Z</time>
      </trkpt>
      <trkpt lat="48.50206" lon="-2.01584">
        <ele>80.60211</ele>
        <time>2019-09-11T14:25:47Z</time>
      </trkpt>
      <trkpt lat="48.50205" lon="-2.01581">
        <ele>80.69101</ele>
        <time>2019-09-11T14:25:48Z</time>
      </trkpt>
      <trkpt lat="48.50204" lon="-2.01578">
        <ele>81.021324</ele>
        <time>2019-09-11T14:25:49Z</time>
      </trkpt>
      <trkpt lat="48.50204" lon="-2.01574">
        <ele>81.17587</ele>
        <time>2019-09-11T14:25:50Z</time>
      </trkpt>
      <trkpt lat="48.50203" lon="-2.01571">
        <ele>81.53486</ele>
        <time>2019-09-11T14:25:51Z</time>
      </trkpt>
      <trkpt lat="48.50203" lon="-2.01567">
        <ele>81.89286</ele>
        <time>2019-09-11T14:25:52Z</time>
      </trkpt>
      <trkpt lat="48.50202" lon="-2.01563">
        <ele>82.81874</ele>
        <time>2019-09-11T14:25:53Z</time>
      </trkpt>
      <trkpt lat="48.50201" lon="-2.01558">
        <ele>84.0048</ele>
        <time>2019-09-11T14:25:54Z</time>
      </trkpt>
      <trkpt lat="48.50201" lon="-2.01553">
        <ele>84.788506</ele>
        <time>2019-09-11T14:25:55Z</time>
      </trkpt>
      <trkpt lat="48.50201" lon="-2.01548">
        <ele>85.240486</ele>
        <time>2019-09-11T14:25:56Z</time>
      </trkpt>
      <trkpt lat="48.50201" lon="-2.01543">
        <ele>85.805916</ele>
        <time>2019-09-11T14:25:57Z</time>
      </trkpt>
      <trkpt lat="48.50201" lon="-2.01537">
        <ele>86.43408</ele>
        <time>2019-09-11T14:25:58Z</time>
      </trkpt>
      <trkpt lat="48.50201" lon="-2.01532">
        <ele>87.40255</ele>
        <time>2019-09-11T14:25:59Z</time>
      </trkpt>
      <trkpt lat="48.50201" lon="-2.01527">
        <ele>88.0806</ele>
        <time>2019-09-11T14:26:00Z</time>
      </trkpt>
      <trkpt lat="48.50201" lon="-2.01522">
        <ele>88.29232</ele>
        <time>2019-09-11T14:26:01Z</time>
      </trkpt>
      <trkpt lat="48.50201" lon="-2.01517">
        <ele>88.021355</ele>
        <time>2019-09-11T14:26:02Z</time>
      </trkpt>
      <trkpt lat="48.50201" lon="-2.01511">
        <ele>88.02003</ele>
        <time>2019-09-11T14:26:03Z</time>
      </trkpt>
      <trkpt lat="48.50201" lon="-2.01506">
        <ele>87.765465</ele>
        <time>2019-09-11T14:26:04Z</time>
      </trkpt>
      <trkpt lat="48.50201" lon="-2.01501">
        <ele>87.694954</ele>
        <time>2019-09-11T14:26:05Z</time>
      </trkpt>
      <trkpt lat="48.50201" lon="-2.01496">
        <ele>87.523186</ele>
        <time>2019-09-11T14:26:06Z</time>
      </trkpt>
      <trkpt lat="48.50201" lon="-2.0149">
        <ele>87.67683</ele>
        <time>2019-09-11T14:26:07Z</time>
      </trkpt>
      <trkpt lat="48.50201" lon="-2.01484">
        <ele>87.628395</ele>
        <time>2019-09-11T14:26:08Z</time>
      </trkpt>
      <trkpt lat="48.50201" lon="-2.01479">
        <ele>87.56916</ele>
        <time>2019-09-11T14:26:09Z</time>
      </trkpt>
      <trkpt lat="48.50201" lon="-2.01473">
        <ele>87.56096</ele>
        <time>2019-09-11T14:26:10Z</time>
      </trkpt>
      <trkpt lat="48.50201" lon="-2.01467">
        <ele>87.56044</ele>
        <time>2019-09-11T14:26:11Z</time>
      </trkpt>
      <trkpt lat="48.50201" lon="-2.01462">
        <ele>87.616005</ele>
        <time>2019-09-11T14:26:12Z</time>
      </trkpt>
      <trkpt lat="48.50201" lon="-2.01456">
        <ele>87.667725</ele>
        <time>2019-09-11T14:26:13Z</time>
      </trkpt>
      <trkpt lat="48.50201" lon="-2.0145">
        <ele>87.918755</ele>
        <time>2019-09-11T14:26:14Z</time>
      </trkpt>
      <trkpt lat="48.50201" lon="-2.01445">
        <ele>88.07098</ele>
        <time>2019-09-11T14:26:15Z</time>
      </trkpt>
      <trkpt lat="48.50201" lon="-2.01439">
        <ele>88.35693</ele>
        <time>2019-09-11T14:26:16Z</time>
      </trkpt>
      <trkpt lat="48.502" lon="-2.01434">
        <ele>88.63729</ele>
        <time>2019-09-11T14:26:17Z</time>
      </trkpt>
      <trkpt lat="48.502" lon="-2.01428">
        <ele>88.708786</ele>
        <time>2019-09-11T14:26:18Z</time>
      </trkpt>
      <trkpt lat="48.502" lon="-2.01422">
        <ele>88.796326</ele>
        <time>2019-09-11T14:26:19Z</time>
      </trkpt>
      <trkpt lat="48.502" lon="-2.01416">
        <ele>89.01433</ele>
        <time>2019-09-11T14:26:20Z</time>
      </trkpt>
      <trkpt lat="48.502" lon="-2.0141">
        <ele>89.06795</ele>
        <time>2019-09-11T14:26:21Z</time>
      </trkpt>
      <trkpt lat="48.50201" lon="-2.01404">
        <ele>89.08501</ele>
        <time>2019-09-11T14:26:22Z</time>
      </trkpt>
      <trkpt lat="48.50201" lon="-2.01397">
        <ele>89.299835</ele>
        <time>2019-09-11T14:26:23Z</time>
      </trkpt>
      <trkpt lat="48.50201" lon="-2.01391">
        <ele>89.39621</ele>
        <time>2019-09-11T14:26:24Z</time>
      </trkpt>
      <trkpt lat="48.50201" lon="-2.01385">
        <ele>89.612816</ele>
        <time>2019-09-11T14:26:25Z</time>
      </trkpt>
      <trkpt lat="48.50201" lon="-2.01379">
        <ele>89.38457</ele>
        <time>2019-09-11T14:26:26Z</time>
      </trkpt>
      <trkpt lat="48.50201" lon="-2.01373">
        <ele>89.57182</ele>
        <time>2019-09-11T14:26:27Z</time>
      </trkpt>
      <trkpt lat="48.50201" lon="-2.01367">
        <ele>89.74046</ele>
        <time>2019-09-11T14:26:28Z</time>
      </trkpt>
      <trkpt lat="48.50201" lon="-2.01361">
        <ele>89.849236</ele>
        <time>2019-09-11T14:26:29Z</time>
      </trkpt>
      <trkpt lat="48.50201" lon="-2.01355">
        <ele>90.06099</ele>
        <time>2019-09-11T14:26:30Z</time>
      </trkpt>
      <trkpt lat="48.50201" lon="-2.01348">
        <ele>90.2044</ele>
        <time>2019-09-11T14:26:31Z</time>
      </trkpt>
      <trkpt lat="48.50201" lon="-2.01342">
        <ele>90.41788</ele>
        <time>2019-09-11T14:26:32Z</time>
      </trkpt>
      <trkpt lat="48.50201" lon="-2.01336">
        <ele>90.331894</ele>
        <time>2019-09-11T14:26:33Z</time>
      </trkpt>
      <trkpt lat="48.502" lon="-2.0133">
        <ele>90.13096</ele>
        <time>2019-09-11T14:26:34Z</time>
      </trkpt>
      <trkpt lat="48.502" lon="-2.01324">
        <ele>90.35877</ele>
        <time>2019-09-11T14:26:35Z</time>
      </trkpt>
      <trkpt lat="48.502" lon="-2.01318">
        <ele>90.29727</ele>
        <time>2019-09-11T14:26:36Z</time>
      </trkpt>
      <trkpt lat="48.502" lon="-2.01312">
        <ele>90.358795</ele>
        <time>2019-09-11T14:26:37Z</time>
      </trkpt>
      <trkpt lat="48.502" lon="-2.01306">
        <ele>90.60268</ele>
        <time>2019-09-11T14:26:38Z</time>
      </trkpt>
      <trkpt lat="48.502" lon="-2.01299">
        <ele>90.983154</ele>
        <time>2019-09-11T14:26:39Z</time>
      </trkpt>
      <trkpt lat="48.50199" lon="-2.01293">
        <ele>91.16965</ele>
        <time>2019-09-11T14:26:40Z</time>
      </trkpt>
      <trkpt lat="48.50199" lon="-2.01287">
        <ele>91.19627</ele>
        <time>2019-09-11T14:26:41Z</time>
      </trkpt>
      <trkpt lat="48.50199" lon="-2.01281">
        <ele>91.06391</ele>
        <time>2019-09-11T14:26:42Z</time>
      </trkpt>
      <trkpt lat="48.50199" lon="-2.01277">
        <ele>90.80308</ele>
        <time>2019-09-11T14:26:43Z</time>
      </trkpt>
      <trkpt lat="48.50199" lon="-2.01272">
        <ele>90.558655</ele>
        <time>2019-09-11T14:26:44Z</time>
      </trkpt>
      <trkpt lat="48.50199" lon="-2.01267">
        <ele>90.24553</ele>
        <time>2019-09-11T14:26:45Z</time>
      </trkpt>
      <trkpt lat="48.50199" lon="-2.01262">
        <ele>89.9004</ele>
        <time>2019-09-11T14:26:46Z</time>
      </trkpt>
      <trkpt lat="48.50199" lon="-2.01256">
        <ele>89.76583</ele>
        <time>2019-09-11T14:26:47Z</time>
      </trkpt>
      <trkpt lat="48.50199" lon="-2.0125">
        <ele>89.680756</ele>
        <time>2019-09-11T14:26:48Z</time>
      </trkpt>
      <trkpt lat="48.50199" lon="-2.01244">
        <ele>89.54161</ele>
        <time>2019-09-11T14:26:49Z</time>
      </trkpt>
      <trkpt lat="48.50199" lon="-2.01239">
        <ele>89.42215</ele>
        <time>2019-09-11T14:26:50Z</time>
      </trkpt>
      <trkpt lat="48.50199" lon="-2.01233">
        <ele>89.50599</ele>
        <time>2019-09-11T14:26:51Z</time>
      </trkpt>
      <trkpt lat="48.50199" lon="-2.01226">
        <ele>89.244415</ele>
        <time>2019-09-11T14:26:52Z</time>
      </trkpt>
      <trkpt lat="48.50198" lon="-2.0122">
        <ele>89.083626</ele>
        <time>2019-09-11T14:26:53Z</time>
      </trkpt>
      <trkpt lat="48.50199" lon="-2.01214">
        <ele>88.94773</ele>
        <time>2019-09-11T14:26:54Z</time>
      </trkpt>
      <trkpt lat="48.50199" lon="-2.01208">
        <ele>88.80309</ele>
        <time>2019-09-11T14:26:55Z</time>
      </trkpt>
      <trkpt lat="48.50199" lon="-2.01202">
        <ele>88.78024</ele>
        <time>2019-09-11T14:26:56Z</time>
      </trkpt>
      <trkpt lat="48.50199" lon="-2.01196">
        <ele>88.72496</ele>
        <time>2019-09-11T14:26:57Z</time>
      </trkpt>
      <trkpt lat="48.50199" lon="-2.0119">
        <ele>88.49113</ele>
        <time>2019-09-11T14:26:58Z</time>
      </trkpt>
      <trkpt lat="48.50198" lon="-2.01184">
        <ele>88.0325</ele>
        <time>2019-09-11T14:26:59Z</time>
      </trkpt>
      <trkpt lat="48.50198" lon="-2.01178">
        <ele>87.63462</ele>
        <time>2019-09-11T14:27:00Z</time>
      </trkpt>
      <trkpt lat="48.50198" lon="-2.01172">
        <ele>87.2525</ele>
        <time>2019-09-11T14:27:01Z</time>
      </trkpt>
      <trkpt lat="48.50197" lon="-2.01166">
        <ele>86.84518</ele>
        <time>2019-09-11T14:27:02Z</time>
      </trkpt>
      <trkpt lat="48.50197" lon="-2.0116">
        <ele>86.819115</ele>
        <time>2019-09-11T14:27:03Z</time>
      </trkpt>
      <trkpt lat="48.50198" lon="-2.01153">
        <ele>86.92968</ele>
        <time>2019-09-11T14:27:04Z</time>
      </trkpt>
      <trkpt lat="48.50198" lon="-2.01147">
        <ele>86.91047</ele>
        <time>2019-09-11T14:27:05Z</time>
      </trkpt>
      <trkpt lat="48.50197" lon="-2.01141">
        <ele>87.09286</ele>
        <time>2019-09-11T14:27:06Z</time>
      </trkpt>
      <trkpt lat="48.50197" lon="-2.01135">
        <ele>87.12472</ele>
        <time>2019-09-11T14:27:07Z</time>
      </trkpt>
      <trkpt lat="48.50198" lon="-2.01129">
        <ele>86.93452</ele>
        <time>2019-09-11T14:27:08Z</time>
      </trkpt>
      <trkpt lat="48.50198" lon="-2.01124">
        <ele>86.86284</ele>
        <time>2019-09-11T14:27:09Z</time>
      </trkpt>
      <trkpt lat="48.50197" lon="-2.01117">
        <ele>87.05216</ele>
        <time>2019-09-11T14:27:10Z</time>
      </trkpt>
      <trkpt lat="48.50197" lon="-2.01111">
        <ele>87.367355</ele>
        <time>2019-09-11T14:27:11Z</time>
      </trkpt>
      <trkpt lat="48.50197" lon="-2.01104">
        <ele>87.23114</ele>
        <time>2019-09-11T14:27:12Z</time>
      </trkpt>
      <trkpt lat="48.50196" lon="-2.01097">
        <ele>87.12477</ele>
        <time>2019-09-11T14:27:13Z</time>
      </trkpt>
      <trkpt lat="48.50196" lon="-2.0109">
        <ele>86.897644</ele>
        <time>2019-09-11T14:27:14Z</time>
      </trkpt>
      <trkpt lat="48.50196" lon="-2.01083">
        <ele>86.73861</ele>
        <time>2019-09-11T14:27:15Z</time>
      </trkpt>
      <trkpt lat="48.50196" lon="-2.01076">
        <ele>86.65356</ele>
        <time>2019-09-11T14:27:16Z</time>
      </trkpt>
      <trkpt lat="48.50196" lon="-2.01068">
        <ele>86.53399</ele>
        <time>2019-09-11T14:27:17Z</time>
      </trkpt>
      <trkpt lat="48.50195" lon="-2.01061">
        <ele>86.220505</ele>
        <time>2019-09-11T14:27:18Z</time>
      </trkpt>
      <trkpt lat="48.50195" lon="-2.01054">
        <ele>86.25178</ele>
        <time>2019-09-11T14:27:19Z</time>
      </trkpt>
      <trkpt lat="48.50195" lon="-2.01046">
        <ele>86.26175</ele>
        <time>2019-09-11T14:27:20Z</time>
      </trkpt>
      <trkpt lat="48.50195" lon="-2.01039">
        <ele>86.43374</ele>
        <time>2019-09-11T14:27:21Z</time>
      </trkpt>
      <trkpt lat="48.50195" lon="-2.01031">
        <ele>86.52396</ele>
        <time>2019-09-11T14:27:22Z</time>
      </trkpt>
      <trkpt lat="48.50195" lon="-2.01024">
        <ele>86.2748</ele>
        <time>2019-09-11T14:27:23Z</time>
      </trkpt>
      <trkpt lat="48.50195" lon="-2.01016">
        <ele>85.78065</ele>
        <time>2019-09-11T14:27:24Z</time>
      </trkpt>
      <trkpt lat="48.50195" lon="-2.01007">
        <ele>85.66555</ele>
        <time>2019-09-11T14:27:25Z</time>
      </trkpt>
      <trkpt lat="48.50195" lon="-2.00999">
        <ele>85.6251</ele>
        <time>2019-09-11T14:27:26Z</time>
      </trkpt>
      <trkpt lat="48.50195" lon="-2.00991">
        <ele>85.51223</ele>
        <time>2019-09-11T14:27:27Z</time>
      </trkpt>
      <trkpt lat="48.50195" lon="-2.00982">
        <ele>85.52404</ele>
        <time>2019-09-11T14:27:28Z</time>
      </trkpt>
      <trkpt lat="48.50196" lon="-2.00974">
        <ele>85.3749</ele>
        <time>2019-09-11T14:27:29Z</time>
      </trkpt>
      <trkpt lat="48.50196" lon="-2.00966">
        <ele>85.46637</ele>
        <time>2019-09-11T14:27:30Z</time>
      </trkpt>
      <trkpt lat="48.50196" lon="-2.00959">
        <ele>85.165665</ele>
        <time>2019-09-11T14:27:31Z</time>
      </trkpt>
      <trkpt lat="48.50196" lon="-2.00951">
        <ele>84.86177</ele>
        <time>2019-09-11T14:27:32Z</time>
      </trkpt>
      <trkpt lat="48.50196" lon="-2.00943">
        <ele>84.682365</ele>
        <time>2019-09-11T14:27:33Z</time>
      </trkpt>
      <trkpt lat="48.50196" lon="-2.00935">
        <ele>84.39374</ele>
        <time>2019-09-11T14:27:34Z</time>
      </trkpt>
      <trkpt lat="48.50195" lon="-2.00926">
        <ele>84.10813</ele>
        <time>2019-09-11T14:27:35Z</time>
      </trkpt>
      <trkpt lat="48.50195" lon="-2.00917">
        <ele>83.81377</ele>
        <time>2019-09-11T14:27:36Z</time>
      </trkpt>
      <trkpt lat="48.50194" lon="-2.00908">
        <ele>83.51724</ele>
        <time>2019-09-11T14:27:37Z</time>
      </trkpt>
      <trkpt lat="48.50193" lon="-2.00899">
        <ele>83.377686</ele>
        <time>2019-09-11T14:27:38Z</time>
      </trkpt>
      <trkpt lat="48.50191" lon="-2.0089">
        <ele>83.26916</ele>
        <time>2019-09-11T14:27:39Z</time>
      </trkpt>
      <trkpt lat="48.50188" lon="-2.00881">
        <ele>83.074875</ele>
        <time>2019-09-11T14:27:40Z</time>
      </trkpt>
      <trkpt lat="48.50184" lon="-2.00873">
        <ele>82.82611</ele>
        <time>2019-09-11T14:27:41Z</time>
      </trkpt>
      <trkpt lat="48.5018" lon="-2.00865">
        <ele>82.62823</ele>
        <time>2019-09-11T14:27:42Z</time>
      </trkpt>
      <trkpt lat="48.50177" lon="-2.00858">
        <ele>82.5743</ele>
        <time>2019-09-11T14:27:43Z</time>
      </trkpt>
      <trkpt lat="48.50172" lon="-2.00852">
        <ele>82.4293</ele>
        <time>2019-09-11T14:27:44Z</time>
      </trkpt>
      <trkpt lat="48.50168" lon="-2.00846">
        <ele>82.238785</ele>
        <time>2019-09-11T14:27:45Z</time>
      </trkpt>
      <trkpt lat="48.50163" lon="-2.00839">
        <ele>82.06728</ele>
        <time>2019-09-11T14:27:46Z</time>
      </trkpt>
      <trkpt lat="48.50159" lon="-2.00832">
        <ele>81.931305</ele>
        <time>2019-09-11T14:27:47Z</time>
      </trkpt>
      <trkpt lat="48.50156" lon="-2.00825">
        <ele>81.781395</ele>
        <time>2019-09-11T14:27:48Z</time>
      </trkpt>
      <trkpt lat="48.50152" lon="-2.00818">
        <ele>81.60175</ele>
        <time>2019-09-11T14:27:49Z</time>
      </trkpt>
      <trkpt lat="48.50149" lon="-2.00811">
        <ele>81.448326</ele>
        <time>2019-09-11T14:27:50Z</time>
      </trkpt>
      <trkpt lat="48.50145" lon="-2.00804">
        <ele>81.241394</ele>
        <time>2019-09-11T14:27:51Z</time>
      </trkpt>
      <trkpt lat="48.50142" lon="-2.00797">
        <ele>80.94155</ele>
        <time>2019-09-11T14:27:52Z</time>
      </trkpt>
      <trkpt lat="48.50138" lon="-2.00789">
        <ele>80.691574</ele>
        <time>2019-09-11T14:27:53Z</time>
      </trkpt>
      <trkpt lat="48.50134" lon="-2.0078">
        <ele>80.36617</ele>
        <time>2019-09-11T14:27:54Z</time>
      </trkpt>
      <trkpt lat="48.5013" lon="-2.00771">
        <ele>80.188065</ele>
        <time>2019-09-11T14:27:55Z</time>
      </trkpt>
      <trkpt lat="48.50126" lon="-2.00763">
        <ele>79.96219</ele>
        <time>2019-09-11T14:27:56Z</time>
      </trkpt>
      <trkpt lat="48.50123" lon="-2.00755">
        <ele>79.69606</ele>
        <time>2019-09-11T14:27:57Z</time>
      </trkpt>
      <trkpt lat="48.50119" lon="-2.00748">
        <ele>79.38598</ele>
        <time>2019-09-11T14:27:58Z</time>
      </trkpt>
      <trkpt lat="48.50115" lon="-2.0074">
        <ele>79.08374</ele>
        <time>2019-09-11T14:27:59Z</time>
      </trkpt>
      <trkpt lat="48.50111" lon="-2.00732">
        <ele>78.68558</ele>
        <time>2019-09-11T14:28:00Z</time>
      </trkpt>
      <trkpt lat="48.50108" lon="-2.00724">
        <ele>78.09351</ele>
        <time>2019-09-11T14:28:01Z</time>
      </trkpt>
      <trkpt lat="48.50103" lon="-2.00716">
        <ele>77.42693</ele>
        <time>2019-09-11T14:28:02Z</time>
      </trkpt>
      <trkpt lat="48.50099" lon="-2.00709">
        <ele>76.71437</ele>
        <time>2019-09-11T14:28:03Z</time>
      </trkpt>
      <trkpt lat="48.50094" lon="-2.00702">
        <ele>76.083244</ele>
        <time>2019-09-11T14:28:04Z</time>
      </trkpt>
      <trkpt lat="48.50089" lon="-2.00696">
        <ele>74.86982</ele>
        <time>2019-09-11T14:28:05Z</time>
      </trkpt>
      <trkpt lat="48.50083" lon="-2.00691">
        <ele>74.0668</ele>
        <time>2019-09-11T14:28:06Z</time>
      </trkpt>
      <trkpt lat="48.50079" lon="-2.00689">
        <ele>73.08187</ele>
        <time>2019-09-11T14:28:07Z</time>
      </trkpt>
      <trkpt lat="48.50075" lon="-2.00686">
        <ele>72.365295</ele>
        <time>2019-09-11T14:28:08Z</time>
      </trkpt>
      <trkpt lat="48.50071" lon="-2.00682">
        <ele>71.5163</ele>
        <time>2019-09-11T14:28:09Z</time>
      </trkpt>
      <trkpt lat="48.50066" lon="-2.00679">
        <ele>70.79642</ele>
        <time>2019-09-11T14:28:10Z</time>
      </trkpt>
      <trkpt lat="48.50064" lon="-2.00675">
        <ele>70.343056</ele>
        <time>2019-09-11T14:28:11Z</time>
      </trkpt>
      <trkpt lat="48.50061" lon="-2.00669">
        <ele>69.95151</ele>
        <time>2019-09-11T14:28:12Z</time>
      </trkpt>
      <trkpt lat="48.5006" lon="-2.00664">
        <ele>69.864204</ele>
        <time>2019-09-11T14:28:13Z</time>
      </trkpt>
      <trkpt lat="48.50061" lon="-2.00659">
        <ele>69.80088</ele>
        <time>2019-09-11T14:28:14Z</time>
      </trkpt>
      <trkpt lat="48.50062" lon="-2.00654">
        <ele>69.67443</ele>
        <time>2019-09-11T14:28:15Z</time>
      </trkpt>
      <trkpt lat="48.50063" lon="-2.00651">
        <ele>69.64691</ele>
        <time>2019-09-11T14:28:16Z</time>
      </trkpt>
      <trkpt lat="48.50065" lon="-2.00648">
        <ele>69.48636</ele>
        <time>2019-09-11T14:28:17Z</time>
      </trkpt>
      <trkpt lat="48.50066" lon="-2.00644">
        <ele>70.2494</ele>
        <time>2019-09-11T14:28:18Z</time>
      </trkpt>
      <trkpt lat="48.50067" lon="-2.00641">
        <ele>70.1431</ele>
        <time>2019-09-11T14:28:19Z</time>
      </trkpt>
      <trkpt lat="48.50067" lon="-2.00638">
        <ele>69.94336</ele>
        <time>2019-09-11T14:28:20Z</time>
      </trkpt>
      <trkpt lat="48.50065" lon="-2.00635">
        <ele>69.62994</ele>
        <time>2019-09-11T14:28:21Z</time>
      </trkpt>
      <trkpt lat="48.50062" lon="-2.00632">
        <ele>69.815506</ele>
        <time>2019-09-11T14:28:22Z</time>
      </trkpt>
      <trkpt lat="48.50058" lon="-2.00631">
        <ele>70.07667</ele>
        <time>2019-09-11T14:28:23Z</time>
      </trkpt>
      <trkpt lat="48.50055" lon="-2.00631">
        <ele>69.96572</ele>
        <time>2019-09-11T14:28:24Z</time>
      </trkpt>
      <trkpt lat="48.5005" lon="-2.00631">
        <ele>69.83407</ele>
        <time>2019-09-11T14:28:25Z</time>
      </trkpt>
      <trkpt lat="48.50044" lon="-2.00632">
        <ele>69.5203</ele>
        <time>2019-09-11T14:28:26Z</time>
      </trkpt>
      <trkpt lat="48.50039" lon="-2.00633">
        <ele>69.00645</ele>
        <time>2019-09-11T14:28:27Z</time>
      </trkpt>
      <trkpt lat="48.50034" lon="-2.00635">
        <ele>68.43862</ele>
        <time>2019-09-11T14:28:28Z</time>
      </trkpt>
      <trkpt lat="48.50029" lon="-2.00636">
        <ele>67.73003</ele>
        <time>2019-09-11T14:28:29Z</time>
      </trkpt>
      <trkpt lat="48.50023" lon="-2.00637">
        <ele>67.00189</ele>
        <time>2019-09-11T14:28:30Z</time>
      </trkpt>
      <trkpt lat="48.50019" lon="-2.00637">
        <ele>66.5126</ele>
        <time>2019-09-11T14:28:31Z</time>
      </trkpt>
      <trkpt lat="48.50014" lon="-2.00637">
        <ele>66.17443</ele>
        <time>2019-09-11T14:28:32Z</time>
      </trkpt>
      <trkpt lat="48.5001" lon="-2.00638">
        <ele>65.95767</ele>
        <time>2019-09-11T14:28:33Z</time>
      </trkpt>
      <trkpt lat="48.50007" lon="-2.00638">
        <ele>66.14796</ele>
        <time>2019-09-11T14:28:34Z</time>
      </trkpt>
      <trkpt lat="48.50003" lon="-2.00637">
        <ele>66.61494</ele>
        <time>2019-09-11T14:28:35Z</time>
      </trkpt>
      <trkpt lat="48.5" lon="-2.00637">
        <ele>66.77593</ele>
        <time>2019-09-11T14:28:36Z</time>
      </trkpt>
      <trkpt lat="48.49996" lon="-2.00638">
        <ele>67.21904</ele>
        <time>2019-09-11T14:28:37Z</time>
      </trkpt>
      <trkpt lat="48.49992" lon="-2.00639">
        <ele>67.55475</ele>
        <time>2019-09-11T14:28:38Z</time>
      </trkpt>
      <trkpt lat="48.49989" lon="-2.00639">
        <ele>67.39233</ele>
        <time>2019-09-11T14:28:39Z</time>
      </trkpt>
      <trkpt lat="48.49986" lon="-2.00639">
        <ele>67.341965</ele>
        <time>2019-09-11T14:28:40Z</time>
      </trkpt>
      <trkpt lat="48.49983" lon="-2.00637">
        <ele>67.20814</ele>
        <time>2019-09-11T14:28:41Z</time>
      </trkpt>
      <trkpt lat="48.49979" lon="-2.00635">
        <ele>67.24004</ele>
        <time>2019-09-11T14:28:42Z</time>
      </trkpt>
      <trkpt lat="48.49976" lon="-2.00634">
        <ele>67.73207</ele>
        <time>2019-09-11T14:28:43Z</time>
      </trkpt>
      <trkpt lat="48.49973" lon="-2.00633">
        <ele>68.00527</ele>
        <time>2019-09-11T14:28:44Z</time>
      </trkpt>
      <trkpt lat="48.49969" lon="-2.00632">
        <ele>68.07818</ele>
        <time>2019-09-11T14:28:45Z</time>
      </trkpt>
      <trkpt lat="48.49965" lon="-2.00632">
        <ele>67.90464</ele>
        <time>2019-09-11T14:28:46Z</time>
      </trkpt>
      <trkpt lat="48.49962" lon="-2.00631">
        <ele>67.68786</ele>
        <time>2019-09-11T14:28:47Z</time>
      </trkpt>
      <trkpt lat="48.49958" lon="-2.0063">
        <ele>67.36511</ele>
        <time>2019-09-11T14:28:48Z</time>
      </trkpt>
      <trkpt lat="48.49954" lon="-2.00629">
        <ele>66.86324</ele>
        <time>2019-09-11T14:28:49Z</time>
      </trkpt>
      <trkpt lat="48.49951" lon="-2.00629">
        <ele>67.50537</ele>
        <time>2019-09-11T14:28:50Z</time>
      </trkpt>
      <trkpt lat="48.49947" lon="-2.00629">
        <ele>68.490814</ele>
        <time>2019-09-11T14:28:51Z</time>
      </trkpt>
      <trkpt lat="48.49944" lon="-2.00628">
        <ele>70.43542</ele>
        <time>2019-09-11T14:28:52Z</time>
      </trkpt>
      <trkpt lat="48.4994" lon="-2.00627">
        <ele>72.638016</ele>
        <time>2019-09-11T14:28:53Z</time>
      </trkpt>
      <trkpt lat="48.49938" lon="-2.00624">
        <ele>74.87476</ele>
        <time>2019-09-11T14:28:54Z</time>
      </trkpt>
      <trkpt lat="48.49937" lon="-2.00621">
        <ele>76.61318</ele>
        <time>2019-09-11T14:28:55Z</time>
      </trkpt>
      <trkpt lat="48.49937" lon="-2.00618">
        <ele>77.404045</ele>
        <time>2019-09-11T14:28:56Z</time>
      </trkpt>
      <trkpt lat="48.49939" lon="-2.00615">
        <ele>77.66695</ele>
        <time>2019-09-11T14:28:57Z</time>
      </trkpt>
      <trkpt lat="48.49942" lon="-2.00613">
        <ele>77.86025</ele>
        <time>2019-09-11T14:28:58Z</time>
      </trkpt>
      <trkpt lat="48.49945" lon="-2.0061">
        <ele>77.514435</ele>
        <time>2019-09-11T14:28:59Z</time>
      </trkpt>
      <trkpt lat="48.49947" lon="-2.00608">
        <ele>77.28452</ele>
        <time>2019-09-11T14:29:00Z</time>
      </trkpt>
      <trkpt lat="48.4995" lon="-2.00605">
        <ele>77.0873</ele>
        <time>2019-09-11T14:29:01Z</time>
      </trkpt>
      <trkpt lat="48.49952" lon="-2.00603">
        <ele>77.16028</ele>
        <time>2019-09-11T14:29:02Z</time>
      </trkpt>
      <trkpt lat="48.49954" lon="-2.006">
        <ele>77.46844</ele>
        <time>2019-09-11T14:29:03Z</time>
      </trkpt>
      <trkpt lat="48.49956" lon="-2.00596">
        <ele>77.680595</ele>
        <time>2019-09-11T14:29:04Z</time>
      </trkpt>
      <trkpt lat="48.49957" lon="-2.00593">
        <ele>78.08271</ele>
        <time>2019-09-11T14:29:05Z</time>
      </trkpt>
      <trkpt lat="48.49958" lon="-2.00589">
        <ele>78.5643</ele>
        <time>2019-09-11T14:29:06Z</time>
      </trkpt>
      <trkpt lat="48.49958" lon="-2.00585">
        <ele>78.76305</ele>
        <time>2019-09-11T14:29:07Z</time>
      </trkpt>
      <trkpt lat="48.49958" lon="-2.00581">
        <ele>78.31295</ele>
        <time>2019-09-11T14:29:08Z</time>
      </trkpt>
      <trkpt lat="48.49958" lon="-2.00578">
        <ele>78.076706</ele>
        <time>2019-09-11T14:29:09Z</time>
      </trkpt>
      <trkpt lat="48.49958" lon="-2.00575">
        <ele>77.79001</ele>
        <time>2019-09-11T14:29:10Z</time>
      </trkpt>
      <trkpt lat="48.49956" lon="-2.00572">
        <ele>76.95712</ele>
        <time>2019-09-11T14:29:11Z</time>
      </trkpt>
      <trkpt lat="48.49955" lon="-2.00569">
        <ele>76.70899</ele>
        <time>2019-09-11T14:29:12Z</time>
      </trkpt>
      <trkpt lat="48.49954" lon="-2.00565">
        <ele>76.58057</ele>
        <time>2019-09-11T14:29:13Z</time>
      </trkpt>
      <trkpt lat="48.49954" lon="-2.00561">
        <ele>76.69219</ele>
        <time>2019-09-11T14:29:14Z</time>
      </trkpt>
      <trkpt lat="48.49953" lon="-2.00557">
        <ele>76.816345</ele>
        <time>2019-09-11T14:29:15Z</time>
      </trkpt>
      <trkpt lat="48.49952" lon="-2.00552">
        <ele>76.84419</ele>
        <time>2019-09-11T14:29:16Z</time>
      </trkpt>
      <trkpt lat="48.49951" lon="-2.00547">
        <ele>76.93296</ele>
        <time>2019-09-11T14:29:17Z</time>
      </trkpt>
      <trkpt lat="48.4995" lon="-2.00543">
        <ele>77.147095</ele>
        <time>2019-09-11T14:29:18Z</time>
      </trkpt>
      <trkpt lat="48.4995" lon="-2.00538">
        <ele>77.35495</ele>
        <time>2019-09-11T14:29:19Z</time>
      </trkpt>
      <trkpt lat="48.49949" lon="-2.00534">
        <ele>77.29534</ele>
        <time>2019-09-11T14:29:20Z</time>
      </trkpt>
      <trkpt lat="48.49948" lon="-2.0053">
        <ele>77.69829</ele>
        <time>2019-09-11T14:29:21Z</time>
      </trkpt>
      <trkpt lat="48.49947" lon="-2.00525">
        <ele>78.032524</ele>
        <time>2019-09-11T14:29:22Z</time>
      </trkpt>
      <trkpt lat="48.49946" lon="-2.00521">
        <ele>78.663864</ele>
        <time>2019-09-11T14:29:23Z</time>
      </trkpt>
      <trkpt lat="48.49945" lon="-2.00516">
        <ele>78.9555</ele>
        <time>2019-09-11T14:29:24Z</time>
      </trkpt>
      <trkpt lat="48.49944" lon="-2.00511">
        <ele>79.8428</ele>
        <time>2019-09-11T14:29:25Z</time>
      </trkpt>
      <trkpt lat="48.49944" lon="-2.00505">
        <ele>80.96658</ele>
        <time>2019-09-11T14:29:26Z</time>
      </trkpt>
      <trkpt lat="48.49943" lon="-2.005">
        <ele>81.65862</ele>
        <time>2019-09-11T14:29:27Z</time>
      </trkpt>
      <trkpt lat="48.49942" lon="-2.00496">
        <ele>81.702644</ele>
        <time>2019-09-11T14:29:28Z</time>
      </trkpt>
      <trkpt lat="48.49942" lon="-2.00491">
        <ele>81.69713</ele>
        <time>2019-09-11T14:29:29Z</time>
      </trkpt>
      <trkpt lat="48.49941" lon="-2.00486">
        <ele>81.613045</ele>
        <time>2019-09-11T14:29:30Z</time>
      </trkpt>
      <trkpt lat="48.49941" lon="-2.00482">
        <ele>81.39348</ele>
        <time>2019-09-11T14:29:31Z</time>
      </trkpt>
      <trkpt lat="48.4994" lon="-2.00477">
        <ele>81.38852</ele>
        <time>2019-09-11T14:29:32Z</time>
      </trkpt>
      <trkpt lat="48.49939" lon="-2.00472">
        <ele>81.100815</ele>
        <time>2019-09-11T14:29:33Z</time>
      </trkpt>
      <trkpt lat="48.49939" lon="-2.00467">
        <ele>81.07456</ele>
        <time>2019-09-11T14:29:34Z</time>
      </trkpt>
      <trkpt lat="48.49938" lon="-2.00461">
        <ele>81.41804</ele>
        <time>2019-09-11T14:29:35Z</time>
      </trkpt>
      <trkpt lat="48.49938" lon="-2.00456">
        <ele>81.76921</ele>
        <time>2019-09-11T14:29:36Z</time>
      </trkpt>
      <trkpt lat="48.49937" lon="-2.00451">
        <ele>81.58304</ele>
        <time>2019-09-11T14:29:37Z</time>
      </trkpt>
      <trkpt lat="48.49936" lon="-2.00446">
        <ele>81.43216</ele>
        <time>2019-09-11T14:29:38Z</time>
      </trkpt>
      <trkpt lat="48.49936" lon="-2.00441">
        <ele>81.11493</ele>
        <time>2019-09-11T14:29:39Z</time>
      </trkpt>
      <trkpt lat="48.49935" lon="-2.00436">
        <ele>81.094055</ele>
        <time>2019-09-11T14:29:40Z</time>
      </trkpt>
      <trkpt lat="48.49934" lon="-2.00431">
        <ele>81.14544</ele>
        <time>2019-09-11T14:29:41Z</time>
      </trkpt>
      <trkpt lat="48.49934" lon="-2.00426">
        <ele>80.90887</ele>
        <time>2019-09-11T14:29:42Z</time>
      </trkpt>
      <trkpt lat="48.49933" lon="-2.00421">
        <ele>80.71709</ele>
        <time>2019-09-11T14:29:43Z</time>
      </trkpt>
      <trkpt lat="48.49932" lon="-2.00416">
        <ele>80.49589</ele>
        <time>2019-09-11T14:29:44Z</time>
      </trkpt>
      <trkpt lat="48.49932" lon="-2.00411">
        <ele>80.371475</ele>
        <time>2019-09-11T14:29:45Z</time>
      </trkpt>
      <trkpt lat="48.49931" lon="-2.00406">
        <ele>80.31567</ele>
        <time>2019-09-11T14:29:46Z</time>
      </trkpt>
      <trkpt lat="48.49931" lon="-2.00401">
        <ele>80.30034</ele>
        <time>2019-09-11T14:29:47Z</time>
      </trkpt>
      <trkpt lat="48.4993" lon="-2.00396">
        <ele>80.28308</ele>
        <time>2019-09-11T14:29:48Z</time>
      </trkpt>
      <trkpt lat="48.49929" lon="-2.00391">
        <ele>80.51636</ele>
        <time>2019-09-11T14:29:49Z</time>
      </trkpt>
      <trkpt lat="48.49928" lon="-2.00386">
        <ele>80.54365</ele>
        <time>2019-09-11T14:29:50Z</time>
      </trkpt>
      <trkpt lat="48.49928" lon="-2.00381">
        <ele>80.677246</ele>
        <time>2019-09-11T14:29:51Z</time>
      </trkpt>
      <trkpt lat="48.49927" lon="-2.00375">
        <ele>80.73995</ele>
        <time>2019-09-11T14:29:52Z</time>
      </trkpt>
      <trkpt lat="48.49926" lon="-2.0037">
        <ele>80.68331</ele>
        <time>2019-09-11T14:29:53Z</time>
      </trkpt>
      <trkpt lat="48.49925" lon="-2.00365">
        <ele>80.800255</ele>
        <time>2019-09-11T14:29:54Z</time>
      </trkpt>
      <trkpt lat="48.49925" lon="-2.0036">
        <ele>80.92125</ele>
        <time>2019-09-11T14:29:55Z</time>
      </trkpt>
      <trkpt lat="48.49923" lon="-2.00354">
        <ele>81.03289</ele>
        <time>2019-09-11T14:29:56Z</time>
      </trkpt>
      <trkpt lat="48.49922" lon="-2.00349">
        <ele>81.13476</ele>
        <time>2019-09-11T14:29:57Z</time>
      </trkpt>
      <trkpt lat="48.49921" lon="-2.00344">
        <ele>81.08947</ele>
        <time>2019-09-11T14:29:58Z</time>
      </trkpt>
      <trkpt lat="48.4992" lon="-2.00339">
        <ele>81.07237</ele>
        <time>2019-09-11T14:29:59Z</time>
      </trkpt>
      <trkpt lat="48.49919" lon="-2.00333">
        <ele>80.98731</ele>
        <time>2019-09-11T14:30:00Z</time>
      </trkpt>
      <trkpt lat="48.49918" lon="-2.00328">
        <ele>80.89574</ele>
        <time>2019-09-11T14:30:01Z</time>
      </trkpt>
      <trkpt lat="48.49917" lon="-2.00322">
        <ele>80.77764</ele>
        <time>2019-09-11T14:30:02Z</time>
      </trkpt>
      <trkpt lat="48.49916" lon="-2.00317">
        <ele>80.65695</ele>
        <time>2019-09-11T14:30:03Z</time>
      </trkpt>
      <trkpt lat="48.49915" lon="-2.00311">
        <ele>80.75297</ele>
        <time>2019-09-11T14:30:04Z</time>
      </trkpt>
      <trkpt lat="48.49913" lon="-2.00305">
        <ele>80.76919</ele>
        <time>2019-09-11T14:30:05Z</time>
      </trkpt>
      <trkpt lat="48.49912" lon="-2.00299">
        <ele>80.93038</ele>
        <time>2019-09-11T14:30:06Z</time>
      </trkpt>
      <trkpt lat="48.4991" lon="-2.00293">
        <ele>81.02488</ele>
        <time>2019-09-11T14:30:07Z</time>
      </trkpt>
      <trkpt lat="48.49909" lon="-2.00287">
        <ele>80.93051</ele>
        <time>2019-09-11T14:30:08Z</time>
      </trkpt>
      <trkpt lat="48.49907" lon="-2.00282">
        <ele>80.83778</ele>
        <time>2019-09-11T14:30:09Z</time>
      </trkpt>
      <trkpt lat="48.49906" lon="-2.00276">
        <ele>80.94785</ele>
        <time>2019-09-11T14:30:10Z</time>
      </trkpt>
      <trkpt lat="48.49905" lon="-2.0027">
        <ele>80.946236</ele>
        <time>2019-09-11T14:30:11Z</time>
      </trkpt>
      <trkpt lat="48.49904" lon="-2.00264">
        <ele>80.97242</ele>
        <time>2019-09-11T14:30:12Z</time>
      </trkpt>
      <trkpt lat="48.49902" lon="-2.00258">
        <ele>81.038414</ele>
        <time>2019-09-11T14:30:13Z</time>
      </trkpt>
      <trkpt lat="48.49901" lon="-2.00252">
        <ele>81.15288</ele>
        <time>2019-09-11T14:30:14Z</time>
      </trkpt>
      <trkpt lat="48.49899" lon="-2.00246">
        <ele>81.207054</ele>
        <time>2019-09-11T14:30:15Z</time>
      </trkpt>
      <trkpt lat="48.49898" lon="-2.00239">
        <ele>81.427376</ele>
        <time>2019-09-11T14:30:16Z</time>
      </trkpt>
      <trkpt lat="48.49896" lon="-2.00233">
        <ele>81.698395</ele>
        <time>2019-09-11T14:30:17Z</time>
      </trkpt>
      <trkpt lat="48.49895" lon="-2.00226">
        <ele>81.85897</ele>
        <time>2019-09-11T14:30:18Z</time>
      </trkpt>
      <trkpt lat="48.49893" lon="-2.0022">
        <ele>81.927444</ele>
        <time>2019-09-11T14:30:19Z</time>
      </trkpt>
      <trkpt lat="48.49892" lon="-2.00214">
        <ele>81.87481</ele>
        <time>2019-09-11T14:30:20Z</time>
      </trkpt>
      <trkpt lat="48.4989" lon="-2.00208">
        <ele>82.007385</ele>
        <time>2019-09-11T14:30:21Z</time>
      </trkpt>
      <trkpt lat="48.49889" lon="-2.00202">
        <ele>81.90719</ele>
        <time>2019-09-11T14:30:22Z</time>
      </trkpt>
      <trkpt lat="48.49888" lon="-2.00196">
        <ele>81.966446</ele>
        <time>2019-09-11T14:30:23Z</time>
      </trkpt>
      <trkpt lat="48.49886" lon="-2.0019">
        <ele>81.802505</ele>
        <time>2019-09-11T14:30:24Z</time>
      </trkpt>
      <trkpt lat="48.49885" lon="-2.00185">
        <ele>81.580605</ele>
        <time>2019-09-11T14:30:25Z</time>
      </trkpt>
      <trkpt lat="48.49883" lon="-2.00179">
        <ele>81.59443</ele>
        <time>2019-09-11T14:30:26Z</time>
      </trkpt>
      <trkpt lat="48.49882" lon="-2.00172">
        <ele>81.59948</ele>
        <time>2019-09-11T14:30:27Z</time>
      </trkpt>
      <trkpt lat="48.4988" lon="-2.00166">
        <ele>81.71517</ele>
        <time>2019-09-11T14:30:28Z</time>
      </trkpt>
      <trkpt lat="48.49878" lon="-2.0016">
        <ele>81.88029</ele>
        <time>2019-09-11T14:30:29Z</time>
      </trkpt>
      <trkpt lat="48.49877" lon="-2.00154">
        <ele>81.846535</ele>
        <time>2019-09-11T14:30:30Z</time>
      </trkpt>
      <trkpt lat="48.49875" lon="-2.00148">
        <ele>81.85525</ele>
        <time>2019-09-11T14:30:31Z</time>
      </trkpt>
      <trkpt lat="48.49873" lon="-2.00142">
        <ele>81.73152</ele>
        <time>2019-09-11T14:30:32Z</time>
      </trkpt>
      <trkpt lat="48.49871" lon="-2.00135">
        <ele>81.665474</ele>
        <time>2019-09-11T14:30:33Z</time>
      </trkpt>
      <trkpt lat="48.49869" lon="-2.00129">
        <ele>81.55132</ele>
        <time>2019-09-11T14:30:34Z</time>
      </trkpt>
      <trkpt lat="48.49867" lon="-2.00123">
        <ele>81.42641</ele>
        <time>2019-09-11T14:30:35Z</time>
      </trkpt>
      <trkpt lat="48.49865" lon="-2.00118">
        <ele>81.22307</ele>
        <time>2019-09-11T14:30:36Z</time>
      </trkpt>
      <trkpt lat="48.49862" lon="-2.00112">
        <ele>81.32234</ele>
        <time>2019-09-11T14:30:37Z</time>
      </trkpt>
      <trkpt lat="48.49859" lon="-2.00106">
        <ele>81.33738</ele>
        <time>2019-09-11T14:30:38Z</time>
      </trkpt>
      <trkpt lat="48.49855" lon="-2.00103">
        <ele>81.142426</ele>
        <time>2019-09-11T14:30:39Z</time>
      </trkpt>
      <trkpt lat="48.49851" lon="-2.00101">
        <ele>81.328224</ele>
        <time>2019-09-11T14:30:40Z</time>
      </trkpt>
      <trkpt lat="48.49846" lon="-2.00102">
        <ele>81.517296</ele>
        <time>2019-09-11T14:30:41Z</time>
      </trkpt>
      <trkpt lat="48.49842" lon="-2.00105">
        <ele>81.43651</ele>
        <time>2019-09-11T14:30:42Z</time>
      </trkpt>
      <trkpt lat="48.49838" lon="-2.00108">
        <ele>81.41025</ele>
        <time>2019-09-11T14:30:43Z</time>
      </trkpt>
      <trkpt lat="48.49833" lon="-2.00112">
        <ele>81.44791</ele>
        <time>2019-09-11T14:30:44Z</time>
      </trkpt>
      <trkpt lat="48.49829" lon="-2.00115">
        <ele>81.61939</ele>
        <time>2019-09-11T14:30:45Z</time>
      </trkpt>
      <trkpt lat="48.49824" lon="-2.00119">
        <ele>81.65455</ele>
        <time>2019-09-11T14:30:46Z</time>
      </trkpt>
      <trkpt lat="48.49819" lon="-2.00122">
        <ele>81.624</ele>
        <time>2019-09-11T14:30:47Z</time>
      </trkpt>
      <trkpt lat="48.49814" lon="-2.00126">
        <ele>81.516495</ele>
        <time>2019-09-11T14:30:48Z</time>
      </trkpt>
      <trkpt lat="48.49809" lon="-2.00129">
        <ele>81.55809</ele>
        <time>2019-09-11T14:30:49Z</time>
      </trkpt>
      <trkpt lat="48.49803" lon="-2.00133">
        <ele>81.48835</ele>
        <time>2019-09-11T14:30:50Z</time>
      </trkpt>
      <trkpt lat="48.49798" lon="-2.00137">
        <ele>81.53062</ele>
        <time>2019-09-11T14:30:51Z</time>
      </trkpt>
      <trkpt lat="48.49793" lon="-2.0014">
        <ele>81.47835</ele>
        <time>2019-09-11T14:30:52Z</time>
      </trkpt>
      <trkpt lat="48.49789" lon="-2.00144">
        <ele>81.397</ele>
        <time>2019-09-11T14:30:53Z</time>
      </trkpt>
      <trkpt lat="48.49784" lon="-2.00149">
        <ele>81.19558</ele>
        <time>2019-09-11T14:30:54Z</time>
      </trkpt>
      <trkpt lat="48.49779" lon="-2.00153">
        <ele>81.14919</ele>
        <time>2019-09-11T14:30:55Z</time>
      </trkpt>
      <trkpt lat="48.49774" lon="-2.00157">
        <ele>81.18989</ele>
        <time>2019-09-11T14:30:56Z</time>
      </trkpt>
      <trkpt lat="48.4977" lon="-2.00161">
        <ele>81.19686</ele>
        <time>2019-09-11T14:30:57Z</time>
      </trkpt>
      <trkpt lat="48.49765" lon="-2.00165">
        <ele>81.1135</ele>
        <time>2019-09-11T14:30:58Z</time>
      </trkpt>
      <trkpt lat="48.4976" lon="-2.00169">
        <ele>81.125786</ele>
        <time>2019-09-11T14:30:59Z</time>
      </trkpt>
      <trkpt lat="48.49756" lon="-2.00173">
        <ele>80.91518</ele>
        <time>2019-09-11T14:31:00Z</time>
      </trkpt>
      <trkpt lat="48.49751" lon="-2.00178">
        <ele>80.754</ele>
        <time>2019-09-11T14:31:01Z</time>
      </trkpt>
      <trkpt lat="48.49747" lon="-2.00182">
        <ele>80.73149</ele>
        <time>2019-09-11T14:31:02Z</time>
      </trkpt>
      <trkpt lat="48.49743" lon="-2.00186">
        <ele>80.79854</ele>
        <time>2019-09-11T14:31:03Z</time>
      </trkpt>
      <trkpt lat="48.49738" lon="-2.0019">
        <ele>80.951935</ele>
        <time>2019-09-11T14:31:04Z</time>
      </trkpt>
      <trkpt lat="48.49734" lon="-2.00194">
        <ele>81.180954</ele>
        <time>2019-09-11T14:31:05Z</time>
      </trkpt>
      <trkpt lat="48.4973" lon="-2.00199">
        <ele>81.284004</ele>
        <time>2019-09-11T14:31:06Z</time>
      </trkpt>
      <trkpt lat="48.49725" lon="-2.00203">
        <ele>81.57525</ele>
        <time>2019-09-11T14:31:07Z</time>
      </trkpt>
      <trkpt lat="48.49721" lon="-2.00207">
        <ele>81.72859</ele>
        <time>2019-09-11T14:31:08Z</time>
      </trkpt>
      <trkpt lat="48.49717" lon="-2.00211">
        <ele>81.901955</ele>
        <time>2019-09-11T14:31:09Z</time>
      </trkpt>
      <trkpt lat="48.49713" lon="-2.00215">
        <ele>81.88513</ele>
        <time>2019-09-11T14:31:10Z</time>
      </trkpt>
      <trkpt lat="48.49708" lon="-2.00219">
        <ele>81.65065</ele>
        <time>2019-09-11T14:31:11Z</time>
      </trkpt>
      <trkpt lat="48.49704" lon="-2.00223">
        <ele>81.70418</ele>
        <time>2019-09-11T14:31:12Z</time>
      </trkpt>
      <trkpt lat="48.497" lon="-2.00227">
        <ele>81.72335</ele>
        <time>2019-09-11T14:31:13Z</time>
      </trkpt>
      <trkpt lat="48.49696" lon="-2.00231">
        <ele>81.406075</ele>
        <time>2019-09-11T14:31:14Z</time>
      </trkpt>
      <trkpt lat="48.49693" lon="-2.00236">
        <ele>81.24195</ele>
        <time>2019-09-11T14:31:15Z</time>
      </trkpt>
      <trkpt lat="48.49689" lon="-2.0024">
        <ele>81.2596</ele>
        <time>2019-09-11T14:31:16Z</time>
      </trkpt>
      <trkpt lat="48.49685" lon="-2.00244">
        <ele>81.24094</ele>
        <time>2019-09-11T14:31:17Z</time>
      </trkpt>
      <trkpt lat="48.49681" lon="-2.00247">
        <ele>81.40189</ele>
        <time>2019-09-11T14:31:18Z</time>
      </trkpt>
      <trkpt lat="48.49677" lon="-2.00251">
        <ele>81.4726</ele>
        <time>2019-09-11T14:31:19Z</time>
      </trkpt>
      <trkpt lat="48.49673" lon="-2.00255">
        <ele>81.35941</ele>
        <time>2019-09-11T14:31:20Z</time>
      </trkpt>
      <trkpt lat="48.49669" lon="-2.00259">
        <ele>81.37401</ele>
        <time>2019-09-11T14:31:21Z</time>
      </trkpt>
      <trkpt lat="48.49665" lon="-2.00263">
        <ele>81.81102</ele>
        <time>2019-09-11T14:31:22Z</time>
      </trkpt>
      <trkpt lat="48.49661" lon="-2.00267">
        <ele>82.09169</ele>
        <time>2019-09-11T14:31:23Z</time>
      </trkpt>
      <trkpt lat="48.49658" lon="-2.00271">
        <ele>82.16863</ele>
        <time>2019-09-11T14:31:24Z</time>
      </trkpt>
      <trkpt lat="48.49654" lon="-2.00275">
        <ele>82.050766</ele>
        <time>2019-09-11T14:31:25Z</time>
      </trkpt>
      <trkpt lat="48.4965" lon="-2.00278">
        <ele>82.13831</ele>
        <time>2019-09-11T14:31:26Z</time>
      </trkpt>
      <trkpt lat="48.49646" lon="-2.00281">
        <ele>82.14496</ele>
        <time>2019-09-11T14:31:27Z</time>
      </trkpt>
      <trkpt lat="48.49643" lon="-2.00285">
        <ele>81.86457</ele>
        <time>2019-09-11T14:31:28Z</time>
      </trkpt>
      <trkpt lat="48.4964" lon="-2.00288">
        <ele>81.918015</ele>
        <time>2019-09-11T14:31:29Z</time>
      </trkpt>
      <trkpt lat="48.49637" lon="-2.00292">
        <ele>82.09136</ele>
        <time>2019-09-11T14:31:30Z</time>
      </trkpt>
      <trkpt lat="48.49633" lon="-2.00295">
        <ele>82.3875</ele>
        <time>2019-09-11T14:31:31Z</time>
      </trkpt>
      <trkpt lat="48.4963" lon="-2.00297">
        <ele>82.588005</ele>
        <time>2019-09-11T14:31:32Z</time>
      </trkpt>
      <trkpt lat="48.49627" lon="-2.003">
        <ele>82.558914</ele>
        <time>2019-09-11T14:31:33Z</time>
      </trkpt>
      <trkpt lat="48.49625" lon="-2.00302">
        <ele>82.52412</ele>
        <time>2019-09-11T14:31:34Z</time>
      </trkpt>
      <trkpt lat="48.49622" lon="-2.00305">
        <ele>82.732864</ele>
        <time>2019-09-11T14:31:35Z</time>
      </trkpt>
      <trkpt lat="48.49619" lon="-2.00307">
        <ele>82.97012</ele>
        <time>2019-09-11T14:31:36Z</time>
      </trkpt>
      <trkpt lat="48.49617" lon="-2.0031">
        <ele>83.24393</ele>
        <time>2019-09-11T14:31:37Z</time>
      </trkpt>
      <trkpt lat="48.49614" lon="-2.00312">
        <ele>83.44956</ele>
        <time>2019-09-11T14:31:38Z</time>
      </trkpt>
      <trkpt lat="48.49611" lon="-2.00314">
        <ele>84.17968</ele>
        <time>2019-09-11T14:31:39Z</time>
      </trkpt>
      <trkpt lat="48.49609" lon="-2.00318">
        <ele>84.73864</ele>
        <time>2019-09-11T14:31:40Z</time>
      </trkpt>
      <trkpt lat="48.49607" lon="-2.00321">
        <ele>84.83476</ele>
        <time>2019-09-11T14:31:41Z</time>
      </trkpt>
      <trkpt lat="48.49605" lon="-2.00324">
        <ele>84.96698</ele>
        <time>2019-09-11T14:31:42Z</time>
      </trkpt>
      <trkpt lat="48.49603" lon="-2.00328">
        <ele>85.11556</ele>
        <time>2019-09-11T14:31:43Z</time>
      </trkpt>
      <trkpt lat="48.496" lon="-2.00331">
        <ele>85.17953</ele>
        <time>2019-09-11T14:31:44Z</time>
      </trkpt>
      <trkpt lat="48.49597" lon="-2.00334">
        <ele>85.398125</ele>
        <time>2019-09-11T14:31:45Z</time>
      </trkpt>
      <trkpt lat="48.49593" lon="-2.00336">
        <ele>85.97979</ele>
        <time>2019-09-11T14:31:46Z</time>
      </trkpt>
      <trkpt lat="48.49589" lon="-2.00337">
        <ele>86.35649</ele>
        <time>2019-09-11T14:31:47Z</time>
      </trkpt>
      <trkpt lat="48.49586" lon="-2.0034">
        <ele>86.822235</ele>
        <time>2019-09-11T14:31:48Z</time>
      </trkpt>
      <trkpt lat="48.49583" lon="-2.00344">
        <ele>87.09805</ele>
        <time>2019-09-11T14:31:49Z</time>
      </trkpt>
      <trkpt lat="48.49579" lon="-2.00347">
        <ele>87.1639</ele>
        <time>2019-09-11T14:31:50Z</time>
      </trkpt>
      <trkpt lat="48.49576" lon="-2.00351">
        <ele>87.31092</ele>
        <time>2019-09-11T14:31:51Z</time>
      </trkpt>
      <trkpt lat="48.49573" lon="-2.00354">
        <ele>87.5485</ele>
        <time>2019-09-11T14:31:52Z</time>
      </trkpt>
      <trkpt lat="48.4957" lon="-2.00356">
        <ele>87.698456</ele>
        <time>2019-09-11T14:31:53Z</time>
      </trkpt>
      <trkpt lat="48.49567" lon="-2.00358">
        <ele>87.6862</ele>
        <time>2019-09-11T14:31:54Z</time>
      </trkpt>
      <trkpt lat="48.49564" lon="-2.0036">
        <ele>87.73904</ele>
        <time>2019-09-11T14:31:55Z</time>
      </trkpt>
      <trkpt lat="48.49561" lon="-2.00363">
        <ele>87.84745</ele>
        <time>2019-09-11T14:31:56Z</time>
      </trkpt>
      <trkpt lat="48.49558" lon="-2.00367">
        <ele>87.85125</ele>
        <time>2019-09-11T14:31:57Z</time>
      </trkpt>
      <trkpt lat="48.49555" lon="-2.0037">
        <ele>88.07257</ele>
        <time>2019-09-11T14:31:58Z</time>
      </trkpt>
      <trkpt lat="48.49551" lon="-2.00372">
        <ele>88.406425</ele>
        <time>2019-09-11T14:31:59Z</time>
      </trkpt>
      <trkpt lat="48.49548" lon="-2.00375">
        <ele>88.76513</ele>
        <time>2019-09-11T14:32:00Z</time>
      </trkpt>
      <trkpt lat="48.49545" lon="-2.00377">
        <ele>89.104935</ele>
        <time>2019-09-11T14:32:01Z</time>
      </trkpt>
      <trkpt lat="48.49542" lon="-2.0038">
        <ele>89.18456</ele>
        <time>2019-09-11T14:32:02Z</time>
      </trkpt>
      <trkpt lat="48.49539" lon="-2.00382">
        <ele>89.372826</ele>
        <time>2019-09-11T14:32:03Z</time>
      </trkpt>
      <trkpt lat="48.49536" lon="-2.00384">
        <ele>89.60233</ele>
        <time>2019-09-11T14:32:04Z</time>
      </trkpt>
      <trkpt lat="48.49533" lon="-2.00386">
        <ele>89.97861</ele>
        <time>2019-09-11T14:32:05Z</time>
      </trkpt>
      <trkpt lat="48.4953" lon="-2.00388">
        <ele>90.25516</ele>
        <time>2019-09-11T14:32:06Z</time>
      </trkpt>
      <trkpt lat="48.49527" lon="-2.00392">
        <ele>90.65991</ele>
        <time>2019-09-11T14:32:07Z</time>
      </trkpt>
      <trkpt lat="48.49525" lon="-2.00396">
        <ele>91.369644</ele>
        <time>2019-09-11T14:32:08Z</time>
      </trkpt>
      <trkpt lat="48.49522" lon="-2.00401">
        <ele>92.39395</ele>
        <time>2019-09-11T14:32:09Z</time>
      </trkpt>
      <trkpt lat="48.49521" lon="-2.00406">
        <ele>94.63323</ele>
        <time>2019-09-11T14:32:10Z</time>
      </trkpt>
      <trkpt lat="48.49521" lon="-2.00412">
        <ele>95.35482</ele>
        <time>2019-09-11T14:32:11Z</time>
      </trkpt>
      <trkpt lat="48.4952" lon="-2.00417">
        <ele>95.60433</ele>
        <time>2019-09-11T14:32:12Z</time>
      </trkpt>
      <trkpt lat="48.4952" lon="-2.00422">
        <ele>95.86581</ele>
        <time>2019-09-11T14:32:13Z</time>
      </trkpt>
      <trkpt lat="48.4952" lon="-2.00427">
        <ele>95.838524</ele>
        <time>2019-09-11T14:32:14Z</time>
      </trkpt>
      <trkpt lat="48.4952" lon="-2.00432">
        <ele>96.18817</ele>
        <time>2019-09-11T14:32:15Z</time>
      </trkpt>
      <trkpt lat="48.4952" lon="-2.00437">
        <ele>96.260574</ele>
        <time>2019-09-11T14:32:16Z</time>
      </trkpt>
      <trkpt lat="48.49521" lon="-2.00442">
        <ele>96.494514</ele>
        <time>2019-09-11T14:32:17Z</time>
      </trkpt>
      <trkpt lat="48.49521" lon="-2.00446">
        <ele>96.74576</ele>
        <time>2019-09-11T14:32:18Z</time>
      </trkpt>
      <trkpt lat="48.49521" lon="-2.00451">
        <ele>97.02663</ele>
        <time>2019-09-11T14:32:19Z</time>
      </trkpt>
      <trkpt lat="48.49522" lon="-2.00456">
        <ele>97.17888</ele>
        <time>2019-09-11T14:32:20Z</time>
      </trkpt>
      <trkpt lat="48.49521" lon="-2.00461">
        <ele>96.23003</ele>
        <time>2019-09-11T14:32:21Z</time>
      </trkpt>
      <trkpt lat="48.49522" lon="-2.00466">
        <ele>96.95743</ele>
        <time>2019-09-11T14:32:22Z</time>
      </trkpt>
      <trkpt lat="48.49522" lon="-2.00472">
        <ele>97.45704</ele>
        <time>2019-09-11T14:32:23Z</time>
      </trkpt>
      <trkpt lat="48.49522" lon="-2.00478">
        <ele>97.81614</ele>
        <time>2019-09-11T14:32:24Z</time>
      </trkpt>
      <trkpt lat="48.49522" lon="-2.00484">
        <ele>98.119865</ele>
        <time>2019-09-11T14:32:25Z</time>
      </trkpt>
      <trkpt lat="48.49522" lon="-2.00491">
        <ele>98.33976</ele>
        <time>2019-09-11T14:32:26Z</time>
      </trkpt>
      <trkpt lat="48.49522" lon="-2.00497">
        <ele>98.55909</ele>
        <time>2019-09-11T14:32:27Z</time>
      </trkpt>
      <trkpt lat="48.49523" lon="-2.00505">
        <ele>98.61398</ele>
        <time>2019-09-11T14:32:28Z</time>
      </trkpt>
      <trkpt lat="48.49524" lon="-2.00512">
        <ele>98.48583</ele>
        <time>2019-09-11T14:32:29Z</time>
      </trkpt>
      <trkpt lat="48.49524" lon="-2.00521">
        <ele>98.32608</ele>
        <time>2019-09-11T14:32:30Z</time>
      </trkpt>
      <trkpt lat="48.49524" lon="-2.00529">
        <ele>98.37203</ele>
        <time>2019-09-11T14:32:31Z</time>
      </trkpt>
      <trkpt lat="48.49524" lon="-2.00538">
        <ele>98.17374</ele>
        <time>2019-09-11T14:32:32Z</time>
      </trkpt>
      <trkpt lat="48.49524" lon="-2.00547">
        <ele>98.25462</ele>
        <time>2019-09-11T14:32:33Z</time>
      </trkpt>
      <trkpt lat="48.49524" lon="-2.00556">
        <ele>98.08515</ele>
        <time>2019-09-11T14:32:34Z</time>
      </trkpt>
      <trkpt lat="48.49525" lon="-2.00565">
        <ele>98.10479</ele>
        <time>2019-09-11T14:32:35Z</time>
      </trkpt>
      <trkpt lat="48.49526" lon="-2.00574">
        <ele>98.097</ele>
        <time>2019-09-11T14:32:36Z</time>
      </trkpt>
      <trkpt lat="48.49527" lon="-2.00583">
        <ele>98.00665</ele>
        <time>2019-09-11T14:32:37Z</time>
      </trkpt>
      <trkpt lat="48.49527" lon="-2.00592">
        <ele>97.906425</ele>
        <time>2019-09-11T14:32:38Z</time>
      </trkpt>
      <trkpt lat="48.49525" lon="-2.00601">
        <ele>97.92727</ele>
        <time>2019-09-11T14:32:39Z</time>
      </trkpt>
      <trkpt lat="48.49522" lon="-2.00609">
        <ele>98.02386</ele>
        <time>2019-09-11T14:32:40Z</time>
      </trkpt>
      <trkpt lat="48.49517" lon="-2.00616">
        <ele>97.92074</ele>
        <time>2019-09-11T14:32:41Z</time>
      </trkpt>
      <trkpt lat="48.49512" lon="-2.00623">
        <ele>97.71896</ele>
        <time>2019-09-11T14:32:42Z</time>
      </trkpt>
      <trkpt lat="48.49508" lon="-2.0063">
        <ele>97.600586</ele>
        <time>2019-09-11T14:32:43Z</time>
      </trkpt>
      <trkpt lat="48.49503" lon="-2.00635">
        <ele>97.4509</ele>
        <time>2019-09-11T14:32:44Z</time>
      </trkpt>
      <trkpt lat="48.49499" lon="-2.00641">
        <ele>97.20595</ele>
        <time>2019-09-11T14:32:45Z</time>
      </trkpt>
      <trkpt lat="48.49495" lon="-2.00646">
        <ele>97.018105</ele>
        <time>2019-09-11T14:32:46Z</time>
      </trkpt>
      <trkpt lat="48.49492" lon="-2.00651">
        <ele>96.80146</ele>
        <time>2019-09-11T14:32:47Z</time>
      </trkpt>
      <trkpt lat="48.49488" lon="-2.00656">
        <ele>96.36846</ele>
        <time>2019-09-11T14:32:48Z</time>
      </trkpt>
      <trkpt lat="48.49485" lon="-2.00661">
        <ele>96.15555</ele>
        <time>2019-09-11T14:32:49Z</time>
      </trkpt>
      <trkpt lat="48.4948" lon="-2.00666">
        <ele>95.92183</ele>
        <time>2019-09-11T14:32:50Z</time>
      </trkpt>
      <trkpt lat="48.49476" lon="-2.0067">
        <ele>95.821266</ele>
        <time>2019-09-11T14:32:51Z</time>
      </trkpt>
      <trkpt lat="48.49471" lon="-2.00674">
        <ele>95.79331</ele>
        <time>2019-09-11T14:32:52Z</time>
      </trkpt>
      <trkpt lat="48.49466" lon="-2.00677">
        <ele>95.91702</ele>
        <time>2019-09-11T14:32:53Z</time>
      </trkpt>
      <trkpt lat="48.4946" lon="-2.00678">
        <ele>96.0917</ele>
        <time>2019-09-11T14:32:54Z</time>
      </trkpt>
      <trkpt lat="48.49455" lon="-2.00679">
        <ele>96.164894</ele>
        <time>2019-09-11T14:32:55Z</time>
      </trkpt>
      <trkpt lat="48.4945" lon="-2.00681">
        <ele>96.10223</ele>
        <time>2019-09-11T14:32:56Z</time>
      </trkpt>
      <trkpt lat="48.49446" lon="-2.00683">
        <ele>96.14784</ele>
        <time>2019-09-11T14:32:57Z</time>
      </trkpt>
      <trkpt lat="48.49443" lon="-2.00686">
        <ele>96.34548</ele>
        <time>2019-09-11T14:32:58Z</time>
      </trkpt>
      <trkpt lat="48.4944" lon="-2.0069">
        <ele>96.565865</ele>
        <time>2019-09-11T14:32:59Z</time>
      </trkpt>
      <trkpt lat="48.49438" lon="-2.00693">
        <ele>96.81413</ele>
        <time>2019-09-11T14:33:00Z</time>
      </trkpt>
      <trkpt lat="48.49436" lon="-2.00696">
        <ele>97.345406</ele>
        <time>2019-09-11T14:33:01Z</time>
      </trkpt>
      <trkpt lat="48.49434" lon="-2.007">
        <ele>97.84951</ele>
        <time>2019-09-11T14:33:02Z</time>
      </trkpt>
      <trkpt lat="48.49431" lon="-2.00703">
        <ele>98.02983</ele>
        <time>2019-09-11T14:33:03Z</time>
      </trkpt>
      <trkpt lat="48.49429" lon="-2.00706">
        <ele>98.143364</ele>
        <time>2019-09-11T14:33:04Z</time>
      </trkpt>
      <trkpt lat="48.49426" lon="-2.00708">
        <ele>97.80115</ele>
        <time>2019-09-11T14:33:05Z</time>
      </trkpt>
      <trkpt lat="48.49424" lon="-2.00709">
        <ele>97.48066</ele>
        <time>2019-09-11T14:33:06Z</time>
      </trkpt>
      <trkpt lat="48.49421" lon="-2.00711">
        <ele>97.14839</ele>
        <time>2019-09-11T14:33:07Z</time>
      </trkpt>
      <trkpt lat="48.49418" lon="-2.00712">
        <ele>97.100235</ele>
        <time>2019-09-11T14:33:08Z</time>
      </trkpt>
      <trkpt lat="48.49416" lon="-2.00714">
        <ele>96.7747</ele>
        <time>2019-09-11T14:33:09Z</time>
      </trkpt>
      <trkpt lat="48.49413" lon="-2.00715">
        <ele>96.59916</ele>
        <time>2019-09-11T14:33:10Z</time>
      </trkpt>
      <trkpt lat="48.49411" lon="-2.00717">
        <ele>96.358475</ele>
        <time>2019-09-11T14:33:11Z</time>
      </trkpt>
      <trkpt lat="48.49408" lon="-2.0072">
        <ele>96.311226</ele>
        <time>2019-09-11T14:33:12Z</time>
      </trkpt>
      <trkpt lat="48.49406" lon="-2.00721">
        <ele>96.24981</ele>
        <time>2019-09-11T14:33:13Z</time>
      </trkpt>
      <trkpt lat="48.49404" lon="-2.00722">
        <ele>96.092285</ele>
        <time>2019-09-11T14:33:14Z</time>
      </trkpt>
      <trkpt lat="48.49401" lon="-2.00724">
        <ele>95.70124</ele>
        <time>2019-09-11T14:33:15Z</time>
      </trkpt>
      <trkpt lat="48.49398" lon="-2.00726">
        <ele>95.41375</ele>
        <time>2019-09-11T14:33:16Z</time>
      </trkpt>
      <trkpt lat="48.49396" lon="-2.00727">
        <ele>95.41434</ele>
        <time>2019-09-11T14:33:17Z</time>
      </trkpt>
      <trkpt lat="48.49393" lon="-2.00729">
        <ele>95.50355</ele>
        <time>2019-09-11T14:33:18Z</time>
      </trkpt>
      <trkpt lat="48.4939" lon="-2.0073">
        <ele>95.225655</ele>
        <time>2019-09-11T14:33:19Z</time>
      </trkpt>
      <trkpt lat="48.49387" lon="-2.00732">
        <ele>95.04069</ele>
        <time>2019-09-11T14:33:20Z</time>
      </trkpt>
      <trkpt lat="48.49385" lon="-2.00733">
        <ele>94.99267</ele>
        <time>2019-09-11T14:33:21Z</time>
      </trkpt>
      <trkpt lat="48.49382" lon="-2.00734">
        <ele>94.82764</ele>
        <time>2019-09-11T14:33:22Z</time>
      </trkpt>
      <trkpt lat="48.4938" lon="-2.00736">
        <ele>94.5698</ele>
        <time>2019-09-11T14:33:23Z</time>
      </trkpt>
      <trkpt lat="48.49377" lon="-2.00738">
        <ele>94.50548</ele>
        <time>2019-09-11T14:33:24Z</time>
      </trkpt>
      <trkpt lat="48.49374" lon="-2.0074">
        <ele>94.3094</ele>
        <time>2019-09-11T14:33:25Z</time>
      </trkpt>
      <trkpt lat="48.49371" lon="-2.00742">
        <ele>93.997574</ele>
        <time>2019-09-11T14:33:26Z</time>
      </trkpt>
      <trkpt lat="48.49369" lon="-2.00744">
        <ele>93.812996</ele>
        <time>2019-09-11T14:33:27Z</time>
      </trkpt>
      <trkpt lat="48.49366" lon="-2.00746">
        <ele>93.596664</ele>
        <time>2019-09-11T14:33:28Z</time>
      </trkpt>
      <trkpt lat="48.49363" lon="-2.00747">
        <ele>93.58367</ele>
        <time>2019-09-11T14:33:29Z</time>
      </trkpt>
      <trkpt lat="48.4936" lon="-2.00749">
        <ele>93.65988</ele>
        <time>2019-09-11T14:33:30Z</time>
      </trkpt>
      <trkpt lat="48.49356" lon="-2.00751">
        <ele>93.627174</ele>
        <time>2019-09-11T14:33:31Z</time>
      </trkpt>
      <trkpt lat="48.49353" lon="-2.00753">
        <ele>93.6515</ele>
        <time>2019-09-11T14:33:32Z</time>
      </trkpt>
      <trkpt lat="48.4935" lon="-2.00756">
        <ele>93.28357</ele>
        <time>2019-09-11T14:33:33Z</time>
      </trkpt>
      <trkpt lat="48.49347" lon="-2.00758">
        <ele>93.23184</ele>
        <time>2019-09-11T14:33:34Z</time>
      </trkpt>
      <trkpt lat="48.49344" lon="-2.0076">
        <ele>92.98389</ele>
        <time>2019-09-11T14:33:35Z</time>
      </trkpt>
      <trkpt lat="48.49342" lon="-2.00761">
        <ele>92.94214</ele>
        <time>2019-09-11T14:33:36Z</time>
      </trkpt>
      <trkpt lat="48.49339" lon="-2.00762">
        <ele>93.07967</ele>
        <time>2019-09-11T14:33:37Z</time>
      </trkpt>
      <trkpt lat="48.49336" lon="-2.00764">
        <ele>93.49158</ele>
        <time>2019-09-11T14:33:38Z</time>
      </trkpt>
      <trkpt lat="48.49334" lon="-2.00765">
        <ele>93.965355</ele>
        <time>2019-09-11T14:33:39Z</time>
      </trkpt>
      <trkpt lat="48.49331" lon="-2.00767">
        <ele>94.49438</ele>
        <time>2019-09-11T14:33:40Z</time>
      </trkpt>
      <trkpt lat="48.49328" lon="-2.00768">
        <ele>94.721245</ele>
        <time>2019-09-11T14:33:41Z</time>
      </trkpt>
      <trkpt lat="48.49325" lon="-2.00769">
        <ele>94.83911</ele>
        <time>2019-09-11T14:33:42Z</time>
      </trkpt>
      <trkpt lat="48.49323" lon="-2.0077">
        <ele>94.92155</ele>
        <time>2019-09-11T14:33:43Z</time>
      </trkpt>
      <trkpt lat="48.4932" lon="-2.00772">
        <ele>95.19355</ele>
        <time>2019-09-11T14:33:44Z</time>
      </trkpt>
      <trkpt lat="48.49316" lon="-2.00773">
        <ele>95.40437</ele>
        <time>2019-09-11T14:33:45Z</time>
      </trkpt>
      <trkpt lat="48.49313" lon="-2.00775">
        <ele>95.63894</ele>
        <time>2019-09-11T14:33:46Z</time>
      </trkpt>
      <trkpt lat="48.4931" lon="-2.00777">
        <ele>95.60522</ele>
        <time>2019-09-11T14:33:47Z</time>
      </trkpt>
      <trkpt lat="48.49305" lon="-2.0078">
        <ele>95.46815</ele>
        <time>2019-09-11T14:33:48Z</time>
      </trkpt>
      <trkpt lat="48.49301" lon="-2.00783">
        <ele>95.31145</ele>
        <time>2019-09-11T14:33:49Z</time>
      </trkpt>
      <trkpt lat="48.49296" lon="-2.00786">
        <ele>95.42839</ele>
        <time>2019-09-11T14:33:50Z</time>
      </trkpt>
      <trkpt lat="48.49292" lon="-2.00789">
        <ele>94.907646</ele>
        <time>2019-09-11T14:33:51Z</time>
      </trkpt>
      <trkpt lat="48.49289" lon="-2.0079">
        <ele>94.95517</ele>
        <time>2019-09-11T14:33:52Z</time>
      </trkpt>
      <trkpt lat="48.49286" lon="-2.00791">
        <ele>94.996056</ele>
        <time>2019-09-11T14:33:53Z</time>
      </trkpt>
      <trkpt lat="48.49281" lon="-2.00794">
        <ele>94.86435</ele>
        <time>2019-09-11T14:33:54Z</time>
      </trkpt>
      <trkpt lat="48.49277" lon="-2.00797">
        <ele>94.79918</ele>
        <time>2019-09-11T14:33:55Z</time>
      </trkpt>
      <trkpt lat="48.49273" lon="-2.00798">
        <ele>94.65689</ele>
        <time>2019-09-11T14:33:56Z</time>
      </trkpt>
      <trkpt lat="48.4927" lon="-2.008">
        <ele>94.52624</ele>
        <time>2019-09-11T14:33:57Z</time>
      </trkpt>
      <trkpt lat="48.49267" lon="-2.00802">
        <ele>94.38223</ele>
        <time>2019-09-11T14:33:58Z</time>
      </trkpt>
      <trkpt lat="48.49264" lon="-2.00805">
        <ele>94.331955</ele>
        <time>2019-09-11T14:33:59Z</time>
      </trkpt>
      <trkpt lat="48.49261" lon="-2.00808">
        <ele>94.42598</ele>
        <time>2019-09-11T14:34:00Z</time>
      </trkpt>
      <trkpt lat="48.49258" lon="-2.00811">
        <ele>94.59999</ele>
        <time>2019-09-11T14:34:01Z</time>
      </trkpt>
      <trkpt lat="48.49255" lon="-2.00813">
        <ele>94.6536</ele>
        <time>2019-09-11T14:34:02Z</time>
      </trkpt>
      <trkpt lat="48.49252" lon="-2.00817">
        <ele>94.85843</ele>
        <time>2019-09-11T14:34:03Z</time>
      </trkpt>
      <trkpt lat="48.49249" lon="-2.00823">
        <ele>95.144646</ele>
        <time>2019-09-11T14:34:04Z</time>
      </trkpt>
      <trkpt lat="48.49245" lon="-2.00828">
        <ele>95.24265</ele>
        <time>2019-09-11T14:34:05Z</time>
      </trkpt>
      <trkpt lat="48.49242" lon="-2.00832">
        <ele>95.34629</ele>
        <time>2019-09-11T14:34:06Z</time>
      </trkpt>
      <trkpt lat="48.49239" lon="-2.00835">
        <ele>95.54121</ele>
        <time>2019-09-11T14:34:07Z</time>
      </trkpt>
      <trkpt lat="48.49236" lon="-2.00837">
        <ele>95.79706</ele>
        <time>2019-09-11T14:34:08Z</time>
      </trkpt>
      <trkpt lat="48.49232" lon="-2.00839">
        <ele>95.78685</ele>
        <time>2019-09-11T14:34:09Z</time>
      </trkpt>
      <trkpt lat="48.49229" lon="-2.00841">
        <ele>95.8836</ele>
        <time>2019-09-11T14:34:10Z</time>
      </trkpt>
      <trkpt lat="48.49226" lon="-2.00844">
        <ele>96.03929</ele>
        <time>2019-09-11T14:34:11Z</time>
      </trkpt>
      <trkpt lat="48.49223" lon="-2.00847">
        <ele>96.04623</ele>
        <time>2019-09-11T14:34:12Z</time>
      </trkpt>
      <trkpt lat="48.49219" lon="-2.00852">
        <ele>95.626</ele>
        <time>2019-09-11T14:34:13Z</time>
      </trkpt>
      <trkpt lat="48.49216" lon="-2.00856">
        <ele>95.64569</ele>
        <time>2019-09-11T14:34:14Z</time>
      </trkpt>
      <trkpt lat="48.49214" lon="-2.00858">
        <ele>95.53315</ele>
        <time>2019-09-11T14:34:15Z</time>
      </trkpt>
      <trkpt lat="48.49211" lon="-2.00861">
        <ele>95.838165</ele>
        <time>2019-09-11T14:34:16Z</time>
      </trkpt>
      <trkpt lat="48.49208" lon="-2.00865">
        <ele>95.59692</ele>
        <time>2019-09-11T14:34:17Z</time>
      </trkpt>
      <trkpt lat="48.49204" lon="-2.00869">
        <ele>95.15743</ele>
        <time>2019-09-11T14:34:18Z</time>
      </trkpt>
      <trkpt lat="48.49201" lon="-2.00873">
        <ele>94.954216</ele>
        <time>2019-09-11T14:34:19Z</time>
      </trkpt>
      <trkpt lat="48.49197" lon="-2.00876">
        <ele>94.88524</ele>
        <time>2019-09-11T14:34:20Z</time>
      </trkpt>
      <trkpt lat="48.49192" lon="-2.00879">
        <ele>95.070694</ele>
        <time>2019-09-11T14:34:21Z</time>
      </trkpt>
      <trkpt lat="48.49188" lon="-2.00884">
        <ele>95.17569</ele>
        <time>2019-09-11T14:34:22Z</time>
      </trkpt>
      <trkpt lat="48.49183" lon="-2.00888">
        <ele>95.55419</ele>
        <time>2019-09-11T14:34:23Z</time>
      </trkpt>
      <trkpt lat="48.49179" lon="-2.00892">
        <ele>95.931725</ele>
        <time>2019-09-11T14:34:24Z</time>
      </trkpt>
      <trkpt lat="48.49175" lon="-2.00896">
        <ele>97.04784</ele>
        <time>2019-09-11T14:34:25Z</time>
      </trkpt>
      <trkpt lat="48.49171" lon="-2.00899">
        <ele>97.385506</ele>
        <time>2019-09-11T14:34:26Z</time>
      </trkpt>
      <trkpt lat="48.49168" lon="-2.00902">
        <ele>97.38384</ele>
        <time>2019-09-11T14:34:27Z</time>
      </trkpt>
      <trkpt lat="48.49165" lon="-2.00903">
        <ele>97.01307</ele>
        <time>2019-09-11T14:34:28Z</time>
      </trkpt>
      <trkpt lat="48.49161" lon="-2.00905">
        <ele>96.95446</ele>
        <time>2019-09-11T14:34:29Z</time>
      </trkpt>
      <trkpt lat="48.49156" lon="-2.00907">
        <ele>96.60773</ele>
        <time>2019-09-11T14:34:30Z</time>
      </trkpt>
      <trkpt lat="48.49152" lon="-2.00909">
        <ele>96.46994</ele>
        <time>2019-09-11T14:34:31Z</time>
      </trkpt>
      <trkpt lat="48.49147" lon="-2.00911">
        <ele>96.6011</ele>
        <time>2019-09-11T14:34:32Z</time>
      </trkpt>
      <trkpt lat="48.49144" lon="-2.00913">
        <ele>96.80026</ele>
        <time>2019-09-11T14:34:33Z</time>
      </trkpt>
      <trkpt lat="48.4914" lon="-2.00915">
        <ele>97.01061</ele>
        <time>2019-09-11T14:34:34Z</time>
      </trkpt>
      <trkpt lat="48.49136" lon="-2.00917">
        <ele>97.29379</ele>
        <time>2019-09-11T14:34:35Z</time>
      </trkpt>
      <trkpt lat="48.49133" lon="-2.00919">
        <ele>97.18996</ele>
        <time>2019-09-11T14:34:36Z</time>
      </trkpt>
      <trkpt lat="48.49128" lon="-2.00922">
        <ele>97.53861</ele>
        <time>2019-09-11T14:34:37Z</time>
      </trkpt>
      <trkpt lat="48.49123" lon="-2.00925">
        <ele>97.51559</ele>
        <time>2019-09-11T14:34:38Z</time>
      </trkpt>
      <trkpt lat="48.49118" lon="-2.00927">
        <ele>98.08109</ele>
        <time>2019-09-11T14:34:39Z</time>
      </trkpt>
      <trkpt lat="48.49115" lon="-2.00928">
        <ele>98.1169</ele>
        <time>2019-09-11T14:34:40Z</time>
      </trkpt>
      <trkpt lat="48.49112" lon="-2.0093">
        <ele>98.059525</ele>
        <time>2019-09-11T14:34:41Z</time>
      </trkpt>
      <trkpt lat="48.49109" lon="-2.0093">
        <ele>97.9782</ele>
        <time>2019-09-11T14:34:42Z</time>
      </trkpt>
      <trkpt lat="48.49106" lon="-2.00931">
        <ele>98.12449</ele>
        <time>2019-09-11T14:34:43Z</time>
      </trkpt>
      <trkpt lat="48.49104" lon="-2.00932">
        <ele>98.14834</ele>
        <time>2019-09-11T14:34:44Z</time>
      </trkpt>
      <trkpt lat="48.491" lon="-2.00933">
        <ele>98.11739</ele>
        <time>2019-09-11T14:34:45Z</time>
      </trkpt>
      <trkpt lat="48.49096" lon="-2.00934">
        <ele>97.75176</ele>
        <time>2019-09-11T14:34:46Z</time>
      </trkpt>
      <trkpt lat="48.49092" lon="-2.00936">
        <ele>97.51922</ele>
        <time>2019-09-11T14:34:47Z</time>
      </trkpt>
      <trkpt lat="48.49087" lon="-2.00937">
        <ele>97.29388</ele>
        <time>2019-09-11T14:34:48Z</time>
      </trkpt>
      <trkpt lat="48.49081" lon="-2.00939">
        <ele>96.93612</ele>
        <time>2019-09-11T14:34:49Z</time>
      </trkpt>
      <trkpt lat="48.49076" lon="-2.0094">
        <ele>96.44404</ele>
        <time>2019-09-11T14:34:50Z</time>
      </trkpt>
      <trkpt lat="48.49071" lon="-2.0094">
        <ele>96.75287</ele>
        <time>2019-09-11T14:34:51Z</time>
      </trkpt>
      <trkpt lat="48.49066" lon="-2.0094">
        <ele>96.36718</ele>
        <time>2019-09-11T14:34:52Z</time>
      </trkpt>
      <trkpt lat="48.49061" lon="-2.0094">
        <ele>96.07137</ele>
        <time>2019-09-11T14:34:53Z</time>
      </trkpt>
      <trkpt lat="48.49057" lon="-2.00939">
        <ele>95.66613</ele>
        <time>2019-09-11T14:34:54Z</time>
      </trkpt>
      <trkpt lat="48.49051" lon="-2.00939">
        <ele>95.35399</ele>
        <time>2019-09-11T14:34:55Z</time>
      </trkpt>
      <trkpt lat="48.49046" lon="-2.00938">
        <ele>95.57049</ele>
        <time>2019-09-11T14:34:56Z</time>
      </trkpt>
      <trkpt lat="48.49041" lon="-2.00937">
        <ele>95.20735</ele>
        <time>2019-09-11T14:34:57Z</time>
      </trkpt>
      <trkpt lat="48.49035" lon="-2.00936">
        <ele>94.93777</ele>
        <time>2019-09-11T14:34:58Z</time>
      </trkpt>
      <trkpt lat="48.4903" lon="-2.00934">
        <ele>94.477425</ele>
        <time>2019-09-11T14:34:59Z</time>
      </trkpt>
      <trkpt lat="48.49025" lon="-2.00933">
        <ele>94.15404</ele>
        <time>2019-09-11T14:35:00Z</time>
      </trkpt>
      <trkpt lat="48.4902" lon="-2.00932">
        <ele>93.7011</ele>
        <time>2019-09-11T14:35:01Z</time>
      </trkpt>
      <trkpt lat="48.49016" lon="-2.00933">
        <ele>93.711754</ele>
        <time>2019-09-11T14:35:02Z</time>
      </trkpt>
      <trkpt lat="48.49013" lon="-2.00933">
        <ele>93.83965</ele>
        <time>2019-09-11T14:35:03Z</time>
      </trkpt>
      <trkpt lat="48.49011" lon="-2.00933">
        <ele>93.90367</ele>
        <time>2019-09-11T14:35:04Z</time>
      </trkpt>
      <trkpt lat="48.49008" lon="-2.00934">
        <ele>93.99315</ele>
        <time>2019-09-11T14:35:05Z</time>
      </trkpt>
      <trkpt lat="48.49006" lon="-2.00933">
        <ele>93.89349</ele>
        <time>2019-09-11T14:35:06Z</time>
      </trkpt>
      <trkpt lat="48.49003" lon="-2.00933">
        <ele>94.074</ele>
        <time>2019-09-11T14:35:07Z</time>
      </trkpt>
      <trkpt lat="48.48999" lon="-2.00933">
        <ele>93.639824</ele>
        <time>2019-09-11T14:35:08Z</time>
      </trkpt>
      <trkpt lat="48.48994" lon="-2.00935">
        <ele>93.69208</ele>
        <time>2019-09-11T14:35:09Z</time>
      </trkpt>
      <trkpt lat="48.48989" lon="-2.00935">
        <ele>93.905914</ele>
        <time>2019-09-11T14:35:10Z</time>
      </trkpt>
      <trkpt lat="48.48984" lon="-2.00936">
        <ele>94.04853</ele>
        <time>2019-09-11T14:35:11Z</time>
      </trkpt>
      <trkpt lat="48.48979" lon="-2.00937">
        <ele>94.38675</ele>
        <time>2019-09-11T14:35:12Z</time>
      </trkpt>
      <trkpt lat="48.48975" lon="-2.00937">
        <ele>94.728775</ele>
        <time>2019-09-11T14:35:13Z</time>
      </trkpt>
      <trkpt lat="48.48971" lon="-2.00937">
        <ele>95.2223</ele>
        <time>2019-09-11T14:35:14Z</time>
      </trkpt>
      <trkpt lat="48.48968" lon="-2.00937">
        <ele>95.4814</ele>
        <time>2019-09-11T14:35:15Z</time>
      </trkpt>
      <trkpt lat="48.48965" lon="-2.00936">
        <ele>95.96982</ele>
        <time>2019-09-11T14:35:16Z</time>
      </trkpt>
      <trkpt lat="48.48961" lon="-2.00936">
        <ele>96.42397</ele>
        <time>2019-09-11T14:35:17Z</time>
      </trkpt>
      <trkpt lat="48.48958" lon="-2.00935">
        <ele>96.585884</ele>
        <time>2019-09-11T14:35:18Z</time>
      </trkpt>
      <trkpt lat="48.48954" lon="-2.00935">
        <ele>96.460236</ele>
        <time>2019-09-11T14:35:19Z</time>
      </trkpt>
      <trkpt lat="48.4895" lon="-2.00935">
        <ele>96.801994</ele>
        <time>2019-09-11T14:35:20Z</time>
      </trkpt>
      <trkpt lat="48.48946" lon="-2.00933">
        <ele>97.0948</ele>
        <time>2019-09-11T14:35:21Z</time>
      </trkpt>
      <trkpt lat="48.48941" lon="-2.0093">
        <ele>97.97139</ele>
        <time>2019-09-11T14:35:22Z</time>
      </trkpt>
      <trkpt lat="48.48936" lon="-2.00925">
        <ele>98.34928</ele>
        <time>2019-09-11T14:35:23Z</time>
      </trkpt>
      <trkpt lat="48.48931" lon="-2.00919">
        <ele>98.19842</ele>
        <time>2019-09-11T14:35:24Z</time>
      </trkpt>
      <trkpt lat="48.48927" lon="-2.00915">
        <ele>98.58937</ele>
        <time>2019-09-11T14:35:25Z</time>
      </trkpt>
      <trkpt lat="48.48922" lon="-2.00913">
        <ele>98.472244</ele>
        <time>2019-09-11T14:35:26Z</time>
      </trkpt>
      <trkpt lat="48.48916" lon="-2.00909">
        <ele>99.76041</ele>
        <time>2019-09-11T14:35:27Z</time>
      </trkpt>
      <trkpt lat="48.48912" lon="-2.00905">
        <ele>100.29287</ele>
        <time>2019-09-11T14:35:28Z</time>
      </trkpt>
      <trkpt lat="48.48909" lon="-2.00898">
        <ele>100.716705</ele>
        <time>2019-09-11T14:35:29Z</time>
      </trkpt>
      <trkpt lat="48.48906" lon="-2.00891">
        <ele>100.88332</ele>
        <time>2019-09-11T14:35:30Z</time>
      </trkpt>
      <trkpt lat="48.48903" lon="-2.00884">
        <ele>101.23018</ele>
        <time>2019-09-11T14:35:31Z</time>
      </trkpt>
      <trkpt lat="48.48899" lon="-2.00877">
        <ele>101.21656</ele>
        <time>2019-09-11T14:35:32Z</time>
      </trkpt>
      <trkpt lat="48.48894" lon="-2.0087">
        <ele>101.24474</ele>
        <time>2019-09-11T14:35:33Z</time>
      </trkpt>
      <trkpt lat="48.48888" lon="-2.00865">
        <ele>100.99485</ele>
        <time>2019-09-11T14:35:34Z</time>
      </trkpt>
      <trkpt lat="48.48882" lon="-2.0086">
        <ele>100.952705</ele>
        <time>2019-09-11T14:35:35Z</time>
      </trkpt>
      <trkpt lat="48.48876" lon="-2.00854">
        <ele>100.91765</ele>
        <time>2019-09-11T14:35:36Z</time>
      </trkpt>
      <trkpt lat="48.48869" lon="-2.00848">
        <ele>101.1541</ele>
        <time>2019-09-11T14:35:37Z</time>
      </trkpt>
      <trkpt lat="48.48863" lon="-2.00842">
        <ele>101.589325</ele>
        <time>2019-09-11T14:35:38Z</time>
      </trkpt>
      <trkpt lat="48.48856" lon="-2.00836">
        <ele>102.02771</ele>
        <time>2019-09-11T14:35:39Z</time>
      </trkpt>
      <trkpt lat="48.48851" lon="-2.0083">
        <ele>102.61364</ele>
        <time>2019-09-11T14:35:40Z</time>
      </trkpt>
      <trkpt lat="48.48846" lon="-2.00825">
        <ele>103.15369</ele>
        <time>2019-09-11T14:35:41Z</time>
      </trkpt>
      <trkpt lat="48.48841" lon="-2.00819">
        <ele>103.599976</ele>
        <time>2019-09-11T14:35:42Z</time>
      </trkpt>
      <trkpt lat="48.48838" lon="-2.00813">
        <ele>103.87829</ele>
        <time>2019-09-11T14:35:43Z</time>
      </trkpt>
      <trkpt lat="48.48835" lon="-2.00807">
        <ele>103.831924</ele>
        <time>2019-09-11T14:35:44Z</time>
      </trkpt>
      <trkpt lat="48.48833" lon="-2.00801">
        <ele>103.86004</ele>
        <time>2019-09-11T14:35:45Z</time>
      </trkpt>
      <trkpt lat="48.4883" lon="-2.00796">
        <ele>103.87762</ele>
        <time>2019-09-11T14:35:46Z</time>
      </trkpt>
      <trkpt lat="48.48826" lon="-2.00791">
        <ele>103.710335</ele>
        <time>2019-09-11T14:35:47Z</time>
      </trkpt>
      <trkpt lat="48.48823" lon="-2.00787">
        <ele>103.78623</ele>
        <time>2019-09-11T14:35:48Z</time>
      </trkpt>
      <trkpt lat="48.48819" lon="-2.00783">
        <ele>103.58299</ele>
        <time>2019-09-11T14:35:49Z</time>
      </trkpt>
      <trkpt lat="48.48816" lon="-2.0078">
        <ele>103.26269</ele>
        <time>2019-09-11T14:35:50Z</time>
      </trkpt>
      <trkpt lat="48.48812" lon="-2.00777">
        <ele>102.69262</ele>
        <time>2019-09-11T14:35:51Z</time>
      </trkpt>
      <trkpt lat="48.48808" lon="-2.00775">
        <ele>102.395454</ele>
        <time>2019-09-11T14:35:52Z</time>
      </trkpt>
      <trkpt lat="48.48805" lon="-2.00772">
        <ele>102.05994</ele>
        <time>2019-09-11T14:35:53Z</time>
      </trkpt>
      <trkpt lat="48.488" lon="-2.00768">
        <ele>101.74149</ele>
        <time>2019-09-11T14:35:54Z</time>
      </trkpt>
      <trkpt lat="48.48796" lon="-2.00765">
        <ele>101.50119</ele>
        <time>2019-09-11T14:35:55Z</time>
      </trkpt>
      <trkpt lat="48.48792" lon="-2.00762">
        <ele>101.26025</ele>
        <time>2019-09-11T14:35:56Z</time>
      </trkpt>
      <trkpt lat="48.48788" lon="-2.00759">
        <ele>100.98204</ele>
        <time>2019-09-11T14:35:57Z</time>
      </trkpt>
      <trkpt lat="48.48783" lon="-2.00755">
        <ele>100.158485</ele>
        <time>2019-09-11T14:35:58Z</time>
      </trkpt>
      <trkpt lat="48.48778" lon="-2.00752">
        <ele>100.03623</ele>
        <time>2019-09-11T14:35:59Z</time>
      </trkpt>
      <trkpt lat="48.48772" lon="-2.00748">
        <ele>99.81224</ele>
        <time>2019-09-11T14:36:00Z</time>
      </trkpt>
      <trkpt lat="48.48767" lon="-2.00745">
        <ele>99.50023</ele>
        <time>2019-09-11T14:36:01Z</time>
      </trkpt>
      <trkpt lat="48.48761" lon="-2.00745">
        <ele>99.2342</ele>
        <time>2019-09-11T14:36:02Z</time>
      </trkpt>
      <trkpt lat="48.48755" lon="-2.00746">
        <ele>99.08966</ele>
        <time>2019-09-11T14:36:03Z</time>
      </trkpt>
      <trkpt lat="48.4875" lon="-2.00749">
        <ele>99.150665</ele>
        <time>2019-09-11T14:36:04Z</time>
      </trkpt>
      <trkpt lat="48.48747" lon="-2.00752">
        <ele>99.11467</ele>
        <time>2019-09-11T14:36:05Z</time>
      </trkpt>
      <trkpt lat="48.48743" lon="-2.00754">
        <ele>99.036026</ele>
        <time>2019-09-11T14:36:06Z</time>
      </trkpt>
      <trkpt lat="48.48739" lon="-2.00755">
        <ele>98.77318</ele>
        <time>2019-09-11T14:36:07Z</time>
      </trkpt>
      <trkpt lat="48.48735" lon="-2.00755">
        <ele>98.48125</ele>
        <time>2019-09-11T14:36:08Z</time>
      </trkpt>
      <trkpt lat="48.4873" lon="-2.00754">
        <ele>98.26645</ele>
        <time>2019-09-11T14:36:09Z</time>
      </trkpt>
      <trkpt lat="48.48725" lon="-2.00753">
        <ele>98.30481</ele>
        <time>2019-09-11T14:36:10Z</time>
      </trkpt>
      <trkpt lat="48.4872" lon="-2.00752">
        <ele>98.26763</ele>
        <time>2019-09-11T14:36:11Z</time>
      </trkpt>
      <trkpt lat="48.48714" lon="-2.00751">
        <ele>98.28183</ele>
        <time>2019-09-11T14:36:12Z</time>
      </trkpt>
      <trkpt lat="48.48709" lon="-2.00749">
        <ele>98.23709</ele>
        <time>2019-09-11T14:36:13Z</time>
      </trkpt>
      <trkpt lat="48.48704" lon="-2.00747">
        <ele>98.227036</ele>
        <time>2019-09-11T14:36:14Z</time>
      </trkpt>
      <trkpt lat="48.48699" lon="-2.00743">
        <ele>97.84714</ele>
        <time>2019-09-11T14:36:15Z</time>
      </trkpt>
      <trkpt lat="48.48694" lon="-2.00742">
        <ele>97.03785</ele>
        <time>2019-09-11T14:36:16Z</time>
      </trkpt>
      <trkpt lat="48.48689" lon="-2.0074">
        <ele>96.569336</ele>
        <time>2019-09-11T14:36:17Z</time>
      </trkpt>
      <trkpt lat="48.48684" lon="-2.00738">
        <ele>96.41395</ele>
        <time>2019-09-11T14:36:18Z</time>
      </trkpt>
      <trkpt lat="48.48678" lon="-2.00736">
        <ele>96.292465</ele>
        <time>2019-09-11T14:36:19Z</time>
      </trkpt>
      <trkpt lat="48.48671" lon="-2.00734">
        <ele>95.23948</ele>
        <time>2019-09-11T14:36:20Z</time>
      </trkpt>
      <trkpt lat="48.48666" lon="-2.00733">
        <ele>95.03478</ele>
        <time>2019-09-11T14:36:21Z</time>
      </trkpt>
      <trkpt lat="48.4866" lon="-2.0073">
        <ele>94.776596</ele>
        <time>2019-09-11T14:36:22Z</time>
      </trkpt>
      <trkpt lat="48.48655" lon="-2.00729">
        <ele>94.78831</ele>
        <time>2019-09-11T14:36:23Z</time>
      </trkpt>
      <trkpt lat="48.48649" lon="-2.00727">
        <ele>94.497406</ele>
        <time>2019-09-11T14:36:24Z</time>
      </trkpt>
      <trkpt lat="48.48643" lon="-2.00726">
        <ele>94.56017</ele>
        <time>2019-09-11T14:36:25Z</time>
      </trkpt>
      <trkpt lat="48.48637" lon="-2.00726">
        <ele>94.48378</ele>
        <time>2019-09-11T14:36:26Z</time>
      </trkpt>
      <trkpt lat="48.48631" lon="-2.00726">
        <ele>94.79149</ele>
        <time>2019-09-11T14:36:27Z</time>
      </trkpt>
      <trkpt lat="48.48625" lon="-2.00725">
        <ele>94.84204</ele>
        <time>2019-09-11T14:36:28Z</time>
      </trkpt>
      <trkpt lat="48.4862" lon="-2.00724">
        <ele>94.958725</ele>
        <time>2019-09-11T14:36:29Z</time>
      </trkpt>
      <trkpt lat="48.48614" lon="-2.00723">
        <ele>95.03017</ele>
        <time>2019-09-11T14:36:30Z</time>
      </trkpt>
      <trkpt lat="48.48608" lon="-2.00721">
        <ele>94.965935</ele>
        <time>2019-09-11T14:36:31Z</time>
      </trkpt>
      <trkpt lat="48.48602" lon="-2.00721">
        <ele>95.01173</ele>
        <time>2019-09-11T14:36:32Z</time>
      </trkpt>
      <trkpt lat="48.48596" lon="-2.0072">
        <ele>94.8712</ele>
        <time>2019-09-11T14:36:33Z</time>
      </trkpt>
      <trkpt lat="48.48589" lon="-2.0072">
        <ele>94.64471</ele>
        <time>2019-09-11T14:36:34Z</time>
      </trkpt>
      <trkpt lat="48.48582" lon="-2.00721">
        <ele>94.34467</ele>
        <time>2019-09-11T14:36:35Z</time>
      </trkpt>
      <trkpt lat="48.48576" lon="-2.00723">
        <ele>93.8693</ele>
        <time>2019-09-11T14:36:36Z</time>
      </trkpt>
      <trkpt lat="48.4857" lon="-2.00727">
        <ele>93.7165</ele>
        <time>2019-09-11T14:36:37Z</time>
      </trkpt>
      <trkpt lat="48.48563" lon="-2.00733">
        <ele>93.50825</ele>
        <time>2019-09-11T14:36:38Z</time>
      </trkpt>
      <trkpt lat="48.48557" lon="-2.00737">
        <ele>93.78213</ele>
        <time>2019-09-11T14:36:39Z</time>
      </trkpt>
      <trkpt lat="48.48552" lon="-2.00743">
        <ele>93.68629</ele>
        <time>2019-09-11T14:36:40Z</time>
      </trkpt>
      <trkpt lat="48.48546" lon="-2.00748">
        <ele>93.52899</ele>
        <time>2019-09-11T14:36:41Z</time>
      </trkpt>
      <trkpt lat="48.48541" lon="-2.00753">
        <ele>93.89164</ele>
        <time>2019-09-11T14:36:42Z</time>
      </trkpt>
      <trkpt lat="48.48536" lon="-2.00758">
        <ele>93.93368</ele>
        <time>2019-09-11T14:36:43Z</time>
      </trkpt>
      <trkpt lat="48.48531" lon="-2.00764">
        <ele>93.957245</ele>
        <time>2019-09-11T14:36:44Z</time>
      </trkpt>
      <trkpt lat="48.48526" lon="-2.0077">
        <ele>93.941246</ele>
        <time>2019-09-11T14:36:45Z</time>
      </trkpt>
      <trkpt lat="48.48522" lon="-2.00775">
        <ele>94.10914</ele>
        <time>2019-09-11T14:36:46Z</time>
      </trkpt>
      <trkpt lat="48.48517" lon="-2.0078">
        <ele>94.06554</ele>
        <time>2019-09-11T14:36:47Z</time>
      </trkpt>
      <trkpt lat="48.48512" lon="-2.00784">
        <ele>93.97597</ele>
        <time>2019-09-11T14:36:48Z</time>
      </trkpt>
      <trkpt lat="48.48507" lon="-2.00788">
        <ele>93.73911</ele>
        <time>2019-09-11T14:36:49Z</time>
      </trkpt>
      <trkpt lat="48.48502" lon="-2.00792">
        <ele>93.46862</ele>
        <time>2019-09-11T14:36:50Z</time>
      </trkpt>
      <trkpt lat="48.48496" lon="-2.00795">
        <ele>93.2508</ele>
        <time>2019-09-11T14:36:51Z</time>
      </trkpt>
      <trkpt lat="48.48489" lon="-2.00798">
        <ele>93.06611</ele>
        <time>2019-09-11T14:36:52Z</time>
      </trkpt>
      <trkpt lat="48.48483" lon="-2.00801">
        <ele>92.75194</ele>
        <time>2019-09-11T14:36:53Z</time>
      </trkpt>
      <trkpt lat="48.48475" lon="-2.00803">
        <ele>92.57918</ele>
        <time>2019-09-11T14:36:54Z</time>
      </trkpt>
      <trkpt lat="48.48469" lon="-2.00807">
        <ele>92.437904</ele>
        <time>2019-09-11T14:36:55Z</time>
      </trkpt>
      <trkpt lat="48.48462" lon="-2.00809">
        <ele>92.07938</ele>
        <time>2019-09-11T14:36:56Z</time>
      </trkpt>
      <trkpt lat="48.48457" lon="-2.00811">
        <ele>91.9375</ele>
        <time>2019-09-11T14:36:57Z</time>
      </trkpt>
      <trkpt lat="48.48452" lon="-2.00811">
        <ele>91.70516</ele>
        <time>2019-09-11T14:36:58Z</time>
      </trkpt>
      <trkpt lat="48.48449" lon="-2.00812">
        <ele>91.724266</ele>
        <time>2019-09-11T14:36:59Z</time>
      </trkpt>
      <trkpt lat="48.48447" lon="-2.00816">
        <ele>91.80751</ele>
        <time>2019-09-11T14:37:00Z</time>
      </trkpt>
      <trkpt lat="48.48446" lon="-2.00821">
        <ele>92.35558</ele>
        <time>2019-09-11T14:37:01Z</time>
      </trkpt>
      <trkpt lat="48.48446" lon="-2.00827">
        <ele>92.91695</ele>
        <time>2019-09-11T14:37:02Z</time>
      </trkpt>
      <trkpt lat="48.48447" lon="-2.00834">
        <ele>93.22442</ele>
        <time>2019-09-11T14:37:03Z</time>
      </trkpt>
      <trkpt lat="48.48448" lon="-2.00841">
        <ele>93.37342</ele>
        <time>2019-09-11T14:37:04Z</time>
      </trkpt>
      <trkpt lat="48.48449" lon="-2.00848">
        <ele>93.35323</ele>
        <time>2019-09-11T14:37:05Z</time>
      </trkpt>
      <trkpt lat="48.48449" lon="-2.00855">
        <ele>93.52323</ele>
        <time>2019-09-11T14:37:06Z</time>
      </trkpt>
      <trkpt lat="48.4845" lon="-2.00862">
        <ele>93.46165</ele>
        <time>2019-09-11T14:37:07Z</time>
      </trkpt>
      <trkpt lat="48.4845" lon="-2.00868">
        <ele>93.41755</ele>
        <time>2019-09-11T14:37:08Z</time>
      </trkpt>
      <trkpt lat="48.4845" lon="-2.00875">
        <ele>93.531494</ele>
        <time>2019-09-11T14:37:09Z</time>
      </trkpt>
      <trkpt lat="48.48451" lon="-2.00881">
        <ele>93.72262</ele>
        <time>2019-09-11T14:37:10Z</time>
      </trkpt>
      <trkpt lat="48.48451" lon="-2.00888">
        <ele>94.02371</ele>
        <time>2019-09-11T14:37:11Z</time>
      </trkpt>
      <trkpt lat="48.48451" lon="-2.00895">
        <ele>94.506195</ele>
        <time>2019-09-11T14:37:12Z</time>
      </trkpt>
      <trkpt lat="48.48451" lon="-2.00901">
        <ele>94.71349</ele>
        <time>2019-09-11T14:37:13Z</time>
      </trkpt>
      <trkpt lat="48.48451" lon="-2.00907">
        <ele>94.72641</ele>
        <time>2019-09-11T14:37:14Z</time>
      </trkpt>
      <trkpt lat="48.48451" lon="-2.00912">
        <ele>94.966995</ele>
        <time>2019-09-11T14:37:15Z</time>
      </trkpt>
      <trkpt lat="48.48452" lon="-2.00918">
        <ele>95.33177</ele>
        <time>2019-09-11T14:37:16Z</time>
      </trkpt>
      <trkpt lat="48.48452" lon="-2.00923">
        <ele>95.73953</ele>
        <time>2019-09-11T14:37:17Z</time>
      </trkpt>
      <trkpt lat="48.48453" lon="-2.00929">
        <ele>96.213684</ele>
        <time>2019-09-11T14:37:18Z</time>
      </trkpt>
      <trkpt lat="48.48454" lon="-2.00934">
        <ele>96.514275</ele>
        <time>2019-09-11T14:37:19Z</time>
      </trkpt>
      <trkpt lat="48.48454" lon="-2.0094">
        <ele>96.58862</ele>
        <time>2019-09-11T14:37:20Z</time>
      </trkpt>
      <trkpt lat="48.48454" lon="-2.00946">
        <ele>96.76474</ele>
        <time>2019-09-11T14:37:21Z</time>
      </trkpt>
      <trkpt lat="48.48454" lon="-2.00951">
        <ele>97.160324</ele>
        <time>2019-09-11T14:37:22Z</time>
      </trkpt>
      <trkpt lat="48.48454" lon="-2.00957">
        <ele>97.39325</ele>
        <time>2019-09-11T14:37:23Z</time>
      </trkpt>
      <trkpt lat="48.48455" lon="-2.00963">
        <ele>97.37694</ele>
        <time>2019-09-11T14:37:24Z</time>
      </trkpt>
      <trkpt lat="48.48455" lon="-2.00969">
        <ele>97.40859</ele>
        <time>2019-09-11T14:37:25Z</time>
      </trkpt>
      <trkpt lat="48.48456" lon="-2.00975">
        <ele>97.47359</ele>
        <time>2019-09-11T14:37:26Z</time>
      </trkpt>
      <trkpt lat="48.48456" lon="-2.0098">
        <ele>97.579346</ele>
        <time>2019-09-11T14:37:27Z</time>
      </trkpt>
      <trkpt lat="48.48456" lon="-2.00985">
        <ele>97.940926</ele>
        <time>2019-09-11T14:37:28Z</time>
      </trkpt>
      <trkpt lat="48.48455" lon="-2.0099">
        <ele>98.29579</ele>
        <time>2019-09-11T14:37:29Z</time>
      </trkpt>
      <trkpt lat="48.48455" lon="-2.00995">
        <ele>98.80609</ele>
        <time>2019-09-11T14:37:30Z</time>
      </trkpt>
      <trkpt lat="48.48455" lon="-2.01">
        <ele>99.084076</ele>
        <time>2019-09-11T14:37:31Z</time>
      </trkpt>
      <trkpt lat="48.48455" lon="-2.01005">
        <ele>99.48024</ele>
        <time>2019-09-11T14:37:32Z</time>
      </trkpt>
      <trkpt lat="48.48455" lon="-2.0101">
        <ele>99.56894</ele>
        <time>2019-09-11T14:37:33Z</time>
      </trkpt>
      <trkpt lat="48.48455" lon="-2.01015">
        <ele>99.65421</ele>
        <time>2019-09-11T14:37:34Z</time>
      </trkpt>
      <trkpt lat="48.48455" lon="-2.01019">
        <ele>99.56061</ele>
        <time>2019-09-11T14:37:35Z</time>
      </trkpt>
      <trkpt lat="48.48455" lon="-2.01024">
        <ele>99.471924</ele>
        <time>2019-09-11T14:37:36Z</time>
      </trkpt>
      <trkpt lat="48.48455" lon="-2.01029">
        <ele>99.37645</ele>
        <time>2019-09-11T14:37:37Z</time>
      </trkpt>
      <trkpt lat="48.48454" lon="-2.01034">
        <ele>99.358284</ele>
        <time>2019-09-11T14:37:38Z</time>
      </trkpt>
      <trkpt lat="48.48454" lon="-2.0104">
        <ele>99.36528</ele>
        <time>2019-09-11T14:37:39Z</time>
      </trkpt>
      <trkpt lat="48.48454" lon="-2.01045">
        <ele>99.37041</ele>
        <time>2019-09-11T14:37:40Z</time>
      </trkpt>
      <trkpt lat="48.48453" lon="-2.01051">
        <ele>99.434204</ele>
        <time>2019-09-11T14:37:41Z</time>
      </trkpt>
      <trkpt lat="48.48453" lon="-2.01056">
        <ele>99.46121</ele>
        <time>2019-09-11T14:37:42Z</time>
      </trkpt>
      <trkpt lat="48.48452" lon="-2.01062">
        <ele>99.557724</ele>
        <time>2019-09-11T14:37:43Z</time>
      </trkpt>
      <trkpt lat="48.48452" lon="-2.01067">
        <ele>99.56102</ele>
        <time>2019-09-11T14:37:44Z</time>
      </trkpt>
      <trkpt lat="48.48452" lon="-2.01072">
        <ele>99.588066</ele>
        <time>2019-09-11T14:37:45Z</time>
      </trkpt>
      <trkpt lat="48.48452" lon="-2.01077">
        <ele>99.56873</ele>
        <time>2019-09-11T14:37:46Z</time>
      </trkpt>
      <trkpt lat="48.48452" lon="-2.01082">
        <ele>99.69392</ele>
        <time>2019-09-11T14:37:47Z</time>
      </trkpt>
      <trkpt lat="48.48452" lon="-2.01087">
        <ele>99.72681</ele>
        <time>2019-09-11T14:37:48Z</time>
      </trkpt>
      <trkpt lat="48.48451" lon="-2.01091">
        <ele>99.770805</ele>
        <time>2019-09-11T14:37:49Z</time>
      </trkpt>
      <trkpt lat="48.48451" lon="-2.01096">
        <ele>99.86387</ele>
        <time>2019-09-11T14:37:50Z</time>
      </trkpt>
      <trkpt lat="48.48451" lon="-2.01101">
        <ele>100.11483</ele>
        <time>2019-09-11T14:37:51Z</time>
      </trkpt>
      <trkpt lat="48.4845" lon="-2.01105">
        <ele>100.43533</ele>
        <time>2019-09-11T14:37:52Z</time>
      </trkpt>
      <trkpt lat="48.4845" lon="-2.0111">
        <ele>100.71106</ele>
        <time>2019-09-11T14:37:53Z</time>
      </trkpt>
      <trkpt lat="48.4845" lon="-2.01115">
        <ele>100.891556</ele>
        <time>2019-09-11T14:37:54Z</time>
      </trkpt>
      <trkpt lat="48.4845" lon="-2.0112">
        <ele>100.92591</ele>
        <time>2019-09-11T14:37:55Z</time>
      </trkpt>
      <trkpt lat="48.4845" lon="-2.01125">
        <ele>101.267494</ele>
        <time>2019-09-11T14:37:56Z</time>
      </trkpt>
      <trkpt lat="48.48449" lon="-2.01131">
        <ele>101.37009</ele>
        <time>2019-09-11T14:37:57Z</time>
      </trkpt>
      <trkpt lat="48.48449" lon="-2.01136">
        <ele>101.67198</ele>
        <time>2019-09-11T14:37:58Z</time>
      </trkpt>
      <trkpt lat="48.48449" lon="-2.01141">
        <ele>101.74431</ele>
        <time>2019-09-11T14:37:59Z</time>
      </trkpt>
      <trkpt lat="48.48449" lon="-2.01146">
        <ele>101.84712</ele>
        <time>2019-09-11T14:38:00Z</time>
      </trkpt>
      <trkpt lat="48.48449" lon="-2.01152">
        <ele>101.873886</ele>
        <time>2019-09-11T14:38:01Z</time>
      </trkpt>
      <trkpt lat="48.48449" lon="-2.01157">
        <ele>101.74167</ele>
        <time>2019-09-11T14:38:02Z</time>
      </trkpt>
      <trkpt lat="48.48448" lon="-2.01163">
        <ele>101.71525</ele>
        <time>2019-09-11T14:38:03Z</time>
      </trkpt>
      <trkpt lat="48.48448" lon="-2.01169">
        <ele>101.36736</ele>
        <time>2019-09-11T14:38:04Z</time>
      </trkpt>
      <trkpt lat="48.48447" lon="-2.01175">
        <ele>101.20937</ele>
        <time>2019-09-11T14:38:05Z</time>
      </trkpt>
      <trkpt lat="48.48447" lon="-2.0118">
        <ele>101.065506</ele>
        <time>2019-09-11T14:38:06Z</time>
      </trkpt>
      <trkpt lat="48.48447" lon="-2.01186">
        <ele>100.92183</ele>
        <time>2019-09-11T14:38:07Z</time>
      </trkpt>
      <trkpt lat="48.48447" lon="-2.01192">
        <ele>100.826614</ele>
        <time>2019-09-11T14:38:08Z</time>
      </trkpt>
      <trkpt lat="48.48447" lon="-2.01198">
        <ele>100.8487</ele>
        <time>2019-09-11T14:38:09Z</time>
      </trkpt>
      <trkpt lat="48.48446" lon="-2.01204">
        <ele>100.85441</ele>
        <time>2019-09-11T14:38:10Z</time>
      </trkpt>
      <trkpt lat="48.48446" lon="-2.01211">
        <ele>100.837906</ele>
        <time>2019-09-11T14:38:11Z</time>
      </trkpt>
      <trkpt lat="48.48445" lon="-2.01217">
        <ele>100.72821</ele>
        <time>2019-09-11T14:38:12Z</time>
      </trkpt>
      <trkpt lat="48.48444" lon="-2.01223">
        <ele>100.65061</ele>
        <time>2019-09-11T14:38:13Z</time>
      </trkpt>
      <trkpt lat="48.48443" lon="-2.0123">
        <ele>100.48951</ele>
        <time>2019-09-11T14:38:14Z</time>
      </trkpt>
      <trkpt lat="48.48441" lon="-2.01237">
        <ele>100.547455</ele>
        <time>2019-09-11T14:38:15Z</time>
      </trkpt>
      <trkpt lat="48.48439" lon="-2.01244">
        <ele>100.456505</ele>
        <time>2019-09-11T14:38:16Z</time>
      </trkpt>
      <trkpt lat="48.48436" lon="-2.0125">
        <ele>100.410126</ele>
        <time>2019-09-11T14:38:17Z</time>
      </trkpt>
      <trkpt lat="48.48432" lon="-2.01255">
        <ele>100.278076</ele>
        <time>2019-09-11T14:38:18Z</time>
      </trkpt>
      <trkpt lat="48.48428" lon="-2.0126">
        <ele>100.12172</ele>
        <time>2019-09-11T14:38:19Z</time>
      </trkpt>
      <trkpt lat="48.48423" lon="-2.01265">
        <ele>100.03175</ele>
        <time>2019-09-11T14:38:20Z</time>
      </trkpt>
      <trkpt lat="48.48419" lon="-2.0127">
        <ele>99.94581</ele>
        <time>2019-09-11T14:38:21Z</time>
      </trkpt>
      <trkpt lat="48.48415" lon="-2.01275">
        <ele>99.82053</ele>
        <time>2019-09-11T14:38:22Z</time>
      </trkpt>
      <trkpt lat="48.48411" lon="-2.01281">
        <ele>99.84099</ele>
        <time>2019-09-11T14:38:23Z</time>
      </trkpt>
      <trkpt lat="48.48407" lon="-2.01287">
        <ele>100.01958</ele>
        <time>2019-09-11T14:38:24Z</time>
      </trkpt>
      <trkpt lat="48.48404" lon="-2.01293">
        <ele>100.1377</ele>
        <time>2019-09-11T14:38:25Z</time>
      </trkpt>
      <trkpt lat="48.484" lon="-2.013">
        <ele>100.430954</ele>
        <time>2019-09-11T14:38:26Z</time>
      </trkpt>
      <trkpt lat="48.48396" lon="-2.01306">
        <ele>100.3335</ele>
        <time>2019-09-11T14:38:27Z</time>
      </trkpt>
      <trkpt lat="48.48393" lon="-2.01313">
        <ele>100.24583</ele>
        <time>2019-09-11T14:38:28Z</time>
      </trkpt>
      <trkpt lat="48.4839" lon="-2.0132">
        <ele>100.269844</ele>
        <time>2019-09-11T14:38:29Z</time>
      </trkpt>
      <trkpt lat="48.48388" lon="-2.01327">
        <ele>100.23797</ele>
        <time>2019-09-11T14:38:30Z</time>
      </trkpt>
      <trkpt lat="48.48385" lon="-2.01334">
        <ele>99.967575</ele>
        <time>2019-09-11T14:38:31Z</time>
      </trkpt>
      <trkpt lat="48.48383" lon="-2.01341">
        <ele>99.65065</ele>
        <time>2019-09-11T14:38:32Z</time>
      </trkpt>
      <trkpt lat="48.48381" lon="-2.01348">
        <ele>99.492546</ele>
        <time>2019-09-11T14:38:33Z</time>
      </trkpt>
      <trkpt lat="48.48379" lon="-2.01354">
        <ele>99.46441</ele>
        <time>2019-09-11T14:38:34Z</time>
      </trkpt>
      <trkpt lat="48.48377" lon="-2.0136">
        <ele>99.633514</ele>
        <time>2019-09-11T14:38:35Z</time>
      </trkpt>
      <trkpt lat="48.48376" lon="-2.01365">
        <ele>99.8986</ele>
        <time>2019-09-11T14:38:36Z</time>
      </trkpt>
      <trkpt lat="48.48374" lon="-2.01369">
        <ele>100.043045</ele>
        <time>2019-09-11T14:38:37Z</time>
      </trkpt>
      <trkpt lat="48.48372" lon="-2.01372">
        <ele>100.11668</ele>
        <time>2019-09-11T14:38:38Z</time>
      </trkpt>
      <trkpt lat="48.48369" lon="-2.01375">
        <ele>99.94317</ele>
        <time>2019-09-11T14:38:39Z</time>
      </trkpt>
      <trkpt lat="48.48366" lon="-2.01379">
        <ele>99.75376</ele>
        <time>2019-09-11T14:38:40Z</time>
      </trkpt>
      <trkpt lat="48.48364" lon="-2.01383">
        <ele>99.668396</ele>
        <time>2019-09-11T14:38:41Z</time>
      </trkpt>
      <trkpt lat="48.48362" lon="-2.01387">
        <ele>99.47027</ele>
        <time>2019-09-11T14:38:42Z</time>
      </trkpt>
      <trkpt lat="48.4836" lon="-2.01392">
        <ele>99.560036</ele>
        <time>2019-09-11T14:38:43Z</time>
      </trkpt>
      <trkpt lat="48.48358" lon="-2.01396">
        <ele>99.615204</ele>
        <time>2019-09-11T14:38:44Z</time>
      </trkpt>
      <trkpt lat="48.48356" lon="-2.01401">
        <ele>99.32053</ele>
        <time>2019-09-11T14:38:45Z</time>
      </trkpt>
      <trkpt lat="48.48354" lon="-2.01407">
        <ele>99.15689</ele>
        <time>2019-09-11T14:38:46Z</time>
      </trkpt>
      <trkpt lat="48.48352" lon="-2.01412">
        <ele>99.14954</ele>
        <time>2019-09-11T14:38:47Z</time>
      </trkpt>
      <trkpt lat="48.48351" lon="-2.01418">
        <ele>99.105</ele>
        <time>2019-09-11T14:38:48Z</time>
      </trkpt>
      <trkpt lat="48.48349" lon="-2.01424">
        <ele>99.000244</ele>
        <time>2019-09-11T14:38:49Z</time>
      </trkpt>
      <trkpt lat="48.48347" lon="-2.01429">
        <ele>98.73555</ele>
        <time>2019-09-11T14:38:50Z</time>
      </trkpt>
      <trkpt lat="48.48345" lon="-2.01435">
        <ele>98.67808</ele>
        <time>2019-09-11T14:38:51Z</time>
      </trkpt>
      <trkpt lat="48.48343" lon="-2.01441">
        <ele>98.76994</ele>
        <time>2019-09-11T14:38:52Z</time>
      </trkpt>
      <trkpt lat="48.48341" lon="-2.01448">
        <ele>98.63674</ele>
        <time>2019-09-11T14:38:53Z</time>
      </trkpt>
      <trkpt lat="48.48339" lon="-2.01454">
        <ele>98.87336</ele>
        <time>2019-09-11T14:38:54Z</time>
      </trkpt>
      <trkpt lat="48.48338" lon="-2.01461">
        <ele>98.624214</ele>
        <time>2019-09-11T14:38:55Z</time>
      </trkpt>
      <trkpt lat="48.48336" lon="-2.01467">
        <ele>98.20057</ele>
        <time>2019-09-11T14:38:56Z</time>
      </trkpt>
      <trkpt lat="48.48334" lon="-2.01472">
        <ele>98.06938</ele>
        <time>2019-09-11T14:38:57Z</time>
      </trkpt>
      <trkpt lat="48.48333" lon="-2.01478">
        <ele>97.88878</ele>
        <time>2019-09-11T14:38:58Z</time>
      </trkpt>
      <trkpt lat="48.48331" lon="-2.01484">
        <ele>97.940636</ele>
        <time>2019-09-11T14:38:59Z</time>
      </trkpt>
      <trkpt lat="48.48328" lon="-2.01489">
        <ele>97.47956</ele>
        <time>2019-09-11T14:39:00Z</time>
      </trkpt>
      <trkpt lat="48.48327" lon="-2.01493">
        <ele>96.94855</ele>
        <time>2019-09-11T14:39:01Z</time>
      </trkpt>
      <trkpt lat="48.48325" lon="-2.01497">
        <ele>96.48367</ele>
        <time>2019-09-11T14:39:02Z</time>
      </trkpt>
      <trkpt lat="48.48323" lon="-2.01501">
        <ele>96.10026</ele>
        <time>2019-09-11T14:39:03Z</time>
      </trkpt>
      <trkpt lat="48.48321" lon="-2.01505">
        <ele>95.78355</ele>
        <time>2019-09-11T14:39:04Z</time>
      </trkpt>
      <trkpt lat="48.48319" lon="-2.01509">
        <ele>96.05905</ele>
        <time>2019-09-11T14:39:05Z</time>
      </trkpt>
      <trkpt lat="48.48319" lon="-2.01512">
        <ele>96.06602</ele>
        <time>2019-09-11T14:39:06Z</time>
      </trkpt>
      <trkpt lat="48.48319" lon="-2.01515">
        <ele>96.190025</ele>
        <time>2019-09-11T14:39:07Z</time>
      </trkpt>
      <trkpt lat="48.48318" lon="-2.01518">
        <ele>96.544754</ele>
        <time>2019-09-11T14:39:08Z</time>
      </trkpt>
      <trkpt lat="48.48317" lon="-2.01521">
        <ele>96.55365</ele>
        <time>2019-09-11T14:39:09Z</time>
      </trkpt>
      <trkpt lat="48.48316" lon="-2.01523">
        <ele>96.273285</ele>
        <time>2019-09-11T14:39:10Z</time>
      </trkpt>
      <trkpt lat="48.48314" lon="-2.01524">
        <ele>96.2434</ele>
        <time>2019-09-11T14:39:11Z</time>
      </trkpt>
      <trkpt lat="48.48313" lon="-2.01525">
        <ele>96.3849</ele>
        <time>2019-09-11T14:39:12Z</time>
      </trkpt>
      <trkpt lat="48.48311" lon="-2.01526">
        <ele>96.46077</ele>
        <time>2019-09-11T14:39:13Z</time>
      </trkpt>
      <trkpt lat="48.48309" lon="-2.01527">
        <ele>96.51925</ele>
        <time>2019-09-11T14:39:14Z</time>
      </trkpt>
      <trkpt lat="48.48308" lon="-2.01528">
        <ele>96.54645</ele>
        <time>2019-09-11T14:39:15Z</time>
      </trkpt>
      <trkpt lat="48.48307" lon="-2.01529">
        <ele>96.6172</ele>
        <time>2019-09-11T14:39:16Z</time>
      </trkpt>
      <trkpt lat="48.48306" lon="-2.01531">
        <ele>96.65052</ele>
        <time>2019-09-11T14:39:17Z</time>
      </trkpt>
      <trkpt lat="48.48305" lon="-2.01532">
        <ele>96.74985</ele>
        <time>2019-09-11T14:39:18Z</time>
      </trkpt>
      <trkpt lat="48.48306" lon="-2.01535">
        <ele>96.903915</ele>
        <time>2019-09-11T14:39:19Z</time>
      </trkpt>
      <trkpt lat="48.48307" lon="-2.01537">
        <ele>97.02269</ele>
        <time>2019-09-11T14:39:20Z</time>
      </trkpt>
      <trkpt lat="48.48309" lon="-2.01538">
        <ele>97.25159</ele>
        <time>2019-09-11T14:39:21Z</time>
      </trkpt>
      <trkpt lat="48.48311" lon="-2.01537">
        <ele>97.2748</ele>
        <time>2019-09-11T14:39:22Z</time>
      </trkpt>
      <trkpt lat="48.48314" lon="-2.01536">
        <ele>97.11665</ele>
        <time>2019-09-11T14:39:23Z</time>
      </trkpt>
      <trkpt lat="48.48317" lon="-2.01537">
        <ele>96.95431</ele>
        <time>2019-09-11T14:39:24Z</time>
      </trkpt>
      <trkpt lat="48.48319" lon="-2.01541">
        <ele>96.887245</ele>
        <time>2019-09-11T14:39:25Z</time>
      </trkpt>
      <trkpt lat="48.48322" lon="-2.01546">
        <ele>96.67822</ele>
        <time>2019-09-11T14:39:26Z</time>
      </trkpt>
      <trkpt lat="48.48324" lon="-2.01551">
        <ele>96.31208</ele>
        <time>2019-09-11T14:39:27Z</time>
      </trkpt>
      <trkpt lat="48.48326" lon="-2.01558">
        <ele>96.12922</ele>
        <time>2019-09-11T14:39:28Z</time>
      </trkpt>
      <trkpt lat="48.48328" lon="-2.01564">
        <ele>96.20643</ele>
        <time>2019-09-11T14:39:29Z</time>
      </trkpt>
      <trkpt lat="48.4833" lon="-2.01569">
        <ele>96.11723</ele>
        <time>2019-09-11T14:39:30Z</time>
      </trkpt>
      <trkpt lat="48.48333" lon="-2.01575">
        <ele>96.08893</ele>
        <time>2019-09-11T14:39:31Z</time>
      </trkpt>
      <trkpt lat="48.48336" lon="-2.01581">
        <ele>95.66445</ele>
        <time>2019-09-11T14:39:32Z</time>
      </trkpt>
      <trkpt lat="48.48338" lon="-2.01588">
        <ele>95.16901</ele>
        <time>2019-09-11T14:39:33Z</time>
      </trkpt>
      <trkpt lat="48.48341" lon="-2.01595">
        <ele>94.64161</ele>
        <time>2019-09-11T14:39:34Z</time>
      </trkpt>
      <trkpt lat="48.48345" lon="-2.01602">
        <ele>94.002846</ele>
        <time>2019-09-11T14:39:35Z</time>
      </trkpt>
      <trkpt lat="48.48348" lon="-2.01609">
        <ele>93.52568</ele>
        <time>2019-09-11T14:39:36Z</time>
      </trkpt>
      <trkpt lat="48.48352" lon="-2.01616">
        <ele>92.88343</ele>
        <time>2019-09-11T14:39:37Z</time>
      </trkpt>
      <trkpt lat="48.48355" lon="-2.01623">
        <ele>92.637474</ele>
        <time>2019-09-11T14:39:38Z</time>
      </trkpt>
      <trkpt lat="48.48358" lon="-2.0163">
        <ele>92.503914</ele>
        <time>2019-09-11T14:39:39Z</time>
      </trkpt>
      <trkpt lat="48.48361" lon="-2.01637">
        <ele>92.45847</ele>
        <time>2019-09-11T14:39:40Z</time>
      </trkpt>
      <trkpt lat="48.48364" lon="-2.01643">
        <ele>92.479454</ele>
        <time>2019-09-11T14:39:41Z</time>
      </trkpt>
      <trkpt lat="48.48365" lon="-2.01651">
        <ele>92.39404</ele>
        <time>2019-09-11T14:39:42Z</time>
      </trkpt>
      <trkpt lat="48.48367" lon="-2.01659">
        <ele>92.35053</ele>
        <time>2019-09-11T14:39:43Z</time>
      </trkpt>
      <trkpt lat="48.48368" lon="-2.01668">
        <ele>92.56331</ele>
        <time>2019-09-11T14:39:44Z</time>
      </trkpt>
      <trkpt lat="48.48369" lon="-2.01677">
        <ele>92.91382</ele>
        <time>2019-09-11T14:39:45Z</time>
      </trkpt>
      <trkpt lat="48.48369" lon="-2.01686">
        <ele>93.42358</ele>
        <time>2019-09-11T14:39:46Z</time>
      </trkpt>
      <trkpt lat="48.4837" lon="-2.01695">
        <ele>93.633316</ele>
        <time>2019-09-11T14:39:47Z</time>
      </trkpt>
      <trkpt lat="48.48372" lon="-2.01704">
        <ele>93.70689</ele>
        <time>2019-09-11T14:39:48Z</time>
      </trkpt>
      <trkpt lat="48.48374" lon="-2.01713">
        <ele>93.783554</ele>
        <time>2019-09-11T14:39:49Z</time>
      </trkpt>
      <trkpt lat="48.48375" lon="-2.01721">
        <ele>93.76555</ele>
        <time>2019-09-11T14:39:50Z</time>
      </trkpt>
      <trkpt lat="48.48377" lon="-2.01731">
        <ele>93.54478</ele>
        <time>2019-09-11T14:39:51Z</time>
      </trkpt>
      <trkpt lat="48.48377" lon="-2.01742">
        <ele>93.399994</ele>
        <time>2019-09-11T14:39:52Z</time>
      </trkpt>
      <trkpt lat="48.48378" lon="-2.01752">
        <ele>93.80969</ele>
        <time>2019-09-11T14:39:53Z</time>
      </trkpt>
      <trkpt lat="48.48379" lon="-2.01761">
        <ele>94.160484</ele>
        <time>2019-09-11T14:39:54Z</time>
      </trkpt>
      <trkpt lat="48.4838" lon="-2.0177">
        <ele>94.59296</ele>
        <time>2019-09-11T14:39:55Z</time>
      </trkpt>
      <trkpt lat="48.48382" lon="-2.01778">
        <ele>95.080376</ele>
        <time>2019-09-11T14:39:56Z</time>
      </trkpt>
      <trkpt lat="48.48383" lon="-2.01787">
        <ele>95.596214</ele>
        <time>2019-09-11T14:39:57Z</time>
      </trkpt>
      <trkpt lat="48.48384" lon="-2.01797">
        <ele>95.41838</ele>
        <time>2019-09-11T14:39:58Z</time>
      </trkpt>
      <trkpt lat="48.48385" lon="-2.01805">
        <ele>95.82867</ele>
        <time>2019-09-11T14:39:59Z</time>
      </trkpt>
      <trkpt lat="48.48386" lon="-2.01812">
        <ele>96.09014</ele>
        <time>2019-09-11T14:40:00Z</time>
      </trkpt>
      <trkpt lat="48.48387" lon="-2.01819">
        <ele>96.743355</ele>
        <time>2019-09-11T14:40:01Z</time>
      </trkpt>
      <trkpt lat="48.48388" lon="-2.01825">
        <ele>97.25907</ele>
        <time>2019-09-11T14:40:02Z</time>
      </trkpt>
      <trkpt lat="48.4839" lon="-2.01832">
        <ele>97.8599</ele>
        <time>2019-09-11T14:40:03Z</time>
      </trkpt>
      <trkpt lat="48.48392" lon="-2.01839">
        <ele>98.27696</ele>
        <time>2019-09-11T14:40:04Z</time>
      </trkpt>
      <trkpt lat="48.48394" lon="-2.01845">
        <ele>98.47808</ele>
        <time>2019-09-11T14:40:05Z</time>
      </trkpt>
      <trkpt lat="48.48396" lon="-2.01851">
        <ele>98.850975</ele>
        <time>2019-09-11T14:40:06Z</time>
      </trkpt>
      <trkpt lat="48.48398" lon="-2.01857">
        <ele>99.00376</ele>
        <time>2019-09-11T14:40:07Z</time>
      </trkpt>
      <trkpt lat="48.48401" lon="-2.01863">
        <ele>98.84128</ele>
        <time>2019-09-11T14:40:08Z</time>
      </trkpt>
      <trkpt lat="48.48403" lon="-2.01869">
        <ele>99.00995</ele>
        <time>2019-09-11T14:40:09Z</time>
      </trkpt>
      <trkpt lat="48.48405" lon="-2.01875">
        <ele>98.948616</ele>
        <time>2019-09-11T14:40:10Z</time>
      </trkpt>
      <trkpt lat="48.48407" lon="-2.01881">
        <ele>99.38627</ele>
        <time>2019-09-11T14:40:11Z</time>
      </trkpt>
      <trkpt lat="48.48409" lon="-2.01888">
        <ele>99.54184</ele>
        <time>2019-09-11T14:40:12Z</time>
      </trkpt>
      <trkpt lat="48.48411" lon="-2.01895">
        <ele>99.45407</ele>
        <time>2019-09-11T14:40:13Z</time>
      </trkpt>
      <trkpt lat="48.48414" lon="-2.01901">
        <ele>99.813805</ele>
        <time>2019-09-11T14:40:14Z</time>
      </trkpt>
      <trkpt lat="48.48417" lon="-2.01905">
        <ele>99.78247</ele>
        <time>2019-09-11T14:40:15Z</time>
      </trkpt>
      <trkpt lat="48.4842" lon="-2.0191">
        <ele>99.7538</ele>
        <time>2019-09-11T14:40:16Z</time>
      </trkpt>
      <trkpt lat="48.48423" lon="-2.01916">
        <ele>99.872826</ele>
        <time>2019-09-11T14:40:17Z</time>
      </trkpt>
      <trkpt lat="48.48424" lon="-2.01922">
        <ele>100.12339</ele>
        <time>2019-09-11T14:40:18Z</time>
      </trkpt>
      <trkpt lat="48.48425" lon="-2.01928">
        <ele>100.28212</ele>
        <time>2019-09-11T14:40:19Z</time>
      </trkpt>
      <trkpt lat="48.48426" lon="-2.01935">
        <ele>100.44153</ele>
        <time>2019-09-11T14:40:20Z</time>
      </trkpt>
      <trkpt lat="48.48428" lon="-2.01941">
        <ele>100.674034</ele>
        <time>2019-09-11T14:40:21Z</time>
      </trkpt>
      <trkpt lat="48.48428" lon="-2.01949">
        <ele>100.66415</ele>
        <time>2019-09-11T14:40:22Z</time>
      </trkpt>
      <trkpt lat="48.4843" lon="-2.01958">
        <ele>100.73346</ele>
        <time>2019-09-11T14:40:23Z</time>
      </trkpt>
      <trkpt lat="48.48431" lon="-2.01965">
        <ele>100.985146</ele>
        <time>2019-09-11T14:40:24Z</time>
      </trkpt>
      <trkpt lat="48.48431" lon="-2.01972">
        <ele>101.32959</ele>
        <time>2019-09-11T14:40:25Z</time>
      </trkpt>
      <trkpt lat="48.48432" lon="-2.0198">
        <ele>101.65014</ele>
        <time>2019-09-11T14:40:26Z</time>
      </trkpt>
      <trkpt lat="48.48432" lon="-2.01988">
        <ele>102.03997</ele>
        <time>2019-09-11T14:40:27Z</time>
      </trkpt>
      <trkpt lat="48.48433" lon="-2.01995">
        <ele>102.520065</ele>
        <time>2019-09-11T14:40:28Z</time>
      </trkpt>
      <trkpt lat="48.48434" lon="-2.02001">
        <ele>102.91783</ele>
        <time>2019-09-11T14:40:29Z</time>
      </trkpt>
      <trkpt lat="48.48434" lon="-2.02008">
        <ele>103.21498</ele>
        <time>2019-09-11T14:40:30Z</time>
      </trkpt>
      <trkpt lat="48.48436" lon="-2.02014">
        <ele>103.55687</ele>
        <time>2019-09-11T14:40:31Z</time>
      </trkpt>
      <trkpt lat="48.48437" lon="-2.02019">
        <ele>104.05229</ele>
        <time>2019-09-11T14:40:32Z</time>
      </trkpt>
      <trkpt lat="48.48438" lon="-2.02025">
        <ele>104.67622</ele>
        <time>2019-09-11T14:40:33Z</time>
      </trkpt>
      <trkpt lat="48.4844" lon="-2.0203">
        <ele>105.384735</ele>
        <time>2019-09-11T14:40:34Z</time>
      </trkpt>
      <trkpt lat="48.48441" lon="-2.02035">
        <ele>105.94468</ele>
        <time>2019-09-11T14:40:35Z</time>
      </trkpt>
      <trkpt lat="48.48442" lon="-2.02041">
        <ele>106.48858</ele>
        <time>2019-09-11T14:40:36Z</time>
      </trkpt>
      <trkpt lat="48.48443" lon="-2.02045">
        <ele>106.742256</ele>
        <time>2019-09-11T14:40:37Z</time>
      </trkpt>
      <trkpt lat="48.48443" lon="-2.0205">
        <ele>106.977936</ele>
        <time>2019-09-11T14:40:38Z</time>
      </trkpt>
      <trkpt lat="48.48444" lon="-2.02054">
        <ele>107.255455</ele>
        <time>2019-09-11T14:40:39Z</time>
      </trkpt>
      <trkpt lat="48.48444" lon="-2.02059">
        <ele>107.797585</ele>
        <time>2019-09-11T14:40:40Z</time>
      </trkpt>
      <trkpt lat="48.48445" lon="-2.02064">
        <ele>108.38204</ele>
        <time>2019-09-11T14:40:41Z</time>
      </trkpt>
      <trkpt lat="48.48446" lon="-2.02069">
        <ele>108.837204</ele>
        <time>2019-09-11T14:40:42Z</time>
      </trkpt>
      <trkpt lat="48.48446" lon="-2.02074">
        <ele>109.254654</ele>
        <time>2019-09-11T14:40:43Z</time>
      </trkpt>
      <trkpt lat="48.48446" lon="-2.02078">
        <ele>109.56673</ele>
        <time>2019-09-11T14:40:44Z</time>
      </trkpt>
      <trkpt lat="48.48447" lon="-2.02082">
        <ele>109.74954</ele>
        <time>2019-09-11T14:40:45Z</time>
      </trkpt>
      <trkpt lat="48.48448" lon="-2.02085">
        <ele>109.7301</ele>
        <time>2019-09-11T14:40:46Z</time>
      </trkpt>
      <trkpt lat="48.48449" lon="-2.02089">
        <ele>109.64146</ele>
        <time>2019-09-11T14:40:47Z</time>
      </trkpt>
      <trkpt lat="48.48449" lon="-2.02092">
        <ele>110.042114</ele>
        <time>2019-09-11T14:40:48Z</time>
      </trkpt>
      <trkpt lat="48.48451" lon="-2.02095">
        <ele>110.460266</ele>
        <time>2019-09-11T14:40:49Z</time>
      </trkpt>
      <trkpt lat="48.48452" lon="-2.02098">
        <ele>110.61462</ele>
        <time>2019-09-11T14:40:50Z</time>
      </trkpt>
      <trkpt lat="48.48453" lon="-2.02101">
        <ele>110.85201</ele>
        <time>2019-09-11T14:40:51Z</time>
      </trkpt>
      <trkpt lat="48.48453" lon="-2.02105">
        <ele>111.101006</ele>
        <time>2019-09-11T14:40:52Z</time>
      </trkpt>
      <trkpt lat="48.48453" lon="-2.0211">
        <ele>111.643585</ele>
        <time>2019-09-11T14:40:53Z</time>
      </trkpt>
      <trkpt lat="48.48454" lon="-2.02115">
        <ele>111.7809</ele>
        <time>2019-09-11T14:40:54Z</time>
      </trkpt>
      <trkpt lat="48.48454" lon="-2.02121">
        <ele>111.71746</ele>
        <time>2019-09-11T14:40:55Z</time>
      </trkpt>
      <trkpt lat="48.48455" lon="-2.02126">
        <ele>111.690544</ele>
        <time>2019-09-11T14:40:56Z</time>
      </trkpt>
      <trkpt lat="48.48455" lon="-2.02132">
        <ele>112.103264</ele>
        <time>2019-09-11T14:40:57Z</time>
      </trkpt>
      <trkpt lat="48.48455" lon="-2.02138">
        <ele>112.477806</ele>
        <time>2019-09-11T14:40:58Z</time>
      </trkpt>
      <trkpt lat="48.48455" lon="-2.02144">
        <ele>112.85081</ele>
        <time>2019-09-11T14:40:59Z</time>
      </trkpt>
      <trkpt lat="48.48455" lon="-2.0215">
        <ele>113.20144</ele>
        <time>2019-09-11T14:41:00Z</time>
      </trkpt>
      <trkpt lat="48.48455" lon="-2.02157">
        <ele>113.20681</ele>
        <time>2019-09-11T14:41:01Z</time>
      </trkpt>
      <trkpt lat="48.48454" lon="-2.02163">
        <ele>113.65803</ele>
        <time>2019-09-11T14:41:02Z</time>
      </trkpt>
      <trkpt lat="48.48453" lon="-2.0217">
        <ele>114.028046</ele>
        <time>2019-09-11T14:41:03Z</time>
      </trkpt>
      <trkpt lat="48.48452" lon="-2.02178">
        <ele>114.230034</ele>
        <time>2019-09-11T14:41:04Z</time>
      </trkpt>
      <trkpt lat="48.48451" lon="-2.02184">
        <ele>114.53173</ele>
        <time>2019-09-11T14:41:05Z</time>
      </trkpt>
      <trkpt lat="48.48451" lon="-2.02191">
        <ele>114.85719</ele>
        <time>2019-09-11T14:41:06Z</time>
      </trkpt>
      <trkpt lat="48.4845" lon="-2.02198">
        <ele>115.04695</ele>
        <time>2019-09-11T14:41:07Z</time>
      </trkpt>
      <trkpt lat="48.48449" lon="-2.02205">
        <ele>115.551094</ele>
        <time>2019-09-11T14:41:08Z</time>
      </trkpt>
      <trkpt lat="48.48447" lon="-2.02212">
        <ele>115.75556</ele>
        <time>2019-09-11T14:41:09Z</time>
      </trkpt>
      <trkpt lat="48.48446" lon="-2.02219">
        <ele>115.96309</ele>
        <time>2019-09-11T14:41:10Z</time>
      </trkpt>
      <trkpt lat="48.48445" lon="-2.02225">
        <ele>116.735695</ele>
        <time>2019-09-11T14:41:11Z</time>
      </trkpt>
      <trkpt lat="48.48444" lon="-2.02232">
        <ele>117.09017</ele>
        <time>2019-09-11T14:41:12Z</time>
      </trkpt>
      <trkpt lat="48.48443" lon="-2.02239">
        <ele>117.35091</ele>
        <time>2019-09-11T14:41:13Z</time>
      </trkpt>
      <trkpt lat="48.48441" lon="-2.02245">
        <ele>117.58111</ele>
        <time>2019-09-11T14:41:14Z</time>
      </trkpt>
      <trkpt lat="48.4844" lon="-2.02252">
        <ele>117.80465</ele>
        <time>2019-09-11T14:41:15Z</time>
      </trkpt>
      <trkpt lat="48.48439" lon="-2.02259">
        <ele>118.045944</ele>
        <time>2019-09-11T14:41:16Z</time>
      </trkpt>
      <trkpt lat="48.48438" lon="-2.02265">
        <ele>118.30479</ele>
        <time>2019-09-11T14:41:17Z</time>
      </trkpt>
      <trkpt lat="48.48437" lon="-2.02271">
        <ele>118.56533</ele>
        <time>2019-09-11T14:41:18Z</time>
      </trkpt>
      <trkpt lat="48.48437" lon="-2.02276">
        <ele>118.74487</ele>
        <time>2019-09-11T14:41:19Z</time>
      </trkpt>
      <trkpt lat="48.48436" lon="-2.02282">
        <ele>118.85758</ele>
        <time>2019-09-11T14:41:20Z</time>
      </trkpt>
      <trkpt lat="48.48435" lon="-2.02287">
        <ele>118.92165</ele>
        <time>2019-09-11T14:41:21Z</time>
      </trkpt>
      <trkpt lat="48.48434" lon="-2.02293">
        <ele>119.53176</ele>
        <time>2019-09-11T14:41:22Z</time>
      </trkpt>
      <trkpt lat="48.48432" lon="-2.02299">
        <ele>119.83222</ele>
        <time>2019-09-11T14:41:23Z</time>
      </trkpt>
      <trkpt lat="48.48431" lon="-2.02305">
        <ele>120.31883</ele>
        <time>2019-09-11T14:41:24Z</time>
      </trkpt>
      <trkpt lat="48.48429" lon="-2.02311">
        <ele>120.81349</ele>
        <time>2019-09-11T14:41:25Z</time>
      </trkpt>
      <trkpt lat="48.48427" lon="-2.02317">
        <ele>121.3865</ele>
        <time>2019-09-11T14:41:26Z</time>
      </trkpt>
      <trkpt lat="48.48426" lon="-2.02322">
        <ele>122.1294</ele>
        <time>2019-09-11T14:41:27Z</time>
      </trkpt>
      <trkpt lat="48.48424" lon="-2.02328">
        <ele>122.53112</ele>
        <time>2019-09-11T14:41:28Z</time>
      </trkpt>
      <trkpt lat="48.48423" lon="-2.02332">
        <ele>122.9019</ele>
        <time>2019-09-11T14:41:29Z</time>
      </trkpt>
      <trkpt lat="48.48422" lon="-2.02336">
        <ele>123.074066</ele>
        <time>2019-09-11T14:41:30Z</time>
      </trkpt>
      <trkpt lat="48.48421" lon="-2.02339">
        <ele>123.65353</ele>
        <time>2019-09-11T14:41:31Z</time>
      </trkpt>
      <trkpt lat="48.4842" lon="-2.02342">
        <ele>124.40692</ele>
        <time>2019-09-11T14:41:32Z</time>
      </trkpt>
      <trkpt lat="48.48419" lon="-2.02345">
        <ele>125.09633</ele>
        <time>2019-09-11T14:41:33Z</time>
      </trkpt>
      <trkpt lat="48.48417" lon="-2.02348">
        <ele>125.453255</ele>
        <time>2019-09-11T14:41:34Z</time>
      </trkpt>
      <trkpt lat="48.48416" lon="-2.02351">
        <ele>126.00262</ele>
        <time>2019-09-11T14:41:35Z</time>
      </trkpt>
      <trkpt lat="48.48415" lon="-2.02354">
        <ele>126.488304</ele>
        <time>2019-09-11T14:41:36Z</time>
      </trkpt>
      <trkpt lat="48.48414" lon="-2.02357">
        <ele>127.19198</ele>
        <time>2019-09-11T14:41:37Z</time>
      </trkpt>
      <trkpt lat="48.48412" lon="-2.0236">
        <ele>127.59551</ele>
        <time>2019-09-11T14:41:38Z</time>
      </trkpt>
      <trkpt lat="48.4841" lon="-2.02363">
        <ele>127.88531</ele>
        <time>2019-09-11T14:41:39Z</time>
      </trkpt>
      <trkpt lat="48.48408" lon="-2.02368">
        <ele>127.60881</ele>
        <time>2019-09-11T14:41:40Z</time>
      </trkpt>
      <trkpt lat="48.48406" lon="-2.02372">
        <ele>127.49285</ele>
        <time>2019-09-11T14:41:41Z</time>
      </trkpt>
      <trkpt lat="48.48403" lon="-2.02377">
        <ele>127.47207</ele>
        <time>2019-09-11T14:41:42Z</time>
      </trkpt>
      <trkpt lat="48.48399" lon="-2.02384">
        <ele>126.13968</ele>
        <time>2019-09-11T14:41:43Z</time>
      </trkpt>
      <trkpt lat="48.48396" lon="-2.0239">
        <ele>125.357475</ele>
        <time>2019-09-11T14:41:44Z</time>
      </trkpt>
      <trkpt lat="48.48394" lon="-2.02394">
        <ele>125.4912</ele>
        <time>2019-09-11T14:41:45Z</time>
      </trkpt>
      <trkpt lat="48.48392" lon="-2.02398">
        <ele>125.35379</ele>
        <time>2019-09-11T14:41:46Z</time>
      </trkpt>
      <trkpt lat="48.4839" lon="-2.02401">
        <ele>125.8719</ele>
        <time>2019-09-11T14:41:47Z</time>
      </trkpt>
      <trkpt lat="48.48389" lon="-2.02405">
        <ele>126.03513</ele>
        <time>2019-09-11T14:41:48Z</time>
      </trkpt>
      <trkpt lat="48.48387" lon="-2.0241">
        <ele>126.337296</ele>
        <time>2019-09-11T14:41:49Z</time>
      </trkpt>
      <trkpt lat="48.48385" lon="-2.02415">
        <ele>126.49162</ele>
        <time>2019-09-11T14:41:50Z</time>
      </trkpt>
      <trkpt lat="48.48384" lon="-2.0242">
        <ele>126.23351</ele>
        <time>2019-09-11T14:41:51Z</time>
      </trkpt>
      <trkpt lat="48.48383" lon="-2.02426">
        <ele>126.15797</ele>
        <time>2019-09-11T14:41:52Z</time>
      </trkpt>
      <trkpt lat="48.48381" lon="-2.02432">
        <ele>126.20499</ele>
        <time>2019-09-11T14:41:53Z</time>
      </trkpt>
      <trkpt lat="48.48379" lon="-2.02438">
        <ele>126.0488</ele>
        <time>2019-09-11T14:41:54Z</time>
      </trkpt>
      <trkpt lat="48.48378" lon="-2.02444">
        <ele>125.59328</ele>
        <time>2019-09-11T14:41:55Z</time>
      </trkpt>
      <trkpt lat="48.48376" lon="-2.02449">
        <ele>125.087265</ele>
        <time>2019-09-11T14:41:56Z</time>
      </trkpt>
      <trkpt lat="48.48375" lon="-2.02454">
        <ele>124.822044</ele>
        <time>2019-09-11T14:41:57Z</time>
      </trkpt>
      <trkpt lat="48.48373" lon="-2.02459">
        <ele>124.47685</ele>
        <time>2019-09-11T14:41:58Z</time>
      </trkpt>
      <trkpt lat="48.48371" lon="-2.02464">
        <ele>124.526344</ele>
        <time>2019-09-11T14:41:59Z</time>
      </trkpt>
      <trkpt lat="48.48369" lon="-2.02468">
        <ele>124.49855</ele>
        <time>2019-09-11T14:42:00Z</time>
      </trkpt>
      <trkpt lat="48.48367" lon="-2.02473">
        <ele>124.3876</ele>
        <time>2019-09-11T14:42:01Z</time>
      </trkpt>
      <trkpt lat="48.48365" lon="-2.02477">
        <ele>124.07761</ele>
        <time>2019-09-11T14:42:02Z</time>
      </trkpt>
      <trkpt lat="48.48363" lon="-2.02482">
        <ele>124.61897</ele>
        <time>2019-09-11T14:42:03Z</time>
      </trkpt>
      <trkpt lat="48.48362" lon="-2.02487">
        <ele>124.79025</ele>
        <time>2019-09-11T14:42:04Z</time>
      </trkpt>
      <trkpt lat="48.4836" lon="-2.02492">
        <ele>124.98161</ele>
        <time>2019-09-11T14:42:05Z</time>
      </trkpt>
      <trkpt lat="48.48358" lon="-2.02496">
        <ele>125.25061</ele>
        <time>2019-09-11T14:42:06Z</time>
      </trkpt>
      <trkpt lat="48.48357" lon="-2.02501">
        <ele>125.62073</ele>
        <time>2019-09-11T14:42:07Z</time>
      </trkpt>
      <trkpt lat="48.48355" lon="-2.02505">
        <ele>125.60938</ele>
        <time>2019-09-11T14:42:08Z</time>
      </trkpt>
      <trkpt lat="48.48353" lon="-2.02509">
        <ele>125.54058</ele>
        <time>2019-09-11T14:42:09Z</time>
      </trkpt>
      <trkpt lat="48.48351" lon="-2.02514">
        <ele>125.396034</ele>
        <time>2019-09-11T14:42:10Z</time>
      </trkpt>
      <trkpt lat="48.4835" lon="-2.02519">
        <ele>124.98332</ele>
        <time>2019-09-11T14:42:11Z</time>
      </trkpt>
      <trkpt lat="48.48348" lon="-2.02523">
        <ele>124.90629</ele>
        <time>2019-09-11T14:42:12Z</time>
      </trkpt>
      <trkpt lat="48.48347" lon="-2.02528">
        <ele>125.5927</ele>
        <time>2019-09-11T14:42:13Z</time>
      </trkpt>
      <trkpt lat="48.48346" lon="-2.02533">
        <ele>125.841255</ele>
        <time>2019-09-11T14:42:14Z</time>
      </trkpt>
      <trkpt lat="48.48345" lon="-2.02537">
        <ele>125.884865</ele>
        <time>2019-09-11T14:42:15Z</time>
      </trkpt>
      <trkpt lat="48.48344" lon="-2.02541">
        <ele>125.9742</ele>
        <time>2019-09-11T14:42:16Z</time>
      </trkpt>
      <trkpt lat="48.48343" lon="-2.02545">
        <ele>126.08291</ele>
        <time>2019-09-11T14:42:17Z</time>
      </trkpt>
      <trkpt lat="48.48342" lon="-2.0255">
        <ele>126.134384</ele>
        <time>2019-09-11T14:42:18Z</time>
      </trkpt>
      <trkpt lat="48.48341" lon="-2.02554">
        <ele>126.19211</ele>
        <time>2019-09-11T14:42:19Z</time>
      </trkpt>
      <trkpt lat="48.48341" lon="-2.02558">
        <ele>126.36503</ele>
        <time>2019-09-11T14:42:20Z</time>
      </trkpt>
      <trkpt lat="48.4834" lon="-2.02563">
        <ele>126.362656</ele>
        <time>2019-09-11T14:42:21Z</time>
      </trkpt>
      <trkpt lat="48.48339" lon="-2.02568">
        <ele>126.23424</ele>
        <time>2019-09-11T14:42:22Z</time>
      </trkpt>
      <trkpt lat="48.48338" lon="-2.02572">
        <ele>126.19196</ele>
        <time>2019-09-11T14:42:23Z</time>
      </trkpt>
      <trkpt lat="48.48337" lon="-2.02578">
        <ele>126.32392</ele>
        <time>2019-09-11T14:42:24Z</time>
      </trkpt>
      <trkpt lat="48.48336" lon="-2.02584">
        <ele>126.440636</ele>
        <time>2019-09-11T14:42:25Z</time>
      </trkpt>
      <trkpt lat="48.48335" lon="-2.0259">
        <ele>126.49125</ele>
        <time>2019-09-11T14:42:26Z</time>
      </trkpt>
      <trkpt lat="48.48333" lon="-2.02595">
        <ele>126.02535</ele>
        <time>2019-09-11T14:42:27Z</time>
      </trkpt>
      <trkpt lat="48.48332" lon="-2.026">
        <ele>125.80612</ele>
        <time>2019-09-11T14:42:28Z</time>
      </trkpt>
      <trkpt lat="48.4833" lon="-2.02605">
        <ele>125.79914</ele>
        <time>2019-09-11T14:42:29Z</time>
      </trkpt>
      <trkpt lat="48.48329" lon="-2.0261">
        <ele>125.69058</ele>
        <time>2019-09-11T14:42:30Z</time>
      </trkpt>
      <trkpt lat="48.48328" lon="-2.02615">
        <ele>125.617676</ele>
        <time>2019-09-11T14:42:31Z</time>
      </trkpt>
      <trkpt lat="48.48327" lon="-2.02621">
        <ele>125.268486</ele>
        <time>2019-09-11T14:42:32Z</time>
      </trkpt>
      <trkpt lat="48.48326" lon="-2.02628">
        <ele>125.148705</ele>
        <time>2019-09-11T14:42:33Z</time>
      </trkpt>
      <trkpt lat="48.48325" lon="-2.02636">
        <ele>124.72176</ele>
        <time>2019-09-11T14:42:34Z</time>
      </trkpt>
      <trkpt lat="48.48325" lon="-2.02644">
        <ele>124.52466</ele>
        <time>2019-09-11T14:42:35Z</time>
      </trkpt>
      <trkpt lat="48.48324" lon="-2.02652">
        <ele>124.18769</ele>
        <time>2019-09-11T14:42:36Z</time>
      </trkpt>
      <trkpt lat="48.48324" lon="-2.0266">
        <ele>123.78485</ele>
        <time>2019-09-11T14:42:37Z</time>
      </trkpt>
      <trkpt lat="48.48323" lon="-2.02667">
        <ele>123.008865</ele>
        <time>2019-09-11T14:42:38Z</time>
      </trkpt>
      <trkpt lat="48.48323" lon="-2.02674">
        <ele>122.29275</ele>
        <time>2019-09-11T14:42:39Z</time>
      </trkpt>
      <trkpt lat="48.48323" lon="-2.02681">
        <ele>121.882774</ele>
        <time>2019-09-11T14:42:40Z</time>
      </trkpt>
      <trkpt lat="48.48323" lon="-2.02687">
        <ele>121.29483</ele>
        <time>2019-09-11T14:42:41Z</time>
      </trkpt>
      <trkpt lat="48.48324" lon="-2.02694">
        <ele>120.76676</ele>
        <time>2019-09-11T14:42:42Z</time>
      </trkpt>
      <trkpt lat="48.48325" lon="-2.027">
        <ele>120.56998</ele>
        <time>2019-09-11T14:42:43Z</time>
      </trkpt>
      <trkpt lat="48.48326" lon="-2.02707">
        <ele>120.35118</ele>
        <time>2019-09-11T14:42:44Z</time>
      </trkpt>
      <trkpt lat="48.48328" lon="-2.02714">
        <ele>119.87674</ele>
        <time>2019-09-11T14:42:45Z</time>
      </trkpt>
      <trkpt lat="48.48329" lon="-2.02722">
        <ele>118.97346</ele>
        <time>2019-09-11T14:42:46Z</time>
      </trkpt>
      <trkpt lat="48.4833" lon="-2.02729">
        <ele>118.632706</ele>
        <time>2019-09-11T14:42:47Z</time>
      </trkpt>
      <trkpt lat="48.48332" lon="-2.02736">
        <ele>118.24618</ele>
        <time>2019-09-11T14:42:48Z</time>
      </trkpt>
      <trkpt lat="48.48334" lon="-2.02743">
        <ele>118.12685</ele>
        <time>2019-09-11T14:42:49Z</time>
      </trkpt>
      <trkpt lat="48.48335" lon="-2.02751">
        <ele>117.72059</ele>
        <time>2019-09-11T14:42:50Z</time>
      </trkpt>
      <trkpt lat="48.48337" lon="-2.02758">
        <ele>117.57255</ele>
        <time>2019-09-11T14:42:51Z</time>
      </trkpt>
      <trkpt lat="48.48339" lon="-2.02766">
        <ele>117.152336</ele>
        <time>2019-09-11T14:42:52Z</time>
      </trkpt>
      <trkpt lat="48.48341" lon="-2.02774">
        <ele>117.03019</ele>
        <time>2019-09-11T14:42:53Z</time>
      </trkpt>
      <trkpt lat="48.48343" lon="-2.02782">
        <ele>116.90008</ele>
        <time>2019-09-11T14:42:54Z</time>
      </trkpt>
      <trkpt lat="48.48345" lon="-2.0279">
        <ele>116.5407</ele>
        <time>2019-09-11T14:42:55Z</time>
      </trkpt>
      <trkpt lat="48.48348" lon="-2.02798">
        <ele>116.189445</ele>
        <time>2019-09-11T14:42:56Z</time>
      </trkpt>
      <trkpt lat="48.4835" lon="-2.02806">
        <ele>115.553375</ele>
        <time>2019-09-11T14:42:57Z</time>
      </trkpt>
      <trkpt lat="48.48352" lon="-2.02813">
        <ele>115.521805</ele>
        <time>2019-09-11T14:42:58Z</time>
      </trkpt>
      <trkpt lat="48.48354" lon="-2.02821">
        <ele>115.07077</ele>
        <time>2019-09-11T14:42:59Z</time>
      </trkpt>
      <trkpt lat="48.48356" lon="-2.0283">
        <ele>115.00489</ele>
        <time>2019-09-11T14:43:00Z</time>
      </trkpt>
      <trkpt lat="48.48358" lon="-2.02838">
        <ele>114.67511</ele>
        <time>2019-09-11T14:43:01Z</time>
      </trkpt>
      <trkpt lat="48.4836" lon="-2.02846">
        <ele>114.368996</ele>
        <time>2019-09-11T14:43:02Z</time>
      </trkpt>
      <trkpt lat="48.48362" lon="-2.02854">
        <ele>114.17013</ele>
        <time>2019-09-11T14:43:03Z</time>
      </trkpt>
      <trkpt lat="48.48364" lon="-2.02862">
        <ele>113.69607</ele>
        <time>2019-09-11T14:43:04Z</time>
      </trkpt>
      <trkpt lat="48.48365" lon="-2.02869">
        <ele>113.466965</ele>
        <time>2019-09-11T14:43:05Z</time>
      </trkpt>
      <trkpt lat="48.48365" lon="-2.02874">
        <ele>113.25986</ele>
        <time>2019-09-11T14:43:06Z</time>
      </trkpt>
      <trkpt lat="48.48365" lon="-2.02878">
        <ele>113.374146</ele>
        <time>2019-09-11T14:43:07Z</time>
      </trkpt>
      <trkpt lat="48.48363" lon="-2.02881">
        <ele>113.4318</ele>
        <time>2019-09-11T14:43:08Z</time>
      </trkpt>
      <trkpt lat="48.48361" lon="-2.02883">
        <ele>113.82885</ele>
        <time>2019-09-11T14:43:09Z</time>
      </trkpt>
      <trkpt lat="48.48357" lon="-2.02885">
        <ele>114.12555</ele>
        <time>2019-09-11T14:43:10Z</time>
      </trkpt>
      <trkpt lat="48.48354" lon="-2.02887">
        <ele>114.25264</ele>
        <time>2019-09-11T14:43:11Z</time>
      </trkpt>
      <trkpt lat="48.4835" lon="-2.02888">
        <ele>114.38668</ele>
        <time>2019-09-11T14:43:12Z</time>
      </trkpt>
      <trkpt lat="48.48345" lon="-2.02889">
        <ele>114.37148</ele>
        <time>2019-09-11T14:43:13Z</time>
      </trkpt>
      <trkpt lat="48.4834" lon="-2.02891">
        <ele>114.46057</ele>
        <time>2019-09-11T14:43:14Z</time>
      </trkpt>
      <trkpt lat="48.48333" lon="-2.02892">
        <ele>114.59309</ele>
        <time>2019-09-11T14:43:15Z</time>
      </trkpt>
      <trkpt lat="48.48327" lon="-2.02894">
        <ele>114.51851</ele>
        <time>2019-09-11T14:43:16Z</time>
      </trkpt>
      <trkpt lat="48.48319" lon="-2.02896">
        <ele>114.384415</ele>
        <time>2019-09-11T14:43:17Z</time>
      </trkpt>
      <trkpt lat="48.48312" lon="-2.02896">
        <ele>114.41772</ele>
        <time>2019-09-11T14:43:18Z</time>
      </trkpt>
      <trkpt lat="48.48306" lon="-2.02897">
        <ele>114.55653</ele>
        <time>2019-09-11T14:43:19Z</time>
      </trkpt>
      <trkpt lat="48.483" lon="-2.02898">
        <ele>114.56894</ele>
        <time>2019-09-11T14:43:20Z</time>
      </trkpt>
      <trkpt lat="48.48294" lon="-2.029">
        <ele>114.366486</ele>
        <time>2019-09-11T14:43:21Z</time>
      </trkpt>
      <trkpt lat="48.48288" lon="-2.02901">
        <ele>114.288055</ele>
        <time>2019-09-11T14:43:22Z</time>
      </trkpt>
      <trkpt lat="48.48281" lon="-2.02903">
        <ele>114.18902</ele>
        <time>2019-09-11T14:43:23Z</time>
      </trkpt>
      <trkpt lat="48.48275" lon="-2.02904">
        <ele>114.08113</ele>
        <time>2019-09-11T14:43:24Z</time>
      </trkpt>
      <trkpt lat="48.48268" lon="-2.02905">
        <ele>113.77409</ele>
        <time>2019-09-11T14:43:25Z</time>
      </trkpt>
      <trkpt lat="48.48261" lon="-2.02906">
        <ele>113.592995</ele>
        <time>2019-09-11T14:43:26Z</time>
      </trkpt>
      <trkpt lat="48.48254" lon="-2.02908">
        <ele>113.42146</ele>
        <time>2019-09-11T14:43:27Z</time>
      </trkpt>
      <trkpt lat="48.48246" lon="-2.0291">
        <ele>113.05591</ele>
        <time>2019-09-11T14:43:28Z</time>
      </trkpt>
      <trkpt lat="48.4824" lon="-2.02912">
        <ele>112.712616</ele>
        <time>2019-09-11T14:43:29Z</time>
      </trkpt>
      <trkpt lat="48.48233" lon="-2.02914">
        <ele>113.144295</ele>
        <time>2019-09-11T14:43:30Z</time>
      </trkpt>
      <trkpt lat="48.48226" lon="-2.02916">
        <ele>113.09083</ele>
        <time>2019-09-11T14:43:31Z</time>
      </trkpt>
      <trkpt lat="48.48219" lon="-2.02917">
        <ele>113.075806</ele>
        <time>2019-09-11T14:43:32Z</time>
      </trkpt>
      <trkpt lat="48.48213" lon="-2.02918">
        <ele>113.123215</ele>
        <time>2019-09-11T14:43:33Z</time>
      </trkpt>
      <trkpt lat="48.48207" lon="-2.0292">
        <ele>113.11775</ele>
        <time>2019-09-11T14:43:34Z</time>
      </trkpt>
      <trkpt lat="48.482" lon="-2.02921">
        <ele>112.88639</ele>
        <time>2019-09-11T14:43:35Z</time>
      </trkpt>
      <trkpt lat="48.48193" lon="-2.02923">
        <ele>112.74535</ele>
        <time>2019-09-11T14:43:36Z</time>
      </trkpt>
      <trkpt lat="48.48186" lon="-2.02924">
        <ele>112.2742</ele>
        <time>2019-09-11T14:43:37Z</time>
      </trkpt>
      <trkpt lat="48.48179" lon="-2.02926">
        <ele>111.76662</ele>
        <time>2019-09-11T14:43:38Z</time>
      </trkpt>
      <trkpt lat="48.48171" lon="-2.02928">
        <ele>111.25689</ele>
        <time>2019-09-11T14:43:39Z</time>
      </trkpt>
      <trkpt lat="48.48164" lon="-2.02929">
        <ele>110.03172</ele>
        <time>2019-09-11T14:43:40Z</time>
      </trkpt>
      <trkpt lat="48.48156" lon="-2.02931">
        <ele>109.42053</ele>
        <time>2019-09-11T14:43:41Z</time>
      </trkpt>
      <trkpt lat="48.48149" lon="-2.02933">
        <ele>108.922035</ele>
        <time>2019-09-11T14:43:42Z</time>
      </trkpt>
      <trkpt lat="48.48141" lon="-2.02934">
        <ele>108.352036</ele>
        <time>2019-09-11T14:43:43Z</time>
      </trkpt>
      <trkpt lat="48.48133" lon="-2.02936">
        <ele>107.71093</ele>
        <time>2019-09-11T14:43:44Z</time>
      </trkpt>
      <trkpt lat="48.48126" lon="-2.02938">
        <ele>107.42246</ele>
        <time>2019-09-11T14:43:45Z</time>
      </trkpt>
      <trkpt lat="48.48119" lon="-2.02939">
        <ele>107.34523</ele>
        <time>2019-09-11T14:43:46Z</time>
      </trkpt>
      <trkpt lat="48.48111" lon="-2.0294">
        <ele>107.08064</ele>
        <time>2019-09-11T14:43:47Z</time>
      </trkpt>
      <trkpt lat="48.48103" lon="-2.02942">
        <ele>107.0946</ele>
        <time>2019-09-11T14:43:48Z</time>
      </trkpt>
      <trkpt lat="48.48096" lon="-2.02944">
        <ele>106.86924</ele>
        <time>2019-09-11T14:43:49Z</time>
      </trkpt>
      <trkpt lat="48.48088" lon="-2.02946">
        <ele>106.71461</ele>
        <time>2019-09-11T14:43:50Z</time>
      </trkpt>
      <trkpt lat="48.48081" lon="-2.02947">
        <ele>106.41659</ele>
        <time>2019-09-11T14:43:51Z</time>
      </trkpt>
      <trkpt lat="48.48074" lon="-2.02949">
        <ele>106.30516</ele>
        <time>2019-09-11T14:43:52Z</time>
      </trkpt>
      <trkpt lat="48.48068" lon="-2.0295">
        <ele>106.36504</ele>
        <time>2019-09-11T14:43:53Z</time>
      </trkpt>
      <trkpt lat="48.48061" lon="-2.02952">
        <ele>106.426575</ele>
        <time>2019-09-11T14:43:54Z</time>
      </trkpt>
      <trkpt lat="48.48054" lon="-2.02953">
        <ele>106.35993</ele>
        <time>2019-09-11T14:43:55Z</time>
      </trkpt>
      <trkpt lat="48.48047" lon="-2.02954">
        <ele>106.34159</ele>
        <time>2019-09-11T14:43:56Z</time>
      </trkpt>
      <trkpt lat="48.4804" lon="-2.02956">
        <ele>106.157</ele>
        <time>2019-09-11T14:43:57Z</time>
      </trkpt>
      <trkpt lat="48.48033" lon="-2.02957">
        <ele>105.835</ele>
        <time>2019-09-11T14:43:58Z</time>
      </trkpt>
      <trkpt lat="48.48026" lon="-2.02959">
        <ele>105.70435</ele>
        <time>2019-09-11T14:43:59Z</time>
      </trkpt>
      <trkpt lat="48.48019" lon="-2.0296">
        <ele>105.67575</ele>
        <time>2019-09-11T14:44:00Z</time>
      </trkpt>
      <trkpt lat="48.48012" lon="-2.02962">
        <ele>105.881226</ele>
        <time>2019-09-11T14:44:01Z</time>
      </trkpt>
      <trkpt lat="48.48006" lon="-2.02964">
        <ele>105.95246</ele>
        <time>2019-09-11T14:44:02Z</time>
      </trkpt>
      <trkpt lat="48.47999" lon="-2.02965">
        <ele>105.93831</ele>
        <time>2019-09-11T14:44:03Z</time>
      </trkpt>
      <trkpt lat="48.47993" lon="-2.02966">
        <ele>105.848236</ele>
        <time>2019-09-11T14:44:04Z</time>
      </trkpt>
      <trkpt lat="48.47987" lon="-2.02967">
        <ele>105.94984</ele>
        <time>2019-09-11T14:44:05Z</time>
      </trkpt>
      <trkpt lat="48.47981" lon="-2.02969">
        <ele>105.92573</ele>
        <time>2019-09-11T14:44:06Z</time>
      </trkpt>
      <trkpt lat="48.47975" lon="-2.02971">
        <ele>105.897896</ele>
        <time>2019-09-11T14:44:07Z</time>
      </trkpt>
      <trkpt lat="48.4797" lon="-2.02973">
        <ele>105.84329</ele>
        <time>2019-09-11T14:44:08Z</time>
      </trkpt>
      <trkpt lat="48.47965" lon="-2.02976">
        <ele>105.85845</ele>
        <time>2019-09-11T14:44:09Z</time>
      </trkpt>
      <trkpt lat="48.47959" lon="-2.02979">
        <ele>105.7503</ele>
        <time>2019-09-11T14:44:10Z</time>
      </trkpt>
      <trkpt lat="48.47953" lon="-2.02983">
        <ele>105.54909</ele>
        <time>2019-09-11T14:44:11Z</time>
      </trkpt>
      <trkpt lat="48.47948" lon="-2.02986">
        <ele>105.38791</ele>
        <time>2019-09-11T14:44:12Z</time>
      </trkpt>
      <trkpt lat="48.47943" lon="-2.02989">
        <ele>105.308754</ele>
        <time>2019-09-11T14:44:13Z</time>
      </trkpt>
      <trkpt lat="48.47937" lon="-2.02992">
        <ele>105.25824</ele>
        <time>2019-09-11T14:44:14Z</time>
      </trkpt>
      <trkpt lat="48.47932" lon="-2.02995">
        <ele>105.170296</ele>
        <time>2019-09-11T14:44:15Z</time>
      </trkpt>
      <trkpt lat="48.47927" lon="-2.02998">
        <ele>105.14484</ele>
        <time>2019-09-11T14:44:16Z</time>
      </trkpt>
      <trkpt lat="48.47922" lon="-2.03001">
        <ele>105.056015</ele>
        <time>2019-09-11T14:44:17Z</time>
      </trkpt>
      <trkpt lat="48.47918" lon="-2.03003">
        <ele>105.123276</ele>
        <time>2019-09-11T14:44:18Z</time>
      </trkpt>
      <trkpt lat="48.47913" lon="-2.03006">
        <ele>104.98959</ele>
        <time>2019-09-11T14:44:19Z</time>
      </trkpt>
      <trkpt lat="48.47908" lon="-2.0301">
        <ele>104.98772</ele>
        <time>2019-09-11T14:44:20Z</time>
      </trkpt>
      <trkpt lat="48.47904" lon="-2.03013">
        <ele>104.938705</ele>
        <time>2019-09-11T14:44:21Z</time>
      </trkpt>
      <trkpt lat="48.479" lon="-2.03016">
        <ele>104.82672</ele>
        <time>2019-09-11T14:44:22Z</time>
      </trkpt>
      <trkpt lat="48.47895" lon="-2.03018">
        <ele>104.74298</ele>
        <time>2019-09-11T14:44:23Z</time>
      </trkpt>
      <trkpt lat="48.47891" lon="-2.03021">
        <ele>104.71185</ele>
        <time>2019-09-11T14:44:24Z</time>
      </trkpt>
      <trkpt lat="48.47887" lon="-2.03023">
        <ele>104.86533</ele>
        <time>2019-09-11T14:44:25Z</time>
      </trkpt>
      <trkpt lat="48.47882" lon="-2.03025">
        <ele>105.03217</ele>
        <time>2019-09-11T14:44:26Z</time>
      </trkpt>
      <trkpt lat="48.47878" lon="-2.03027">
        <ele>105.1717</ele>
        <time>2019-09-11T14:44:27Z</time>
      </trkpt>
      <trkpt lat="48.47874" lon="-2.0303">
        <ele>105.262665</ele>
        <time>2019-09-11T14:44:28Z</time>
      </trkpt>
      <trkpt lat="48.4787" lon="-2.03032">
        <ele>105.33647</ele>
        <time>2019-09-11T14:44:29Z</time>
      </trkpt>
      <trkpt lat="48.47865" lon="-2.03035">
        <ele>105.279335</ele>
        <time>2019-09-11T14:44:30Z</time>
      </trkpt>
      <trkpt lat="48.47861" lon="-2.03037">
        <ele>105.33196</ele>
        <time>2019-09-11T14:44:31Z</time>
      </trkpt>
      <trkpt lat="48.47857" lon="-2.03039">
        <ele>105.47067</ele>
        <time>2019-09-11T14:44:32Z</time>
      </trkpt>
      <trkpt lat="48.47852" lon="-2.03041">
        <ele>105.541435</ele>
        <time>2019-09-11T14:44:33Z</time>
      </trkpt>
      <trkpt lat="48.47848" lon="-2.03042">
        <ele>105.49881</ele>
        <time>2019-09-11T14:44:34Z</time>
      </trkpt>
      <trkpt lat="48.47844" lon="-2.03044">
        <ele>105.46332</ele>
        <time>2019-09-11T14:44:35Z</time>
      </trkpt>
      <trkpt lat="48.47839" lon="-2.03045">
        <ele>105.520515</ele>
        <time>2019-09-11T14:44:36Z</time>
      </trkpt>
      <trkpt lat="48.47835" lon="-2.03046">
        <ele>105.52669</ele>
        <time>2019-09-11T14:44:37Z</time>
      </trkpt>
      <trkpt lat="48.4783" lon="-2.03047">
        <ele>105.718735</ele>
        <time>2019-09-11T14:44:38Z</time>
      </trkpt>
      <trkpt lat="48.47825" lon="-2.03048">
        <ele>105.82174</ele>
        <time>2019-09-11T14:44:39Z</time>
      </trkpt>
      <trkpt lat="48.47821" lon="-2.03048">
        <ele>105.882996</ele>
        <time>2019-09-11T14:44:40Z</time>
      </trkpt>
      <trkpt lat="48.47816" lon="-2.03049">
        <ele>105.85944</ele>
        <time>2019-09-11T14:44:41Z</time>
      </trkpt>
      <trkpt lat="48.47811" lon="-2.03049">
        <ele>105.941154</ele>
        <time>2019-09-11T14:44:42Z</time>
      </trkpt>
      <trkpt lat="48.47807" lon="-2.0305">
        <ele>105.949684</ele>
        <time>2019-09-11T14:44:43Z</time>
      </trkpt>
      <trkpt lat="48.47802" lon="-2.0305">
        <ele>105.93113</ele>
        <time>2019-09-11T14:44:44Z</time>
      </trkpt>
      <trkpt lat="48.47797" lon="-2.0305">
        <ele>105.959915</ele>
        <time>2019-09-11T14:44:45Z</time>
      </trkpt>
      <trkpt lat="48.47793" lon="-2.0305">
        <ele>106.06204</ele>
        <time>2019-09-11T14:44:46Z</time>
      </trkpt>
      <trkpt lat="48.47789" lon="-2.0305">
        <ele>106.1862</ele>
        <time>2019-09-11T14:44:47Z</time>
      </trkpt>
      <trkpt lat="48.47784" lon="-2.03051">
        <ele>106.0548</ele>
        <time>2019-09-11T14:44:48Z</time>
      </trkpt>
      <trkpt lat="48.4778" lon="-2.03051">
        <ele>106.05536</ele>
        <time>2019-09-11T14:44:49Z</time>
      </trkpt>
      <trkpt lat="48.47775" lon="-2.03051">
        <ele>106.04138</ele>
        <time>2019-09-11T14:44:50Z</time>
      </trkpt>
      <trkpt lat="48.47771" lon="-2.03052">
        <ele>105.925964</ele>
        <time>2019-09-11T14:44:51Z</time>
      </trkpt>
      <trkpt lat="48.47767" lon="-2.03053">
        <ele>105.973274</ele>
        <time>2019-09-11T14:44:52Z</time>
      </trkpt>
      <trkpt lat="48.47763" lon="-2.03053">
        <ele>106.10862</ele>
        <time>2019-09-11T14:44:53Z</time>
      </trkpt>
      <trkpt lat="48.47759" lon="-2.03052">
        <ele>106.23803</ele>
        <time>2019-09-11T14:44:54Z</time>
      </trkpt>
      <trkpt lat="48.47754" lon="-2.03051">
        <ele>106.21869</ele>
        <time>2019-09-11T14:44:55Z</time>
      </trkpt>
      <trkpt lat="48.47749" lon="-2.0305">
        <ele>106.54589</ele>
        <time>2019-09-11T14:44:56Z</time>
      </trkpt>
      <trkpt lat="48.47745" lon="-2.03051">
        <ele>106.67531</ele>
        <time>2019-09-11T14:44:57Z</time>
      </trkpt>
      <trkpt lat="48.4774" lon="-2.03051">
        <ele>106.78401</ele>
        <time>2019-09-11T14:44:58Z</time>
      </trkpt>
      <trkpt lat="48.47736" lon="-2.03052">
        <ele>106.8783</ele>
        <time>2019-09-11T14:44:59Z</time>
      </trkpt>
      <trkpt lat="48.47731" lon="-2.03053">
        <ele>106.92524</ele>
        <time>2019-09-11T14:45:00Z</time>
      </trkpt>
      <trkpt lat="48.47726" lon="-2.03054">
        <ele>107.0852</ele>
        <time>2019-09-11T14:45:01Z</time>
      </trkpt>
      <trkpt lat="48.47721" lon="-2.03055">
        <ele>107.00418</ele>
        <time>2019-09-11T14:45:02Z</time>
      </trkpt>
      <trkpt lat="48.47717" lon="-2.03057">
        <ele>106.99174</ele>
        <time>2019-09-11T14:45:03Z</time>
      </trkpt>
      <trkpt lat="48.47712" lon="-2.03058">
        <ele>106.90292</ele>
        <time>2019-09-11T14:45:04Z</time>
      </trkpt>
      <trkpt lat="48.47707" lon="-2.0306">
        <ele>106.83453</ele>
        <time>2019-09-11T14:45:05Z</time>
      </trkpt>
      <trkpt lat="48.47703" lon="-2.03062">
        <ele>106.883934</ele>
        <time>2019-09-11T14:45:06Z</time>
      </trkpt>
      <trkpt lat="48.47698" lon="-2.03064">
        <ele>106.71377</ele>
        <time>2019-09-11T14:45:07Z</time>
      </trkpt>
      <trkpt lat="48.47693" lon="-2.03066">
        <ele>106.462494</ele>
        <time>2019-09-11T14:45:08Z</time>
      </trkpt>
      <trkpt lat="48.47688" lon="-2.03068">
        <ele>106.25891</ele>
        <time>2019-09-11T14:45:09Z</time>
      </trkpt>
      <trkpt lat="48.47683" lon="-2.0307">
        <ele>106.19481</ele>
        <time>2019-09-11T14:45:10Z</time>
      </trkpt>
      <trkpt lat="48.47679" lon="-2.03071">
        <ele>106.08375</ele>
        <time>2019-09-11T14:45:11Z</time>
      </trkpt>
      <trkpt lat="48.47673" lon="-2.03073">
        <ele>106.10305</ele>
        <time>2019-09-11T14:45:12Z</time>
      </trkpt>
      <trkpt lat="48.47669" lon="-2.03075">
        <ele>106.0797</ele>
        <time>2019-09-11T14:45:13Z</time>
      </trkpt>
      <trkpt lat="48.47664" lon="-2.03077">
        <ele>106.10311</ele>
        <time>2019-09-11T14:45:14Z</time>
      </trkpt>
      <trkpt lat="48.47659" lon="-2.03078">
        <ele>106.14168</ele>
        <time>2019-09-11T14:45:15Z</time>
      </trkpt>
      <trkpt lat="48.47654" lon="-2.0308">
        <ele>106.22886</ele>
        <time>2019-09-11T14:45:16Z</time>
      </trkpt>
      <trkpt lat="48.47649" lon="-2.03082">
        <ele>106.20712</ele>
        <time>2019-09-11T14:45:17Z</time>
      </trkpt>
      <trkpt lat="48.47644" lon="-2.03084">
        <ele>106.25444</ele>
        <time>2019-09-11T14:45:18Z</time>
      </trkpt>
      <trkpt lat="48.47639" lon="-2.03086">
        <ele>106.18744</ele>
        <time>2019-09-11T14:45:19Z</time>
      </trkpt>
      <trkpt lat="48.47634" lon="-2.03088">
        <ele>106.10723</ele>
        <time>2019-09-11T14:45:20Z</time>
      </trkpt>
      <trkpt lat="48.4763" lon="-2.0309">
        <ele>106.00687</ele>
        <time>2019-09-11T14:45:21Z</time>
      </trkpt>
      <trkpt lat="48.47625" lon="-2.03092">
        <ele>105.94709</ele>
        <time>2019-09-11T14:45:22Z</time>
      </trkpt>
      <trkpt lat="48.4762" lon="-2.03094">
        <ele>106.04261</ele>
        <time>2019-09-11T14:45:23Z</time>
      </trkpt>
      <trkpt lat="48.47615" lon="-2.03096">
        <ele>105.89364</ele>
        <time>2019-09-11T14:45:24Z</time>
      </trkpt>
      <trkpt lat="48.4761" lon="-2.03098">
        <ele>105.946205</ele>
        <time>2019-09-11T14:45:25Z</time>
      </trkpt>
      <trkpt lat="48.47605" lon="-2.031">
        <ele>105.69456</ele>
        <time>2019-09-11T14:45:26Z</time>
      </trkpt>
      <trkpt lat="48.476" lon="-2.03102">
        <ele>105.477104</ele>
        <time>2019-09-11T14:45:27Z</time>
      </trkpt>
      <trkpt lat="48.47595" lon="-2.03105">
        <ele>105.538216</ele>
        <time>2019-09-11T14:45:28Z</time>
      </trkpt>
      <trkpt lat="48.4759" lon="-2.03107">
        <ele>105.451515</ele>
        <time>2019-09-11T14:45:29Z</time>
      </trkpt>
      <trkpt lat="48.47586" lon="-2.03109">
        <ele>105.44964</ele>
        <time>2019-09-11T14:45:30Z</time>
      </trkpt>
      <trkpt lat="48.47581" lon="-2.03112">
        <ele>105.29554</ele>
        <time>2019-09-11T14:45:31Z</time>
      </trkpt>
      <trkpt lat="48.47577" lon="-2.03114">
        <ele>105.31559</ele>
        <time>2019-09-11T14:45:32Z</time>
      </trkpt>
      <trkpt lat="48.47572" lon="-2.03116">
        <ele>105.41378</ele>
        <time>2019-09-11T14:45:33Z</time>
      </trkpt>
      <trkpt lat="48.47567" lon="-2.03118">
        <ele>105.53928</ele>
        <time>2019-09-11T14:45:34Z</time>
      </trkpt>
      <trkpt lat="48.47563" lon="-2.0312">
        <ele>105.66902</ele>
        <time>2019-09-11T14:45:35Z</time>
      </trkpt>
      <trkpt lat="48.47559" lon="-2.03123">
        <ele>105.80851</ele>
        <time>2019-09-11T14:45:36Z</time>
      </trkpt>
      <trkpt lat="48.47555" lon="-2.03125">
        <ele>105.7916</ele>
        <time>2019-09-11T14:45:37Z</time>
      </trkpt>
      <trkpt lat="48.47551" lon="-2.03127">
        <ele>105.77908</ele>
        <time>2019-09-11T14:45:38Z</time>
      </trkpt>
      <trkpt lat="48.47547" lon="-2.0313">
        <ele>105.889305</ele>
        <time>2019-09-11T14:45:39Z</time>
      </trkpt>
      <trkpt lat="48.47543" lon="-2.03132">
        <ele>106.05596</ele>
        <time>2019-09-11T14:45:40Z</time>
      </trkpt>
      <trkpt lat="48.47538" lon="-2.03134">
        <ele>106.17081</ele>
        <time>2019-09-11T14:45:41Z</time>
      </trkpt>
      <trkpt lat="48.47535" lon="-2.03136">
        <ele>106.268196</ele>
        <time>2019-09-11T14:45:42Z</time>
      </trkpt>
      <trkpt lat="48.4753" lon="-2.03139">
        <ele>106.35527</ele>
        <time>2019-09-11T14:45:43Z</time>
      </trkpt>
      <trkpt lat="48.47527" lon="-2.03141">
        <ele>106.543144</ele>
        <time>2019-09-11T14:45:44Z</time>
      </trkpt>
      <trkpt lat="48.47523" lon="-2.03143">
        <ele>106.75434</ele>
        <time>2019-09-11T14:45:45Z</time>
      </trkpt>
      <trkpt lat="48.47519" lon="-2.03146">
        <ele>106.91884</ele>
        <time>2019-09-11T14:45:46Z</time>
      </trkpt>
      <trkpt lat="48.47516" lon="-2.03148">
        <ele>107.123665</ele>
        <time>2019-09-11T14:45:47Z</time>
      </trkpt>
      <trkpt lat="48.47512" lon="-2.03151">
        <ele>107.20656</ele>
        <time>2019-09-11T14:45:48Z</time>
      </trkpt>
      <trkpt lat="48.47508" lon="-2.03153">
        <ele>107.41586</ele>
        <time>2019-09-11T14:45:49Z</time>
      </trkpt>
      <trkpt lat="48.47505" lon="-2.03156">
        <ele>107.51022</ele>
        <time>2019-09-11T14:45:50Z</time>
      </trkpt>
      <trkpt lat="48.47501" lon="-2.03158">
        <ele>107.43647</ele>
        <time>2019-09-11T14:45:51Z</time>
      </trkpt>
      <trkpt lat="48.47497" lon="-2.03161">
        <ele>107.748276</ele>
        <time>2019-09-11T14:45:52Z</time>
      </trkpt>
      <trkpt lat="48.47494" lon="-2.03164">
        <ele>108.204735</ele>
        <time>2019-09-11T14:45:53Z</time>
      </trkpt>
      <trkpt lat="48.4749" lon="-2.03167">
        <ele>108.75002</ele>
        <time>2019-09-11T14:45:54Z</time>
      </trkpt>
      <trkpt lat="48.47486" lon="-2.03171">
        <ele>109.34573</ele>
        <time>2019-09-11T14:45:55Z</time>
      </trkpt>
      <trkpt lat="48.47482" lon="-2.03174">
        <ele>109.97927</ele>
        <time>2019-09-11T14:45:56Z</time>
      </trkpt>
      <trkpt lat="48.47478" lon="-2.03177">
        <ele>110.61022</ele>
        <time>2019-09-11T14:45:57Z</time>
      </trkpt>
      <trkpt lat="48.47474" lon="-2.0318">
        <ele>110.99043</ele>
        <time>2019-09-11T14:45:58Z</time>
      </trkpt>
      <trkpt lat="48.4747" lon="-2.03184">
        <ele>111.438835</ele>
        <time>2019-09-11T14:45:59Z</time>
      </trkpt>
      <trkpt lat="48.47467" lon="-2.03188">
        <ele>111.86253</ele>
        <time>2019-09-11T14:46:00Z</time>
      </trkpt>
      <trkpt lat="48.47463" lon="-2.03191">
        <ele>112.07947</ele>
        <time>2019-09-11T14:46:01Z</time>
      </trkpt>
      <trkpt lat="48.47459" lon="-2.03195">
        <ele>112.38368</ele>
        <time>2019-09-11T14:46:02Z</time>
      </trkpt>
      <trkpt lat="48.47455" lon="-2.03199">
        <ele>112.82483</ele>
        <time>2019-09-11T14:46:03Z</time>
      </trkpt>
      <trkpt lat="48.4745" lon="-2.03202">
        <ele>113.0241</ele>
        <time>2019-09-11T14:46:04Z</time>
      </trkpt>
      <trkpt lat="48.47446" lon="-2.03205">
        <ele>113.09142</ele>
        <time>2019-09-11T14:46:05Z</time>
      </trkpt>
      <trkpt lat="48.47443" lon="-2.03208">
        <ele>112.94178</ele>
        <time>2019-09-11T14:46:06Z</time>
      </trkpt>
      <trkpt lat="48.47438" lon="-2.0321">
        <ele>112.935646</ele>
        <time>2019-09-11T14:46:07Z</time>
      </trkpt>
      <trkpt lat="48.47435" lon="-2.03212">
        <ele>112.68891</ele>
        <time>2019-09-11T14:46:08Z</time>
      </trkpt>
      <trkpt lat="48.47431" lon="-2.03215">
        <ele>112.54572</ele>
        <time>2019-09-11T14:46:09Z</time>
      </trkpt>
      <trkpt lat="48.47427" lon="-2.03217">
        <ele>112.274086</ele>
        <time>2019-09-11T14:46:10Z</time>
      </trkpt>
      <trkpt lat="48.47423" lon="-2.03218">
        <ele>112.06399</ele>
        <time>2019-09-11T14:46:11Z</time>
      </trkpt>
      <trkpt lat="48.47419" lon="-2.0322">
        <ele>111.93189</ele>
        <time>2019-09-11T14:46:12Z</time>
      </trkpt>
      <trkpt lat="48.47415" lon="-2.03221">
        <ele>111.60016</ele>
        <time>2019-09-11T14:46:13Z</time>
      </trkpt>
      <trkpt lat="48.47411" lon="-2.03223">
        <ele>111.45625</ele>
        <time>2019-09-11T14:46:14Z</time>
      </trkpt>
      <trkpt lat="48.47406" lon="-2.03224">
        <ele>111.294174</ele>
        <time>2019-09-11T14:46:15Z</time>
      </trkpt>
      <trkpt lat="48.47401" lon="-2.03225">
        <ele>111.35758</ele>
        <time>2019-09-11T14:46:16Z</time>
      </trkpt>
      <trkpt lat="48.47397" lon="-2.03226">
        <ele>111.41127</ele>
        <time>2019-09-11T14:46:17Z</time>
      </trkpt>
      <trkpt lat="48.47392" lon="-2.03226">
        <ele>111.1374</ele>
        <time>2019-09-11T14:46:18Z</time>
      </trkpt>
      <trkpt lat="48.47387" lon="-2.03226">
        <ele>111.23474</ele>
        <time>2019-09-11T14:46:19Z</time>
      </trkpt>
      <trkpt lat="48.47382" lon="-2.03225">
        <ele>111.59114</ele>
        <time>2019-09-11T14:46:20Z</time>
      </trkpt>
      <trkpt lat="48.47377" lon="-2.03225">
        <ele>111.75924</ele>
        <time>2019-09-11T14:46:21Z</time>
      </trkpt>
      <trkpt lat="48.47371" lon="-2.03225">
        <ele>112.01524</ele>
        <time>2019-09-11T14:46:22Z</time>
      </trkpt>
      <trkpt lat="48.47366" lon="-2.03223">
        <ele>112.24582</ele>
        <time>2019-09-11T14:46:23Z</time>
      </trkpt>
      <trkpt lat="48.47361" lon="-2.03222">
        <ele>112.38741</ele>
        <time>2019-09-11T14:46:24Z</time>
      </trkpt>
      <trkpt lat="48.47355" lon="-2.03222">
        <ele>112.471985</ele>
        <time>2019-09-11T14:46:25Z</time>
      </trkpt>
      <trkpt lat="48.4735" lon="-2.03221">
        <ele>112.58835</ele>
        <time>2019-09-11T14:46:26Z</time>
      </trkpt>
      <trkpt lat="48.47344" lon="-2.0322">
        <ele>112.64567</ele>
        <time>2019-09-11T14:46:27Z</time>
      </trkpt>
      <trkpt lat="48.47339" lon="-2.0322">
        <ele>112.56673</ele>
        <time>2019-09-11T14:46:28Z</time>
      </trkpt>
      <trkpt lat="48.47334" lon="-2.03219">
        <ele>112.39034</ele>
        <time>2019-09-11T14:46:29Z</time>
      </trkpt>
      <trkpt lat="48.47328" lon="-2.03218">
        <ele>112.48262</ele>
        <time>2019-09-11T14:46:30Z</time>
      </trkpt>
      <trkpt lat="48.47323" lon="-2.03215">
        <ele>112.203514</ele>
        <time>2019-09-11T14:46:31Z</time>
      </trkpt>
      <trkpt lat="48.47318" lon="-2.03212">
        <ele>112.13211</ele>
        <time>2019-09-11T14:46:32Z</time>
      </trkpt>
      <trkpt lat="48.47314" lon="-2.0321">
        <ele>111.85219</ele>
        <time>2019-09-11T14:46:33Z</time>
      </trkpt>
      <trkpt lat="48.47309" lon="-2.03209">
        <ele>111.79993</ele>
        <time>2019-09-11T14:46:34Z</time>
      </trkpt>
      <trkpt lat="48.47305" lon="-2.03208">
        <ele>111.76671</ele>
        <time>2019-09-11T14:46:35Z</time>
      </trkpt>
      <trkpt lat="48.473" lon="-2.03208">
        <ele>111.994835</ele>
        <time>2019-09-11T14:46:36Z</time>
      </trkpt>
      <trkpt lat="48.47295" lon="-2.03208">
        <ele>112.09724</ele>
        <time>2019-09-11T14:46:37Z</time>
      </trkpt>
      <trkpt lat="48.4729" lon="-2.03207">
        <ele>112.66705</ele>
        <time>2019-09-11T14:46:38Z</time>
      </trkpt>
      <trkpt lat="48.47286" lon="-2.03205">
        <ele>112.796196</ele>
        <time>2019-09-11T14:46:39Z</time>
      </trkpt>
      <trkpt lat="48.47281" lon="-2.03203">
        <ele>113.19053</ele>
        <time>2019-09-11T14:46:40Z</time>
      </trkpt>
      <trkpt lat="48.47276" lon="-2.03201">
        <ele>113.26411</ele>
        <time>2019-09-11T14:46:41Z</time>
      </trkpt>
      <trkpt lat="48.47272" lon="-2.03198">
        <ele>113.43762</ele>
        <time>2019-09-11T14:46:42Z</time>
      </trkpt>
      <trkpt lat="48.47267" lon="-2.03194">
        <ele>113.50979</ele>
        <time>2019-09-11T14:46:43Z</time>
      </trkpt>
      <trkpt lat="48.47263" lon="-2.03191">
        <ele>113.55696</ele>
        <time>2019-09-11T14:46:44Z</time>
      </trkpt>
      <trkpt lat="48.47258" lon="-2.03186">
        <ele>113.58817</ele>
        <time>2019-09-11T14:46:45Z</time>
      </trkpt>
      <trkpt lat="48.47254" lon="-2.03182">
        <ele>113.6599</ele>
        <time>2019-09-11T14:46:46Z</time>
      </trkpt>
      <trkpt lat="48.47249" lon="-2.03177">
        <ele>113.56152</ele>
        <time>2019-09-11T14:46:47Z</time>
      </trkpt>
      <trkpt lat="48.47245" lon="-2.03172">
        <ele>113.74784</ele>
        <time>2019-09-11T14:46:48Z</time>
      </trkpt>
      <trkpt lat="48.4724" lon="-2.03167">
        <ele>113.96565</ele>
        <time>2019-09-11T14:46:49Z</time>
      </trkpt>
      <trkpt lat="48.47235" lon="-2.03162">
        <ele>114.18044</ele>
        <time>2019-09-11T14:46:50Z</time>
      </trkpt>
      <trkpt lat="48.4723" lon="-2.03157">
        <ele>114.28757</ele>
        <time>2019-09-11T14:46:51Z</time>
      </trkpt>
      <trkpt lat="48.47225" lon="-2.03152">
        <ele>114.47957</ele>
        <time>2019-09-11T14:46:52Z</time>
      </trkpt>
      <trkpt lat="48.47219" lon="-2.03147">
        <ele>114.54599</ele>
        <time>2019-09-11T14:46:53Z</time>
      </trkpt>
      <trkpt lat="48.47213" lon="-2.03143">
        <ele>114.73928</ele>
        <time>2019-09-11T14:46:54Z</time>
      </trkpt>
      <trkpt lat="48.47208" lon="-2.03138">
        <ele>114.7701</ele>
        <time>2019-09-11T14:46:55Z</time>
      </trkpt>
      <trkpt lat="48.47203" lon="-2.03132">
        <ele>114.82348</ele>
        <time>2019-09-11T14:46:56Z</time>
      </trkpt>
      <trkpt lat="48.47198" lon="-2.03127">
        <ele>114.93716</ele>
        <time>2019-09-11T14:46:57Z</time>
      </trkpt>
      <trkpt lat="48.47193" lon="-2.03121">
        <ele>114.67238</ele>
        <time>2019-09-11T14:46:58Z</time>
      </trkpt>
      <trkpt lat="48.47187" lon="-2.03116">
        <ele>114.54285</ele>
        <time>2019-09-11T14:46:59Z</time>
      </trkpt>
      <trkpt lat="48.47182" lon="-2.0311">
        <ele>114.489365</ele>
        <time>2019-09-11T14:47:00Z</time>
      </trkpt>
      <trkpt lat="48.47177" lon="-2.03104">
        <ele>114.38455</ele>
        <time>2019-09-11T14:47:01Z</time>
      </trkpt>
      <trkpt lat="48.47172" lon="-2.03098">
        <ele>114.10032</ele>
        <time>2019-09-11T14:47:02Z</time>
      </trkpt>
      <trkpt lat="48.47167" lon="-2.03093">
        <ele>114.10585</ele>
        <time>2019-09-11T14:47:03Z</time>
      </trkpt>
      <trkpt lat="48.47161" lon="-2.03088">
        <ele>114.21578</ele>
        <time>2019-09-11T14:47:04Z</time>
      </trkpt>
      <trkpt lat="48.47155" lon="-2.03083">
        <ele>114.27441</ele>
        <time>2019-09-11T14:47:05Z</time>
      </trkpt>
      <trkpt lat="48.47149" lon="-2.0308">
        <ele>114.04773</ele>
        <time>2019-09-11T14:47:06Z</time>
      </trkpt>
      <trkpt lat="48.47143" lon="-2.03078">
        <ele>113.91367</ele>
        <time>2019-09-11T14:47:07Z</time>
      </trkpt>
      <trkpt lat="48.47137" lon="-2.03076">
        <ele>113.90901</ele>
        <time>2019-09-11T14:47:08Z</time>
      </trkpt>
      <trkpt lat="48.47131" lon="-2.03075">
        <ele>113.65791</ele>
        <time>2019-09-11T14:47:09Z</time>
      </trkpt>
      <trkpt lat="48.47125" lon="-2.03074">
        <ele>113.60299</ele>
        <time>2019-09-11T14:47:10Z</time>
      </trkpt>
      <trkpt lat="48.47119" lon="-2.03074">
        <ele>113.415924</ele>
        <time>2019-09-11T14:47:11Z</time>
      </trkpt>
      <trkpt lat="48.47113" lon="-2.03074">
        <ele>113.07718</ele>
        <time>2019-09-11T14:47:12Z</time>
      </trkpt>
      <trkpt lat="48.47107" lon="-2.03074">
        <ele>113.364655</ele>
        <time>2019-09-11T14:47:13Z</time>
      </trkpt>
      <trkpt lat="48.47102" lon="-2.03074">
        <ele>112.96017</ele>
        <time>2019-09-11T14:47:14Z</time>
      </trkpt>
      <trkpt lat="48.47096" lon="-2.03075">
        <ele>113.43557</ele>
        <time>2019-09-11T14:47:15Z</time>
      </trkpt>
      <trkpt lat="48.47091" lon="-2.03075">
        <ele>113.27269</ele>
        <time>2019-09-11T14:47:16Z</time>
      </trkpt>
      <trkpt lat="48.47085" lon="-2.03076">
        <ele>113.144714</ele>
        <time>2019-09-11T14:47:17Z</time>
      </trkpt>
      <trkpt lat="48.4708" lon="-2.03077">
        <ele>112.94376</ele>
        <time>2019-09-11T14:47:18Z</time>
      </trkpt>
      <trkpt lat="48.47075" lon="-2.03078">
        <ele>112.69482</ele>
        <time>2019-09-11T14:47:19Z</time>
      </trkpt>
      <trkpt lat="48.4707" lon="-2.0308">
        <ele>112.436745</ele>
        <time>2019-09-11T14:47:20Z</time>
      </trkpt>
      <trkpt lat="48.47066" lon="-2.03082">
        <ele>111.921074</ele>
        <time>2019-09-11T14:47:21Z</time>
      </trkpt>
      <trkpt lat="48.47061" lon="-2.03083">
        <ele>111.67455</ele>
        <time>2019-09-11T14:47:22Z</time>
      </trkpt>
      <trkpt lat="48.47057" lon="-2.03084">
        <ele>111.4963</ele>
        <time>2019-09-11T14:47:23Z</time>
      </trkpt>
      <trkpt lat="48.47052" lon="-2.03086">
        <ele>111.22398</ele>
        <time>2019-09-11T14:47:24Z</time>
      </trkpt>
      <trkpt lat="48.47047" lon="-2.03087">
        <ele>110.69217</ele>
        <time>2019-09-11T14:47:25Z</time>
      </trkpt>
      <trkpt lat="48.47042" lon="-2.03088">
        <ele>110.50932</ele>
        <time>2019-09-11T14:47:26Z</time>
      </trkpt>
      <trkpt lat="48.47037" lon="-2.03089">
        <ele>110.16665</ele>
        <time>2019-09-11T14:47:27Z</time>
      </trkpt>
      <trkpt lat="48.47032" lon="-2.03091">
        <ele>110.04585</ele>
        <time>2019-09-11T14:47:28Z</time>
      </trkpt>
      <trkpt lat="48.47027" lon="-2.03092">
        <ele>109.95842</ele>
        <time>2019-09-11T14:47:29Z</time>
      </trkpt>
      <trkpt lat="48.47022" lon="-2.03093">
        <ele>109.84013</ele>
        <time>2019-09-11T14:47:30Z</time>
      </trkpt>
      <trkpt lat="48.47018" lon="-2.03095">
        <ele>109.77435</ele>
        <time>2019-09-11T14:47:31Z</time>
      </trkpt>
      <trkpt lat="48.47013" lon="-2.03096">
        <ele>109.77256</ele>
        <time>2019-09-11T14:47:32Z</time>
      </trkpt>
      <trkpt lat="48.47008" lon="-2.03097">
        <ele>109.62613</ele>
        <time>2019-09-11T14:47:33Z</time>
      </trkpt>
      <trkpt lat="48.47003" lon="-2.03099">
        <ele>109.53315</ele>
        <time>2019-09-11T14:47:34Z</time>
      </trkpt>
      <trkpt lat="48.46998" lon="-2.031">
        <ele>109.31944</ele>
        <time>2019-09-11T14:47:35Z</time>
      </trkpt>
      <trkpt lat="48.46993" lon="-2.03102">
        <ele>109.182526</ele>
        <time>2019-09-11T14:47:36Z</time>
      </trkpt>
      <trkpt lat="48.46988" lon="-2.03103">
        <ele>109.22836</ele>
        <time>2019-09-11T14:47:37Z</time>
      </trkpt>
      <trkpt lat="48.46983" lon="-2.03105">
        <ele>109.25378</ele>
        <time>2019-09-11T14:47:38Z</time>
      </trkpt>
      <trkpt lat="48.46978" lon="-2.03106">
        <ele>109.20184</ele>
        <time>2019-09-11T14:47:39Z</time>
      </trkpt>
      <trkpt lat="48.46973" lon="-2.03108">
        <ele>109.12969</ele>
        <time>2019-09-11T14:47:40Z</time>
      </trkpt>
      <trkpt lat="48.46969" lon="-2.0311">
        <ele>108.96887</ele>
        <time>2019-09-11T14:47:41Z</time>
      </trkpt>
      <trkpt lat="48.46964" lon="-2.03111">
        <ele>108.82251</ele>
        <time>2019-09-11T14:47:42Z</time>
      </trkpt>
      <trkpt lat="48.4696" lon="-2.03113">
        <ele>108.64992</ele>
        <time>2019-09-11T14:47:43Z</time>
      </trkpt>
      <trkpt lat="48.46956" lon="-2.03115">
        <ele>108.46758</ele>
        <time>2019-09-11T14:47:44Z</time>
      </trkpt>
      <trkpt lat="48.46951" lon="-2.03117">
        <ele>108.45487</ele>
        <time>2019-09-11T14:47:45Z</time>
      </trkpt>
      <trkpt lat="48.46947" lon="-2.03119">
        <ele>108.310646</ele>
        <time>2019-09-11T14:47:46Z</time>
      </trkpt>
      <trkpt lat="48.46943" lon="-2.03122">
        <ele>108.263794</ele>
        <time>2019-09-11T14:47:47Z</time>
      </trkpt>
      <trkpt lat="48.46939" lon="-2.03124">
        <ele>108.29018</ele>
        <time>2019-09-11T14:47:48Z</time>
      </trkpt>
      <trkpt lat="48.46934" lon="-2.03126">
        <ele>108.344666</ele>
        <time>2019-09-11T14:47:49Z</time>
      </trkpt>
      <trkpt lat="48.4693" lon="-2.03129">
        <ele>108.47092</ele>
        <time>2019-09-11T14:47:50Z</time>
      </trkpt>
      <trkpt lat="48.46926" lon="-2.03131">
        <ele>108.55544</ele>
        <time>2019-09-11T14:47:51Z</time>
      </trkpt>
      <trkpt lat="48.46922" lon="-2.03133">
        <ele>108.75102</ele>
        <time>2019-09-11T14:47:52Z</time>
      </trkpt>
      <trkpt lat="48.46917" lon="-2.03134">
        <ele>108.93554</ele>
        <time>2019-09-11T14:47:53Z</time>
      </trkpt>
      <trkpt lat="48.46913" lon="-2.03135">
        <ele>109.02</ele>
        <time>2019-09-11T14:47:54Z</time>
      </trkpt>
      <trkpt lat="48.46908" lon="-2.03136">
        <ele>109.025665</ele>
        <time>2019-09-11T14:47:55Z</time>
      </trkpt>
      <trkpt lat="48.46903" lon="-2.03137">
        <ele>109.03698</ele>
        <time>2019-09-11T14:47:56Z</time>
      </trkpt>
      <trkpt lat="48.46899" lon="-2.03137">
        <ele>109.08396</ele>
        <time>2019-09-11T14:47:57Z</time>
      </trkpt>
      <trkpt lat="48.46895" lon="-2.03138">
        <ele>109.25878</ele>
        <time>2019-09-11T14:47:58Z</time>
      </trkpt>
      <trkpt lat="48.46891" lon="-2.03138">
        <ele>109.67794</ele>
        <time>2019-09-11T14:47:59Z</time>
      </trkpt>
      <trkpt lat="48.46886" lon="-2.03137">
        <ele>109.922455</ele>
        <time>2019-09-11T14:48:00Z</time>
      </trkpt>
      <trkpt lat="48.46882" lon="-2.03136">
        <ele>110.08129</ele>
        <time>2019-09-11T14:48:01Z</time>
      </trkpt>
      <trkpt lat="48.46877" lon="-2.03136">
        <ele>110.13412</ele>
        <time>2019-09-11T14:48:02Z</time>
      </trkpt>
      <trkpt lat="48.46873" lon="-2.03136">
        <ele>109.88878</ele>
        <time>2019-09-11T14:48:03Z</time>
      </trkpt>
      <trkpt lat="48.46869" lon="-2.03136">
        <ele>109.87843</ele>
        <time>2019-09-11T14:48:04Z</time>
      </trkpt>
      <trkpt lat="48.46864" lon="-2.03135">
        <ele>109.857346</ele>
        <time>2019-09-11T14:48:05Z</time>
      </trkpt>
      <trkpt lat="48.46859" lon="-2.03135">
        <ele>109.95485</ele>
        <time>2019-09-11T14:48:06Z</time>
      </trkpt>
      <trkpt lat="48.46854" lon="-2.03134">
        <ele>110.102585</ele>
        <time>2019-09-11T14:48:07Z</time>
      </trkpt>
      <trkpt lat="48.46849" lon="-2.03133">
        <ele>110.20187</ele>
        <time>2019-09-11T14:48:08Z</time>
      </trkpt>
      <trkpt lat="48.46845" lon="-2.03132">
        <ele>110.13626</ele>
        <time>2019-09-11T14:48:09Z</time>
      </trkpt>
      <trkpt lat="48.46839" lon="-2.03131">
        <ele>110.30247</ele>
        <time>2019-09-11T14:48:10Z</time>
      </trkpt>
      <trkpt lat="48.46834" lon="-2.03129">
        <ele>110.48581</ele>
        <time>2019-09-11T14:48:11Z</time>
      </trkpt>
      <trkpt lat="48.46829" lon="-2.03127">
        <ele>110.564445</ele>
        <time>2019-09-11T14:48:12Z</time>
      </trkpt>
      <trkpt lat="48.46824" lon="-2.03125">
        <ele>110.84282</ele>
        <time>2019-09-11T14:48:13Z</time>
      </trkpt>
      <trkpt lat="48.46818" lon="-2.03123">
        <ele>111.03556</ele>
        <time>2019-09-11T14:48:14Z</time>
      </trkpt>
      <trkpt lat="48.46812" lon="-2.03121">
        <ele>111.3079</ele>
        <time>2019-09-11T14:48:15Z</time>
      </trkpt>
      <trkpt lat="48.46807" lon="-2.03119">
        <ele>111.604675</ele>
        <time>2019-09-11T14:48:16Z</time>
      </trkpt>
      <trkpt lat="48.46802" lon="-2.03117">
        <ele>111.945526</ele>
        <time>2019-09-11T14:48:17Z</time>
      </trkpt>
      <trkpt lat="48.46796" lon="-2.03114">
        <ele>112.085106</ele>
        <time>2019-09-11T14:48:18Z</time>
      </trkpt>
      <trkpt lat="48.46791" lon="-2.03112">
        <ele>112.168274</ele>
        <time>2019-09-11T14:48:19Z</time>
      </trkpt>
      <trkpt lat="48.46785" lon="-2.0311">
        <ele>112.47857</ele>
        <time>2019-09-11T14:48:20Z</time>
      </trkpt>
      <trkpt lat="48.4678" lon="-2.03109">
        <ele>112.627815</ele>
        <time>2019-09-11T14:48:21Z</time>
      </trkpt>
      <trkpt lat="48.46774" lon="-2.03108">
        <ele>113.11754</ele>
        <time>2019-09-11T14:48:22Z</time>
      </trkpt>
      <trkpt lat="48.46769" lon="-2.03106">
        <ele>113.43328</ele>
        <time>2019-09-11T14:48:23Z</time>
      </trkpt>
      <trkpt lat="48.46764" lon="-2.03104">
        <ele>113.65801</ele>
        <time>2019-09-11T14:48:24Z</time>
      </trkpt>
      <trkpt lat="48.46759" lon="-2.03102">
        <ele>113.78209</ele>
        <time>2019-09-11T14:48:25Z</time>
      </trkpt>
      <trkpt lat="48.46754" lon="-2.031">
        <ele>113.53233</ele>
        <time>2019-09-11T14:48:26Z</time>
      </trkpt>
      <trkpt lat="48.46748" lon="-2.03097">
        <ele>113.14953</ele>
        <time>2019-09-11T14:48:27Z</time>
      </trkpt>
      <trkpt lat="48.46741" lon="-2.03093">
        <ele>113.049034</ele>
        <time>2019-09-11T14:48:28Z</time>
      </trkpt>
      <trkpt lat="48.46735" lon="-2.03088">
        <ele>112.794945</ele>
        <time>2019-09-11T14:48:29Z</time>
      </trkpt>
      <trkpt lat="48.46728" lon="-2.03083">
        <ele>112.32003</ele>
        <time>2019-09-11T14:48:30Z</time>
      </trkpt>
      <trkpt lat="48.46722" lon="-2.03078">
        <ele>112.25019</ele>
        <time>2019-09-11T14:48:31Z</time>
      </trkpt>
      <trkpt lat="48.46715" lon="-2.03073">
        <ele>111.89472</ele>
        <time>2019-09-11T14:48:32Z</time>
      </trkpt>
      <trkpt lat="48.46709" lon="-2.03068">
        <ele>112.45225</ele>
        <time>2019-09-11T14:48:33Z</time>
      </trkpt>
      <trkpt lat="48.46702" lon="-2.03063">
        <ele>112.167755</ele>
        <time>2019-09-11T14:48:34Z</time>
      </trkpt>
      <trkpt lat="48.46694" lon="-2.0306">
        <ele>111.98344</ele>
        <time>2019-09-11T14:48:35Z</time>
      </trkpt>
      <trkpt lat="48.46686" lon="-2.03057">
        <ele>111.72643</ele>
        <time>2019-09-11T14:48:36Z</time>
      </trkpt>
      <trkpt lat="48.46678" lon="-2.03055">
        <ele>111.55029</ele>
        <time>2019-09-11T14:48:37Z</time>
      </trkpt>
      <trkpt lat="48.4667" lon="-2.03053">
        <ele>111.24322</ele>
        <time>2019-09-11T14:48:38Z</time>
      </trkpt>
      <trkpt lat="48.46662" lon="-2.03052">
        <ele>110.471664</ele>
        <time>2019-09-11T14:48:39Z</time>
      </trkpt>
      <trkpt lat="48.46654" lon="-2.03052">
        <ele>110.27647</ele>
        <time>2019-09-11T14:48:40Z</time>
      </trkpt>
      <trkpt lat="48.46646" lon="-2.03051">
        <ele>110.22272</ele>
        <time>2019-09-11T14:48:41Z</time>
      </trkpt>
      <trkpt lat="48.46639" lon="-2.0305">
        <ele>110.185394</ele>
        <time>2019-09-11T14:48:42Z</time>
      </trkpt>
      <trkpt lat="48.46631" lon="-2.0305">
        <ele>110.31605</ele>
        <time>2019-09-11T14:48:43Z</time>
      </trkpt>
      <trkpt lat="48.46623" lon="-2.03049">
        <ele>110.0994</ele>
        <time>2019-09-11T14:48:44Z</time>
      </trkpt>
      <trkpt lat="48.46616" lon="-2.03048">
        <ele>109.97752</ele>
        <time>2019-09-11T14:48:45Z</time>
      </trkpt>
      <trkpt lat="48.46608" lon="-2.03047">
        <ele>109.79769</ele>
        <time>2019-09-11T14:48:46Z</time>
      </trkpt>
      <trkpt lat="48.46602" lon="-2.03045">
        <ele>109.531876</ele>
        <time>2019-09-11T14:48:47Z</time>
      </trkpt>
      <trkpt lat="48.46594" lon="-2.03043">
        <ele>109.204834</ele>
        <time>2019-09-11T14:48:48Z</time>
      </trkpt>
      <trkpt lat="48.46587" lon="-2.03041">
        <ele>108.62182</ele>
        <time>2019-09-11T14:48:49Z</time>
      </trkpt>
      <trkpt lat="48.46579" lon="-2.03039">
        <ele>108.178474</ele>
        <time>2019-09-11T14:48:50Z</time>
      </trkpt>
      <trkpt lat="48.46572" lon="-2.03038">
        <ele>107.58094</ele>
        <time>2019-09-11T14:48:51Z</time>
      </trkpt>
      <trkpt lat="48.46565" lon="-2.03037">
        <ele>106.986</ele>
        <time>2019-09-11T14:48:52Z</time>
      </trkpt>
      <trkpt lat="48.46557" lon="-2.03037">
        <ele>106.699295</ele>
        <time>2019-09-11T14:48:53Z</time>
      </trkpt>
      <trkpt lat="48.4655" lon="-2.03036">
        <ele>106.361465</ele>
        <time>2019-09-11T14:48:54Z</time>
      </trkpt>
      <trkpt lat="48.46544" lon="-2.03036">
        <ele>106.29121</ele>
        <time>2019-09-11T14:48:55Z</time>
      </trkpt>
      <trkpt lat="48.46537" lon="-2.03035">
        <ele>106.09336</ele>
        <time>2019-09-11T14:48:56Z</time>
      </trkpt>
      <trkpt lat="48.46529" lon="-2.03035">
        <ele>105.42668</ele>
        <time>2019-09-11T14:48:57Z</time>
      </trkpt>
      <trkpt lat="48.46522" lon="-2.03035">
        <ele>105.4146</ele>
        <time>2019-09-11T14:48:58Z</time>
      </trkpt>
      <trkpt lat="48.46515" lon="-2.03035">
        <ele>104.87286</ele>
        <time>2019-09-11T14:48:59Z</time>
      </trkpt>
      <trkpt lat="48.46507" lon="-2.03034">
        <ele>104.82986</ele>
        <time>2019-09-11T14:49:00Z</time>
      </trkpt>
      <trkpt lat="48.465" lon="-2.03032">
        <ele>104.62543</ele>
        <time>2019-09-11T14:49:01Z</time>
      </trkpt>
      <trkpt lat="48.46492" lon="-2.0303">
        <ele>104.14777</ele>
        <time>2019-09-11T14:49:02Z</time>
      </trkpt>
      <trkpt lat="48.46487" lon="-2.03029">
        <ele>103.70552</ele>
        <time>2019-09-11T14:49:03Z</time>
      </trkpt>
      <trkpt lat="48.46482" lon="-2.03028">
        <ele>103.40477</ele>
        <time>2019-09-11T14:49:04Z</time>
      </trkpt>
      <trkpt lat="48.46477" lon="-2.03027">
        <ele>103.109764</ele>
        <time>2019-09-11T14:49:05Z</time>
      </trkpt>
      <trkpt lat="48.46472" lon="-2.03025">
        <ele>102.63768</ele>
        <time>2019-09-11T14:49:06Z</time>
      </trkpt>
      <trkpt lat="48.46466" lon="-2.03024">
        <ele>102.18664</ele>
        <time>2019-09-11T14:49:07Z</time>
      </trkpt>
      <trkpt lat="48.46462" lon="-2.03023">
        <ele>101.78352</ele>
        <time>2019-09-11T14:49:08Z</time>
      </trkpt>
      <trkpt lat="48.46457" lon="-2.03024">
        <ele>101.19351</ele>
        <time>2019-09-11T14:49:09Z</time>
      </trkpt>
      <trkpt lat="48.46452" lon="-2.03027">
        <ele>100.550674</ele>
        <time>2019-09-11T14:49:10Z</time>
      </trkpt>
      <trkpt lat="48.46447" lon="-2.03031">
        <ele>100.01163</ele>
        <time>2019-09-11T14:49:11Z</time>
      </trkpt>
      <trkpt lat="48.46442" lon="-2.03034">
        <ele>99.462425</ele>
        <time>2019-09-11T14:49:12Z</time>
      </trkpt>
      <trkpt lat="48.46438" lon="-2.03039">
        <ele>98.88424</ele>
        <time>2019-09-11T14:49:13Z</time>
      </trkpt>
      <trkpt lat="48.46433" lon="-2.03043">
        <ele>98.466805</ele>
        <time>2019-09-11T14:49:14Z</time>
      </trkpt>
      <trkpt lat="48.46429" lon="-2.03047">
        <ele>98.06907</ele>
        <time>2019-09-11T14:49:15Z</time>
      </trkpt>
      <trkpt lat="48.46425" lon="-2.0305">
        <ele>97.668106</ele>
        <time>2019-09-11T14:49:16Z</time>
      </trkpt>
      <trkpt lat="48.4642" lon="-2.03052">
        <ele>97.30475</ele>
        <time>2019-09-11T14:49:17Z</time>
      </trkpt>
      <trkpt lat="48.46414" lon="-2.03054">
        <ele>96.978615</ele>
        <time>2019-09-11T14:49:18Z</time>
      </trkpt>
      <trkpt lat="48.46408" lon="-2.03054">
        <ele>96.66806</ele>
        <time>2019-09-11T14:49:19Z</time>
      </trkpt>
      <trkpt lat="48.46402" lon="-2.03055">
        <ele>96.29116</ele>
        <time>2019-09-11T14:49:20Z</time>
      </trkpt>
      <trkpt lat="48.46396" lon="-2.03056">
        <ele>96.04518</ele>
        <time>2019-09-11T14:49:21Z</time>
      </trkpt>
      <trkpt lat="48.4639" lon="-2.03057">
        <ele>95.620056</ele>
        <time>2019-09-11T14:49:22Z</time>
      </trkpt>
      <trkpt lat="48.46384" lon="-2.03059">
        <ele>95.33792</ele>
        <time>2019-09-11T14:49:23Z</time>
      </trkpt>
      <trkpt lat="48.46378" lon="-2.03061">
        <ele>94.88925</ele>
        <time>2019-09-11T14:49:24Z</time>
      </trkpt>
      <trkpt lat="48.46372" lon="-2.03063">
        <ele>94.39451</ele>
        <time>2019-09-11T14:49:25Z</time>
      </trkpt>
      <trkpt lat="48.46365" lon="-2.03064">
        <ele>93.73827</ele>
        <time>2019-09-11T14:49:26Z</time>
      </trkpt>
      <trkpt lat="48.46359" lon="-2.03066">
        <ele>93.2784</ele>
        <time>2019-09-11T14:49:27Z</time>
      </trkpt>
      <trkpt lat="48.46353" lon="-2.03066">
        <ele>92.56492</ele>
        <time>2019-09-11T14:49:28Z</time>
      </trkpt>
      <trkpt lat="48.46347" lon="-2.03067">
        <ele>91.405556</ele>
        <time>2019-09-11T14:49:29Z</time>
      </trkpt>
      <trkpt lat="48.4634" lon="-2.0307">
        <ele>89.55415</ele>
        <time>2019-09-11T14:49:30Z</time>
      </trkpt>
      <trkpt lat="48.46334" lon="-2.03073">
        <ele>88.59542</ele>
        <time>2019-09-11T14:49:31Z</time>
      </trkpt>
      <trkpt lat="48.46328" lon="-2.03077">
        <ele>87.32948</ele>
        <time>2019-09-11T14:49:32Z</time>
      </trkpt>
      <trkpt lat="48.46323" lon="-2.0308">
        <ele>85.91123</ele>
        <time>2019-09-11T14:49:33Z</time>
      </trkpt>
      <trkpt lat="48.46318" lon="-2.03083">
        <ele>84.90619</ele>
        <time>2019-09-11T14:49:34Z</time>
      </trkpt>
      <trkpt lat="48.46313" lon="-2.03088">
        <ele>84.119644</ele>
        <time>2019-09-11T14:49:35Z</time>
      </trkpt>
      <trkpt lat="48.46308" lon="-2.03094">
        <ele>83.528984</ele>
        <time>2019-09-11T14:49:36Z</time>
      </trkpt>
      <trkpt lat="48.46302" lon="-2.03101">
        <ele>82.7837</ele>
        <time>2019-09-11T14:49:37Z</time>
      </trkpt>
      <trkpt lat="48.46296" lon="-2.03108">
        <ele>82.49054</ele>
        <time>2019-09-11T14:49:38Z</time>
      </trkpt>
      <trkpt lat="48.46289" lon="-2.03115">
        <ele>81.97363</ele>
        <time>2019-09-11T14:49:39Z</time>
      </trkpt>
      <trkpt lat="48.46281" lon="-2.03122">
        <ele>81.76057</ele>
        <time>2019-09-11T14:49:40Z</time>
      </trkpt>
      <trkpt lat="48.46275" lon="-2.0313">
        <ele>81.24809</ele>
        <time>2019-09-11T14:49:41Z</time>
      </trkpt>
      <trkpt lat="48.46267" lon="-2.03139">
        <ele>80.82371</ele>
        <time>2019-09-11T14:49:42Z</time>
      </trkpt>
      <trkpt lat="48.4626" lon="-2.03148">
        <ele>80.33691</ele>
        <time>2019-09-11T14:49:43Z</time>
      </trkpt>
      <trkpt lat="48.46251" lon="-2.03159">
        <ele>79.485695</ele>
        <time>2019-09-11T14:49:44Z</time>
      </trkpt>
      <trkpt lat="48.46243" lon="-2.03168">
        <ele>78.5908</ele>
        <time>2019-09-11T14:49:45Z</time>
      </trkpt>
      <trkpt lat="48.46235" lon="-2.03177">
        <ele>77.74544</ele>
        <time>2019-09-11T14:49:46Z</time>
      </trkpt>
      <trkpt lat="48.46228" lon="-2.03186">
        <ele>76.79892</ele>
        <time>2019-09-11T14:49:47Z</time>
      </trkpt>
      <trkpt lat="48.46221" lon="-2.03194">
        <ele>75.7855</ele>
        <time>2019-09-11T14:49:48Z</time>
      </trkpt>
      <trkpt lat="48.46214" lon="-2.03202">
        <ele>74.96995</ele>
        <time>2019-09-11T14:49:49Z</time>
      </trkpt>
      <trkpt lat="48.46206" lon="-2.03208">
        <ele>74.38656</ele>
        <time>2019-09-11T14:49:50Z</time>
      </trkpt>
      <trkpt lat="48.46199" lon="-2.03215">
        <ele>73.95668</ele>
        <time>2019-09-11T14:49:51Z</time>
      </trkpt>
      <trkpt lat="48.46193" lon="-2.03222">
        <ele>73.94277</ele>
        <time>2019-09-11T14:49:52Z</time>
      </trkpt>
      <trkpt lat="48.46186" lon="-2.03229">
        <ele>73.87212</ele>
        <time>2019-09-11T14:49:53Z</time>
      </trkpt>
      <trkpt lat="48.46181" lon="-2.03236">
        <ele>73.479034</ele>
        <time>2019-09-11T14:49:54Z</time>
      </trkpt>
      <trkpt lat="48.46177" lon="-2.03241">
        <ele>73.03505</ele>
        <time>2019-09-11T14:49:55Z</time>
      </trkpt>
      <trkpt lat="48.46172" lon="-2.03245">
        <ele>72.46543</ele>
        <time>2019-09-11T14:49:56Z</time>
      </trkpt>
      <trkpt lat="48.46171" lon="-2.0325">
        <ele>72.40253</ele>
        <time>2019-09-11T14:49:57Z</time>
      </trkpt>
      <trkpt lat="48.4617" lon="-2.03252">
        <ele>72.54218</ele>
        <time>2019-09-11T14:49:58Z</time>
      </trkpt>
      <trkpt lat="48.46172" lon="-2.03253">
        <ele>71.95481</ele>
        <time>2019-09-11T14:49:59Z</time>
      </trkpt>
      <trkpt lat="48.46174" lon="-2.03252">
        <ele>71.61401</ele>
        <time>2019-09-11T14:50:00Z</time>
      </trkpt>
      <trkpt lat="48.46176" lon="-2.03248">
        <ele>71.10675</ele>
        <time>2019-09-11T14:50:01Z</time>
      </trkpt>
      <trkpt lat="48.46179" lon="-2.03242">
        <ele>70.193</ele>
        <time>2019-09-11T14:50:02Z</time>
      </trkpt>
      <trkpt lat="48.46183" lon="-2.03236">
        <ele>69.39735</ele>
        <time>2019-09-11T14:50:03Z</time>
      </trkpt>
      <trkpt lat="48.46187" lon="-2.03231">
        <ele>68.80972</ele>
        <time>2019-09-11T14:50:04Z</time>
      </trkpt>
      <trkpt lat="48.46192" lon="-2.03228">
        <ele>68.877846</ele>
        <time>2019-09-11T14:50:05Z</time>
      </trkpt>
      <trkpt lat="48.46198" lon="-2.03227">
        <ele>68.3812</ele>
        <time>2019-09-11T14:50:06Z</time>
      </trkpt>
      <trkpt lat="48.46204" lon="-2.03228">
        <ele>68.22193</ele>
        <time>2019-09-11T14:50:07Z</time>
      </trkpt>
      <trkpt lat="48.46209" lon="-2.03232">
        <ele>68.24571</ele>
        <time>2019-09-11T14:50:08Z</time>
      </trkpt>
      <trkpt lat="48.46214" lon="-2.03238">
        <ele>68.07459</ele>
        <time>2019-09-11T14:50:09Z</time>
      </trkpt>
      <trkpt lat="48.46218" lon="-2.03243">
        <ele>67.7814</ele>
        <time>2019-09-11T14:50:10Z</time>
      </trkpt>
      <trkpt lat="48.46222" lon="-2.03248">
        <ele>67.38639</ele>
        <time>2019-09-11T14:50:11Z</time>
      </trkpt>
      <trkpt lat="48.46227" lon="-2.03252">
        <ele>67.09633</ele>
        <time>2019-09-11T14:50:12Z</time>
      </trkpt>
      <trkpt lat="48.46232" lon="-2.03254">
        <ele>67.307106</ele>
        <time>2019-09-11T14:50:13Z</time>
      </trkpt>
      <trkpt lat="48.46238" lon="-2.03253">
        <ele>67.47282</ele>
        <time>2019-09-11T14:50:14Z</time>
      </trkpt>
      <trkpt lat="48.46244" lon="-2.0325">
        <ele>67.54101</ele>
        <time>2019-09-11T14:50:15Z</time>
      </trkpt>
      <trkpt lat="48.4625" lon="-2.03246">
        <ele>67.58989</ele>
        <time>2019-09-11T14:50:16Z</time>
      </trkpt>
      <trkpt lat="48.46256" lon="-2.03242">
        <ele>67.576775</ele>
        <time>2019-09-11T14:50:17Z</time>
      </trkpt>
      <trkpt lat="48.46262" lon="-2.03238">
        <ele>67.56921</ele>
        <time>2019-09-11T14:50:18Z</time>
      </trkpt>
      <trkpt lat="48.46268" lon="-2.03235">
        <ele>67.73085</ele>
        <time>2019-09-11T14:50:19Z</time>
      </trkpt>
      <trkpt lat="48.46274" lon="-2.03232">
        <ele>67.76101</ele>
        <time>2019-09-11T14:50:20Z</time>
      </trkpt>
      <trkpt lat="48.4628" lon="-2.0323">
        <ele>67.74545</ele>
        <time>2019-09-11T14:50:21Z</time>
      </trkpt>
      <trkpt lat="48.46287" lon="-2.03229">
        <ele>67.83943</ele>
        <time>2019-09-11T14:50:22Z</time>
      </trkpt>
      <trkpt lat="48.46293" lon="-2.03229">
        <ele>67.777374</ele>
        <time>2019-09-11T14:50:23Z</time>
      </trkpt>
      <trkpt lat="48.46299" lon="-2.0323">
        <ele>67.82188</ele>
        <time>2019-09-11T14:50:24Z</time>
      </trkpt>
      <trkpt lat="48.46305" lon="-2.03232">
        <ele>67.90349</ele>
        <time>2019-09-11T14:50:25Z</time>
      </trkpt>
      <trkpt lat="48.46312" lon="-2.03234">
        <ele>67.76268</ele>
        <time>2019-09-11T14:50:26Z</time>
      </trkpt>
      <trkpt lat="48.46318" lon="-2.03237">
        <ele>67.64964</ele>
        <time>2019-09-11T14:50:27Z</time>
      </trkpt>
      <trkpt lat="48.46325" lon="-2.03239">
        <ele>66.998764</ele>
        <time>2019-09-11T14:50:28Z</time>
      </trkpt>
      <trkpt lat="48.4633" lon="-2.03243">
        <ele>66.48678</ele>
        <time>2019-09-11T14:50:29Z</time>
      </trkpt>
      <trkpt lat="48.46336" lon="-2.03247">
        <ele>66.15439</ele>
        <time>2019-09-11T14:50:30Z</time>
      </trkpt>
      <trkpt lat="48.46342" lon="-2.03251">
        <ele>66.08969</ele>
        <time>2019-09-11T14:50:31Z</time>
      </trkpt>
      <trkpt lat="48.46347" lon="-2.03255">
        <ele>65.93239</ele>
        <time>2019-09-11T14:50:32Z</time>
      </trkpt>
      <trkpt lat="48.46353" lon="-2.03259">
        <ele>65.44948</ele>
        <time>2019-09-11T14:50:33Z</time>
      </trkpt>
      <trkpt lat="48.46359" lon="-2.03266">
        <ele>65.175064</ele>
        <time>2019-09-11T14:50:34Z</time>
      </trkpt>
      <trkpt lat="48.46365" lon="-2.03272">
        <ele>64.85908</ele>
        <time>2019-09-11T14:50:35Z</time>
      </trkpt>
      <trkpt lat="48.46371" lon="-2.03278">
        <ele>65.317</ele>
        <time>2019-09-11T14:50:36Z</time>
      </trkpt>
      <trkpt lat="48.46376" lon="-2.03283">
        <ele>65.86424</ele>
        <time>2019-09-11T14:50:37Z</time>
      </trkpt>
      <trkpt lat="48.46382" lon="-2.03289">
        <ele>66.48429</ele>
        <time>2019-09-11T14:50:38Z</time>
      </trkpt>
      <trkpt lat="48.46388" lon="-2.03296">
        <ele>67.139465</ele>
        <time>2019-09-11T14:50:39Z</time>
      </trkpt>
      <trkpt lat="48.46394" lon="-2.03302">
        <ele>68.01323</ele>
        <time>2019-09-11T14:50:40Z</time>
      </trkpt>
      <trkpt lat="48.46401" lon="-2.03306">
        <ele>68.65864</ele>
        <time>2019-09-11T14:50:41Z</time>
      </trkpt>
      <trkpt lat="48.46408" lon="-2.0331">
        <ele>69.24248</ele>
        <time>2019-09-11T14:50:42Z</time>
      </trkpt>
      <trkpt lat="48.46413" lon="-2.03314">
        <ele>70.095215</ele>
        <time>2019-09-11T14:50:43Z</time>
      </trkpt>
      <trkpt lat="48.4642" lon="-2.03318">
        <ele>70.93194</ele>
        <time>2019-09-11T14:50:44Z</time>
      </trkpt>
      <trkpt lat="48.46426" lon="-2.03322">
        <ele>71.58322</ele>
        <time>2019-09-11T14:50:45Z</time>
      </trkpt>
      <trkpt lat="48.46431" lon="-2.03326">
        <ele>72.40255</ele>
        <time>2019-09-11T14:50:46Z</time>
      </trkpt>
      <trkpt lat="48.46436" lon="-2.03332">
        <ele>72.979034</ele>
        <time>2019-09-11T14:50:47Z</time>
      </trkpt>
      <trkpt lat="48.46441" lon="-2.03339">
        <ele>73.745834</ele>
        <time>2019-09-11T14:50:48Z</time>
      </trkpt>
      <trkpt lat="48.46445" lon="-2.03345">
        <ele>74.65736</ele>
        <time>2019-09-11T14:50:49Z</time>
      </trkpt>
      <trkpt lat="48.46449" lon="-2.03352">
        <ele>75.63206</ele>
        <time>2019-09-11T14:50:50Z</time>
      </trkpt>
      <trkpt lat="48.46454" lon="-2.0336">
        <ele>76.55479</ele>
        <time>2019-09-11T14:50:51Z</time>
      </trkpt>
      <trkpt lat="48.46458" lon="-2.03369">
        <ele>77.5458</ele>
        <time>2019-09-11T14:50:52Z</time>
      </trkpt>
      <trkpt lat="48.46463" lon="-2.03377">
        <ele>78.38285</ele>
        <time>2019-09-11T14:50:53Z</time>
      </trkpt>
      <trkpt lat="48.46468" lon="-2.03384">
        <ele>79.22112</ele>
        <time>2019-09-11T14:50:54Z</time>
      </trkpt>
      <trkpt lat="48.46473" lon="-2.03389">
        <ele>80.6376</ele>
        <time>2019-09-11T14:50:55Z</time>
      </trkpt>
      <trkpt lat="48.46478" lon="-2.03393">
        <ele>82.25129</ele>
        <time>2019-09-11T14:50:56Z</time>
      </trkpt>
      <trkpt lat="48.46483" lon="-2.03396">
        <ele>83.07476</ele>
        <time>2019-09-11T14:50:57Z</time>
      </trkpt>
      <trkpt lat="48.4649" lon="-2.03397">
        <ele>83.84771</ele>
        <time>2019-09-11T14:50:58Z</time>
      </trkpt>
      <trkpt lat="48.46496" lon="-2.03397">
        <ele>84.38554</ele>
        <time>2019-09-11T14:50:59Z</time>
      </trkpt>
      <trkpt lat="48.46502" lon="-2.03397">
        <ele>84.83154</ele>
        <time>2019-09-11T14:51:00Z</time>
      </trkpt>
      <trkpt lat="48.46507" lon="-2.03397">
        <ele>85.38466</ele>
        <time>2019-09-11T14:51:01Z</time>
      </trkpt>
      <trkpt lat="48.46512" lon="-2.03398">
        <ele>86.59197</ele>
        <time>2019-09-11T14:51:02Z</time>
      </trkpt>
      <trkpt lat="48.46516" lon="-2.03399">
        <ele>87.61923</ele>
        <time>2019-09-11T14:51:03Z</time>
      </trkpt>
      <trkpt lat="48.4652" lon="-2.03398">
        <ele>88.28233</ele>
        <time>2019-09-11T14:51:04Z</time>
      </trkpt>
      <trkpt lat="48.46525" lon="-2.03397">
        <ele>88.61634</ele>
        <time>2019-09-11T14:51:05Z</time>
      </trkpt>
      <trkpt lat="48.4653" lon="-2.03394">
        <ele>89.60292</ele>
        <time>2019-09-11T14:51:06Z</time>
      </trkpt>
      <trkpt lat="48.46534" lon="-2.03392">
        <ele>90.555336</ele>
        <time>2019-09-11T14:51:07Z</time>
      </trkpt>
      <trkpt lat="48.46539" lon="-2.03389">
        <ele>91.490105</ele>
        <time>2019-09-11T14:51:08Z</time>
      </trkpt>
      <trkpt lat="48.46544" lon="-2.03387">
        <ele>92.03896</ele>
        <time>2019-09-11T14:51:09Z</time>
      </trkpt>
      <trkpt lat="48.4655" lon="-2.03383">
        <ele>92.82663</ele>
        <time>2019-09-11T14:51:10Z</time>
      </trkpt>
      <trkpt lat="48.46557" lon="-2.03382">
        <ele>93.859375</ele>
        <time>2019-09-11T14:51:11Z</time>
      </trkpt>
      <trkpt lat="48.46563" lon="-2.03381">
        <ele>95.13983</ele>
        <time>2019-09-11T14:51:12Z</time>
      </trkpt>
      <trkpt lat="48.46568" lon="-2.03381">
        <ele>96.4941</ele>
        <time>2019-09-11T14:51:13Z</time>
      </trkpt>
      <trkpt lat="48.46575" lon="-2.03379">
        <ele>97.50771</ele>
        <time>2019-09-11T14:51:14Z</time>
      </trkpt>
      <trkpt lat="48.46582" lon="-2.03378">
        <ele>98.63492</ele>
        <time>2019-09-11T14:51:15Z</time>
      </trkpt>
      <trkpt lat="48.46587" lon="-2.03379">
        <ele>99.690186</ele>
        <time>2019-09-11T14:51:16Z</time>
      </trkpt>
      <trkpt lat="48.46592" lon="-2.0338">
        <ele>100.28269</ele>
        <time>2019-09-11T14:51:17Z</time>
      </trkpt>
      <trkpt lat="48.46597" lon="-2.03381">
        <ele>100.85016</ele>
        <time>2019-09-11T14:51:18Z</time>
      </trkpt>
      <trkpt lat="48.46602" lon="-2.03382">
        <ele>101.41426</ele>
        <time>2019-09-11T14:51:19Z</time>
      </trkpt>
      <trkpt lat="48.46606" lon="-2.03384">
        <ele>101.67443</ele>
        <time>2019-09-11T14:51:20Z</time>
      </trkpt>
      <trkpt lat="48.4661" lon="-2.03385">
        <ele>101.978905</ele>
        <time>2019-09-11T14:51:21Z</time>
      </trkpt>
      <trkpt lat="48.46615" lon="-2.03385">
        <ele>102.37612</ele>
        <time>2019-09-11T14:51:22Z</time>
      </trkpt>
      <trkpt lat="48.46619" lon="-2.03386">
        <ele>101.988686</ele>
        <time>2019-09-11T14:51:23Z</time>
      </trkpt>
      <trkpt lat="48.46623" lon="-2.03386">
        <ele>101.67568</ele>
        <time>2019-09-11T14:51:24Z</time>
      </trkpt>
      <trkpt lat="48.46627" lon="-2.03386">
        <ele>101.51571</ele>
        <time>2019-09-11T14:51:25Z</time>
      </trkpt>
      <trkpt lat="48.46631" lon="-2.03387">
        <ele>100.95574</ele>
        <time>2019-09-11T14:51:26Z</time>
      </trkpt>
      <trkpt lat="48.46636" lon="-2.03386">
        <ele>99.91816</ele>
        <time>2019-09-11T14:51:27Z</time>
      </trkpt>
      <trkpt lat="48.4664" lon="-2.03386">
        <ele>99.615074</ele>
        <time>2019-09-11T14:51:28Z</time>
      </trkpt>
      <trkpt lat="48.46643" lon="-2.03387">
        <ele>100.37036</ele>
        <time>2019-09-11T14:51:29Z</time>
      </trkpt>
      <trkpt lat="48.46648" lon="-2.03388">
        <ele>101.4126</ele>
        <time>2019-09-11T14:51:30Z</time>
      </trkpt>
      <trkpt lat="48.46652" lon="-2.03389">
        <ele>102.62101</ele>
        <time>2019-09-11T14:51:31Z</time>
      </trkpt>
      <trkpt lat="48.46656" lon="-2.03389">
        <ele>103.432655</ele>
        <time>2019-09-11T14:51:32Z</time>
      </trkpt>
      <trkpt lat="48.4666" lon="-2.0339">
        <ele>103.81528</ele>
        <time>2019-09-11T14:51:33Z</time>
      </trkpt>
      <trkpt lat="48.46664" lon="-2.0339">
        <ele>104.40335</ele>
        <time>2019-09-11T14:51:34Z</time>
      </trkpt>
      <trkpt lat="48.46668" lon="-2.0339">
        <ele>104.96603</ele>
        <time>2019-09-11T14:51:35Z</time>
      </trkpt>
      <trkpt lat="48.46671" lon="-2.03391">
        <ele>105.476204</ele>
        <time>2019-09-11T14:51:36Z</time>
      </trkpt>
      <trkpt lat="48.46675" lon="-2.0339">
        <ele>105.978935</ele>
        <time>2019-09-11T14:51:37Z</time>
      </trkpt>
      <trkpt lat="48.4668" lon="-2.03389">
        <ele>106.98347</ele>
        <time>2019-09-11T14:51:38Z</time>
      </trkpt>
      <trkpt lat="48.46684" lon="-2.03389">
        <ele>107.45058</ele>
        <time>2019-09-11T14:51:39Z</time>
      </trkpt>
      <trkpt lat="48.46688" lon="-2.03391">
        <ele>108.614876</ele>
        <time>2019-09-11T14:51:40Z</time>
      </trkpt>
      <trkpt lat="48.46692" lon="-2.03393">
        <ele>109.68047</ele>
        <time>2019-09-11T14:51:41Z</time>
      </trkpt>
      <trkpt lat="48.46695" lon="-2.03397">
        <ele>110.22535</ele>
        <time>2019-09-11T14:51:42Z</time>
      </trkpt>
      <trkpt lat="48.46699" lon="-2.03401">
        <ele>111.36309</ele>
        <time>2019-09-11T14:51:43Z</time>
      </trkpt>
      <trkpt lat="48.46703" lon="-2.03404">
        <ele>111.85318</ele>
        <time>2019-09-11T14:51:44Z</time>
      </trkpt>
      <trkpt lat="48.46708" lon="-2.03408">
        <ele>112.63017</ele>
        <time>2019-09-11T14:51:45Z</time>
      </trkpt>
      <trkpt lat="48.46712" lon="-2.03414">
        <ele>112.818695</ele>
        <time>2019-09-11T14:51:46Z</time>
      </trkpt>
      <trkpt lat="48.46717" lon="-2.03419">
        <ele>113.22916</ele>
        <time>2019-09-11T14:51:47Z</time>
      </trkpt>
      <trkpt lat="48.46722" lon="-2.03423">
        <ele>113.341705</ele>
        <time>2019-09-11T14:51:48Z</time>
      </trkpt>
      <trkpt lat="48.46726" lon="-2.03427">
        <ele>112.97232</ele>
        <time>2019-09-11T14:51:49Z</time>
      </trkpt>
      <trkpt lat="48.46728" lon="-2.03432">
        <ele>112.69027</ele>
        <time>2019-09-11T14:51:50Z</time>
      </trkpt>
      <trkpt lat="48.46732" lon="-2.03436">
        <ele>111.90598</ele>
        <time>2019-09-11T14:51:51Z</time>
      </trkpt>
      <trkpt lat="48.46735" lon="-2.03441">
        <ele>112.23872</ele>
        <time>2019-09-11T14:51:52Z</time>
      </trkpt>
      <trkpt lat="48.46739" lon="-2.03446">
        <ele>112.59878</ele>
        <time>2019-09-11T14:51:53Z</time>
      </trkpt>
      <trkpt lat="48.46741" lon="-2.03452">
        <ele>113.17526</ele>
        <time>2019-09-11T14:51:54Z</time>
      </trkpt>
      <trkpt lat="48.46744" lon="-2.03459">
        <ele>113.43811</ele>
        <time>2019-09-11T14:51:55Z</time>
      </trkpt>
      <trkpt lat="48.46747" lon="-2.03465">
        <ele>113.87913</ele>
        <time>2019-09-11T14:51:56Z</time>
      </trkpt>
      <trkpt lat="48.4675" lon="-2.03471">
        <ele>114.41127</ele>
        <time>2019-09-11T14:51:57Z</time>
      </trkpt>
      <trkpt lat="48.46753" lon="-2.03478">
        <ele>114.68961</ele>
        <time>2019-09-11T14:51:58Z</time>
      </trkpt>
      <trkpt lat="48.46756" lon="-2.03484">
        <ele>115.52363</ele>
        <time>2019-09-11T14:51:59Z</time>
      </trkpt>
      <trkpt lat="48.46758" lon="-2.0349">
        <ele>116.22977</ele>
        <time>2019-09-11T14:52:00Z</time>
      </trkpt>
      <trkpt lat="48.46761" lon="-2.03496">
        <ele>117.24821</ele>
        <time>2019-09-11T14:52:01Z</time>
      </trkpt>
      <trkpt lat="48.46763" lon="-2.03503">
        <ele>118.654785</ele>
        <time>2019-09-11T14:52:02Z</time>
      </trkpt>
      <trkpt lat="48.46765" lon="-2.0351">
        <ele>119.97214</ele>
        <time>2019-09-11T14:52:03Z</time>
      </trkpt>
      <trkpt lat="48.46767" lon="-2.03516">
        <ele>120.78734</ele>
        <time>2019-09-11T14:52:04Z</time>
      </trkpt>
      <trkpt lat="48.46768" lon="-2.03523">
        <ele>121.90768</ele>
        <time>2019-09-11T14:52:05Z</time>
      </trkpt>
      <trkpt lat="48.46769" lon="-2.0353">
        <ele>122.46738</ele>
        <time>2019-09-11T14:52:06Z</time>
      </trkpt>
      <trkpt lat="48.46769" lon="-2.03538">
        <ele>122.56363</ele>
        <time>2019-09-11T14:52:07Z</time>
      </trkpt>
      <trkpt lat="48.4677" lon="-2.03546">
        <ele>122.54122</ele>
        <time>2019-09-11T14:52:08Z</time>
      </trkpt>
      <trkpt lat="48.4677" lon="-2.03554">
        <ele>122.57944</ele>
        <time>2019-09-11T14:52:09Z</time>
      </trkpt>
      <trkpt lat="48.46771" lon="-2.03563">
        <ele>122.889275</ele>
        <time>2019-09-11T14:52:10Z</time>
      </trkpt>
      <trkpt lat="48.4677" lon="-2.03572">
        <ele>122.76062</ele>
        <time>2019-09-11T14:52:11Z</time>
      </trkpt>
      <trkpt lat="48.4677" lon="-2.03579">
        <ele>122.52132</ele>
        <time>2019-09-11T14:52:12Z</time>
      </trkpt>
      <trkpt lat="48.4677" lon="-2.03587">
        <ele>122.577934</ele>
        <time>2019-09-11T14:52:13Z</time>
      </trkpt>
      <trkpt lat="48.46769" lon="-2.03595">
        <ele>122.61529</ele>
        <time>2019-09-11T14:52:14Z</time>
      </trkpt>
      <trkpt lat="48.46767" lon="-2.03604">
        <ele>122.8157</ele>
        <time>2019-09-11T14:52:15Z</time>
      </trkpt>
      <trkpt lat="48.46763" lon="-2.03611">
        <ele>123.03472</ele>
        <time>2019-09-11T14:52:16Z</time>
      </trkpt>
      <trkpt lat="48.46759" lon="-2.03617">
        <ele>123.543945</ele>
        <time>2019-09-11T14:52:17Z</time>
      </trkpt>
      <trkpt lat="48.46754" lon="-2.03621">
        <ele>123.45496</ele>
        <time>2019-09-11T14:52:18Z</time>
      </trkpt>
      <trkpt lat="48.46749" lon="-2.03624">
        <ele>122.0633</ele>
        <time>2019-09-11T14:52:19Z</time>
      </trkpt>
      <trkpt lat="48.46745" lon="-2.03627">
        <ele>121.09169</ele>
        <time>2019-09-11T14:52:20Z</time>
      </trkpt>
      <trkpt lat="48.46741" lon="-2.03631">
        <ele>121.39103</ele>
        <time>2019-09-11T14:52:21Z</time>
      </trkpt>
      <trkpt lat="48.46738" lon="-2.03636">
        <ele>121.636444</ele>
        <time>2019-09-11T14:52:22Z</time>
      </trkpt>
      <trkpt lat="48.46738" lon="-2.03641">
        <ele>121.745636</ele>
        <time>2019-09-11T14:52:23Z</time>
      </trkpt>
      <trkpt lat="48.46738" lon="-2.03646">
        <ele>121.69612</ele>
        <time>2019-09-11T14:52:24Z</time>
      </trkpt>
      <trkpt lat="48.46739" lon="-2.03651">
        <ele>121.8258</ele>
        <time>2019-09-11T14:52:25Z</time>
      </trkpt>
      <trkpt lat="48.4674" lon="-2.03656">
        <ele>121.74646</ele>
        <time>2019-09-11T14:52:26Z</time>
      </trkpt>
      <trkpt lat="48.4674" lon="-2.03659">
        <ele>121.76899</ele>
        <time>2019-09-11T14:52:27Z</time>
      </trkpt>
      <trkpt lat="48.46739" lon="-2.03663">
        <ele>121.88057</ele>
        <time>2019-09-11T14:52:28Z</time>
      </trkpt>
      <trkpt lat="48.46738" lon="-2.03666">
        <ele>121.841965</ele>
        <time>2019-09-11T14:52:29Z</time>
      </trkpt>
      <trkpt lat="48.46738" lon="-2.03669">
        <ele>121.75004</ele>
        <time>2019-09-11T14:52:30Z</time>
      </trkpt>
      <trkpt lat="48.46737" lon="-2.03673">
        <ele>122.076164</ele>
        <time>2019-09-11T14:52:31Z</time>
      </trkpt>
      <trkpt lat="48.46737" lon="-2.03675">
        <ele>122.669365</ele>
        <time>2019-09-11T14:52:32Z</time>
      </trkpt>
      <trkpt lat="48.46736" lon="-2.03676">
        <ele>123.215546</ele>
        <time>2019-09-11T14:52:33Z</time>
      </trkpt>
      <trkpt lat="48.46735" lon="-2.03677">
        <ele>123.429855</ele>
        <time>2019-09-11T14:52:34Z</time>
      </trkpt>
      <trkpt lat="48.46735" lon="-2.03678">
        <ele>124.24024</ele>
        <time>2019-09-11T14:52:35Z</time>
      </trkpt>
      <trkpt lat="48.46735" lon="-2.03684">
        <ele>124.594864</ele>
        <time>2019-09-11T14:52:39Z</time>
      </trkpt>
      <trkpt lat="48.46735" lon="-2.03689">
        <ele>124.81687</ele>
        <time>2019-09-11T14:52:40Z</time>
      </trkpt>
      <trkpt lat="48.46734" lon="-2.03693">
        <ele>124.3264</ele>
        <time>2019-09-11T14:52:41Z</time>
      </trkpt>
      <trkpt lat="48.46733" lon="-2.03695">
        <ele>124.13964</ele>
        <time>2019-09-11T14:52:42Z</time>
      </trkpt>
      <trkpt lat="48.46732" lon="-2.03694">
        <ele>123.761</ele>
        <time>2019-09-11T14:52:43Z</time>
      </trkpt>
      <trkpt lat="48.46731" lon="-2.03692">
        <ele>123.16337</ele>
        <time>2019-09-11T14:52:44Z</time>
      </trkpt>
      <trkpt lat="48.4673" lon="-2.0369">
        <ele>122.41763</ele>
        <time>2019-09-11T14:52:45Z</time>
      </trkpt>
      <trkpt lat="48.46729" lon="-2.03686">
        <ele>121.44417</ele>
        <time>2019-09-11T14:52:46Z</time>
      </trkpt>
      <trkpt lat="48.46729" lon="-2.03682">
        <ele>121.112755</ele>
        <time>2019-09-11T14:52:47Z</time>
      </trkpt>
      <trkpt lat="48.46729" lon="-2.03679">
        <ele>120.69098</ele>
        <time>2019-09-11T14:52:48Z</time>
      </trkpt>
      <trkpt lat="48.46732" lon="-2.03674">
        <ele>120.24462</ele>
        <time>2019-09-11T14:52:55Z</time>
      </trkpt>
      <trkpt lat="48.46733" lon="-2.03672">
        <ele>119.8753</ele>
        <time>2019-09-11T14:52:56Z</time>
      </trkpt>
      <trkpt lat="48.46735" lon="-2.03669">
        <ele>119.68667</ele>
        <time>2019-09-11T14:52:57Z</time>
      </trkpt>
      <trkpt lat="48.46737" lon="-2.03665">
        <ele>119.69135</ele>
        <time>2019-09-11T14:52:58Z</time>
      </trkpt>
      <trkpt lat="48.46738" lon="-2.03661">
        <ele>119.09872</ele>
        <time>2019-09-11T14:52:59Z</time>
      </trkpt>
      <trkpt lat="48.46739" lon="-2.03657">
        <ele>117.67859</ele>
        <time>2019-09-11T14:53:00Z</time>
      </trkpt>
      <trkpt lat="48.46739" lon="-2.03654">
        <ele>117.2597</ele>
        <time>2019-09-11T14:53:01Z</time>
      </trkpt>
      <trkpt lat="48.46739" lon="-2.0365">
        <ele>116.217285</ele>
        <time>2019-09-11T14:53:02Z</time>
      </trkpt>
      <trkpt lat="48.46739" lon="-2.03647">
        <ele>115.4486</ele>
        <time>2019-09-11T14:53:03Z</time>
      </trkpt>
      <trkpt lat="48.46738" lon="-2.03646">
        <ele>114.7299</ele>
        <time>2019-09-11T14:53:04Z</time>
      </trkpt>
      <trkpt lat="48.46738" lon="-2.03645">
        <ele>113.95013</ele>
        <time>2019-09-11T14:53:05Z</time>
      </trkpt>
      <trkpt lat="48.46737" lon="-2.03646">
        <ele>113.39217</ele>
        <time>2019-09-11T14:53:06Z</time>
      </trkpt>
      <trkpt lat="48.46737" lon="-2.03647">
        <ele>113.146126</ele>
        <time>2019-09-11T14:53:07Z</time>
      </trkpt>
      <trkpt lat="48.46737" lon="-2.03648">
        <ele>113.371254</ele>
        <time>2019-09-11T14:53:08Z</time>
      </trkpt>
      <trkpt lat="48.46737" lon="-2.0365">
        <ele>113.7413</ele>
        <time>2019-09-11T14:53:09Z</time>
      </trkpt>
      <trkpt lat="48.46736" lon="-2.03652">
        <ele>113.66145</ele>
        <time>2019-09-11T14:53:10Z</time>
      </trkpt>
      <trkpt lat="48.46735" lon="-2.03654">
        <ele>113.065834</ele>
        <time>2019-09-11T14:53:11Z</time>
      </trkpt>
      <trkpt lat="48.46734" lon="-2.03655">
        <ele>112.71081</ele>
        <time>2019-09-11T14:53:12Z</time>
      </trkpt>
      <trkpt lat="48.46734" lon="-2.03657">
        <ele>111.95543</ele>
        <time>2019-09-11T14:53:13Z</time>
      </trkpt>
      <trkpt lat="48.46733" lon="-2.03659">
        <ele>111.03829</ele>
        <time>2019-09-11T14:53:14Z</time>
      </trkpt>
      <trkpt lat="48.46732" lon="-2.03661">
        <ele>110.47547</ele>
        <time>2019-09-11T14:53:15Z</time>
      </trkpt>
      <trkpt lat="48.46731" lon="-2.03663">
        <ele>109.54609</ele>
        <time>2019-09-11T14:53:16Z</time>
      </trkpt>
      <trkpt lat="48.4673" lon="-2.03665">
        <ele>109.173965</ele>
        <time>2019-09-11T14:53:17Z</time>
      </trkpt>
      <trkpt lat="48.46729" lon="-2.03667">
        <ele>108.2995</ele>
        <time>2019-09-11T14:53:18Z</time>
      </trkpt>
      <trkpt lat="48.46729" lon="-2.03669">
        <ele>107.799934</ele>
        <time>2019-09-11T14:53:19Z</time>
      </trkpt>
      <trkpt lat="48.46728" lon="-2.03672">
        <ele>107.06361</ele>
        <time>2019-09-11T14:53:20Z</time>
      </trkpt>
      <trkpt lat="48.46727" lon="-2.03675">
        <ele>105.911224</ele>
        <time>2019-09-11T14:53:21Z</time>
      </trkpt>
      <trkpt lat="48.46726" lon="-2.03678">
        <ele>104.61687</ele>
        <time>2019-09-11T14:53:22Z</time>
      </trkpt>
      <trkpt lat="48.46726" lon="-2.03681">
        <ele>103.99237</ele>
        <time>2019-09-11T14:53:23Z</time>
      </trkpt>
      <trkpt lat="48.46725" lon="-2.03682">
        <ele>103.40104</ele>
        <time>2019-09-11T14:53:25Z</time>
      </trkpt>
      <trkpt lat="48.46724" lon="-2.03682">
        <ele>103.4408</ele>
        <time>2019-09-11T14:53:26Z</time>
      </trkpt>
      <trkpt lat="48.46724" lon="-2.03681">
        <ele>103.23588</ele>
        <time>2019-09-11T14:53:27Z</time>
      </trkpt>
      <trkpt lat="48.46724" lon="-2.03679">
        <ele>102.77413</ele>
        <time>2019-09-11T14:53:28Z</time>
      </trkpt>
      <trkpt lat="48.46723" lon="-2.03677">
        <ele>102.11123</ele>
        <time>2019-09-11T14:53:29Z</time>
      </trkpt>
      <trkpt lat="48.46724" lon="-2.03674">
        <ele>101.96896</ele>
        <time>2019-09-11T14:53:30Z</time>
      </trkpt>
      <trkpt lat="48.46724" lon="-2.03671">
        <ele>101.81043</ele>
        <time>2019-09-11T14:53:31Z</time>
      </trkpt>
      <trkpt lat="48.46724" lon="-2.03669">
        <ele>101.76581</ele>
        <time>2019-09-11T14:53:32Z</time>
      </trkpt>
      <trkpt lat="48.46724" lon="-2.03667">
        <ele>101.61802</ele>
        <time>2019-09-11T14:53:33Z</time>
      </trkpt>
      <trkpt lat="48.46724" lon="-2.03666">
        <ele>101.400276</ele>
        <time>2019-09-11T14:53:34Z</time>
      </trkpt>
      <trkpt lat="48.46725" lon="-2.03665">
        <ele>101.18051</ele>
        <time>2019-09-11T14:53:35Z</time>
      </trkpt>
      <trkpt lat="48.46726" lon="-2.03662">
        <ele>100.8923</ele>
        <time>2019-09-11T14:53:37Z</time>
      </trkpt>
      <trkpt lat="48.46725" lon="-2.0366">
        <ele>100.408066</ele>
        <time>2019-09-11T14:53:38Z</time>
      </trkpt>
      <trkpt lat="48.46725" lon="-2.03658">
        <ele>99.66017</ele>
        <time>2019-09-11T14:53:39Z</time>
      </trkpt>
      <trkpt lat="48.46725" lon="-2.03655">
        <ele>99.04629</ele>
        <time>2019-09-11T14:53:40Z</time>
      </trkpt>
      <trkpt lat="48.46725" lon="-2.03654">
        <ele>98.506294</ele>
        <time>2019-09-11T14:53:41Z</time>
      </trkpt>
      <trkpt lat="48.46724" lon="-2.03652">
        <ele>98.5352</ele>
        <time>2019-09-11T14:53:43Z</time>
      </trkpt>
      <trkpt lat="48.46724" lon="-2.03653">
        <ele>98.406265</ele>
        <time>2019-09-11T14:53:44Z</time>
      </trkpt>
      <trkpt lat="48.46724" lon="-2.03654">
        <ele>98.40797</ele>
        <time>2019-09-11T14:53:45Z</time>
      </trkpt>
      <trkpt lat="48.46725" lon="-2.03656">
        <ele>98.34859</ele>
        <time>2019-09-11T14:53:46Z</time>
      </trkpt>
      <trkpt lat="48.46725" lon="-2.03657">
        <ele>98.43214</ele>
        <time>2019-09-11T14:53:47Z</time>
      </trkpt>
      <trkpt lat="48.46725" lon="-2.03659">
        <ele>98.33532</ele>
        <time>2019-09-11T14:53:48Z</time>
      </trkpt>
      <trkpt lat="48.46725" lon="-2.0366">
        <ele>98.36374</ele>
        <time>2019-09-11T14:53:49Z</time>
      </trkpt>
      <trkpt lat="48.46724" lon="-2.03661">
        <ele>97.64672</ele>
        <time>2019-09-11T14:53:50Z</time>
      </trkpt>
      <trkpt lat="48.46723" lon="-2.03663">
        <ele>97.44737</ele>
        <time>2019-09-11T14:53:51Z</time>
      </trkpt>
      <trkpt lat="48.46722" lon="-2.03665">
        <ele>97.19574</ele>
        <time>2019-09-11T14:53:52Z</time>
      </trkpt>
      <trkpt lat="48.46721" lon="-2.03667">
        <ele>96.73767</ele>
        <time>2019-09-11T14:53:53Z</time>
      </trkpt>
      <trkpt lat="48.4672" lon="-2.03668">
        <ele>96.21843</ele>
        <time>2019-09-11T14:53:54Z</time>
      </trkpt>
      <trkpt lat="48.46719" lon="-2.0367">
        <ele>96.19927</ele>
        <time>2019-09-11T14:53:55Z</time>
      </trkpt>
      <trkpt lat="48.46718" lon="-2.03672">
        <ele>95.19758</ele>
        <time>2019-09-11T14:53:57Z</time>
      </trkpt>
      <trkpt lat="48.46718" lon="-2.03674">
        <ele>94.69512</ele>
        <time>2019-09-11T14:53:58Z</time>
      </trkpt>
      <trkpt lat="48.46716" lon="-2.03675">
        <ele>94.14679</ele>
        <time>2019-09-11T14:53:59Z</time>
      </trkpt>
      <trkpt lat="48.46716" lon="-2.03677">
        <ele>94.0953</ele>
        <time>2019-09-11T14:54:00Z</time>
      </trkpt>
      <trkpt lat="48.46714" lon="-2.03678">
        <ele>93.81911</ele>
        <time>2019-09-11T14:54:01Z</time>
      </trkpt>
      <trkpt lat="48.46713" lon="-2.03679">
        <ele>93.45658</ele>
        <time>2019-09-11T14:54:02Z</time>
      </trkpt>
      <trkpt lat="48.46712" lon="-2.03681">
        <ele>93.37951</ele>
        <time>2019-09-11T14:54:04Z</time>
      </trkpt>
      <trkpt lat="48.46711" lon="-2.03683">
        <ele>93.45053</ele>
        <time>2019-09-11T14:54:05Z</time>
      </trkpt>
      <trkpt lat="48.4671" lon="-2.03685">
        <ele>93.7077</ele>
        <time>2019-09-11T14:54:06Z</time>
      </trkpt>
      <trkpt lat="48.46709" lon="-2.03687">
        <ele>93.9126</ele>
        <time>2019-09-11T14:54:07Z</time>
      </trkpt>
      <trkpt lat="48.46708" lon="-2.03689">
        <ele>94.02985</ele>
        <time>2019-09-11T14:54:08Z</time>
      </trkpt>
      <trkpt lat="48.46707" lon="-2.0369">
        <ele>93.998505</ele>
        <time>2019-09-11T14:54:09Z</time>
      </trkpt>
      <trkpt lat="48.46706" lon="-2.03692">
        <ele>94.19795</ele>
        <time>2019-09-11T14:54:10Z</time>
      </trkpt>
      <trkpt lat="48.46705" lon="-2.03693">
        <ele>94.2311</ele>
        <time>2019-09-11T14:54:11Z</time>
      </trkpt>
      <trkpt lat="48.46704" lon="-2.03695">
        <ele>94.14895</ele>
        <time>2019-09-11T14:54:12Z</time>
      </trkpt>
      <trkpt lat="48.46703" lon="-2.03696">
        <ele>94.19462</ele>
        <time>2019-09-11T14:54:13Z</time>
      </trkpt>
      <trkpt lat="48.46701" lon="-2.03697">
        <ele>94.16665</ele>
        <time>2019-09-11T14:54:14Z</time>
      </trkpt>
      <trkpt lat="48.467" lon="-2.03698">
        <ele>93.8664</ele>
        <time>2019-09-11T14:54:15Z</time>
      </trkpt>
      <trkpt lat="48.46699" lon="-2.03698">
        <ele>93.70406</ele>
        <time>2019-09-11T14:54:16Z</time>
      </trkpt>
      <trkpt lat="48.46698" lon="-2.03697">
        <ele>93.65719</ele>
        <time>2019-09-11T14:54:17Z</time>
      </trkpt>
      <trkpt lat="48.46698" lon="-2.03695">
        <ele>93.482445</ele>
        <time>2019-09-11T14:54:18Z</time>
      </trkpt>
      <trkpt lat="48.46697" lon="-2.03693">
        <ele>93.35068</ele>
        <time>2019-09-11T14:54:19Z</time>
      </trkpt>
      <trkpt lat="48.46698" lon="-2.03692">
        <ele>93.609184</ele>
        <time>2019-09-11T14:54:20Z</time>
      </trkpt>
      <trkpt lat="48.46698" lon="-2.03691">
        <ele>93.89475</ele>
        <time>2019-09-11T14:54:21Z</time>
      </trkpt>
      <trkpt lat="48.46699" lon="-2.03689">
        <ele>94.35571</ele>
        <time>2019-09-11T14:54:22Z</time>
      </trkpt>
      <trkpt lat="48.467" lon="-2.03687">
        <ele>94.88855</ele>
        <time>2019-09-11T14:54:23Z</time>
      </trkpt>
      <trkpt lat="48.467" lon="-2.03685">
        <ele>95.22236</ele>
        <time>2019-09-11T14:54:24Z</time>
      </trkpt>
      <trkpt lat="48.467" lon="-2.03683">
        <ele>95.340996</ele>
        <time>2019-09-11T14:54:25Z</time>
      </trkpt>
      <trkpt lat="48.46701" lon="-2.03681">
        <ele>95.95945</ele>
        <time>2019-09-11T14:54:26Z</time>
      </trkpt>
      <trkpt lat="48.46702" lon="-2.0368">
        <ele>95.86329</ele>
        <time>2019-09-11T14:54:27Z</time>
      </trkpt>
      <trkpt lat="48.46702" lon="-2.03679">
        <ele>96.08663</ele>
        <time>2019-09-11T14:54:28Z</time>
      </trkpt>
      <trkpt lat="48.46702" lon="-2.03677">
        <ele>96.152176</ele>
        <time>2019-09-11T14:54:29Z</time>
      </trkpt>
      <trkpt lat="48.46702" lon="-2.03676">
        <ele>96.17473</ele>
        <time>2019-09-11T14:54:30Z</time>
      </trkpt>
      <trkpt lat="48.46703" lon="-2.03673">
        <ele>97.04699</ele>
        <time>2019-09-11T14:54:32Z</time>
      </trkpt>
      <trkpt lat="48.46703" lon="-2.03672">
        <ele>97.2469</ele>
        <time>2019-09-11T14:54:33Z</time>
      </trkpt>
      <trkpt lat="48.46703" lon="-2.03669">
        <ele>97.149414</ele>
        <time>2019-09-11T14:54:34Z</time>
      </trkpt>
      <trkpt lat="48.46703" lon="-2.03667">
        <ele>97.30753</ele>
        <time>2019-09-11T14:54:35Z</time>
      </trkpt>
      <trkpt lat="48.46703" lon="-2.03664">
        <ele>97.25257</ele>
        <time>2019-09-11T14:54:36Z</time>
      </trkpt>
      <trkpt lat="48.46703" lon="-2.0366">
        <ele>97.085526</ele>
        <time>2019-09-11T14:54:39Z</time>
      </trkpt>
      <trkpt lat="48.46704" lon="-2.03657">
        <ele>97.62714</ele>
        <time>2019-09-11T14:54:40Z</time>
      </trkpt>
      <trkpt lat="48.46704" lon="-2.03654">
        <ele>97.70747</ele>
        <time>2019-09-11T14:54:41Z</time>
      </trkpt>
      <trkpt lat="48.46702" lon="-2.03652">
        <ele>96.43078</ele>
        <time>2019-09-11T14:54:42Z</time>
      </trkpt>
      <trkpt lat="48.46701" lon="-2.0365">
        <ele>95.46134</ele>
        <time>2019-09-11T14:54:43Z</time>
      </trkpt>
      <trkpt lat="48.467" lon="-2.03648">
        <ele>95.43134</ele>
        <time>2019-09-11T14:54:44Z</time>
      </trkpt>
      <trkpt lat="48.467" lon="-2.03646">
        <ele>95.44164</ele>
        <time>2019-09-11T14:54:45Z</time>
      </trkpt>
      <trkpt lat="48.46699" lon="-2.03645">
        <ele>95.39473</ele>
        <time>2019-09-11T14:54:46Z</time>
      </trkpt>
      <trkpt lat="48.46698" lon="-2.03643">
        <ele>95.559875</ele>
        <time>2019-09-11T14:54:47Z</time>
      </trkpt>
      <trkpt lat="48.46696" lon="-2.03642">
        <ele>95.6689</ele>
        <time>2019-09-11T14:54:48Z</time>
      </trkpt>
      <trkpt lat="48.46694" lon="-2.03642">
        <ele>95.544304</ele>
        <time>2019-09-11T14:54:49Z</time>
      </trkpt>
      <trkpt lat="48.46692" lon="-2.03642">
        <ele>95.10969</ele>
        <time>2019-09-11T14:54:50Z</time>
      </trkpt>
      <trkpt lat="48.46692" lon="-2.03644">
        <ele>94.87963</ele>
        <time>2019-09-11T14:54:51Z</time>
      </trkpt>
      <trkpt lat="48.46691" lon="-2.03645">
        <ele>94.84153</ele>
        <time>2019-09-11T14:54:52Z</time>
      </trkpt>
      <trkpt lat="48.46691" lon="-2.03647">
        <ele>95.00087</ele>
        <time>2019-09-11T14:54:53Z</time>
      </trkpt>
      <trkpt lat="48.46692" lon="-2.03648">
        <ele>95.01237</ele>
        <time>2019-09-11T14:54:54Z</time>
      </trkpt>
      <trkpt lat="48.46692" lon="-2.0365">
        <ele>95.321686</ele>
        <time>2019-09-11T14:54:55Z</time>
      </trkpt>
      <trkpt lat="48.46691" lon="-2.03652">
        <ele>95.75033</ele>
        <time>2019-09-11T14:54:56Z</time>
      </trkpt>
      <trkpt lat="48.4669" lon="-2.03655">
        <ele>96.793</ele>
        <time>2019-09-11T14:54:57Z</time>
      </trkpt>
      <trkpt lat="48.4669" lon="-2.03657">
        <ele>97.08296</ele>
        <time>2019-09-11T14:54:58Z</time>
      </trkpt>
      <trkpt lat="48.46689" lon="-2.03658">
        <ele>97.0736</ele>
        <time>2019-09-11T14:54:59Z</time>
      </trkpt>
      <trkpt lat="48.46687" lon="-2.03658">
        <ele>96.74085</ele>
        <time>2019-09-11T14:55:00Z</time>
      </trkpt>
      <trkpt lat="48.46685" lon="-2.03657">
        <ele>96.24943</ele>
        <time>2019-09-11T14:55:01Z</time>
      </trkpt>
      <trkpt lat="48.46685" lon="-2.03656">
        <ele>96.38984</ele>
        <time>2019-09-11T14:55:02Z</time>
      </trkpt>
      <trkpt lat="48.46684" lon="-2.03654">
        <ele>96.44193</ele>
        <time>2019-09-11T14:55:03Z</time>
      </trkpt>
      <trkpt lat="48.46684" lon="-2.03652">
        <ele>96.71042</ele>
        <time>2019-09-11T14:55:04Z</time>
      </trkpt>
      <trkpt lat="48.46683" lon="-2.0365">
        <ele>96.719666</ele>
        <time>2019-09-11T14:55:05Z</time>
      </trkpt>
      <trkpt lat="48.46682" lon="-2.03648">
        <ele>96.74578</ele>
        <time>2019-09-11T14:55:06Z</time>
      </trkpt>
      <trkpt lat="48.46681" lon="-2.03647">
        <ele>96.44875</ele>
        <time>2019-09-11T14:55:07Z</time>
      </trkpt>
      <trkpt lat="48.4668" lon="-2.03646">
        <ele>96.77434</ele>
        <time>2019-09-11T14:55:08Z</time>
      </trkpt>
      <trkpt lat="48.46679" lon="-2.03646">
        <ele>97.182365</ele>
        <time>2019-09-11T14:55:09Z</time>
      </trkpt>
      <trkpt lat="48.46678" lon="-2.03646">
        <ele>97.10196</ele>
        <time>2019-09-11T14:55:10Z</time>
      </trkpt>
      <trkpt lat="48.46678" lon="-2.03647">
        <ele>97.16843</ele>
        <time>2019-09-11T14:55:11Z</time>
      </trkpt>
      <trkpt lat="48.46678" lon="-2.03649">
        <ele>97.10498</ele>
        <time>2019-09-11T14:55:12Z</time>
      </trkpt>
      <trkpt lat="48.46678" lon="-2.03651">
        <ele>96.99772</ele>
        <time>2019-09-11T14:55:13Z</time>
      </trkpt>
      <trkpt lat="48.46679" lon="-2.03653">
        <ele>97.12253</ele>
        <time>2019-09-11T14:55:14Z</time>
      </trkpt>
      <trkpt lat="48.46679" lon="-2.03655">
        <ele>97.4902</ele>
        <time>2019-09-11T14:55:15Z</time>
      </trkpt>
      <trkpt lat="48.46678" lon="-2.03656">
        <ele>98.00966</ele>
        <time>2019-09-11T14:55:16Z</time>
      </trkpt>
      <trkpt lat="48.46677" lon="-2.03657">
        <ele>98.217064</ele>
        <time>2019-09-11T14:55:17Z</time>
      </trkpt>
      <trkpt lat="48.46677" lon="-2.03657">
        <ele>98.51709</ele>
        <time>2019-09-11T14:55:18Z</time>
      </trkpt>
      <trkpt lat="48.46676" lon="-2.03657">
        <ele>98.6529</ele>
        <time>2019-09-11T14:55:19Z</time>
      </trkpt>
      <trkpt lat="48.46674" lon="-2.03656">
        <ele>99.00681</ele>
        <time>2019-09-11T14:55:20Z</time>
      </trkpt>
      <trkpt lat="48.46673" lon="-2.03655">
        <ele>99.02163</ele>
        <time>2019-09-11T14:55:21Z</time>
      </trkpt>
      <trkpt lat="48.46672" lon="-2.03654">
        <ele>99.17736</ele>
        <time>2019-09-11T14:55:22Z</time>
      </trkpt>
      <trkpt lat="48.46672" lon="-2.03653">
        <ele>99.09232</ele>
        <time>2019-09-11T14:55:23Z</time>
      </trkpt>
      <trkpt lat="48.46671" lon="-2.03653">
        <ele>99.13575</ele>
        <time>2019-09-11T14:55:24Z</time>
      </trkpt>
      <trkpt lat="48.4667" lon="-2.03652">
        <ele>99.23303</ele>
        <time>2019-09-11T14:55:26Z</time>
      </trkpt>
      <trkpt lat="48.46668" lon="-2.03652">
        <ele>99.16625</ele>
        <time>2019-09-11T14:55:27Z</time>
      </trkpt>
      <trkpt lat="48.46667" lon="-2.03653">
        <ele>99.39207</ele>
        <time>2019-09-11T14:55:28Z</time>
      </trkpt>
      <trkpt lat="48.46666" lon="-2.03654">
        <ele>100.00444</ele>
        <time>2019-09-11T14:55:29Z</time>
      </trkpt>
      <trkpt lat="48.46664" lon="-2.03655">
        <ele>100.311806</ele>
        <time>2019-09-11T14:55:30Z</time>
      </trkpt>
      <trkpt lat="48.46662" lon="-2.03656">
        <ele>100.74007</ele>
        <time>2019-09-11T14:55:31Z</time>
      </trkpt>
      <trkpt lat="48.4666" lon="-2.03658">
        <ele>100.46554</ele>
        <time>2019-09-11T14:55:32Z</time>
      </trkpt>
      <trkpt lat="48.46657" lon="-2.03659">
        <ele>101.72332</ele>
        <time>2019-09-11T14:55:33Z</time>
      </trkpt>
      <trkpt lat="48.46655" lon="-2.03661">
        <ele>101.88301</ele>
        <time>2019-09-11T14:55:34Z</time>
      </trkpt>
      <trkpt lat="48.46654" lon="-2.03662">
        <ele>102.16442</ele>
        <time>2019-09-11T14:55:35Z</time>
      </trkpt>
      <trkpt lat="48.46652" lon="-2.03663">
        <ele>102.6621</ele>
        <time>2019-09-11T14:55:36Z</time>
      </trkpt>
      <trkpt lat="48.46651" lon="-2.03663">
        <ele>102.56858</ele>
        <time>2019-09-11T14:55:37Z</time>
      </trkpt>
      <trkpt lat="48.46649" lon="-2.03663">
        <ele>102.33281</ele>
        <time>2019-09-11T14:55:38Z</time>
      </trkpt>
      <trkpt lat="48.46647" lon="-2.03664">
        <ele>101.75144</ele>
        <time>2019-09-11T14:55:39Z</time>
      </trkpt>
      <trkpt lat="48.46645" lon="-2.03664">
        <ele>101.74746</ele>
        <time>2019-09-11T14:55:40Z</time>
      </trkpt>
      <trkpt lat="48.46643" lon="-2.03663">
        <ele>101.94188</ele>
        <time>2019-09-11T14:55:41Z</time>
      </trkpt>
      <trkpt lat="48.46642" lon="-2.03663">
        <ele>102.090004</ele>
        <time>2019-09-11T14:55:42Z</time>
      </trkpt>
      <trkpt lat="48.4664" lon="-2.03663">
        <ele>102.182014</ele>
        <time>2019-09-11T14:55:43Z</time>
      </trkpt>
      <trkpt lat="48.46639" lon="-2.03664">
        <ele>102.5346</ele>
        <time>2019-09-11T14:55:44Z</time>
      </trkpt>
      <trkpt lat="48.46637" lon="-2.03664">
        <ele>102.64275</ele>
        <time>2019-09-11T14:55:45Z</time>
      </trkpt>
      <trkpt lat="48.46635" lon="-2.03664">
        <ele>103.441185</ele>
        <time>2019-09-11T14:55:46Z</time>
      </trkpt>
      <trkpt lat="48.46634" lon="-2.03665">
        <ele>103.84478</ele>
        <time>2019-09-11T14:55:47Z</time>
      </trkpt>
      <trkpt lat="48.46633" lon="-2.03664">
        <ele>104.1951</ele>
        <time>2019-09-11T14:55:48Z</time>
      </trkpt>
      <trkpt lat="48.46632" lon="-2.03663">
        <ele>104.25823</ele>
        <time>2019-09-11T14:55:49Z</time>
      </trkpt>
      <trkpt lat="48.46631" lon="-2.03663">
        <ele>104.26968</ele>
        <time>2019-09-11T14:55:50Z</time>
      </trkpt>
      <trkpt lat="48.46629" lon="-2.03663">
        <ele>104.271416</ele>
        <time>2019-09-11T14:55:51Z</time>
      </trkpt>
      <trkpt lat="48.46628" lon="-2.03663">
        <ele>104.49183</ele>
        <time>2019-09-11T14:55:52Z</time>
      </trkpt>
      <trkpt lat="48.46627" lon="-2.03663">
        <ele>104.4524</ele>
        <time>2019-09-11T14:55:53Z</time>
      </trkpt>
      <trkpt lat="48.46625" lon="-2.03662">
        <ele>104.53896</ele>
        <time>2019-09-11T14:55:54Z</time>
      </trkpt>
      <trkpt lat="48.46624" lon="-2.03661">
        <ele>104.47238</ele>
        <time>2019-09-11T14:55:55Z</time>
      </trkpt>
      <trkpt lat="48.46621" lon="-2.03659">
        <ele>104.03772</ele>
        <time>2019-09-11T14:55:57Z</time>
      </trkpt>
      <trkpt lat="48.46619" lon="-2.03658">
        <ele>103.30891</ele>
        <time>2019-09-11T14:55:58Z</time>
      </trkpt>
      <trkpt lat="48.46616" lon="-2.03656">
        <ele>102.27551</ele>
        <time>2019-09-11T14:55:59Z</time>
      </trkpt>
      <trkpt lat="48.46614" lon="-2.03654">
        <ele>102.28744</ele>
        <time>2019-09-11T14:56:00Z</time>
      </trkpt>
      <trkpt lat="48.46613" lon="-2.03652">
        <ele>102.815865</ele>
        <time>2019-09-11T14:56:01Z</time>
      </trkpt>
      <trkpt lat="48.46611" lon="-2.03651">
        <ele>103.415</ele>
        <time>2019-09-11T14:56:02Z</time>
      </trkpt>
      <trkpt lat="48.4661" lon="-2.03649">
        <ele>103.6929</ele>
        <time>2019-09-11T14:56:03Z</time>
      </trkpt>
      <trkpt lat="48.46608" lon="-2.03648">
        <ele>103.99088</ele>
        <time>2019-09-11T14:56:04Z</time>
      </trkpt>
      <trkpt lat="48.46606" lon="-2.03646">
        <ele>103.87981</ele>
        <time>2019-09-11T14:56:05Z</time>
      </trkpt>
      <trkpt lat="48.46604" lon="-2.03644">
        <ele>103.81073</ele>
        <time>2019-09-11T14:56:06Z</time>
      </trkpt>
      <trkpt lat="48.46601" lon="-2.03642">
        <ele>103.70443</ele>
        <time>2019-09-11T14:56:07Z</time>
      </trkpt>
      <trkpt lat="48.46599" lon="-2.03641">
        <ele>103.784096</ele>
        <time>2019-09-11T14:56:08Z</time>
      </trkpt>
      <trkpt lat="48.46597" lon="-2.0364">
        <ele>103.817505</ele>
        <time>2019-09-11T14:56:09Z</time>
      </trkpt>
      <trkpt lat="48.46594" lon="-2.0364">
        <ele>104.0869</ele>
        <time>2019-09-11T14:56:10Z</time>
      </trkpt>
      <trkpt lat="48.46592" lon="-2.03641">
        <ele>104.13375</ele>
        <time>2019-09-11T14:56:11Z</time>
      </trkpt>
      <trkpt lat="48.4659" lon="-2.03643">
        <ele>104.053986</ele>
        <time>2019-09-11T14:56:12Z</time>
      </trkpt>
      <trkpt lat="48.46588" lon="-2.03646">
        <ele>104.402824</ele>
        <time>2019-09-11T14:56:13Z</time>
      </trkpt>
      <trkpt lat="48.46586" lon="-2.03649">
        <ele>105.288506</ele>
        <time>2019-09-11T14:56:14Z</time>
      </trkpt>
      <trkpt lat="48.46585" lon="-2.03653">
        <ele>106.154396</ele>
        <time>2019-09-11T14:56:15Z</time>
      </trkpt>
      <trkpt lat="48.46582" lon="-2.03657">
        <ele>106.78488</ele>
        <time>2019-09-11T14:56:16Z</time>
      </trkpt>
      <trkpt lat="48.46581" lon="-2.03659">
        <ele>107.01213</ele>
        <time>2019-09-11T14:56:17Z</time>
      </trkpt>
      <trkpt lat="48.4658" lon="-2.03662">
        <ele>107.04783</ele>
        <time>2019-09-11T14:56:18Z</time>
      </trkpt>
      <trkpt lat="48.46579" lon="-2.03665">
        <ele>107.3041</ele>
        <time>2019-09-11T14:56:19Z</time>
      </trkpt>
      <trkpt lat="48.46579" lon="-2.03667">
        <ele>107.53503</ele>
        <time>2019-09-11T14:56:20Z</time>
      </trkpt>
      <trkpt lat="48.46578" lon="-2.0367">
        <ele>107.799576</ele>
        <time>2019-09-11T14:56:21Z</time>
      </trkpt>
      <trkpt lat="48.46577" lon="-2.03673">
        <ele>107.94378</ele>
        <time>2019-09-11T14:56:22Z</time>
      </trkpt>
      <trkpt lat="48.46576" lon="-2.03675">
        <ele>108.01634</ele>
        <time>2019-09-11T14:56:23Z</time>
      </trkpt>
      <trkpt lat="48.46575" lon="-2.03678">
        <ele>108.298485</ele>
        <time>2019-09-11T14:56:24Z</time>
      </trkpt>
      <trkpt lat="48.46574" lon="-2.03681">
        <ele>108.43411</ele>
        <time>2019-09-11T14:56:25Z</time>
      </trkpt>
      <trkpt lat="48.46573" lon="-2.03684">
        <ele>108.48529</ele>
        <time>2019-09-11T14:56:26Z</time>
      </trkpt>
      <trkpt lat="48.46572" lon="-2.03687">
        <ele>108.68427</ele>
        <time>2019-09-11T14:56:27Z</time>
      </trkpt>
      <trkpt lat="48.46571" lon="-2.0369">
        <ele>108.961815</ele>
        <time>2019-09-11T14:56:28Z</time>
      </trkpt>
      <trkpt lat="48.4657" lon="-2.03692">
        <ele>109.00642</ele>
        <time>2019-09-11T14:56:29Z</time>
      </trkpt>
      <trkpt lat="48.46569" lon="-2.03695">
        <ele>109.20005</ele>
        <time>2019-09-11T14:56:30Z</time>
      </trkpt>
      <trkpt lat="48.46568" lon="-2.03698">
        <ele>109.328835</ele>
        <time>2019-09-11T14:56:31Z</time>
      </trkpt>
      <trkpt lat="48.46566" lon="-2.037">
        <ele>109.48578</ele>
        <time>2019-09-11T14:56:32Z</time>
      </trkpt>
      <trkpt lat="48.46564" lon="-2.03702">
        <ele>109.5712</ele>
        <time>2019-09-11T14:56:33Z</time>
      </trkpt>
      <trkpt lat="48.46563" lon="-2.03705">
        <ele>109.907745</ele>
        <time>2019-09-11T14:56:34Z</time>
      </trkpt>
      <trkpt lat="48.46561" lon="-2.03707">
        <ele>109.94192</ele>
        <time>2019-09-11T14:56:35Z</time>
      </trkpt>
      <trkpt lat="48.46559" lon="-2.0371">
        <ele>109.573235</ele>
        <time>2019-09-11T14:56:36Z</time>
      </trkpt>
      <trkpt lat="48.46557" lon="-2.03712">
        <ele>109.48998</ele>
        <time>2019-09-11T14:56:37Z</time>
      </trkpt>
      <trkpt lat="48.46555" lon="-2.03713">
        <ele>109.33218</ele>
        <time>2019-09-11T14:56:38Z</time>
      </trkpt>
      <trkpt lat="48.46553" lon="-2.03715">
        <ele>108.98917</ele>
        <time>2019-09-11T14:56:39Z</time>
      </trkpt>
      <trkpt lat="48.4655" lon="-2.03716">
        <ele>108.67417</ele>
        <time>2019-09-11T14:56:40Z</time>
      </trkpt>
      <trkpt lat="48.46549" lon="-2.03716">
        <ele>108.48605</ele>
        <time>2019-09-11T14:56:41Z</time>
      </trkpt>
      <trkpt lat="48.46546" lon="-2.03717">
        <ele>108.133606</ele>
        <time>2019-09-11T14:56:42Z</time>
      </trkpt>
      <trkpt lat="48.46544" lon="-2.03718">
        <ele>107.78911</ele>
        <time>2019-09-11T14:56:43Z</time>
      </trkpt>
      <trkpt lat="48.46541" lon="-2.03719">
        <ele>107.677925</ele>
        <time>2019-09-11T14:56:44Z</time>
      </trkpt>
      <trkpt lat="48.46539" lon="-2.0372">
        <ele>107.74383</ele>
        <time>2019-09-11T14:56:45Z</time>
      </trkpt>
      <trkpt lat="48.46537" lon="-2.0372">
        <ele>107.97763</ele>
        <time>2019-09-11T14:56:46Z</time>
      </trkpt>
      <trkpt lat="48.46534" lon="-2.03721">
        <ele>107.85814</ele>
        <time>2019-09-11T14:56:47Z</time>
      </trkpt>
      <trkpt lat="48.46532" lon="-2.03721">
        <ele>107.80724</ele>
        <time>2019-09-11T14:56:48Z</time>
      </trkpt>
      <trkpt lat="48.4653" lon="-2.03722">
        <ele>107.904816</ele>
        <time>2019-09-11T14:56:49Z</time>
      </trkpt>
      <trkpt lat="48.46528" lon="-2.03722">
        <ele>108.141335</ele>
        <time>2019-09-11T14:56:50Z</time>
      </trkpt>
      <trkpt lat="48.46525" lon="-2.03723">
        <ele>108.070244</ele>
        <time>2019-09-11T14:56:51Z</time>
      </trkpt>
      <trkpt lat="48.46523" lon="-2.03723">
        <ele>108.36469</ele>
        <time>2019-09-11T14:56:52Z</time>
      </trkpt>
      <trkpt lat="48.4652" lon="-2.03721">
        <ele>108.7283</ele>
        <time>2019-09-11T14:56:53Z</time>
      </trkpt>
      <trkpt lat="48.46518" lon="-2.0372">
        <ele>109.06175</ele>
        <time>2019-09-11T14:56:54Z</time>
      </trkpt>
      <trkpt lat="48.46515" lon="-2.03719">
        <ele>109.085304</ele>
        <time>2019-09-11T14:56:55Z</time>
      </trkpt>
      <trkpt lat="48.46512" lon="-2.03719">
        <ele>109.01453</ele>
        <time>2019-09-11T14:56:56Z</time>
      </trkpt>
      <trkpt lat="48.4651" lon="-2.0372">
        <ele>109.00179</ele>
        <time>2019-09-11T14:56:57Z</time>
      </trkpt>
      <trkpt lat="48.46507" lon="-2.03721">
        <ele>109.07904</ele>
        <time>2019-09-11T14:56:58Z</time>
      </trkpt>
      <trkpt lat="48.46504" lon="-2.03721">
        <ele>109.22677</ele>
        <time>2019-09-11T14:56:59Z</time>
      </trkpt>
      <trkpt lat="48.46502" lon="-2.03722">
        <ele>109.36745</ele>
        <time>2019-09-11T14:57:00Z</time>
      </trkpt>
      <trkpt lat="48.46499" lon="-2.03722">
        <ele>109.8347</ele>
        <time>2019-09-11T14:57:01Z</time>
      </trkpt>
      <trkpt lat="48.46497" lon="-2.03722">
        <ele>110.11395</ele>
        <time>2019-09-11T14:57:02Z</time>
      </trkpt>
      <trkpt lat="48.46494" lon="-2.03722">
        <ele>110.49817</ele>
        <time>2019-09-11T14:57:03Z</time>
      </trkpt>
      <trkpt lat="48.46491" lon="-2.03722">
        <ele>110.891914</ele>
        <time>2019-09-11T14:57:04Z</time>
      </trkpt>
      <trkpt lat="48.46487" lon="-2.03722">
        <ele>111.1738</ele>
        <time>2019-09-11T14:57:05Z</time>
      </trkpt>
      <trkpt lat="48.46484" lon="-2.03721">
        <ele>111.64072</ele>
        <time>2019-09-11T14:57:06Z</time>
      </trkpt>
      <trkpt lat="48.4648" lon="-2.03721">
        <ele>111.77731</ele>
        <time>2019-09-11T14:57:07Z</time>
      </trkpt>
      <trkpt lat="48.46476" lon="-2.03722">
        <ele>111.940094</ele>
        <time>2019-09-11T14:57:08Z</time>
      </trkpt>
      <trkpt lat="48.46473" lon="-2.03723">
        <ele>112.0435</ele>
        <time>2019-09-11T14:57:09Z</time>
      </trkpt>
      <trkpt lat="48.46469" lon="-2.03724">
        <ele>112.2204</ele>
        <time>2019-09-11T14:57:10Z</time>
      </trkpt>
      <trkpt lat="48.46465" lon="-2.03725">
        <ele>112.44186</ele>
        <time>2019-09-11T14:57:11Z</time>
      </trkpt>
      <trkpt lat="48.46462" lon="-2.03726">
        <ele>112.86692</ele>
        <time>2019-09-11T14:57:12Z</time>
      </trkpt>
      <trkpt lat="48.46459" lon="-2.03729">
        <ele>113.632385</ele>
        <time>2019-09-11T14:57:13Z</time>
      </trkpt>
      <trkpt lat="48.46456" lon="-2.03733">
        <ele>114.89984</ele>
        <time>2019-09-11T14:57:14Z</time>
      </trkpt>
      <trkpt lat="48.46453" lon="-2.03736">
        <ele>115.74114</ele>
        <time>2019-09-11T14:57:15Z</time>
      </trkpt>
      <trkpt lat="48.4645" lon="-2.03739">
        <ele>116.68895</ele>
        <time>2019-09-11T14:57:16Z</time>
      </trkpt>
      <trkpt lat="48.46448" lon="-2.03741">
        <ele>117.538376</ele>
        <time>2019-09-11T14:57:17Z</time>
      </trkpt>
      <trkpt lat="48.46445" lon="-2.03743">
        <ele>118.418816</ele>
        <time>2019-09-11T14:57:18Z</time>
      </trkpt>
      <trkpt lat="48.46442" lon="-2.03746">
        <ele>119.697655</ele>
        <time>2019-09-11T14:57:19Z</time>
      </trkpt>
      <trkpt lat="48.4644" lon="-2.03748">
        <ele>120.71232</ele>
        <time>2019-09-11T14:57:20Z</time>
      </trkpt>
      <trkpt lat="48.46437" lon="-2.03751">
        <ele>122.01418</ele>
        <time>2019-09-11T14:57:21Z</time>
      </trkpt>
      <trkpt lat="48.46434" lon="-2.03753">
        <ele>122.553154</ele>
        <time>2019-09-11T14:57:22Z</time>
      </trkpt>
      <trkpt lat="48.46431" lon="-2.03756">
        <ele>122.97981</ele>
        <time>2019-09-11T14:57:23Z</time>
      </trkpt>
      <trkpt lat="48.46428" lon="-2.03758">
        <ele>123.26511</ele>
        <time>2019-09-11T14:57:24Z</time>
      </trkpt>
      <trkpt lat="48.46425" lon="-2.0376">
        <ele>123.554016</ele>
        <time>2019-09-11T14:57:25Z</time>
      </trkpt>
      <trkpt lat="48.46422" lon="-2.03761">
        <ele>124.02561</ele>
        <time>2019-09-11T14:57:26Z</time>
      </trkpt>
      <trkpt lat="48.46418" lon="-2.03763">
        <ele>124.74092</ele>
        <time>2019-09-11T14:57:27Z</time>
      </trkpt>
      <trkpt lat="48.46414" lon="-2.03765">
        <ele>125.259056</ele>
        <time>2019-09-11T14:57:28Z</time>
      </trkpt>
      <trkpt lat="48.46409" lon="-2.03767">
        <ele>125.74724</ele>
        <time>2019-09-11T14:57:29Z</time>
      </trkpt>
      <trkpt lat="48.46405" lon="-2.0377">
        <ele>126.52399</ele>
        <time>2019-09-11T14:57:30Z</time>
      </trkpt>
      <trkpt lat="48.46401" lon="-2.03772">
        <ele>126.17552</ele>
        <time>2019-09-11T14:57:31Z</time>
      </trkpt>
      <trkpt lat="48.46396" lon="-2.03773">
        <ele>125.88851</ele>
        <time>2019-09-11T14:57:32Z</time>
      </trkpt>
      <trkpt lat="48.46391" lon="-2.03774">
        <ele>125.40357</ele>
        <time>2019-09-11T14:57:33Z</time>
      </trkpt>
      <trkpt lat="48.46385" lon="-2.03776">
        <ele>125.1483</ele>
        <time>2019-09-11T14:57:34Z</time>
      </trkpt>
      <trkpt lat="48.4638" lon="-2.03778">
        <ele>124.998726</ele>
        <time>2019-09-11T14:57:35Z</time>
      </trkpt>
      <trkpt lat="48.46375" lon="-2.03781">
        <ele>124.80407</ele>
        <time>2019-09-11T14:57:36Z</time>
      </trkpt>
      <trkpt lat="48.4637" lon="-2.03783">
        <ele>124.25052</ele>
        <time>2019-09-11T14:57:37Z</time>
      </trkpt>
      <trkpt lat="48.46365" lon="-2.03784">
        <ele>123.482574</ele>
        <time>2019-09-11T14:57:38Z</time>
      </trkpt>
      <trkpt lat="48.46359" lon="-2.03786">
        <ele>122.84645</ele>
        <time>2019-09-11T14:57:39Z</time>
      </trkpt>
      <trkpt lat="48.46354" lon="-2.03788">
        <ele>122.30571</ele>
        <time>2019-09-11T14:57:40Z</time>
      </trkpt>
      <trkpt lat="48.4635" lon="-2.0379">
        <ele>121.88887</ele>
        <time>2019-09-11T14:57:41Z</time>
      </trkpt>
      <trkpt lat="48.46345" lon="-2.03791">
        <ele>121.428406</ele>
        <time>2019-09-11T14:57:42Z</time>
      </trkpt>
      <trkpt lat="48.46339" lon="-2.03792">
        <ele>121.19284</ele>
        <time>2019-09-11T14:57:43Z</time>
      </trkpt>
      <trkpt lat="48.46334" lon="-2.03793">
        <ele>120.88</ele>
        <time>2019-09-11T14:57:44Z</time>
      </trkpt>
      <trkpt lat="48.46329" lon="-2.03795">
        <ele>120.45127</ele>
        <time>2019-09-11T14:57:45Z</time>
      </trkpt>
      <trkpt lat="48.46325" lon="-2.03799">
        <ele>120.078384</ele>
        <time>2019-09-11T14:57:46Z</time>
      </trkpt>
      <trkpt lat="48.4632" lon="-2.03802">
        <ele>119.66503</ele>
        <time>2019-09-11T14:57:47Z</time>
      </trkpt>
      <trkpt lat="48.46315" lon="-2.03805">
        <ele>119.40792</ele>
        <time>2019-09-11T14:57:48Z</time>
      </trkpt>
      <trkpt lat="48.4631" lon="-2.03807">
        <ele>119.2326</ele>
        <time>2019-09-11T14:57:49Z</time>
      </trkpt>
      <trkpt lat="48.46305" lon="-2.03807">
        <ele>119.472694</ele>
        <time>2019-09-11T14:57:50Z</time>
      </trkpt>
      <trkpt lat="48.46301" lon="-2.03808">
        <ele>119.2698</ele>
        <time>2019-09-11T14:57:51Z</time>
      </trkpt>
      <trkpt lat="48.46296" lon="-2.03809">
        <ele>119.44482</ele>
        <time>2019-09-11T14:57:52Z</time>
      </trkpt>
      <trkpt lat="48.46291" lon="-2.0381">
        <ele>119.453835</ele>
        <time>2019-09-11T14:57:53Z</time>
      </trkpt>
      <trkpt lat="48.46286" lon="-2.03812">
        <ele>119.5562</ele>
        <time>2019-09-11T14:57:54Z</time>
      </trkpt>
      <trkpt lat="48.46281" lon="-2.03814">
        <ele>119.65565</ele>
        <time>2019-09-11T14:57:55Z</time>
      </trkpt>
      <trkpt lat="48.46276" lon="-2.03816">
        <ele>119.83468</ele>
        <time>2019-09-11T14:57:56Z</time>
      </trkpt>
      <trkpt lat="48.46271" lon="-2.03818">
        <ele>119.96317</ele>
        <time>2019-09-11T14:57:57Z</time>
      </trkpt>
      <trkpt lat="48.46267" lon="-2.0382">
        <ele>120.17217</ele>
        <time>2019-09-11T14:57:58Z</time>
      </trkpt>
      <trkpt lat="48.46262" lon="-2.03822">
        <ele>120.304985</ele>
        <time>2019-09-11T14:57:59Z</time>
      </trkpt>
      <trkpt lat="48.46257" lon="-2.03824">
        <ele>120.233986</ele>
        <time>2019-09-11T14:58:00Z</time>
      </trkpt>
      <trkpt lat="48.46253" lon="-2.03825">
        <ele>120.23511</ele>
        <time>2019-09-11T14:58:01Z</time>
      </trkpt>
      <trkpt lat="48.46248" lon="-2.03826">
        <ele>120.04609</ele>
        <time>2019-09-11T14:58:02Z</time>
      </trkpt>
      <trkpt lat="48.46243" lon="-2.03828">
        <ele>120.064285</ele>
        <time>2019-09-11T14:58:03Z</time>
      </trkpt>
      <trkpt lat="48.46238" lon="-2.03829">
        <ele>120.13963</ele>
        <time>2019-09-11T14:58:04Z</time>
      </trkpt>
      <trkpt lat="48.46233" lon="-2.0383">
        <ele>120.16416</ele>
        <time>2019-09-11T14:58:05Z</time>
      </trkpt>
      <trkpt lat="48.46227" lon="-2.03832">
        <ele>120.057274</ele>
        <time>2019-09-11T14:58:06Z</time>
      </trkpt>
      <trkpt lat="48.46222" lon="-2.03834">
        <ele>119.68656</ele>
        <time>2019-09-11T14:58:07Z</time>
      </trkpt>
      <trkpt lat="48.46216" lon="-2.03836">
        <ele>119.42843</ele>
        <time>2019-09-11T14:58:08Z</time>
      </trkpt>
      <trkpt lat="48.46211" lon="-2.03837">
        <ele>119.01961</ele>
        <time>2019-09-11T14:58:09Z</time>
      </trkpt>
      <trkpt lat="48.46205" lon="-2.03838">
        <ele>118.71398</ele>
        <time>2019-09-11T14:58:10Z</time>
      </trkpt>
      <trkpt lat="48.462" lon="-2.03839">
        <ele>118.04983</ele>
        <time>2019-09-11T14:58:11Z</time>
      </trkpt>
      <trkpt lat="48.46195" lon="-2.03841">
        <ele>117.45304</ele>
        <time>2019-09-11T14:58:12Z</time>
      </trkpt>
      <trkpt lat="48.4619" lon="-2.03843">
        <ele>116.937515</ele>
        <time>2019-09-11T14:58:13Z</time>
      </trkpt>
      <trkpt lat="48.46186" lon="-2.03845">
        <ele>116.65039</ele>
        <time>2019-09-11T14:58:14Z</time>
      </trkpt>
      <trkpt lat="48.46182" lon="-2.03847">
        <ele>116.24754</ele>
        <time>2019-09-11T14:58:15Z</time>
      </trkpt>
      <trkpt lat="48.46177" lon="-2.03849">
        <ele>115.66326</ele>
        <time>2019-09-11T14:58:16Z</time>
      </trkpt>
      <trkpt lat="48.46172" lon="-2.03851">
        <ele>115.30983</ele>
        <time>2019-09-11T14:58:17Z</time>
      </trkpt>
      <trkpt lat="48.46167" lon="-2.03853">
        <ele>114.686966</ele>
        <time>2019-09-11T14:58:18Z</time>
      </trkpt>
      <trkpt lat="48.46161" lon="-2.03856">
        <ele>114.26745</ele>
        <time>2019-09-11T14:58:19Z</time>
      </trkpt>
      <trkpt lat="48.46154" lon="-2.03859">
        <ele>114.38206</ele>
        <time>2019-09-11T14:58:20Z</time>
      </trkpt>
      <trkpt lat="48.46146" lon="-2.03863">
        <ele>114.7874</ele>
        <time>2019-09-11T14:58:21Z</time>
      </trkpt>
      <trkpt lat="48.46139" lon="-2.03867">
        <ele>115.38635</ele>
        <time>2019-09-11T14:58:22Z</time>
      </trkpt>
      <trkpt lat="48.46132" lon="-2.0387">
        <ele>115.86322</ele>
        <time>2019-09-11T14:58:23Z</time>
      </trkpt>
      <trkpt lat="48.46125" lon="-2.03874">
        <ele>116.59407</ele>
        <time>2019-09-11T14:58:24Z</time>
      </trkpt>
      <trkpt lat="48.46119" lon="-2.03878">
        <ele>117.290924</ele>
        <time>2019-09-11T14:58:25Z</time>
      </trkpt>
      <trkpt lat="48.46112" lon="-2.03881">
        <ele>117.94544</ele>
        <time>2019-09-11T14:58:26Z</time>
      </trkpt>
      <trkpt lat="48.46106" lon="-2.03885">
        <ele>118.43958</ele>
        <time>2019-09-11T14:58:27Z</time>
      </trkpt>
      <trkpt lat="48.46101" lon="-2.03889">
        <ele>119.00501</ele>
        <time>2019-09-11T14:58:28Z</time>
      </trkpt>
      <trkpt lat="48.46095" lon="-2.03892">
        <ele>119.10516</ele>
        <time>2019-09-11T14:58:29Z</time>
      </trkpt>
      <trkpt lat="48.46089" lon="-2.03896">
        <ele>119.43623</ele>
        <time>2019-09-11T14:58:30Z</time>
      </trkpt>
      <trkpt lat="48.46084" lon="-2.039">
        <ele>119.56635</ele>
        <time>2019-09-11T14:58:31Z</time>
      </trkpt>
      <trkpt lat="48.46077" lon="-2.03904">
        <ele>119.454506</ele>
        <time>2019-09-11T14:58:32Z</time>
      </trkpt>
      <trkpt lat="48.46072" lon="-2.03908">
        <ele>119.372025</ele>
        <time>2019-09-11T14:58:33Z</time>
      </trkpt>
      <trkpt lat="48.46066" lon="-2.03913">
        <ele>119.72647</ele>
        <time>2019-09-11T14:58:34Z</time>
      </trkpt>
      <trkpt lat="48.46059" lon="-2.03918">
        <ele>119.40411</ele>
        <time>2019-09-11T14:58:35Z</time>
      </trkpt>
      <trkpt lat="48.46053" lon="-2.03923">
        <ele>119.44792</ele>
        <time>2019-09-11T14:58:36Z</time>
      </trkpt>
      <trkpt lat="48.46047" lon="-2.03928">
        <ele>119.6388</ele>
        <time>2019-09-11T14:58:37Z</time>
      </trkpt>
      <trkpt lat="48.46042" lon="-2.03934">
        <ele>119.64339</ele>
        <time>2019-09-11T14:58:38Z</time>
      </trkpt>
      <trkpt lat="48.46036" lon="-2.0394">
        <ele>119.75278</ele>
        <time>2019-09-11T14:58:39Z</time>
      </trkpt>
      <trkpt lat="48.46031" lon="-2.03946">
        <ele>120.00218</ele>
        <time>2019-09-11T14:58:40Z</time>
      </trkpt>
      <trkpt lat="48.46026" lon="-2.03952">
        <ele>120.29692</ele>
        <time>2019-09-11T14:58:41Z</time>
      </trkpt>
      <trkpt lat="48.46021" lon="-2.03959">
        <ele>120.69409</ele>
        <time>2019-09-11T14:58:42Z</time>
      </trkpt>
      <trkpt lat="48.46016" lon="-2.03966">
        <ele>121.30281</ele>
        <time>2019-09-11T14:58:43Z</time>
      </trkpt>
      <trkpt lat="48.46011" lon="-2.03973">
        <ele>121.77946</ele>
        <time>2019-09-11T14:58:44Z</time>
      </trkpt>
      <trkpt lat="48.46006" lon="-2.03979">
        <ele>122.21196</ele>
        <time>2019-09-11T14:58:45Z</time>
      </trkpt>
      <trkpt lat="48.46002" lon="-2.03985">
        <ele>122.46498</ele>
        <time>2019-09-11T14:58:46Z</time>
      </trkpt>
      <trkpt lat="48.45998" lon="-2.03991">
        <ele>122.88707</ele>
        <time>2019-09-11T14:58:47Z</time>
      </trkpt>
      <trkpt lat="48.45993" lon="-2.03997">
        <ele>122.882675</ele>
        <time>2019-09-11T14:58:48Z</time>
      </trkpt>
      <trkpt lat="48.45989" lon="-2.04002">
        <ele>122.65229</ele>
        <time>2019-09-11T14:58:49Z</time>
      </trkpt>
      <trkpt lat="48.45985" lon="-2.04008">
        <ele>122.52458</ele>
        <time>2019-09-11T14:58:50Z</time>
      </trkpt>
      <trkpt lat="48.45981" lon="-2.04013">
        <ele>122.50211</ele>
        <time>2019-09-11T14:58:51Z</time>
      </trkpt>
      <trkpt lat="48.45977" lon="-2.04018">
        <ele>122.43162</ele>
        <time>2019-09-11T14:58:52Z</time>
      </trkpt>
      <trkpt lat="48.45972" lon="-2.04023">
        <ele>122.55046</ele>
        <time>2019-09-11T14:58:53Z</time>
      </trkpt>
      <trkpt lat="48.45968" lon="-2.04029">
        <ele>122.7784</ele>
        <time>2019-09-11T14:58:54Z</time>
      </trkpt>
      <trkpt lat="48.45963" lon="-2.04034">
        <ele>122.842224</ele>
        <time>2019-09-11T14:58:55Z</time>
      </trkpt>
      <trkpt lat="48.45959" lon="-2.0404">
        <ele>122.96267</ele>
        <time>2019-09-11T14:58:56Z</time>
      </trkpt>
      <trkpt lat="48.45955" lon="-2.04046">
        <ele>123.28802</ele>
        <time>2019-09-11T14:58:57Z</time>
      </trkpt>
      <trkpt lat="48.4595" lon="-2.04052">
        <ele>123.62523</ele>
        <time>2019-09-11T14:58:58Z</time>
      </trkpt>
      <trkpt lat="48.45946" lon="-2.04058">
        <ele>123.55965</ele>
        <time>2019-09-11T14:58:59Z</time>
      </trkpt>
      <trkpt lat="48.45942" lon="-2.04064">
        <ele>124.058426</ele>
        <time>2019-09-11T14:59:00Z</time>
      </trkpt>
      <trkpt lat="48.45939" lon="-2.0407">
        <ele>124.03852</ele>
        <time>2019-09-11T14:59:01Z</time>
      </trkpt>
      <trkpt lat="48.45935" lon="-2.04077">
        <ele>124.477745</ele>
        <time>2019-09-11T14:59:02Z</time>
      </trkpt>
      <trkpt lat="48.45932" lon="-2.04083">
        <ele>124.44019</ele>
        <time>2019-09-11T14:59:03Z</time>
      </trkpt>
      <trkpt lat="48.45929" lon="-2.0409">
        <ele>124.77084</ele>
        <time>2019-09-11T14:59:04Z</time>
      </trkpt>
      <trkpt lat="48.45926" lon="-2.04095">
        <ele>125.094444</ele>
        <time>2019-09-11T14:59:05Z</time>
      </trkpt>
      <trkpt lat="48.45924" lon="-2.04101">
        <ele>124.71363</ele>
        <time>2019-09-11T14:59:06Z</time>
      </trkpt>
      <trkpt lat="48.45923" lon="-2.04108">
        <ele>124.763435</ele>
        <time>2019-09-11T14:59:07Z</time>
      </trkpt>
      <trkpt lat="48.45922" lon="-2.04115">
        <ele>125.579285</ele>
        <time>2019-09-11T14:59:08Z</time>
      </trkpt>
      <trkpt lat="48.45923" lon="-2.04122">
        <ele>126.1888</ele>
        <time>2019-09-11T14:59:09Z</time>
      </trkpt>
      <trkpt lat="48.45922" lon="-2.0413">
        <ele>126.37773</ele>
        <time>2019-09-11T14:59:10Z</time>
      </trkpt>
      <trkpt lat="48.45922" lon="-2.04138">
        <ele>126.99215</ele>
        <time>2019-09-11T14:59:11Z</time>
      </trkpt>
      <trkpt lat="48.45922" lon="-2.04146">
        <ele>127.0195</ele>
        <time>2019-09-11T14:59:12Z</time>
      </trkpt>
      <trkpt lat="48.45922" lon="-2.04154">
        <ele>127.186775</ele>
        <time>2019-09-11T14:59:13Z</time>
      </trkpt>
      <trkpt lat="48.45923" lon="-2.04161">
        <ele>127.19883</ele>
        <time>2019-09-11T14:59:14Z</time>
      </trkpt>
      <trkpt lat="48.45923" lon="-2.04169">
        <ele>127.00744</ele>
        <time>2019-09-11T14:59:15Z</time>
      </trkpt>
      <trkpt lat="48.45923" lon="-2.04176">
        <ele>127.37442</ele>
        <time>2019-09-11T14:59:16Z</time>
      </trkpt>
      <trkpt lat="48.45924" lon="-2.04184">
        <ele>127.96965</ele>
        <time>2019-09-11T14:59:17Z</time>
      </trkpt>
      <trkpt lat="48.45924" lon="-2.04191">
        <ele>128.79686</ele>
        <time>2019-09-11T14:59:18Z</time>
      </trkpt>
      <trkpt lat="48.45924" lon="-2.04198">
        <ele>129.30713</ele>
        <time>2019-09-11T14:59:19Z</time>
      </trkpt>
      <trkpt lat="48.45924" lon="-2.04205">
        <ele>129.92252</ele>
        <time>2019-09-11T14:59:20Z</time>
      </trkpt>
      <trkpt lat="48.45924" lon="-2.04211">
        <ele>130.15349</ele>
        <time>2019-09-11T14:59:21Z</time>
      </trkpt>
      <trkpt lat="48.45923" lon="-2.04216">
        <ele>130.18752</ele>
        <time>2019-09-11T14:59:22Z</time>
      </trkpt>
      <trkpt lat="48.45923" lon="-2.0422">
        <ele>130.31801</ele>
        <time>2019-09-11T14:59:23Z</time>
      </trkpt>
      <trkpt lat="48.45922" lon="-2.04222">
        <ele>130.37743</ele>
        <time>2019-09-11T14:59:24Z</time>
      </trkpt>
      <trkpt lat="48.4592" lon="-2.04225">
        <ele>130.46486</ele>
        <time>2019-09-11T14:59:25Z</time>
      </trkpt>
      <trkpt lat="48.45918" lon="-2.04226">
        <ele>130.71066</ele>
        <time>2019-09-11T14:59:26Z</time>
      </trkpt>
      <trkpt lat="48.45916" lon="-2.04228">
        <ele>131.05128</ele>
        <time>2019-09-11T14:59:27Z</time>
      </trkpt>
      <trkpt lat="48.45913" lon="-2.0423">
        <ele>131.16846</ele>
        <time>2019-09-11T14:59:28Z</time>
      </trkpt>
      <trkpt lat="48.45911" lon="-2.04233">
        <ele>131.09605</ele>
        <time>2019-09-11T14:59:29Z</time>
      </trkpt>
      <trkpt lat="48.4591" lon="-2.04236">
        <ele>131.65665</ele>
        <time>2019-09-11T14:59:30Z</time>
      </trkpt>
      <trkpt lat="48.4591" lon="-2.04242">
        <ele>131.90105</ele>
        <time>2019-09-11T14:59:31Z</time>
      </trkpt>
      <trkpt lat="48.4591" lon="-2.04247">
        <ele>132.61673</ele>
        <time>2019-09-11T14:59:32Z</time>
      </trkpt>
      <trkpt lat="48.4591" lon="-2.04253">
        <ele>133.32782</ele>
        <time>2019-09-11T14:59:33Z</time>
      </trkpt>
      <trkpt lat="48.45911" lon="-2.04256">
        <ele>134.14082</ele>
        <time>2019-09-11T14:59:34Z</time>
      </trkpt>
      <trkpt lat="48.45912" lon="-2.04259">
        <ele>134.58891</ele>
        <time>2019-09-11T14:59:35Z</time>
      </trkpt>
      <trkpt lat="48.45913" lon="-2.04264">
        <ele>135.15558</ele>
        <time>2019-09-11T14:59:36Z</time>
      </trkpt>
      <trkpt lat="48.45913" lon="-2.04268">
        <ele>135.28937</ele>
        <time>2019-09-11T14:59:37Z</time>
      </trkpt>
      <trkpt lat="48.45912" lon="-2.04273">
        <ele>135.42601</ele>
        <time>2019-09-11T14:59:38Z</time>
      </trkpt>
      <trkpt lat="48.45911" lon="-2.04278">
        <ele>135.4832</ele>
        <time>2019-09-11T14:59:39Z</time>
      </trkpt>
      <trkpt lat="48.45911" lon="-2.04283">
        <ele>135.35823</ele>
        <time>2019-09-11T14:59:40Z</time>
      </trkpt>
      <trkpt lat="48.4591" lon="-2.04287">
        <ele>134.84264</ele>
        <time>2019-09-11T14:59:41Z</time>
      </trkpt>
      <trkpt lat="48.4591" lon="-2.04292">
        <ele>134.7364</ele>
        <time>2019-09-11T14:59:42Z</time>
      </trkpt>
      <trkpt lat="48.45909" lon="-2.04296">
        <ele>134.68134</ele>
        <time>2019-09-11T14:59:43Z</time>
      </trkpt>
      <trkpt lat="48.45909" lon="-2.043">
        <ele>135.04854</ele>
        <time>2019-09-11T14:59:44Z</time>
      </trkpt>
      <trkpt lat="48.45909" lon="-2.04304">
        <ele>135.33083</ele>
        <time>2019-09-11T14:59:45Z</time>
      </trkpt>
      <trkpt lat="48.45909" lon="-2.04308">
        <ele>135.78827</ele>
        <time>2019-09-11T14:59:46Z</time>
      </trkpt>
      <trkpt lat="48.45909" lon="-2.04313">
        <ele>135.8786</ele>
        <time>2019-09-11T14:59:47Z</time>
      </trkpt>
      <trkpt lat="48.4591" lon="-2.04318">
        <ele>136.04462</ele>
        <time>2019-09-11T14:59:48Z</time>
      </trkpt>
      <trkpt lat="48.4591" lon="-2.04324">
        <ele>135.78339</ele>
        <time>2019-09-11T14:59:49Z</time>
      </trkpt>
      <trkpt lat="48.45909" lon="-2.04329">
        <ele>135.93434</ele>
        <time>2019-09-11T14:59:50Z</time>
      </trkpt>
      <trkpt lat="48.45908" lon="-2.04335">
        <ele>136.41353</ele>
        <time>2019-09-11T14:59:51Z</time>
      </trkpt>
      <trkpt lat="48.45908" lon="-2.0434">
        <ele>136.52092</ele>
        <time>2019-09-11T14:59:52Z</time>
      </trkpt>
      <trkpt lat="48.45907" lon="-2.04346">
        <ele>136.27774</ele>
        <time>2019-09-11T14:59:53Z</time>
      </trkpt>
      <trkpt lat="48.45906" lon="-2.04352">
        <ele>136.42834</ele>
        <time>2019-09-11T14:59:54Z</time>
      </trkpt>
      <trkpt lat="48.45904" lon="-2.04357">
        <ele>136.64351</ele>
        <time>2019-09-11T14:59:55Z</time>
      </trkpt>
      <trkpt lat="48.45902" lon="-2.04362">
        <ele>136.87029</ele>
        <time>2019-09-11T14:59:56Z</time>
      </trkpt>
      <trkpt lat="48.45898" lon="-2.04367">
        <ele>137.51082</ele>
        <time>2019-09-11T14:59:57Z</time>
      </trkpt>
      <trkpt lat="48.45895" lon="-2.04372">
        <ele>137.96262</ele>
        <time>2019-09-11T14:59:58Z</time>
      </trkpt>
      <trkpt lat="48.45893" lon="-2.04377">
        <ele>138.45314</ele>
        <time>2019-09-11T14:59:59Z</time>
      </trkpt>
      <trkpt lat="48.4589" lon="-2.04382">
        <ele>139.45476</ele>
        <time>2019-09-11T15:00:00Z</time>
      </trkpt>
      <trkpt lat="48.45888" lon="-2.04388">
        <ele>139.94014</ele>
        <time>2019-09-11T15:00:01Z</time>
      </trkpt>
      <trkpt lat="48.45886" lon="-2.04393">
        <ele>140.22795</ele>
        <time>2019-09-11T15:00:02Z</time>
      </trkpt>
      <trkpt lat="48.45884" lon="-2.04398">
        <ele>140.27733</ele>
        <time>2019-09-11T15:00:03Z</time>
      </trkpt>
      <trkpt lat="48.45882" lon="-2.04403">
        <ele>140.4825</ele>
        <time>2019-09-11T15:00:04Z</time>
      </trkpt>
      <trkpt lat="48.45881" lon="-2.04408">
        <ele>140.7728</ele>
        <time>2019-09-11T15:00:05Z</time>
      </trkpt>
      <trkpt lat="48.45879" lon="-2.04414">
        <ele>140.98294</ele>
        <time>2019-09-11T15:00:06Z</time>
      </trkpt>
      <trkpt lat="48.45878" lon="-2.04418">
        <ele>141.19759</ele>
        <time>2019-09-11T15:00:07Z</time>
      </trkpt>
      <trkpt lat="48.45875" lon="-2.04423">
        <ele>141.44203</ele>
        <time>2019-09-11T15:00:08Z</time>
      </trkpt>
      <trkpt lat="48.45874" lon="-2.04428">
        <ele>141.62941</ele>
        <time>2019-09-11T15:00:09Z</time>
      </trkpt>
      <trkpt lat="48.45872" lon="-2.04432">
        <ele>141.93439</ele>
        <time>2019-09-11T15:00:10Z</time>
      </trkpt>
      <trkpt lat="48.4587" lon="-2.04436">
        <ele>142.1076</ele>
        <time>2019-09-11T15:00:11Z</time>
      </trkpt>
      <trkpt lat="48.45868" lon="-2.04441">
        <ele>142.34143</ele>
        <time>2019-09-11T15:00:12Z</time>
      </trkpt>
      <trkpt lat="48.45866" lon="-2.04446">
        <ele>142.53877</ele>
        <time>2019-09-11T15:00:13Z</time>
      </trkpt>
      <trkpt lat="48.45864" lon="-2.0445">
        <ele>142.77641</ele>
        <time>2019-09-11T15:00:14Z</time>
      </trkpt>
      <trkpt lat="48.45861" lon="-2.04453">
        <ele>142.76118</ele>
        <time>2019-09-11T15:00:15Z</time>
      </trkpt>
      <trkpt lat="48.45859" lon="-2.04456">
        <ele>142.72966</ele>
        <time>2019-09-11T15:00:16Z</time>
      </trkpt>
      <trkpt lat="48.45856" lon="-2.04459">
        <ele>142.80629</ele>
        <time>2019-09-11T15:00:17Z</time>
      </trkpt>
      <trkpt lat="48.45853" lon="-2.0446">
        <ele>142.56454</ele>
        <time>2019-09-11T15:00:18Z</time>
      </trkpt>
      <trkpt lat="48.4585" lon="-2.04461">
        <ele>142.28488</ele>
        <time>2019-09-11T15:00:19Z</time>
      </trkpt>
      <trkpt lat="48.45847" lon="-2.04462">
        <ele>142.62276</ele>
        <time>2019-09-11T15:00:20Z</time>
      </trkpt>
      <trkpt lat="48.45843" lon="-2.04461">
        <ele>142.39876</ele>
        <time>2019-09-11T15:00:21Z</time>
      </trkpt>
      <trkpt lat="48.45839" lon="-2.04461">
        <ele>142.1302</ele>
        <time>2019-09-11T15:00:22Z</time>
      </trkpt>
      <trkpt lat="48.45834" lon="-2.04459">
        <ele>142.37541</ele>
        <time>2019-09-11T15:00:23Z</time>
      </trkpt>
      <trkpt lat="48.4583" lon="-2.04458">
        <ele>142.71352</ele>
        <time>2019-09-11T15:00:24Z</time>
      </trkpt>
      <trkpt lat="48.45825" lon="-2.04458">
        <ele>142.63982</ele>
        <time>2019-09-11T15:00:25Z</time>
      </trkpt>
      <trkpt lat="48.45822" lon="-2.04461">
        <ele>142.58232</ele>
        <time>2019-09-11T15:00:26Z</time>
      </trkpt>
      <trkpt lat="48.4582" lon="-2.04468">
        <ele>141.95462</ele>
        <time>2019-09-11T15:00:27Z</time>
      </trkpt>
      <trkpt lat="48.4582" lon="-2.04474">
        <ele>142.04599</ele>
        <time>2019-09-11T15:00:28Z</time>
      </trkpt>
      <trkpt lat="48.45821" lon="-2.04481">
        <ele>142.45572</ele>
        <time>2019-09-11T15:00:29Z</time>
      </trkpt>
      <trkpt lat="48.45824" lon="-2.04487">
        <ele>143.00244</ele>
        <time>2019-09-11T15:00:30Z</time>
      </trkpt>
      <trkpt lat="48.45827" lon="-2.04492">
        <ele>143.60785</ele>
        <time>2019-09-11T15:00:31Z</time>
      </trkpt>
      <trkpt lat="48.45829" lon="-2.04498">
        <ele>143.62643</ele>
        <time>2019-09-11T15:00:32Z</time>
      </trkpt>
      <trkpt lat="48.45831" lon="-2.04504">
        <ele>144.00166</ele>
        <time>2019-09-11T15:00:33Z</time>
      </trkpt>
      <trkpt lat="48.45831" lon="-2.04511">
        <ele>144.03983</ele>
        <time>2019-09-11T15:00:34Z</time>
      </trkpt>
      <trkpt lat="48.45832" lon="-2.04519">
        <ele>142.82527</ele>
        <time>2019-09-11T15:00:35Z</time>
      </trkpt>
      <trkpt lat="48.45834" lon="-2.04526">
        <ele>143.11679</ele>
        <time>2019-09-11T15:00:36Z</time>
      </trkpt>
      <trkpt lat="48.45833" lon="-2.04535">
        <ele>143.36278</ele>
        <time>2019-09-11T15:00:37Z</time>
      </trkpt>
      <trkpt lat="48.45832" lon="-2.04544">
        <ele>143.59204</ele>
        <time>2019-09-11T15:00:38Z</time>
      </trkpt>
      <trkpt lat="48.45832" lon="-2.04553">
        <ele>143.3853</ele>
        <time>2019-09-11T15:00:39Z</time>
      </trkpt>
      <trkpt lat="48.45833" lon="-2.04561">
        <ele>143.7448</ele>
        <time>2019-09-11T15:00:40Z</time>
      </trkpt>
      <trkpt lat="48.45834" lon="-2.0457">
        <ele>143.79108</ele>
        <time>2019-09-11T15:00:41Z</time>
      </trkpt>
      <trkpt lat="48.45834" lon="-2.04579">
        <ele>143.8899</ele>
        <time>2019-09-11T15:00:42Z</time>
      </trkpt>
      <trkpt lat="48.45834" lon="-2.04587">
        <ele>144.84077</ele>
        <time>2019-09-11T15:00:43Z</time>
      </trkpt>
      <trkpt lat="48.45832" lon="-2.04596">
        <ele>144.8546</ele>
        <time>2019-09-11T15:00:44Z</time>
      </trkpt>
      <trkpt lat="48.45832" lon="-2.04605">
        <ele>144.9373</ele>
        <time>2019-09-11T15:00:45Z</time>
      </trkpt>
      <trkpt lat="48.45832" lon="-2.04614">
        <ele>144.93094</ele>
        <time>2019-09-11T15:00:46Z</time>
      </trkpt>
      <trkpt lat="48.45833" lon="-2.04623">
        <ele>145.12456</ele>
        <time>2019-09-11T15:00:47Z</time>
      </trkpt>
      <trkpt lat="48.45834" lon="-2.04632">
        <ele>145.4387</ele>
        <time>2019-09-11T15:00:48Z</time>
      </trkpt>
      <trkpt lat="48.45835" lon="-2.04641">
        <ele>145.2854</ele>
        <time>2019-09-11T15:00:49Z</time>
      </trkpt>
      <trkpt lat="48.45835" lon="-2.0465">
        <ele>145.12814</ele>
        <time>2019-09-11T15:00:50Z</time>
      </trkpt>
      <trkpt lat="48.45836" lon="-2.04659">
        <ele>145.11523</ele>
        <time>2019-09-11T15:00:51Z</time>
      </trkpt>
      <trkpt lat="48.45836" lon="-2.04668">
        <ele>145.20938</ele>
        <time>2019-09-11T15:00:52Z</time>
      </trkpt>
      <trkpt lat="48.45836" lon="-2.04678">
        <ele>145.31822</ele>
        <time>2019-09-11T15:00:53Z</time>
      </trkpt>
      <trkpt lat="48.45837" lon="-2.04688">
        <ele>145.19643</ele>
        <time>2019-09-11T15:00:54Z</time>
      </trkpt>
      <trkpt lat="48.45837" lon="-2.04697">
        <ele>145.40262</ele>
        <time>2019-09-11T15:00:55Z</time>
      </trkpt>
      <trkpt lat="48.45839" lon="-2.04706">
        <ele>145.28606</ele>
        <time>2019-09-11T15:00:56Z</time>
      </trkpt>
      <trkpt lat="48.45839" lon="-2.04716">
        <ele>145.06302</ele>
        <time>2019-09-11T15:00:57Z</time>
      </trkpt>
      <trkpt lat="48.45838" lon="-2.04726">
        <ele>144.92079</ele>
        <time>2019-09-11T15:00:58Z</time>
      </trkpt>
      <trkpt lat="48.45838" lon="-2.04736">
        <ele>145.23465</ele>
        <time>2019-09-11T15:00:59Z</time>
      </trkpt>
      <trkpt lat="48.45837" lon="-2.04746">
        <ele>145.26749</ele>
        <time>2019-09-11T15:01:00Z</time>
      </trkpt>
      <trkpt lat="48.45836" lon="-2.04755">
        <ele>145.28365</ele>
        <time>2019-09-11T15:01:01Z</time>
      </trkpt>
      <trkpt lat="48.45836" lon="-2.04764">
        <ele>145.0745</ele>
        <time>2019-09-11T15:01:02Z</time>
      </trkpt>
      <trkpt lat="48.45836" lon="-2.04772">
        <ele>144.81474</ele>
        <time>2019-09-11T15:01:03Z</time>
      </trkpt>
      <trkpt lat="48.45833" lon="-2.04779">
        <ele>144.2036</ele>
        <time>2019-09-11T15:01:04Z</time>
      </trkpt>
      <trkpt lat="48.4583" lon="-2.04783">
        <ele>144.01993</ele>
        <time>2019-09-11T15:01:05Z</time>
      </trkpt>
      <trkpt lat="48.45827" lon="-2.04785">
        <ele>143.95573</ele>
        <time>2019-09-11T15:01:06Z</time>
      </trkpt>
      <trkpt lat="48.45823" lon="-2.04786">
        <ele>143.94821</ele>
        <time>2019-09-11T15:01:07Z</time>
      </trkpt>
      <trkpt lat="48.45818" lon="-2.04786">
        <ele>143.77045</ele>
        <time>2019-09-11T15:01:08Z</time>
      </trkpt>
      <trkpt lat="48.45814" lon="-2.04786">
        <ele>144.0688</ele>
        <time>2019-09-11T15:01:09Z</time>
      </trkpt>
      <trkpt lat="48.4581" lon="-2.04785">
        <ele>144.27057</ele>
        <time>2019-09-11T15:01:10Z</time>
      </trkpt>
      <trkpt lat="48.45806" lon="-2.04785">
        <ele>144.40952</ele>
        <time>2019-09-11T15:01:11Z</time>
      </trkpt>
      <trkpt lat="48.45802" lon="-2.04784">
        <ele>144.60686</ele>
        <time>2019-09-11T15:01:12Z</time>
      </trkpt>
      <trkpt lat="48.45798" lon="-2.04783">
        <ele>144.67819</ele>
        <time>2019-09-11T15:01:13Z</time>
      </trkpt>
      <trkpt lat="48.45795" lon="-2.04783">
        <ele>144.91986</ele>
        <time>2019-09-11T15:01:14Z</time>
      </trkpt>
      <trkpt lat="48.45792" lon="-2.04783">
        <ele>145.66573</ele>
        <time>2019-09-11T15:01:15Z</time>
      </trkpt>
      <trkpt lat="48.45789" lon="-2.04784">
        <ele>146.06763</ele>
        <time>2019-09-11T15:01:16Z</time>
      </trkpt>
      <trkpt lat="48.45786" lon="-2.04784">
        <ele>146.89793</ele>
        <time>2019-09-11T15:01:17Z</time>
      </trkpt>
      <trkpt lat="48.45783" lon="-2.04786">
        <ele>147.03703</ele>
        <time>2019-09-11T15:01:18Z</time>
      </trkpt>
      <trkpt lat="48.45781" lon="-2.04788">
        <ele>147.00642</ele>
        <time>2019-09-11T15:01:19Z</time>
      </trkpt>
      <trkpt lat="48.45779" lon="-2.04791">
        <ele>146.6264</ele>
        <time>2019-09-11T15:01:20Z</time>
      </trkpt>
      <trkpt lat="48.45776" lon="-2.04794">
        <ele>146.16612</ele>
        <time>2019-09-11T15:01:21Z</time>
      </trkpt>
      <trkpt lat="48.45775" lon="-2.04797">
        <ele>145.65897</ele>
        <time>2019-09-11T15:01:22Z</time>
      </trkpt>
      <trkpt lat="48.45775" lon="-2.048">
        <ele>143.68356</ele>
        <time>2019-09-11T15:01:23Z</time>
      </trkpt>
      <trkpt lat="48.45773" lon="-2.04803">
        <ele>143.10083</ele>
        <time>2019-09-11T15:01:24Z</time>
      </trkpt>
      <trkpt lat="48.45771" lon="-2.04806">
        <ele>142.61282</ele>
        <time>2019-09-11T15:01:25Z</time>
      </trkpt>
      <trkpt lat="48.45771" lon="-2.0481">
        <ele>142.25354</ele>
        <time>2019-09-11T15:01:26Z</time>
      </trkpt>
      <trkpt lat="48.4577" lon="-2.04814">
        <ele>141.87111</ele>
        <time>2019-09-11T15:01:27Z</time>
      </trkpt>
      <trkpt lat="48.45769" lon="-2.04817">
        <ele>141.23811</ele>
        <time>2019-09-11T15:01:28Z</time>
      </trkpt>
      <trkpt lat="48.45767" lon="-2.0482">
        <ele>141.00526</ele>
        <time>2019-09-11T15:01:29Z</time>
      </trkpt>
    </trkseg>
  </trk>
</gpx>